<?xml version="1.0" encoding="UTF-8" standalone="no" ?>
<gpx xmlns="http://www.topografix.com/GPX/1/1" xmlns:xsi="http://www.w3.org/2001/XMLSchema-instance" xsi:schemaLocation="http://www.topografix.com/GPX/1/1 http://www.topografix.com/GPX/1/1/gpx.xsd" version="1.1" creator="VisuGPX - https://www.visugpx.com">
  <metadata>
    <name>Randonnée Pont ST Pierre</name>
    <desc><![CDATA[Randonnée au départ de Pont St Pierre avec un retour par amfreville sous les monts]]></desc>
  </metadata>
  <trk>
    <name><![CDATA[Randonnée Pont ST Pierre_1]]></name>
    <trkseg>
      <trkpt lat="49.33232" lon="1.28024">
        <ele>16</ele>
        <time>2017-04-18T13:57:32Z</time>
      </trkpt>
      <trkpt lat="49.3323" lon="1.28024">
        <ele>16</ele>
        <time>2017-04-18T13:57:32Z</time>
      </trkpt>
      <trkpt lat="49.33229" lon="1.28022">
        <ele>16</ele>
        <time>2017-04-18T13:57:32Z</time>
      </trkpt>
      <trkpt lat="49.33227" lon="1.2802">
        <ele>16</ele>
        <time>2017-04-18T13:57:32Z</time>
      </trkpt>
      <trkpt lat="49.33225" lon="1.28014">
        <ele>16</ele>
        <time>2017-04-18T13:57:32Z</time>
      </trkpt>
      <trkpt lat="49.33222" lon="1.28007">
        <ele>16</ele>
        <time>2017-04-18T13:57:48Z</time>
      </trkpt>
      <trkpt lat="49.3322" lon="1.28001">
        <ele>16</ele>
        <time>2017-04-18T13:57:48Z</time>
      </trkpt>
      <trkpt lat="49.33218" lon="1.27993">
        <ele>16</ele>
        <time>2017-04-18T13:57:48Z</time>
      </trkpt>
      <trkpt lat="49.33216" lon="1.27985">
        <ele>16</ele>
        <time>2017-04-18T13:57:48Z</time>
      </trkpt>
      <trkpt lat="49.33214" lon="1.27977">
        <ele>16</ele>
        <time>2017-04-18T13:58:04Z</time>
      </trkpt>
      <trkpt lat="49.33212" lon="1.27968">
        <ele>16</ele>
        <time>2017-04-18T13:58:04Z</time>
      </trkpt>
      <trkpt lat="49.33211" lon="1.27959">
        <ele>16</ele>
        <time>2017-04-18T13:58:04Z</time>
      </trkpt>
      <trkpt lat="49.3321" lon="1.27952">
        <ele>15</ele>
        <time>2017-04-18T13:58:04Z</time>
      </trkpt>
      <trkpt lat="49.33209" lon="1.27944">
        <ele>15</ele>
        <time>2017-04-18T13:58:20Z</time>
      </trkpt>
      <trkpt lat="49.33201" lon="1.27946">
        <ele>15</ele>
        <time>2017-04-18T13:58:20Z</time>
      </trkpt>
      <trkpt lat="49.33195" lon="1.27954">
        <ele>15</ele>
        <time>2017-04-18T13:58:20Z</time>
      </trkpt>
      <trkpt lat="49.33189" lon="1.27958">
        <ele>15</ele>
        <time>2017-04-18T13:58:20Z</time>
      </trkpt>
      <trkpt lat="49.33184" lon="1.27958">
        <ele>15</ele>
        <time>2017-04-18T13:58:36Z</time>
      </trkpt>
      <trkpt lat="49.33178" lon="1.27957">
        <ele>15</ele>
        <time>2017-04-18T13:58:36Z</time>
      </trkpt>
      <trkpt lat="49.33173" lon="1.27959">
        <ele>16</ele>
        <time>2017-04-18T13:58:36Z</time>
      </trkpt>
      <trkpt lat="49.33168" lon="1.2796">
        <ele>16</ele>
        <time>2017-04-18T13:58:36Z</time>
      </trkpt>
      <trkpt lat="49.33164" lon="1.27965">
        <ele>16</ele>
        <time>2017-04-18T13:58:52Z</time>
      </trkpt>
      <trkpt lat="49.3316" lon="1.27971">
        <ele>16</ele>
        <time>2017-04-18T13:58:52Z</time>
      </trkpt>
      <trkpt lat="49.33156" lon="1.27975">
        <ele>16</ele>
        <time>2017-04-18T13:58:52Z</time>
      </trkpt>
      <trkpt lat="49.33152" lon="1.27981">
        <ele>16</ele>
        <time>2017-04-18T13:58:52Z</time>
      </trkpt>
      <trkpt lat="49.33149" lon="1.2799">
        <ele>16</ele>
        <time>2017-04-18T13:59:08Z</time>
      </trkpt>
      <trkpt lat="49.33146" lon="1.27995">
        <ele>16</ele>
        <time>2017-04-18T13:59:08Z</time>
      </trkpt>
      <trkpt lat="49.33142" lon="1.27999">
        <ele>16</ele>
        <time>2017-04-18T13:59:08Z</time>
      </trkpt>
      <trkpt lat="49.33137" lon="1.28003">
        <ele>16</ele>
        <time>2017-04-18T13:59:08Z</time>
      </trkpt>
      <trkpt lat="49.33132" lon="1.28005">
        <ele>16</ele>
        <time>2017-04-18T13:59:24Z</time>
      </trkpt>
      <trkpt lat="49.33127" lon="1.28007">
        <ele>16</ele>
        <time>2017-04-18T13:59:24Z</time>
      </trkpt>
      <trkpt lat="49.33123" lon="1.28012">
        <ele>18</ele>
        <time>2017-04-18T13:59:24Z</time>
      </trkpt>
      <trkpt lat="49.33118" lon="1.28015">
        <ele>18</ele>
        <time>2017-04-18T13:59:24Z</time>
      </trkpt>
      <trkpt lat="49.33113" lon="1.28018">
        <ele>18</ele>
        <time>2017-04-18T13:59:40Z</time>
      </trkpt>
      <trkpt lat="49.33109" lon="1.2802">
        <ele>18</ele>
        <time>2017-04-18T13:59:40Z</time>
      </trkpt>
      <trkpt lat="49.33107" lon="1.28021">
        <ele>18</ele>
        <time>2017-04-18T13:59:40Z</time>
      </trkpt>
      <trkpt lat="49.33103" lon="1.28026">
        <ele>18</ele>
        <time>2017-04-18T13:59:40Z</time>
      </trkpt>
      <trkpt lat="49.33098" lon="1.28028">
        <ele>18</ele>
        <time>2017-04-18T13:59:56Z</time>
      </trkpt>
      <trkpt lat="49.33094" lon="1.28032">
        <ele>18</ele>
        <time>2017-04-18T13:59:56Z</time>
      </trkpt>
      <trkpt lat="49.33091" lon="1.28037">
        <ele>18</ele>
        <time>2017-04-18T13:59:56Z</time>
      </trkpt>
      <trkpt lat="49.33088" lon="1.28039">
        <ele>18</ele>
        <time>2017-04-18T13:59:56Z</time>
      </trkpt>
      <trkpt lat="49.33085" lon="1.28037">
        <ele>18</ele>
        <time>2017-04-18T14:00:12Z</time>
      </trkpt>
      <trkpt lat="49.33083" lon="1.28031">
        <ele>18</ele>
        <time>2017-04-18T14:00:12Z</time>
      </trkpt>
      <trkpt lat="49.3308" lon="1.28027">
        <ele>18</ele>
        <time>2017-04-18T14:00:12Z</time>
      </trkpt>
      <trkpt lat="49.33074" lon="1.28034">
        <ele>18</ele>
        <time>2017-04-18T14:00:12Z</time>
      </trkpt>
      <trkpt lat="49.33075" lon="1.28033">
        <ele>18</ele>
        <time>2017-04-18T14:00:28Z</time>
      </trkpt>
      <trkpt lat="49.3307" lon="1.28034">
        <ele>18</ele>
        <time>2017-04-18T14:00:28Z</time>
      </trkpt>
      <trkpt lat="49.33068" lon="1.28029">
        <ele>18</ele>
        <time>2017-04-18T14:00:28Z</time>
      </trkpt>
      <trkpt lat="49.33066" lon="1.28024">
        <ele>18</ele>
        <time>2017-04-18T14:00:28Z</time>
      </trkpt>
      <trkpt lat="49.33063" lon="1.28023">
        <ele>18</ele>
        <time>2017-04-18T14:00:44Z</time>
      </trkpt>
      <trkpt lat="49.33059" lon="1.28025">
        <ele>18</ele>
        <time>2017-04-18T14:00:44Z</time>
      </trkpt>
      <trkpt lat="49.33055" lon="1.28023">
        <ele>18</ele>
        <time>2017-04-18T14:00:44Z</time>
      </trkpt>
      <trkpt lat="49.33051" lon="1.28022">
        <ele>18</ele>
        <time>2017-04-18T14:00:44Z</time>
      </trkpt>
      <trkpt lat="49.33047" lon="1.28019">
        <ele>18</ele>
        <time>2017-04-18T14:01:00Z</time>
      </trkpt>
      <trkpt lat="49.33044" lon="1.28016">
        <ele>18</ele>
        <time>2017-04-18T14:01:00Z</time>
      </trkpt>
      <trkpt lat="49.33041" lon="1.2801">
        <ele>27</ele>
        <time>2017-04-18T14:01:00Z</time>
      </trkpt>
      <trkpt lat="49.33037" lon="1.28007">
        <ele>27</ele>
        <time>2017-04-18T14:01:00Z</time>
      </trkpt>
      <trkpt lat="49.33033" lon="1.28005">
        <ele>27</ele>
        <time>2017-04-18T14:01:16Z</time>
      </trkpt>
      <trkpt lat="49.33029" lon="1.28007">
        <ele>27</ele>
        <time>2017-04-18T14:01:16Z</time>
      </trkpt>
      <trkpt lat="49.33026" lon="1.28013">
        <ele>27</ele>
        <time>2017-04-18T14:01:16Z</time>
      </trkpt>
      <trkpt lat="49.33022" lon="1.28016">
        <ele>27</ele>
        <time>2017-04-18T14:01:16Z</time>
      </trkpt>
      <trkpt lat="49.33021" lon="1.28022">
        <ele>27</ele>
        <time>2017-04-18T14:01:32Z</time>
      </trkpt>
      <trkpt lat="49.33018" lon="1.28025">
        <ele>27</ele>
        <time>2017-04-18T14:01:32Z</time>
      </trkpt>
      <trkpt lat="49.33015" lon="1.28029">
        <ele>27</ele>
        <time>2017-04-18T14:01:32Z</time>
      </trkpt>
      <trkpt lat="49.33011" lon="1.2803">
        <ele>27</ele>
        <time>2017-04-18T14:01:32Z</time>
      </trkpt>
      <trkpt lat="49.33008" lon="1.28032">
        <ele>27</ele>
        <time>2017-04-18T14:01:48Z</time>
      </trkpt>
      <trkpt lat="49.33006" lon="1.28039">
        <ele>27</ele>
        <time>2017-04-18T14:01:48Z</time>
      </trkpt>
      <trkpt lat="49.33004" lon="1.28046">
        <ele>36</ele>
        <time>2017-04-18T14:01:48Z</time>
      </trkpt>
      <trkpt lat="49.33001" lon="1.28053">
        <ele>36</ele>
        <time>2017-04-18T14:01:48Z</time>
      </trkpt>
      <trkpt lat="49.33" lon="1.28061">
        <ele>36</ele>
        <time>2017-04-18T14:02:04Z</time>
      </trkpt>
      <trkpt lat="49.32998" lon="1.28066">
        <ele>36</ele>
        <time>2017-04-18T14:02:04Z</time>
      </trkpt>
      <trkpt lat="49.32995" lon="1.28068">
        <ele>36</ele>
        <time>2017-04-18T14:02:04Z</time>
      </trkpt>
      <trkpt lat="49.32994" lon="1.28073">
        <ele>36</ele>
        <time>2017-04-18T14:02:04Z</time>
      </trkpt>
      <trkpt lat="49.32995" lon="1.2808">
        <ele>36</ele>
        <time>2017-04-18T14:02:20Z</time>
      </trkpt>
      <trkpt lat="49.32995" lon="1.28085">
        <ele>36</ele>
        <time>2017-04-18T14:02:20Z</time>
      </trkpt>
      <trkpt lat="49.32994" lon="1.2809">
        <ele>36</ele>
        <time>2017-04-18T14:02:20Z</time>
      </trkpt>
      <trkpt lat="49.32991" lon="1.28093">
        <ele>36</ele>
        <time>2017-04-18T14:02:20Z</time>
      </trkpt>
      <trkpt lat="49.32987" lon="1.28098">
        <ele>36</ele>
        <time>2017-04-18T14:02:36Z</time>
      </trkpt>
      <trkpt lat="49.32984" lon="1.281">
        <ele>36</ele>
        <time>2017-04-18T14:02:36Z</time>
      </trkpt>
      <trkpt lat="49.32982" lon="1.28105">
        <ele>36</ele>
        <time>2017-04-18T14:02:36Z</time>
      </trkpt>
      <trkpt lat="49.32979" lon="1.28112">
        <ele>36</ele>
        <time>2017-04-18T14:02:36Z</time>
      </trkpt>
      <trkpt lat="49.32977" lon="1.28116">
        <ele>36</ele>
        <time>2017-04-18T14:02:56Z</time>
      </trkpt>
      <trkpt lat="49.32973" lon="1.28116">
        <ele>36</ele>
        <time>2017-04-18T14:02:56Z</time>
      </trkpt>
      <trkpt lat="49.3297" lon="1.28117">
        <ele>36</ele>
        <time>2017-04-18T14:02:56Z</time>
      </trkpt>
      <trkpt lat="49.32969" lon="1.2812">
        <ele>36</ele>
        <time>2017-04-18T14:02:56Z</time>
      </trkpt>
      <trkpt lat="49.32967" lon="1.28125">
        <ele>36</ele>
        <time>2017-04-18T14:02:56Z</time>
      </trkpt>
      <trkpt lat="49.32966" lon="1.28129">
        <ele>37</ele>
        <time>2017-04-18T14:03:16Z</time>
      </trkpt>
      <trkpt lat="49.32963" lon="1.2813">
        <ele>37</ele>
        <time>2017-04-18T14:03:16Z</time>
      </trkpt>
      <trkpt lat="49.32962" lon="1.28133">
        <ele>37</ele>
        <time>2017-04-18T14:03:16Z</time>
      </trkpt>
      <trkpt lat="49.32961" lon="1.28137">
        <ele>37</ele>
        <time>2017-04-18T14:03:16Z</time>
      </trkpt>
      <trkpt lat="49.32959" lon="1.28138">
        <ele>37</ele>
        <time>2017-04-18T14:03:16Z</time>
      </trkpt>
      <trkpt lat="49.32956" lon="1.28137">
        <ele>40</ele>
        <time>2017-04-18T14:03:32Z</time>
      </trkpt>
      <trkpt lat="49.32953" lon="1.28134">
        <ele>40</ele>
        <time>2017-04-18T14:03:32Z</time>
      </trkpt>
      <trkpt lat="49.3295" lon="1.28129">
        <ele>40</ele>
        <time>2017-04-18T14:03:32Z</time>
      </trkpt>
      <trkpt lat="49.32948" lon="1.28125">
        <ele>40</ele>
        <time>2017-04-18T14:03:32Z</time>
      </trkpt>
      <trkpt lat="49.32944" lon="1.28122">
        <ele>46</ele>
        <time>2017-04-18T14:03:48Z</time>
      </trkpt>
      <trkpt lat="49.32942" lon="1.28117">
        <ele>46</ele>
        <time>2017-04-18T14:03:48Z</time>
      </trkpt>
      <trkpt lat="49.32941" lon="1.28112">
        <ele>46</ele>
        <time>2017-04-18T14:03:48Z</time>
      </trkpt>
      <trkpt lat="49.32939" lon="1.28107">
        <ele>46</ele>
        <time>2017-04-18T14:03:48Z</time>
      </trkpt>
      <trkpt lat="49.32935" lon="1.28104">
        <ele>46</ele>
        <time>2017-04-18T14:04:04Z</time>
      </trkpt>
      <trkpt lat="49.32933" lon="1.28099">
        <ele>46</ele>
        <time>2017-04-18T14:04:04Z</time>
      </trkpt>
      <trkpt lat="49.3293" lon="1.28097">
        <ele>46</ele>
        <time>2017-04-18T14:04:04Z</time>
      </trkpt>
      <trkpt lat="49.32926" lon="1.28095">
        <ele>46</ele>
        <time>2017-04-18T14:04:04Z</time>
      </trkpt>
      <trkpt lat="49.32923" lon="1.28091">
        <ele>46</ele>
        <time>2017-04-18T14:04:20Z</time>
      </trkpt>
      <trkpt lat="49.3292" lon="1.28088">
        <ele>46</ele>
        <time>2017-04-18T14:04:20Z</time>
      </trkpt>
      <trkpt lat="49.32918" lon="1.28083">
        <ele>46</ele>
        <time>2017-04-18T14:04:20Z</time>
      </trkpt>
      <trkpt lat="49.32915" lon="1.28079">
        <ele>46</ele>
        <time>2017-04-18T14:04:20Z</time>
      </trkpt>
      <trkpt lat="49.3291" lon="1.28079">
        <ele>46</ele>
        <time>2017-04-18T14:04:36Z</time>
      </trkpt>
      <trkpt lat="49.32906" lon="1.28078">
        <ele>46</ele>
        <time>2017-04-18T14:04:36Z</time>
      </trkpt>
      <trkpt lat="49.32903" lon="1.28076">
        <ele>46</ele>
        <time>2017-04-18T14:04:36Z</time>
      </trkpt>
      <trkpt lat="49.329" lon="1.28072">
        <ele>46</ele>
        <time>2017-04-18T14:04:36Z</time>
      </trkpt>
      <trkpt lat="49.32896" lon="1.2807">
        <ele>46</ele>
        <time>2017-04-18T14:04:52Z</time>
      </trkpt>
      <trkpt lat="49.32893" lon="1.28067">
        <ele>46</ele>
        <time>2017-04-18T14:04:52Z</time>
      </trkpt>
      <trkpt lat="49.3289" lon="1.28062">
        <ele>46</ele>
        <time>2017-04-18T14:04:52Z</time>
      </trkpt>
      <trkpt lat="49.32887" lon="1.2806">
        <ele>46</ele>
        <time>2017-04-18T14:04:52Z</time>
      </trkpt>
      <trkpt lat="49.32883" lon="1.28059">
        <ele>46</ele>
        <time>2017-04-18T14:05:08Z</time>
      </trkpt>
      <trkpt lat="49.32879" lon="1.2806">
        <ele>46</ele>
        <time>2017-04-18T14:05:08Z</time>
      </trkpt>
      <trkpt lat="49.32875" lon="1.28057">
        <ele>46</ele>
        <time>2017-04-18T14:05:08Z</time>
      </trkpt>
      <trkpt lat="49.32874" lon="1.2805">
        <ele>52</ele>
        <time>2017-04-18T14:05:08Z</time>
      </trkpt>
      <trkpt lat="49.32871" lon="1.28045">
        <ele>52</ele>
        <time>2017-04-18T14:05:24Z</time>
      </trkpt>
      <trkpt lat="49.32869" lon="1.2804">
        <ele>58</ele>
        <time>2017-04-18T14:05:24Z</time>
      </trkpt>
      <trkpt lat="49.32866" lon="1.28034">
        <ele>58</ele>
        <time>2017-04-18T14:05:24Z</time>
      </trkpt>
      <trkpt lat="49.32864" lon="1.28028">
        <ele>58</ele>
        <time>2017-04-18T14:05:24Z</time>
      </trkpt>
      <trkpt lat="49.32865" lon="1.2802">
        <ele>58</ele>
        <time>2017-04-18T14:05:40Z</time>
      </trkpt>
      <trkpt lat="49.32863" lon="1.28014">
        <ele>58</ele>
        <time>2017-04-18T14:05:40Z</time>
      </trkpt>
      <trkpt lat="49.32859" lon="1.28011">
        <ele>58</ele>
        <time>2017-04-18T14:05:41Z</time>
      </trkpt>
      <trkpt lat="49.32855" lon="1.28008">
        <ele>58</ele>
        <time>2017-04-18T14:05:41Z</time>
      </trkpt>
      <trkpt lat="49.3285" lon="1.28005">
        <ele>58</ele>
        <time>2017-04-18T14:05:56Z</time>
      </trkpt>
      <trkpt lat="49.32848" lon="1.28">
        <ele>58</ele>
        <time>2017-04-18T14:05:56Z</time>
      </trkpt>
      <trkpt lat="49.32847" lon="1.27993">
        <ele>58</ele>
        <time>2017-04-18T14:05:56Z</time>
      </trkpt>
      <trkpt lat="49.32847" lon="1.27986">
        <ele>58</ele>
        <time>2017-04-18T14:05:56Z</time>
      </trkpt>
      <trkpt lat="49.32846" lon="1.2798">
        <ele>58</ele>
        <time>2017-04-18T14:06:12Z</time>
      </trkpt>
      <trkpt lat="49.32843" lon="1.27975">
        <ele>58</ele>
        <time>2017-04-18T14:06:12Z</time>
      </trkpt>
      <trkpt lat="49.32843" lon="1.27968">
        <ele>58</ele>
        <time>2017-04-18T14:06:12Z</time>
      </trkpt>
      <trkpt lat="49.3284" lon="1.27963">
        <ele>58</ele>
        <time>2017-04-18T14:06:12Z</time>
      </trkpt>
      <trkpt lat="49.32837" lon="1.27958">
        <ele>60</ele>
        <time>2017-04-18T14:06:28Z</time>
      </trkpt>
      <trkpt lat="49.32833" lon="1.27954">
        <ele>60</ele>
        <time>2017-04-18T14:06:28Z</time>
      </trkpt>
      <trkpt lat="49.32833" lon="1.27947">
        <ele>60</ele>
        <time>2017-04-18T14:06:28Z</time>
      </trkpt>
      <trkpt lat="49.32829" lon="1.27945">
        <ele>60</ele>
        <time>2017-04-18T14:06:28Z</time>
      </trkpt>
      <trkpt lat="49.32823" lon="1.27944">
        <ele>60</ele>
        <time>2017-04-18T14:06:44Z</time>
      </trkpt>
      <trkpt lat="49.32818" lon="1.27946">
        <ele>60</ele>
        <time>2017-04-18T14:06:44Z</time>
      </trkpt>
      <trkpt lat="49.32814" lon="1.27946">
        <ele>60</ele>
        <time>2017-04-18T14:06:44Z</time>
      </trkpt>
      <trkpt lat="49.3281" lon="1.2795">
        <ele>60</ele>
        <time>2017-04-18T14:06:44Z</time>
      </trkpt>
      <trkpt lat="49.32807" lon="1.27949">
        <ele>60</ele>
        <time>2017-04-18T14:07:00Z</time>
      </trkpt>
      <trkpt lat="49.32804" lon="1.27946">
        <ele>60</ele>
        <time>2017-04-18T14:07:00Z</time>
      </trkpt>
      <trkpt lat="49.32802" lon="1.27941">
        <ele>60</ele>
        <time>2017-04-18T14:07:00Z</time>
      </trkpt>
      <trkpt lat="49.328" lon="1.27939">
        <ele>60</ele>
        <time>2017-04-18T14:07:00Z</time>
      </trkpt>
      <trkpt lat="49.32795" lon="1.27944">
        <ele>60</ele>
        <time>2017-04-18T14:07:16Z</time>
      </trkpt>
      <trkpt lat="49.32792" lon="1.27945">
        <ele>60</ele>
        <time>2017-04-18T14:07:16Z</time>
      </trkpt>
      <trkpt lat="49.32788" lon="1.27945">
        <ele>72</ele>
        <time>2017-04-18T14:07:16Z</time>
      </trkpt>
      <trkpt lat="49.32784" lon="1.27942">
        <ele>72</ele>
        <time>2017-04-18T14:07:17Z</time>
      </trkpt>
      <trkpt lat="49.3278" lon="1.27942">
        <ele>72</ele>
        <time>2017-04-18T14:07:32Z</time>
      </trkpt>
      <trkpt lat="49.32776" lon="1.27943">
        <ele>72</ele>
        <time>2017-04-18T14:07:32Z</time>
      </trkpt>
      <trkpt lat="49.32773" lon="1.27942">
        <ele>72</ele>
        <time>2017-04-18T14:07:32Z</time>
      </trkpt>
      <trkpt lat="49.32769" lon="1.27939">
        <ele>72</ele>
        <time>2017-04-18T14:07:32Z</time>
      </trkpt>
      <trkpt lat="49.32765" lon="1.27941">
        <ele>72</ele>
        <time>2017-04-18T14:07:48Z</time>
      </trkpt>
      <trkpt lat="49.32761" lon="1.27935">
        <ele>72</ele>
        <time>2017-04-18T14:07:48Z</time>
      </trkpt>
      <trkpt lat="49.32756" lon="1.27932">
        <ele>72</ele>
        <time>2017-04-18T14:07:48Z</time>
      </trkpt>
      <trkpt lat="49.32753" lon="1.27929">
        <ele>72</ele>
        <time>2017-04-18T14:07:48Z</time>
      </trkpt>
      <trkpt lat="49.32751" lon="1.27925">
        <ele>72</ele>
        <time>2017-04-18T14:08:04Z</time>
      </trkpt>
      <trkpt lat="49.3275" lon="1.27919">
        <ele>72</ele>
        <time>2017-04-18T14:08:04Z</time>
      </trkpt>
      <trkpt lat="49.32745" lon="1.2792">
        <ele>72</ele>
        <time>2017-04-18T14:08:04Z</time>
      </trkpt>
      <trkpt lat="49.32741" lon="1.27922">
        <ele>72</ele>
        <time>2017-04-18T14:08:04Z</time>
      </trkpt>
      <trkpt lat="49.32738" lon="1.2792">
        <ele>72</ele>
        <time>2017-04-18T14:08:20Z</time>
      </trkpt>
      <trkpt lat="49.32734" lon="1.27919">
        <ele>72</ele>
        <time>2017-04-18T14:08:20Z</time>
      </trkpt>
      <trkpt lat="49.3273" lon="1.27921">
        <ele>72</ele>
        <time>2017-04-18T14:08:20Z</time>
      </trkpt>
      <trkpt lat="49.32728" lon="1.2793">
        <ele>72</ele>
        <time>2017-04-18T14:08:20Z</time>
      </trkpt>
      <trkpt lat="49.32726" lon="1.27936">
        <ele>72</ele>
        <time>2017-04-18T14:08:36Z</time>
      </trkpt>
      <trkpt lat="49.32728" lon="1.27931">
        <ele>72</ele>
        <time>2017-04-18T14:08:36Z</time>
      </trkpt>
      <trkpt lat="49.32728" lon="1.27924">
        <ele>72</ele>
        <time>2017-04-18T14:08:36Z</time>
      </trkpt>
      <trkpt lat="49.32726" lon="1.27916">
        <ele>72</ele>
        <time>2017-04-18T14:08:36Z</time>
      </trkpt>
      <trkpt lat="49.32725" lon="1.27908">
        <ele>72</ele>
        <time>2017-04-18T14:08:52Z</time>
      </trkpt>
      <trkpt lat="49.32724" lon="1.27901">
        <ele>72</ele>
        <time>2017-04-18T14:08:52Z</time>
      </trkpt>
      <trkpt lat="49.32725" lon="1.27899">
        <ele>72</ele>
        <time>2017-04-18T14:08:52Z</time>
      </trkpt>
      <trkpt lat="49.32725" lon="1.27894">
        <ele>72</ele>
        <time>2017-04-18T14:08:52Z</time>
      </trkpt>
      <trkpt lat="49.32723" lon="1.27892">
        <ele>72</ele>
        <time>2017-04-18T14:09:08Z</time>
      </trkpt>
      <trkpt lat="49.32721" lon="1.27889">
        <ele>72</ele>
        <time>2017-04-18T14:09:08Z</time>
      </trkpt>
      <trkpt lat="49.32716" lon="1.27885">
        <ele>72</ele>
        <time>2017-04-18T14:09:08Z</time>
      </trkpt>
      <trkpt lat="49.3269" lon="1.27898">
        <ele>88</ele>
        <time>2017-04-18T14:09:08Z</time>
      </trkpt>
      <trkpt lat="49.32688" lon="1.27896">
        <ele>88</ele>
        <time>2017-04-18T14:09:24Z</time>
      </trkpt>
      <trkpt lat="49.32684" lon="1.27895">
        <ele>88</ele>
        <time>2017-04-18T14:09:24Z</time>
      </trkpt>
      <trkpt lat="49.3268" lon="1.27894">
        <ele>88</ele>
        <time>2017-04-18T14:09:24Z</time>
      </trkpt>
      <trkpt lat="49.32676" lon="1.27893">
        <ele>88</ele>
        <time>2017-04-18T14:09:24Z</time>
      </trkpt>
      <trkpt lat="49.32672" lon="1.27896">
        <ele>88</ele>
        <time>2017-04-18T14:09:40Z</time>
      </trkpt>
      <trkpt lat="49.32668" lon="1.27895">
        <ele>88</ele>
        <time>2017-04-18T14:09:40Z</time>
      </trkpt>
      <trkpt lat="49.32664" lon="1.27895">
        <ele>88</ele>
        <time>2017-04-18T14:09:40Z</time>
      </trkpt>
      <trkpt lat="49.32661" lon="1.27895">
        <ele>88</ele>
        <time>2017-04-18T14:09:40Z</time>
      </trkpt>
      <trkpt lat="49.32655" lon="1.27895">
        <ele>88</ele>
        <time>2017-04-18T14:09:56Z</time>
      </trkpt>
      <trkpt lat="49.32652" lon="1.27902">
        <ele>88</ele>
        <time>2017-04-18T14:09:56Z</time>
      </trkpt>
      <trkpt lat="49.32651" lon="1.27909">
        <ele>88</ele>
        <time>2017-04-18T14:09:56Z</time>
      </trkpt>
      <trkpt lat="49.32646" lon="1.27907">
        <ele>88</ele>
        <time>2017-04-18T14:09:56Z</time>
      </trkpt>
      <trkpt lat="49.3264" lon="1.27902">
        <ele>88</ele>
        <time>2017-04-18T14:10:12Z</time>
      </trkpt>
      <trkpt lat="49.32635" lon="1.27902">
        <ele>88</ele>
        <time>2017-04-18T14:10:12Z</time>
      </trkpt>
      <trkpt lat="49.32632" lon="1.27899">
        <ele>88</ele>
        <time>2017-04-18T14:10:12Z</time>
      </trkpt>
      <trkpt lat="49.32627" lon="1.27903">
        <ele>88</ele>
        <time>2017-04-18T14:10:12Z</time>
      </trkpt>
      <trkpt lat="49.32623" lon="1.27904">
        <ele>102</ele>
        <time>2017-04-18T14:10:28Z</time>
      </trkpt>
      <trkpt lat="49.32618" lon="1.279">
        <ele>102</ele>
        <time>2017-04-18T14:10:28Z</time>
      </trkpt>
      <trkpt lat="49.32616" lon="1.27892">
        <ele>102</ele>
        <time>2017-04-18T14:10:28Z</time>
      </trkpt>
      <trkpt lat="49.32614" lon="1.27885">
        <ele>102</ele>
        <time>2017-04-18T14:10:28Z</time>
      </trkpt>
      <trkpt lat="49.32611" lon="1.27882">
        <ele>102</ele>
        <time>2017-04-18T14:10:44Z</time>
      </trkpt>
      <trkpt lat="49.32605" lon="1.27881">
        <ele>102</ele>
        <time>2017-04-18T14:10:44Z</time>
      </trkpt>
      <trkpt lat="49.32602" lon="1.27876">
        <ele>102</ele>
        <time>2017-04-18T14:10:44Z</time>
      </trkpt>
      <trkpt lat="49.32599" lon="1.27872">
        <ele>106</ele>
        <time>2017-04-18T14:10:44Z</time>
      </trkpt>
      <trkpt lat="49.32595" lon="1.27868">
        <ele>106</ele>
        <time>2017-04-18T14:11:00Z</time>
      </trkpt>
      <trkpt lat="49.32595" lon="1.27859">
        <ele>106</ele>
        <time>2017-04-18T14:11:00Z</time>
      </trkpt>
      <trkpt lat="49.32595" lon="1.27851">
        <ele>106</ele>
        <time>2017-04-18T14:11:00Z</time>
      </trkpt>
      <trkpt lat="49.32592" lon="1.27847">
        <ele>106</ele>
        <time>2017-04-18T14:11:00Z</time>
      </trkpt>
      <trkpt lat="49.32591" lon="1.27842">
        <ele>106</ele>
        <time>2017-04-18T14:11:16Z</time>
      </trkpt>
      <trkpt lat="49.32589" lon="1.27833">
        <ele>106</ele>
        <time>2017-04-18T14:11:16Z</time>
      </trkpt>
      <trkpt lat="49.32585" lon="1.27827">
        <ele>106</ele>
        <time>2017-04-18T14:11:16Z</time>
      </trkpt>
      <trkpt lat="49.32582" lon="1.27821">
        <ele>106</ele>
        <time>2017-04-18T14:11:16Z</time>
      </trkpt>
      <trkpt lat="49.32579" lon="1.27816">
        <ele>106</ele>
        <time>2017-04-18T14:11:32Z</time>
      </trkpt>
      <trkpt lat="49.32578" lon="1.2781">
        <ele>106</ele>
        <time>2017-04-18T14:11:32Z</time>
      </trkpt>
      <trkpt lat="49.32574" lon="1.27808">
        <ele>106</ele>
        <time>2017-04-18T14:11:32Z</time>
      </trkpt>
      <trkpt lat="49.32568" lon="1.27808">
        <ele>106</ele>
        <time>2017-04-18T14:11:32Z</time>
      </trkpt>
      <trkpt lat="49.32564" lon="1.27803">
        <ele>106</ele>
        <time>2017-04-18T14:11:48Z</time>
      </trkpt>
      <trkpt lat="49.32561" lon="1.27797">
        <ele>106</ele>
        <time>2017-04-18T14:11:48Z</time>
      </trkpt>
      <trkpt lat="49.32556" lon="1.27797">
        <ele>106</ele>
        <time>2017-04-18T14:11:48Z</time>
      </trkpt>
      <trkpt lat="49.32552" lon="1.27791">
        <ele>106</ele>
        <time>2017-04-18T14:11:48Z</time>
      </trkpt>
      <trkpt lat="49.32547" lon="1.27788">
        <ele>106</ele>
        <time>2017-04-18T14:12:04Z</time>
      </trkpt>
      <trkpt lat="49.32542" lon="1.2779">
        <ele>110</ele>
        <time>2017-04-18T14:12:04Z</time>
      </trkpt>
      <trkpt lat="49.32538" lon="1.27789">
        <ele>110</ele>
        <time>2017-04-18T14:12:04Z</time>
      </trkpt>
      <trkpt lat="49.32535" lon="1.27784">
        <ele>110</ele>
        <time>2017-04-18T14:12:04Z</time>
      </trkpt>
      <trkpt lat="49.32533" lon="1.27779">
        <ele>110</ele>
        <time>2017-04-18T14:12:20Z</time>
      </trkpt>
      <trkpt lat="49.32529" lon="1.27776">
        <ele>110</ele>
        <time>2017-04-18T14:12:20Z</time>
      </trkpt>
      <trkpt lat="49.32526" lon="1.27774">
        <ele>110</ele>
        <time>2017-04-18T14:12:20Z</time>
      </trkpt>
      <trkpt lat="49.32522" lon="1.27769">
        <ele>110</ele>
        <time>2017-04-18T14:12:20Z</time>
      </trkpt>
      <trkpt lat="49.32519" lon="1.27759">
        <ele>110</ele>
        <time>2017-04-18T14:12:36Z</time>
      </trkpt>
      <trkpt lat="49.32518" lon="1.27749">
        <ele>110</ele>
        <time>2017-04-18T14:12:36Z</time>
      </trkpt>
      <trkpt lat="49.32517" lon="1.27741">
        <ele>110</ele>
        <time>2017-04-18T14:12:36Z</time>
      </trkpt>
      <trkpt lat="49.3251" lon="1.27741">
        <ele>110</ele>
        <time>2017-04-18T14:12:36Z</time>
      </trkpt>
      <trkpt lat="49.32505" lon="1.2774">
        <ele>110</ele>
        <time>2017-04-18T14:12:53Z</time>
      </trkpt>
      <trkpt lat="49.32501" lon="1.27736">
        <ele>110</ele>
        <time>2017-04-18T14:12:53Z</time>
      </trkpt>
      <trkpt lat="49.32496" lon="1.27737">
        <ele>110</ele>
        <time>2017-04-18T14:12:53Z</time>
      </trkpt>
      <trkpt lat="49.32491" lon="1.27731">
        <ele>110</ele>
        <time>2017-04-18T14:12:53Z</time>
      </trkpt>
      <trkpt lat="49.32487" lon="1.27726">
        <ele>110</ele>
        <time>2017-04-18T14:13:09Z</time>
      </trkpt>
      <trkpt lat="49.32481" lon="1.27731">
        <ele>110</ele>
        <time>2017-04-18T14:13:09Z</time>
      </trkpt>
      <trkpt lat="49.32476" lon="1.27734">
        <ele>110</ele>
        <time>2017-04-18T14:13:09Z</time>
      </trkpt>
      <trkpt lat="49.32472" lon="1.27734">
        <ele>110</ele>
        <time>2017-04-18T14:13:09Z</time>
      </trkpt>
      <trkpt lat="49.32466" lon="1.27734">
        <ele>110</ele>
        <time>2017-04-18T14:13:24Z</time>
      </trkpt>
      <trkpt lat="49.32461" lon="1.27736">
        <ele>110</ele>
        <time>2017-04-18T14:13:24Z</time>
      </trkpt>
      <trkpt lat="49.32456" lon="1.27735">
        <ele>108</ele>
        <time>2017-04-18T14:13:24Z</time>
      </trkpt>
      <trkpt lat="49.32453" lon="1.2773">
        <ele>108</ele>
        <time>2017-04-18T14:13:24Z</time>
      </trkpt>
      <trkpt lat="49.32449" lon="1.27727">
        <ele>108</ele>
        <time>2017-04-18T14:13:40Z</time>
      </trkpt>
      <trkpt lat="49.32446" lon="1.27724">
        <ele>108</ele>
        <time>2017-04-18T14:13:40Z</time>
      </trkpt>
      <trkpt lat="49.32442" lon="1.27717">
        <ele>108</ele>
        <time>2017-04-18T14:13:40Z</time>
      </trkpt>
      <trkpt lat="49.32438" lon="1.27713">
        <ele>108</ele>
        <time>2017-04-18T14:13:40Z</time>
      </trkpt>
      <trkpt lat="49.32432" lon="1.27713">
        <ele>108</ele>
        <time>2017-04-18T14:13:56Z</time>
      </trkpt>
      <trkpt lat="49.32428" lon="1.27707">
        <ele>109</ele>
        <time>2017-04-18T14:13:56Z</time>
      </trkpt>
      <trkpt lat="49.32426" lon="1.277">
        <ele>109</ele>
        <time>2017-04-18T14:13:56Z</time>
      </trkpt>
      <trkpt lat="49.32424" lon="1.2769">
        <ele>109</ele>
        <time>2017-04-18T14:13:56Z</time>
      </trkpt>
      <trkpt lat="49.32421" lon="1.27682">
        <ele>109</ele>
        <time>2017-04-18T14:14:12Z</time>
      </trkpt>
      <trkpt lat="49.32417" lon="1.27679">
        <ele>109</ele>
        <time>2017-04-18T14:14:12Z</time>
      </trkpt>
      <trkpt lat="49.32413" lon="1.27676">
        <ele>109</ele>
        <time>2017-04-18T14:14:12Z</time>
      </trkpt>
      <trkpt lat="49.32407" lon="1.27672">
        <ele>109</ele>
        <time>2017-04-18T14:14:12Z</time>
      </trkpt>
      <trkpt lat="49.32395" lon="1.27662">
        <ele>109</ele>
        <time>2017-04-18T14:14:44Z</time>
      </trkpt>
      <trkpt lat="49.32389" lon="1.27654">
        <ele>109</ele>
        <time>2017-04-18T14:14:44Z</time>
      </trkpt>
      <trkpt lat="49.32383" lon="1.2765">
        <ele>109</ele>
        <time>2017-04-18T14:14:44Z</time>
      </trkpt>
      <trkpt lat="49.32376" lon="1.27644">
        <ele>109</ele>
        <time>2017-04-18T14:14:44Z</time>
      </trkpt>
      <trkpt lat="49.3237" lon="1.27643">
        <ele>112</ele>
        <time>2017-04-18T14:14:44Z</time>
      </trkpt>
      <trkpt lat="49.32365" lon="1.27642">
        <ele>112</ele>
        <time>2017-04-18T14:15:00Z</time>
      </trkpt>
      <trkpt lat="49.32358" lon="1.27645">
        <ele>112</ele>
        <time>2017-04-18T14:15:00Z</time>
      </trkpt>
      <trkpt lat="49.32354" lon="1.27642">
        <ele>112</ele>
        <time>2017-04-18T14:15:00Z</time>
      </trkpt>
      <trkpt lat="49.32352" lon="1.27635">
        <ele>112</ele>
        <time>2017-04-18T14:15:00Z</time>
      </trkpt>
      <trkpt lat="49.32352" lon="1.27626">
        <ele>112</ele>
        <time>2017-04-18T14:15:17Z</time>
      </trkpt>
      <trkpt lat="49.32349" lon="1.2762">
        <ele>115</ele>
        <time>2017-04-18T14:15:17Z</time>
      </trkpt>
      <trkpt lat="49.32346" lon="1.27615">
        <ele>115</ele>
        <time>2017-04-18T14:15:17Z</time>
      </trkpt>
      <trkpt lat="49.32345" lon="1.27608">
        <ele>115</ele>
        <time>2017-04-18T14:15:17Z</time>
      </trkpt>
      <trkpt lat="49.32345" lon="1.27602">
        <ele>115</ele>
        <time>2017-04-18T14:15:32Z</time>
      </trkpt>
      <trkpt lat="49.32342" lon="1.27595">
        <ele>115</ele>
        <time>2017-04-18T14:15:32Z</time>
      </trkpt>
      <trkpt lat="49.32334" lon="1.27593">
        <ele>115</ele>
        <time>2017-04-18T14:15:32Z</time>
      </trkpt>
      <trkpt lat="49.32329" lon="1.27592">
        <ele>115</ele>
        <time>2017-04-18T14:15:32Z</time>
      </trkpt>
      <trkpt lat="49.32325" lon="1.27584">
        <ele>115</ele>
        <time>2017-04-18T14:15:48Z</time>
      </trkpt>
      <trkpt lat="49.32322" lon="1.27576">
        <ele>115</ele>
        <time>2017-04-18T14:15:48Z</time>
      </trkpt>
      <trkpt lat="49.32317" lon="1.27577">
        <ele>115</ele>
        <time>2017-04-18T14:15:48Z</time>
      </trkpt>
      <trkpt lat="49.32313" lon="1.27577">
        <ele>115</ele>
        <time>2017-04-18T14:15:48Z</time>
      </trkpt>
      <trkpt lat="49.32308" lon="1.27577">
        <ele>115</ele>
        <time>2017-04-18T14:16:04Z</time>
      </trkpt>
      <trkpt lat="49.32304" lon="1.27577">
        <ele>115</ele>
        <time>2017-04-18T14:16:04Z</time>
      </trkpt>
      <trkpt lat="49.323" lon="1.27578">
        <ele>115</ele>
        <time>2017-04-18T14:16:04Z</time>
      </trkpt>
      <trkpt lat="49.32296" lon="1.27584">
        <ele>115</ele>
        <time>2017-04-18T14:16:04Z</time>
      </trkpt>
      <trkpt lat="49.32291" lon="1.27584">
        <ele>118</ele>
        <time>2017-04-18T14:16:20Z</time>
      </trkpt>
      <trkpt lat="49.32286" lon="1.27578">
        <ele>118</ele>
        <time>2017-04-18T14:16:20Z</time>
      </trkpt>
      <trkpt lat="49.32281" lon="1.27571">
        <ele>118</ele>
        <time>2017-04-18T14:16:20Z</time>
      </trkpt>
      <trkpt lat="49.32276" lon="1.27566">
        <ele>118</ele>
        <time>2017-04-18T14:16:20Z</time>
      </trkpt>
      <trkpt lat="49.32272" lon="1.27563">
        <ele>118</ele>
        <time>2017-04-18T14:16:37Z</time>
      </trkpt>
      <trkpt lat="49.32267" lon="1.27562">
        <ele>118</ele>
        <time>2017-04-18T14:16:37Z</time>
      </trkpt>
      <trkpt lat="49.32262" lon="1.27562">
        <ele>118</ele>
        <time>2017-04-18T14:16:37Z</time>
      </trkpt>
      <trkpt lat="49.32259" lon="1.27563">
        <ele>118</ele>
        <time>2017-04-18T14:16:37Z</time>
      </trkpt>
      <trkpt lat="49.32254" lon="1.27556">
        <ele>118</ele>
        <time>2017-04-18T14:16:52Z</time>
      </trkpt>
      <trkpt lat="49.32249" lon="1.27557">
        <ele>118</ele>
        <time>2017-04-18T14:16:52Z</time>
      </trkpt>
      <trkpt lat="49.32244" lon="1.27554">
        <ele>118</ele>
        <time>2017-04-18T14:16:52Z</time>
      </trkpt>
      <trkpt lat="49.32239" lon="1.27555">
        <ele>118</ele>
        <time>2017-04-18T14:16:52Z</time>
      </trkpt>
      <trkpt lat="49.32234" lon="1.27555">
        <ele>118</ele>
        <time>2017-04-18T14:17:08Z</time>
      </trkpt>
      <trkpt lat="49.32228" lon="1.27557">
        <ele>118</ele>
        <time>2017-04-18T14:17:08Z</time>
      </trkpt>
      <trkpt lat="49.32223" lon="1.27558">
        <ele>118</ele>
        <time>2017-04-18T14:17:08Z</time>
      </trkpt>
      <trkpt lat="49.3222" lon="1.27556">
        <ele>118</ele>
        <time>2017-04-18T14:17:08Z</time>
      </trkpt>
      <trkpt lat="49.32215" lon="1.27554">
        <ele>118</ele>
        <time>2017-04-18T14:17:24Z</time>
      </trkpt>
      <trkpt lat="49.3221" lon="1.27555">
        <ele>118</ele>
        <time>2017-04-18T14:17:24Z</time>
      </trkpt>
      <trkpt lat="49.32205" lon="1.27553">
        <ele>122</ele>
        <time>2017-04-18T14:17:24Z</time>
      </trkpt>
      <trkpt lat="49.32201" lon="1.27551">
        <ele>122</ele>
        <time>2017-04-18T14:17:24Z</time>
      </trkpt>
      <trkpt lat="49.32197" lon="1.27548">
        <ele>122</ele>
        <time>2017-04-18T14:17:40Z</time>
      </trkpt>
      <trkpt lat="49.32192" lon="1.2755">
        <ele>122</ele>
        <time>2017-04-18T14:17:40Z</time>
      </trkpt>
      <trkpt lat="49.32189" lon="1.27542">
        <ele>122</ele>
        <time>2017-04-18T14:17:40Z</time>
      </trkpt>
      <trkpt lat="49.32185" lon="1.27537">
        <ele>125</ele>
        <time>2017-04-18T14:17:40Z</time>
      </trkpt>
      <trkpt lat="49.32182" lon="1.27532">
        <ele>125</ele>
        <time>2017-04-18T14:17:57Z</time>
      </trkpt>
      <trkpt lat="49.3218" lon="1.27528">
        <ele>125</ele>
        <time>2017-04-18T14:17:57Z</time>
      </trkpt>
      <trkpt lat="49.32175" lon="1.27527">
        <ele>125</ele>
        <time>2017-04-18T14:17:57Z</time>
      </trkpt>
      <trkpt lat="49.32169" lon="1.27529">
        <ele>125</ele>
        <time>2017-04-18T14:17:57Z</time>
      </trkpt>
      <trkpt lat="49.32165" lon="1.27528">
        <ele>125</ele>
        <time>2017-04-18T14:18:13Z</time>
      </trkpt>
      <trkpt lat="49.32161" lon="1.27522">
        <ele>125</ele>
        <time>2017-04-18T14:18:13Z</time>
      </trkpt>
      <trkpt lat="49.32159" lon="1.27517">
        <ele>125</ele>
        <time>2017-04-18T14:18:13Z</time>
      </trkpt>
      <trkpt lat="49.32158" lon="1.27508">
        <ele>125</ele>
        <time>2017-04-18T14:18:13Z</time>
      </trkpt>
      <trkpt lat="49.32157" lon="1.27502">
        <ele>125</ele>
        <time>2017-04-18T14:18:28Z</time>
      </trkpt>
      <trkpt lat="49.32157" lon="1.27497">
        <ele>125</ele>
        <time>2017-04-18T14:18:28Z</time>
      </trkpt>
      <trkpt lat="49.32152" lon="1.27493">
        <ele>125</ele>
        <time>2017-04-18T14:18:28Z</time>
      </trkpt>
      <trkpt lat="49.32143" lon="1.27489">
        <ele>125</ele>
        <time>2017-04-18T14:18:28Z</time>
      </trkpt>
      <trkpt lat="49.32137" lon="1.27483">
        <ele>125</ele>
        <time>2017-04-18T14:18:44Z</time>
      </trkpt>
      <trkpt lat="49.32135" lon="1.27477">
        <ele>125</ele>
        <time>2017-04-18T14:18:44Z</time>
      </trkpt>
      <trkpt lat="49.32135" lon="1.27472">
        <ele>125</ele>
        <time>2017-04-18T14:18:44Z</time>
      </trkpt>
      <trkpt lat="49.32134" lon="1.27465">
        <ele>125</ele>
        <time>2017-04-18T14:18:44Z</time>
      </trkpt>
      <trkpt lat="49.32133" lon="1.27458">
        <ele>127</ele>
        <time>2017-04-18T14:19:00Z</time>
      </trkpt>
      <trkpt lat="49.3213" lon="1.27454">
        <ele>127</ele>
        <time>2017-04-18T14:19:00Z</time>
      </trkpt>
      <trkpt lat="49.32127" lon="1.2745">
        <ele>127</ele>
        <time>2017-04-18T14:19:00Z</time>
      </trkpt>
      <trkpt lat="49.32125" lon="1.27445">
        <ele>131</ele>
        <time>2017-04-18T14:19:00Z</time>
      </trkpt>
      <trkpt lat="49.32124" lon="1.2744">
        <ele>131</ele>
        <time>2017-04-18T14:19:16Z</time>
      </trkpt>
      <trkpt lat="49.32114" lon="1.27439">
        <ele>131</ele>
        <time>2017-04-18T14:19:16Z</time>
      </trkpt>
      <trkpt lat="49.32108" lon="1.27434">
        <ele>131</ele>
        <time>2017-04-18T14:19:16Z</time>
      </trkpt>
      <trkpt lat="49.321" lon="1.27436">
        <ele>131</ele>
        <time>2017-04-18T14:19:16Z</time>
      </trkpt>
      <trkpt lat="49.32095" lon="1.27434">
        <ele>131</ele>
        <time>2017-04-18T14:19:32Z</time>
      </trkpt>
      <trkpt lat="49.32089" lon="1.27431">
        <ele>131</ele>
        <time>2017-04-18T14:19:32Z</time>
      </trkpt>
      <trkpt lat="49.32084" lon="1.27432">
        <ele>131</ele>
        <time>2017-04-18T14:19:32Z</time>
      </trkpt>
      <trkpt lat="49.32081" lon="1.27426">
        <ele>131</ele>
        <time>2017-04-18T14:19:32Z</time>
      </trkpt>
      <trkpt lat="49.32078" lon="1.27417">
        <ele>131</ele>
        <time>2017-04-18T14:19:48Z</time>
      </trkpt>
      <trkpt lat="49.32075" lon="1.27411">
        <ele>131</ele>
        <time>2017-04-18T14:19:48Z</time>
      </trkpt>
      <trkpt lat="49.32072" lon="1.27408">
        <ele>131</ele>
        <time>2017-04-18T14:19:48Z</time>
      </trkpt>
      <trkpt lat="49.32068" lon="1.27405">
        <ele>131</ele>
        <time>2017-04-18T14:19:48Z</time>
      </trkpt>
      <trkpt lat="49.32064" lon="1.27405">
        <ele>131</ele>
        <time>2017-04-18T14:20:05Z</time>
      </trkpt>
      <trkpt lat="49.32061" lon="1.27411">
        <ele>131</ele>
        <time>2017-04-18T14:20:05Z</time>
      </trkpt>
      <trkpt lat="49.32055" lon="1.27412">
        <ele>131</ele>
        <time>2017-04-18T14:20:05Z</time>
      </trkpt>
      <trkpt lat="49.32052" lon="1.27402">
        <ele>131</ele>
        <time>2017-04-18T14:20:05Z</time>
      </trkpt>
      <trkpt lat="49.32048" lon="1.27394">
        <ele>131</ele>
        <time>2017-04-18T14:20:21Z</time>
      </trkpt>
      <trkpt lat="49.32045" lon="1.2739">
        <ele>131</ele>
        <time>2017-04-18T14:20:21Z</time>
      </trkpt>
      <trkpt lat="49.3204" lon="1.27387">
        <ele>130</ele>
        <time>2017-04-18T14:20:21Z</time>
      </trkpt>
      <trkpt lat="49.32037" lon="1.27382">
        <ele>130</ele>
        <time>2017-04-18T14:20:21Z</time>
      </trkpt>
      <trkpt lat="49.32034" lon="1.27375">
        <ele>137</ele>
        <time>2017-04-18T14:20:37Z</time>
      </trkpt>
      <trkpt lat="49.32029" lon="1.27375">
        <ele>130</ele>
        <time>2017-04-18T14:20:37Z</time>
      </trkpt>
      <trkpt lat="49.32025" lon="1.27374">
        <ele>137</ele>
        <time>2017-04-18T14:20:37Z</time>
      </trkpt>
      <trkpt lat="49.32021" lon="1.27366">
        <ele>137</ele>
        <time>2017-04-18T14:20:37Z</time>
      </trkpt>
      <trkpt lat="49.32017" lon="1.27359">
        <ele>137</ele>
        <time>2017-04-18T14:20:52Z</time>
      </trkpt>
      <trkpt lat="49.32012" lon="1.27359">
        <ele>137</ele>
        <time>2017-04-18T14:20:52Z</time>
      </trkpt>
      <trkpt lat="49.32007" lon="1.27359">
        <ele>137</ele>
        <time>2017-04-18T14:20:52Z</time>
      </trkpt>
      <trkpt lat="49.32002" lon="1.27356">
        <ele>137</ele>
        <time>2017-04-18T14:20:52Z</time>
      </trkpt>
      <trkpt lat="49.31997" lon="1.27352">
        <ele>137</ele>
        <time>2017-04-18T14:21:09Z</time>
      </trkpt>
      <trkpt lat="49.31993" lon="1.2735">
        <ele>137</ele>
        <time>2017-04-18T14:21:09Z</time>
      </trkpt>
      <trkpt lat="49.31991" lon="1.2734">
        <ele>137</ele>
        <time>2017-04-18T14:21:09Z</time>
      </trkpt>
      <trkpt lat="49.31988" lon="1.27333">
        <ele>137</ele>
        <time>2017-04-18T14:21:09Z</time>
      </trkpt>
      <trkpt lat="49.31983" lon="1.27332">
        <ele>137</ele>
        <time>2017-04-18T14:21:24Z</time>
      </trkpt>
      <trkpt lat="49.31978" lon="1.27329">
        <ele>137</ele>
        <time>2017-04-18T14:21:24Z</time>
      </trkpt>
      <trkpt lat="49.31972" lon="1.27328">
        <ele>137</ele>
        <time>2017-04-18T14:21:24Z</time>
      </trkpt>
      <trkpt lat="49.31968" lon="1.2733">
        <ele>137</ele>
        <time>2017-04-18T14:21:24Z</time>
      </trkpt>
      <trkpt lat="49.31963" lon="1.27333">
        <ele>137</ele>
        <time>2017-04-18T14:21:40Z</time>
      </trkpt>
      <trkpt lat="49.31958" lon="1.27332">
        <ele>132</ele>
        <time>2017-04-18T14:21:40Z</time>
      </trkpt>
      <trkpt lat="49.31953" lon="1.27332">
        <ele>132</ele>
        <time>2017-04-18T14:21:40Z</time>
      </trkpt>
      <trkpt lat="49.31949" lon="1.2733">
        <ele>132</ele>
        <time>2017-04-18T14:21:40Z</time>
      </trkpt>
      <trkpt lat="49.31946" lon="1.27322">
        <ele>132</ele>
        <time>2017-04-18T14:21:58Z</time>
      </trkpt>
      <trkpt lat="49.31944" lon="1.27313">
        <ele>132</ele>
        <time>2017-04-18T14:21:58Z</time>
      </trkpt>
      <trkpt lat="49.3194" lon="1.27307">
        <ele>132</ele>
        <time>2017-04-18T14:21:58Z</time>
      </trkpt>
      <trkpt lat="49.31938" lon="1.27305">
        <ele>132</ele>
        <time>2017-04-18T14:21:58Z</time>
      </trkpt>
      <trkpt lat="49.31908" lon="1.27273">
        <ele>138</ele>
        <time>2017-04-18T14:23:04Z</time>
      </trkpt>
      <trkpt lat="49.31902" lon="1.27274">
        <ele>138</ele>
        <time>2017-04-18T14:23:04Z</time>
      </trkpt>
      <trkpt lat="49.31884" lon="1.27263">
        <ele>138</ele>
        <time>2017-04-18T14:23:04Z</time>
      </trkpt>
      <trkpt lat="49.31876" lon="1.2726">
        <ele>138</ele>
        <time>2017-04-18T14:23:04Z</time>
      </trkpt>
      <trkpt lat="49.31871" lon="1.27253">
        <ele>132</ele>
        <time>2017-04-18T14:23:04Z</time>
      </trkpt>
      <trkpt lat="49.31866" lon="1.27252">
        <ele>132</ele>
        <time>2017-04-18T14:23:20Z</time>
      </trkpt>
      <trkpt lat="49.3186" lon="1.27251">
        <ele>132</ele>
        <time>2017-04-18T14:23:20Z</time>
      </trkpt>
      <trkpt lat="49.31854" lon="1.27247">
        <ele>132</ele>
        <time>2017-04-18T14:23:20Z</time>
      </trkpt>
      <trkpt lat="49.31847" lon="1.27245">
        <ele>132</ele>
        <time>2017-04-18T14:23:20Z</time>
      </trkpt>
      <trkpt lat="49.31842" lon="1.2724">
        <ele>132</ele>
        <time>2017-04-18T14:23:36Z</time>
      </trkpt>
      <trkpt lat="49.31838" lon="1.2723">
        <ele>132</ele>
        <time>2017-04-18T14:23:36Z</time>
      </trkpt>
      <trkpt lat="49.31835" lon="1.27225">
        <ele>132</ele>
        <time>2017-04-18T14:23:36Z</time>
      </trkpt>
      <trkpt lat="49.3184" lon="1.2722">
        <ele>132</ele>
        <time>2017-04-18T14:23:36Z</time>
      </trkpt>
      <trkpt lat="49.31844" lon="1.27214">
        <ele>132</ele>
        <time>2017-04-18T14:26:14Z</time>
      </trkpt>
      <trkpt lat="49.31844" lon="1.27211">
        <ele>132</ele>
        <time>2017-04-18T14:26:14Z</time>
      </trkpt>
      <trkpt lat="49.3184" lon="1.27206">
        <ele>136</ele>
        <time>2017-04-18T14:26:14Z</time>
      </trkpt>
      <trkpt lat="49.31836" lon="1.27205">
        <ele>136</ele>
        <time>2017-04-18T14:26:14Z</time>
      </trkpt>
      <trkpt lat="49.31831" lon="1.27201">
        <ele>136</ele>
        <time>2017-04-18T14:26:14Z</time>
      </trkpt>
      <trkpt lat="49.3183" lon="1.27194">
        <ele>136</ele>
        <time>2017-04-18T14:26:29Z</time>
      </trkpt>
      <trkpt lat="49.31828" lon="1.27189">
        <ele>136</ele>
        <time>2017-04-18T14:26:29Z</time>
      </trkpt>
      <trkpt lat="49.31822" lon="1.27187">
        <ele>136</ele>
        <time>2017-04-18T14:26:29Z</time>
      </trkpt>
      <trkpt lat="49.31818" lon="1.27188">
        <ele>136</ele>
        <time>2017-04-18T14:26:29Z</time>
      </trkpt>
      <trkpt lat="49.31814" lon="1.27189">
        <ele>136</ele>
        <time>2017-04-18T14:26:50Z</time>
      </trkpt>
      <trkpt lat="49.3181" lon="1.2719">
        <ele>136</ele>
        <time>2017-04-18T14:26:50Z</time>
      </trkpt>
      <trkpt lat="49.31808" lon="1.2719">
        <ele>136</ele>
        <time>2017-04-18T14:26:50Z</time>
      </trkpt>
      <trkpt lat="49.31806" lon="1.2719">
        <ele>136</ele>
        <time>2017-04-18T14:26:50Z</time>
      </trkpt>
      <trkpt lat="49.31804" lon="1.27188">
        <ele>136</ele>
        <time>2017-04-18T14:26:50Z</time>
      </trkpt>
      <trkpt lat="49.31803" lon="1.27183">
        <ele>136</ele>
        <time>2017-04-18T14:27:04Z</time>
      </trkpt>
      <trkpt lat="49.31797" lon="1.27182">
        <ele>136</ele>
        <time>2017-04-18T14:27:04Z</time>
      </trkpt>
      <trkpt lat="49.31795" lon="1.27178">
        <ele>136</ele>
        <time>2017-04-18T14:27:04Z</time>
      </trkpt>
      <trkpt lat="49.31794" lon="1.27171">
        <ele>136</ele>
        <time>2017-04-18T14:27:04Z</time>
      </trkpt>
      <trkpt lat="49.31786" lon="1.27165">
        <ele>135</ele>
        <time>2017-04-18T14:27:36Z</time>
      </trkpt>
      <trkpt lat="49.31783" lon="1.2716">
        <ele>135</ele>
        <time>2017-04-18T14:27:36Z</time>
      </trkpt>
      <trkpt lat="49.31778" lon="1.27157">
        <ele>135</ele>
        <time>2017-04-18T14:27:36Z</time>
      </trkpt>
      <trkpt lat="49.31776" lon="1.2715">
        <ele>135</ele>
        <time>2017-04-18T14:27:36Z</time>
      </trkpt>
      <trkpt lat="49.31765" lon="1.27139">
        <ele>135</ele>
        <time>2017-04-18T14:27:36Z</time>
      </trkpt>
      <trkpt lat="49.31754" lon="1.27142">
        <ele>135</ele>
        <time>2017-04-18T14:27:53Z</time>
      </trkpt>
      <trkpt lat="49.31749" lon="1.27136">
        <ele>135</ele>
        <time>2017-04-18T14:27:53Z</time>
      </trkpt>
      <trkpt lat="49.31747" lon="1.27121">
        <ele>137</ele>
        <time>2017-04-18T14:27:53Z</time>
      </trkpt>
      <trkpt lat="49.31744" lon="1.27118">
        <ele>137</ele>
        <time>2017-04-18T14:27:53Z</time>
      </trkpt>
      <trkpt lat="49.31739" lon="1.27113">
        <ele>137</ele>
        <time>2017-04-18T14:28:08Z</time>
      </trkpt>
      <trkpt lat="49.31737" lon="1.27108">
        <ele>137</ele>
        <time>2017-04-18T14:28:08Z</time>
      </trkpt>
      <trkpt lat="49.31733" lon="1.27106">
        <ele>137</ele>
        <time>2017-04-18T14:28:08Z</time>
      </trkpt>
      <trkpt lat="49.31729" lon="1.27106">
        <ele>137</ele>
        <time>2017-04-18T14:28:08Z</time>
      </trkpt>
      <trkpt lat="49.31727" lon="1.27103">
        <ele>137</ele>
        <time>2017-04-18T14:28:24Z</time>
      </trkpt>
      <trkpt lat="49.31723" lon="1.27099">
        <ele>137</ele>
        <time>2017-04-18T14:28:24Z</time>
      </trkpt>
      <trkpt lat="49.31719" lon="1.27099">
        <ele>137</ele>
        <time>2017-04-18T14:28:24Z</time>
      </trkpt>
      <trkpt lat="49.31715" lon="1.27099">
        <ele>137</ele>
        <time>2017-04-18T14:28:24Z</time>
      </trkpt>
      <trkpt lat="49.31713" lon="1.27098">
        <ele>137</ele>
        <time>2017-04-18T14:28:40Z</time>
      </trkpt>
      <trkpt lat="49.31708" lon="1.27096">
        <ele>137</ele>
        <time>2017-04-18T14:28:40Z</time>
      </trkpt>
      <trkpt lat="49.31703" lon="1.27094">
        <ele>137</ele>
        <time>2017-04-18T14:28:40Z</time>
      </trkpt>
      <trkpt lat="49.31698" lon="1.27094">
        <ele>137</ele>
        <time>2017-04-18T14:28:40Z</time>
      </trkpt>
      <trkpt lat="49.31694" lon="1.27093">
        <ele>137</ele>
        <time>2017-04-18T14:28:56Z</time>
      </trkpt>
      <trkpt lat="49.3169" lon="1.27093">
        <ele>137</ele>
        <time>2017-04-18T14:28:56Z</time>
      </trkpt>
      <trkpt lat="49.31686" lon="1.27091">
        <ele>137</ele>
        <time>2017-04-18T14:28:56Z</time>
      </trkpt>
      <trkpt lat="49.3168" lon="1.27089">
        <ele>137</ele>
        <time>2017-04-18T14:28:56Z</time>
      </trkpt>
      <trkpt lat="49.31675" lon="1.27086">
        <ele>137</ele>
        <time>2017-04-18T14:29:12Z</time>
      </trkpt>
      <trkpt lat="49.31671" lon="1.27084">
        <ele>137</ele>
        <time>2017-04-18T14:29:12Z</time>
      </trkpt>
      <trkpt lat="49.31668" lon="1.2708">
        <ele>137</ele>
        <time>2017-04-18T14:29:12Z</time>
      </trkpt>
      <trkpt lat="49.31666" lon="1.27079">
        <ele>137</ele>
        <time>2017-04-18T14:29:12Z</time>
      </trkpt>
      <trkpt lat="49.31661" lon="1.27077">
        <ele>137</ele>
        <time>2017-04-18T14:29:29Z</time>
      </trkpt>
      <trkpt lat="49.31659" lon="1.27074">
        <ele>137</ele>
        <time>2017-04-18T14:29:29Z</time>
      </trkpt>
      <trkpt lat="49.31655" lon="1.27071">
        <ele>137</ele>
        <time>2017-04-18T14:29:29Z</time>
      </trkpt>
      <trkpt lat="49.31652" lon="1.27069">
        <ele>137</ele>
        <time>2017-04-18T14:29:29Z</time>
      </trkpt>
      <trkpt lat="49.31646" lon="1.27067">
        <ele>137</ele>
        <time>2017-04-18T14:29:44Z</time>
      </trkpt>
      <trkpt lat="49.31643" lon="1.27063">
        <ele>137</ele>
        <time>2017-04-18T14:29:44Z</time>
      </trkpt>
      <trkpt lat="49.31639" lon="1.27059">
        <ele>137</ele>
        <time>2017-04-18T14:29:44Z</time>
      </trkpt>
      <trkpt lat="49.31635" lon="1.27056">
        <ele>137</ele>
        <time>2017-04-18T14:29:44Z</time>
      </trkpt>
      <trkpt lat="49.31631" lon="1.27053">
        <ele>137</ele>
        <time>2017-04-18T14:30:00Z</time>
      </trkpt>
      <trkpt lat="49.31629" lon="1.2705">
        <ele>137</ele>
        <time>2017-04-18T14:30:00Z</time>
      </trkpt>
      <trkpt lat="49.31626" lon="1.27047">
        <ele>137</ele>
        <time>2017-04-18T14:30:00Z</time>
      </trkpt>
      <trkpt lat="49.31624" lon="1.27042">
        <ele>138</ele>
        <time>2017-04-18T14:30:00Z</time>
      </trkpt>
      <trkpt lat="49.31621" lon="1.27038">
        <ele>136</ele>
        <time>2017-04-18T14:30:16Z</time>
      </trkpt>
      <trkpt lat="49.31616" lon="1.27036">
        <ele>136</ele>
        <time>2017-04-18T14:30:16Z</time>
      </trkpt>
      <trkpt lat="49.31611" lon="1.27034">
        <ele>136</ele>
        <time>2017-04-18T14:30:16Z</time>
      </trkpt>
      <trkpt lat="49.31607" lon="1.27036">
        <ele>136</ele>
        <time>2017-04-18T14:30:16Z</time>
      </trkpt>
      <trkpt lat="49.31602" lon="1.27037">
        <ele>136</ele>
        <time>2017-04-18T14:30:33Z</time>
      </trkpt>
      <trkpt lat="49.31597" lon="1.27036">
        <ele>136</ele>
        <time>2017-04-18T14:30:33Z</time>
      </trkpt>
      <trkpt lat="49.31592" lon="1.27034">
        <ele>136</ele>
        <time>2017-04-18T14:30:33Z</time>
      </trkpt>
      <trkpt lat="49.31589" lon="1.27036">
        <ele>136</ele>
        <time>2017-04-18T14:30:33Z</time>
      </trkpt>
      <trkpt lat="49.31583" lon="1.27036">
        <ele>136</ele>
        <time>2017-04-18T14:30:48Z</time>
      </trkpt>
      <trkpt lat="49.31579" lon="1.27033">
        <ele>136</ele>
        <time>2017-04-18T14:30:48Z</time>
      </trkpt>
      <trkpt lat="49.31574" lon="1.27036">
        <ele>136</ele>
        <time>2017-04-18T14:30:48Z</time>
      </trkpt>
      <trkpt lat="49.31569" lon="1.27036">
        <ele>136</ele>
        <time>2017-04-18T14:30:48Z</time>
      </trkpt>
      <trkpt lat="49.31564" lon="1.27034">
        <ele>136</ele>
        <time>2017-04-18T14:31:05Z</time>
      </trkpt>
      <trkpt lat="49.31559" lon="1.27034">
        <ele>136</ele>
        <time>2017-04-18T14:31:05Z</time>
      </trkpt>
      <trkpt lat="49.31555" lon="1.27035">
        <ele>136</ele>
        <time>2017-04-18T14:31:05Z</time>
      </trkpt>
      <trkpt lat="49.3155" lon="1.27035">
        <ele>136</ele>
        <time>2017-04-18T14:31:05Z</time>
      </trkpt>
      <trkpt lat="49.31545" lon="1.27033">
        <ele>136</ele>
        <time>2017-04-18T14:31:20Z</time>
      </trkpt>
      <trkpt lat="49.3154" lon="1.27035">
        <ele>133</ele>
        <time>2017-04-18T14:31:20Z</time>
      </trkpt>
      <trkpt lat="49.31536" lon="1.27037">
        <ele>133</ele>
        <time>2017-04-18T14:31:20Z</time>
      </trkpt>
      <trkpt lat="49.31531" lon="1.27041">
        <ele>133</ele>
        <time>2017-04-18T14:31:20Z</time>
      </trkpt>
      <trkpt lat="49.31527" lon="1.27043">
        <ele>133</ele>
        <time>2017-04-18T14:31:36Z</time>
      </trkpt>
      <trkpt lat="49.31522" lon="1.27044">
        <ele>133</ele>
        <time>2017-04-18T14:31:36Z</time>
      </trkpt>
      <trkpt lat="49.31517" lon="1.27045">
        <ele>133</ele>
        <time>2017-04-18T14:31:36Z</time>
      </trkpt>
      <trkpt lat="49.31512" lon="1.27046">
        <ele>133</ele>
        <time>2017-04-18T14:31:36Z</time>
      </trkpt>
      <trkpt lat="49.31507" lon="1.27045">
        <ele>133</ele>
        <time>2017-04-18T14:31:52Z</time>
      </trkpt>
      <trkpt lat="49.31503" lon="1.27047">
        <ele>133</ele>
        <time>2017-04-18T14:31:52Z</time>
      </trkpt>
      <trkpt lat="49.31499" lon="1.27049">
        <ele>133</ele>
        <time>2017-04-18T14:31:52Z</time>
      </trkpt>
      <trkpt lat="49.31495" lon="1.27051">
        <ele>133</ele>
        <time>2017-04-18T14:31:52Z</time>
      </trkpt>
      <trkpt lat="49.3149" lon="1.27051">
        <ele>133</ele>
        <time>2017-04-18T14:32:08Z</time>
      </trkpt>
      <trkpt lat="49.31485" lon="1.27051">
        <ele>133</ele>
        <time>2017-04-18T14:32:08Z</time>
      </trkpt>
      <trkpt lat="49.3148" lon="1.27051">
        <ele>133</ele>
        <time>2017-04-18T14:32:08Z</time>
      </trkpt>
      <trkpt lat="49.31476" lon="1.27053">
        <ele>133</ele>
        <time>2017-04-18T14:32:08Z</time>
      </trkpt>
      <trkpt lat="49.31472" lon="1.27054">
        <ele>133</ele>
        <time>2017-04-18T14:32:24Z</time>
      </trkpt>
      <trkpt lat="49.31468" lon="1.27055">
        <ele>133</ele>
        <time>2017-04-18T14:32:24Z</time>
      </trkpt>
      <trkpt lat="49.31464" lon="1.27056">
        <ele>133</ele>
        <time>2017-04-18T14:32:24Z</time>
      </trkpt>
      <trkpt lat="49.31459" lon="1.27058">
        <ele>133</ele>
        <time>2017-04-18T14:32:24Z</time>
      </trkpt>
      <trkpt lat="49.31454" lon="1.27059">
        <ele>137</ele>
        <time>2017-04-18T14:32:41Z</time>
      </trkpt>
      <trkpt lat="49.3145" lon="1.2706">
        <ele>137</ele>
        <time>2017-04-18T14:32:41Z</time>
      </trkpt>
      <trkpt lat="49.31447" lon="1.2706">
        <ele>137</ele>
        <time>2017-04-18T14:32:41Z</time>
      </trkpt>
      <trkpt lat="49.31444" lon="1.27059">
        <ele>137</ele>
        <time>2017-04-18T14:32:41Z</time>
      </trkpt>
      <trkpt lat="49.3144" lon="1.27061">
        <ele>137</ele>
        <time>2017-04-18T14:32:56Z</time>
      </trkpt>
      <trkpt lat="49.31437" lon="1.27062">
        <ele>137</ele>
        <time>2017-04-18T14:32:56Z</time>
      </trkpt>
      <trkpt lat="49.31434" lon="1.27062">
        <ele>137</ele>
        <time>2017-04-18T14:32:56Z</time>
      </trkpt>
      <trkpt lat="49.31429" lon="1.27061">
        <ele>137</ele>
        <time>2017-04-18T14:32:56Z</time>
      </trkpt>
      <trkpt lat="49.31424" lon="1.27063">
        <ele>137</ele>
        <time>2017-04-18T14:33:12Z</time>
      </trkpt>
      <trkpt lat="49.3142" lon="1.27065">
        <ele>137</ele>
        <time>2017-04-18T14:33:12Z</time>
      </trkpt>
      <trkpt lat="49.31417" lon="1.27067">
        <ele>137</ele>
        <time>2017-04-18T14:33:12Z</time>
      </trkpt>
      <trkpt lat="49.31412" lon="1.27068">
        <ele>137</ele>
        <time>2017-04-18T14:33:12Z</time>
      </trkpt>
      <trkpt lat="49.31412" lon="1.2707">
        <ele>137</ele>
        <time>2017-04-18T14:33:41Z</time>
      </trkpt>
      <trkpt lat="49.31415" lon="1.27072">
        <ele>137</ele>
        <time>2017-04-18T14:33:41Z</time>
      </trkpt>
      <trkpt lat="49.31419" lon="1.2707">
        <ele>137</ele>
        <time>2017-04-18T14:33:41Z</time>
      </trkpt>
      <trkpt lat="49.31421" lon="1.27066">
        <ele>137</ele>
        <time>2017-04-18T14:33:41Z</time>
      </trkpt>
      <trkpt lat="49.31425" lon="1.27064">
        <ele>137</ele>
        <time>2017-04-18T14:33:41Z</time>
      </trkpt>
      <trkpt lat="49.3143" lon="1.27065">
        <ele>137</ele>
        <time>2017-04-18T14:33:58Z</time>
      </trkpt>
      <trkpt lat="49.31434" lon="1.27064">
        <ele>137</ele>
        <time>2017-04-18T14:33:58Z</time>
      </trkpt>
      <trkpt lat="49.31439" lon="1.27064">
        <ele>137</ele>
        <time>2017-04-18T14:33:58Z</time>
      </trkpt>
      <trkpt lat="49.31442" lon="1.27063">
        <ele>137</ele>
        <time>2017-04-18T14:33:58Z</time>
      </trkpt>
      <trkpt lat="49.31445" lon="1.27063">
        <ele>137</ele>
        <time>2017-04-18T14:34:13Z</time>
      </trkpt>
      <trkpt lat="49.31449" lon="1.27062">
        <ele>137</ele>
        <time>2017-04-18T14:34:13Z</time>
      </trkpt>
      <trkpt lat="49.31453" lon="1.27061">
        <ele>137</ele>
        <time>2017-04-18T14:34:14Z</time>
      </trkpt>
      <trkpt lat="49.31455" lon="1.27062">
        <ele>137</ele>
        <time>2017-04-18T14:34:14Z</time>
      </trkpt>
      <trkpt lat="49.31454" lon="1.27061">
        <ele>137</ele>
        <time>2017-04-18T14:36:49Z</time>
      </trkpt>
      <trkpt lat="49.31451" lon="1.27063">
        <ele>137</ele>
        <time>2017-04-18T14:36:49Z</time>
      </trkpt>
      <trkpt lat="49.31447" lon="1.27063">
        <ele>137</ele>
        <time>2017-04-18T14:36:49Z</time>
      </trkpt>
      <trkpt lat="49.31444" lon="1.27065">
        <ele>137</ele>
        <time>2017-04-18T14:36:49Z</time>
      </trkpt>
      <trkpt lat="49.3144" lon="1.27067">
        <ele>137</ele>
        <time>2017-04-18T14:36:49Z</time>
      </trkpt>
      <trkpt lat="49.31437" lon="1.27065">
        <ele>137</ele>
        <time>2017-04-18T14:37:04Z</time>
      </trkpt>
      <trkpt lat="49.31432" lon="1.27063">
        <ele>137</ele>
        <time>2017-04-18T14:37:04Z</time>
      </trkpt>
      <trkpt lat="49.31431" lon="1.27058">
        <ele>137</ele>
        <time>2017-04-18T14:37:04Z</time>
      </trkpt>
      <trkpt lat="49.31428" lon="1.27055">
        <ele>137</ele>
        <time>2017-04-18T14:37:04Z</time>
      </trkpt>
      <trkpt lat="49.31423" lon="1.27057">
        <ele>137</ele>
        <time>2017-04-18T14:37:20Z</time>
      </trkpt>
      <trkpt lat="49.31419" lon="1.27062">
        <ele>137</ele>
        <time>2017-04-18T14:37:20Z</time>
      </trkpt>
      <trkpt lat="49.31416" lon="1.27066">
        <ele>137</ele>
        <time>2017-04-18T14:37:20Z</time>
      </trkpt>
      <trkpt lat="49.31413" lon="1.27069">
        <ele>137</ele>
        <time>2017-04-18T14:37:20Z</time>
      </trkpt>
      <trkpt lat="49.31409" lon="1.27066">
        <ele>137</ele>
        <time>2017-04-18T14:37:38Z</time>
      </trkpt>
      <trkpt lat="49.31404" lon="1.27067">
        <ele>137</ele>
        <time>2017-04-18T14:37:38Z</time>
      </trkpt>
      <trkpt lat="49.31399" lon="1.27067">
        <ele>137</ele>
        <time>2017-04-18T14:37:38Z</time>
      </trkpt>
      <trkpt lat="49.31396" lon="1.2707">
        <ele>137</ele>
        <time>2017-04-18T14:37:38Z</time>
      </trkpt>
      <trkpt lat="49.31393" lon="1.27074">
        <ele>137</ele>
        <time>2017-04-18T14:37:54Z</time>
      </trkpt>
      <trkpt lat="49.3139" lon="1.27076">
        <ele>137</ele>
        <time>2017-04-18T14:37:54Z</time>
      </trkpt>
      <trkpt lat="49.31386" lon="1.27075">
        <ele>137</ele>
        <time>2017-04-18T14:37:54Z</time>
      </trkpt>
      <trkpt lat="49.31384" lon="1.27069">
        <ele>137</ele>
        <time>2017-04-18T14:37:54Z</time>
      </trkpt>
      <trkpt lat="49.31383" lon="1.27071">
        <ele>137</ele>
        <time>2017-04-18T14:38:10Z</time>
      </trkpt>
      <trkpt lat="49.31379" lon="1.27074">
        <ele>137</ele>
        <time>2017-04-18T14:38:10Z</time>
      </trkpt>
      <trkpt lat="49.31376" lon="1.27075">
        <ele>137</ele>
        <time>2017-04-18T14:38:10Z</time>
      </trkpt>
      <trkpt lat="49.31372" lon="1.27074">
        <ele>143</ele>
        <time>2017-04-18T14:38:10Z</time>
      </trkpt>
      <trkpt lat="49.31368" lon="1.27074">
        <ele>143</ele>
        <time>2017-04-18T14:38:26Z</time>
      </trkpt>
      <trkpt lat="49.31364" lon="1.27076">
        <ele>143</ele>
        <time>2017-04-18T14:38:26Z</time>
      </trkpt>
      <trkpt lat="49.31361" lon="1.27077">
        <ele>143</ele>
        <time>2017-04-18T14:38:26Z</time>
      </trkpt>
      <trkpt lat="49.31358" lon="1.27077">
        <ele>143</ele>
        <time>2017-04-18T14:38:26Z</time>
      </trkpt>
      <trkpt lat="49.31353" lon="1.27077">
        <ele>143</ele>
        <time>2017-04-18T14:38:41Z</time>
      </trkpt>
      <trkpt lat="49.3135" lon="1.27077">
        <ele>143</ele>
        <time>2017-04-18T14:38:41Z</time>
      </trkpt>
      <trkpt lat="49.31347" lon="1.27078">
        <ele>143</ele>
        <time>2017-04-18T14:38:41Z</time>
      </trkpt>
      <trkpt lat="49.31344" lon="1.27078">
        <ele>143</ele>
        <time>2017-04-18T14:38:41Z</time>
      </trkpt>
      <trkpt lat="49.3134" lon="1.27078">
        <ele>143</ele>
        <time>2017-04-18T14:38:56Z</time>
      </trkpt>
      <trkpt lat="49.31335" lon="1.27078">
        <ele>143</ele>
        <time>2017-04-18T14:38:56Z</time>
      </trkpt>
      <trkpt lat="49.3133" lon="1.2708">
        <ele>143</ele>
        <time>2017-04-18T14:38:56Z</time>
      </trkpt>
      <trkpt lat="49.31326" lon="1.27083">
        <ele>143</ele>
        <time>2017-04-18T14:38:56Z</time>
      </trkpt>
      <trkpt lat="49.31321" lon="1.27084">
        <ele>143</ele>
        <time>2017-04-18T14:39:13Z</time>
      </trkpt>
      <trkpt lat="49.31316" lon="1.27084">
        <ele>143</ele>
        <time>2017-04-18T14:39:13Z</time>
      </trkpt>
      <trkpt lat="49.31313" lon="1.27084">
        <ele>143</ele>
        <time>2017-04-18T14:39:13Z</time>
      </trkpt>
      <trkpt lat="49.31308" lon="1.27086">
        <ele>143</ele>
        <time>2017-04-18T14:39:13Z</time>
      </trkpt>
      <trkpt lat="49.31303" lon="1.27086">
        <ele>143</ele>
        <time>2017-04-18T14:39:30Z</time>
      </trkpt>
      <trkpt lat="49.31298" lon="1.27086">
        <ele>143</ele>
        <time>2017-04-18T14:39:30Z</time>
      </trkpt>
      <trkpt lat="49.31295" lon="1.27085">
        <ele>143</ele>
        <time>2017-04-18T14:39:30Z</time>
      </trkpt>
      <trkpt lat="49.31288" lon="1.27086">
        <ele>146</ele>
        <time>2017-04-18T14:39:30Z</time>
      </trkpt>
      <trkpt lat="49.31285" lon="1.27087">
        <ele>146</ele>
        <time>2017-04-18T14:39:44Z</time>
      </trkpt>
      <trkpt lat="49.3128" lon="1.27087">
        <ele>146</ele>
        <time>2017-04-18T14:39:44Z</time>
      </trkpt>
      <trkpt lat="49.31275" lon="1.27085">
        <ele>146</ele>
        <time>2017-04-18T14:39:44Z</time>
      </trkpt>
      <trkpt lat="49.31271" lon="1.27084">
        <ele>146</ele>
        <time>2017-04-18T14:39:44Z</time>
      </trkpt>
      <trkpt lat="49.31266" lon="1.27083">
        <ele>146</ele>
        <time>2017-04-18T14:40:02Z</time>
      </trkpt>
      <trkpt lat="49.31261" lon="1.27083">
        <ele>146</ele>
        <time>2017-04-18T14:40:02Z</time>
      </trkpt>
      <trkpt lat="49.31256" lon="1.27084">
        <ele>146</ele>
        <time>2017-04-18T14:40:02Z</time>
      </trkpt>
      <trkpt lat="49.31252" lon="1.27085">
        <ele>146</ele>
        <time>2017-04-18T14:40:02Z</time>
      </trkpt>
      <trkpt lat="49.31248" lon="1.27087">
        <ele>146</ele>
        <time>2017-04-18T14:40:18Z</time>
      </trkpt>
      <trkpt lat="49.31244" lon="1.27091">
        <ele>146</ele>
        <time>2017-04-18T14:40:18Z</time>
      </trkpt>
      <trkpt lat="49.3124" lon="1.27094">
        <ele>146</ele>
        <time>2017-04-18T14:40:18Z</time>
      </trkpt>
      <trkpt lat="49.31234" lon="1.27098">
        <ele>146</ele>
        <time>2017-04-18T14:40:18Z</time>
      </trkpt>
      <trkpt lat="49.31231" lon="1.27102">
        <ele>146</ele>
        <time>2017-04-18T14:40:33Z</time>
      </trkpt>
      <trkpt lat="49.31228" lon="1.27108">
        <ele>146</ele>
        <time>2017-04-18T14:40:33Z</time>
      </trkpt>
      <trkpt lat="49.31224" lon="1.27111">
        <ele>146</ele>
        <time>2017-04-18T14:40:33Z</time>
      </trkpt>
      <trkpt lat="49.31219" lon="1.27112">
        <ele>146</ele>
        <time>2017-04-18T14:40:33Z</time>
      </trkpt>
      <trkpt lat="49.31214" lon="1.27108">
        <ele>146</ele>
        <time>2017-04-18T14:40:49Z</time>
      </trkpt>
      <trkpt lat="49.3121" lon="1.27101">
        <ele>146</ele>
        <time>2017-04-18T14:40:49Z</time>
      </trkpt>
      <trkpt lat="49.31207" lon="1.27095">
        <ele>148</ele>
        <time>2017-04-18T14:40:49Z</time>
      </trkpt>
      <trkpt lat="49.31206" lon="1.27091">
        <ele>148</ele>
        <time>2017-04-18T14:40:49Z</time>
      </trkpt>
      <trkpt lat="49.31203" lon="1.27084">
        <ele>148</ele>
        <time>2017-04-18T14:41:06Z</time>
      </trkpt>
      <trkpt lat="49.31201" lon="1.2708">
        <ele>148</ele>
        <time>2017-04-18T14:41:06Z</time>
      </trkpt>
      <trkpt lat="49.31198" lon="1.27075">
        <ele>148</ele>
        <time>2017-04-18T14:41:06Z</time>
      </trkpt>
      <trkpt lat="49.31196" lon="1.2707">
        <ele>148</ele>
        <time>2017-04-18T14:41:06Z</time>
      </trkpt>
      <trkpt lat="49.31194" lon="1.27064">
        <ele>148</ele>
        <time>2017-04-18T14:41:21Z</time>
      </trkpt>
      <trkpt lat="49.31191" lon="1.2706">
        <ele>148</ele>
        <time>2017-04-18T14:41:21Z</time>
      </trkpt>
      <trkpt lat="49.31189" lon="1.27055">
        <ele>148</ele>
        <time>2017-04-18T14:41:21Z</time>
      </trkpt>
      <trkpt lat="49.31186" lon="1.27049">
        <ele>148</ele>
        <time>2017-04-18T14:41:21Z</time>
      </trkpt>
      <trkpt lat="49.31184" lon="1.27043">
        <ele>148</ele>
        <time>2017-04-18T14:41:37Z</time>
      </trkpt>
      <trkpt lat="49.31181" lon="1.27038">
        <ele>147</ele>
        <time>2017-04-18T14:41:37Z</time>
      </trkpt>
      <trkpt lat="49.31177" lon="1.27033">
        <ele>147</ele>
        <time>2017-04-18T14:41:37Z</time>
      </trkpt>
      <trkpt lat="49.31175" lon="1.27026">
        <ele>147</ele>
        <time>2017-04-18T14:41:37Z</time>
      </trkpt>
      <trkpt lat="49.31171" lon="1.27022">
        <ele>147</ele>
        <time>2017-04-18T14:41:54Z</time>
      </trkpt>
      <trkpt lat="49.31166" lon="1.27019">
        <ele>147</ele>
        <time>2017-04-18T14:41:54Z</time>
      </trkpt>
      <trkpt lat="49.31165" lon="1.27015">
        <ele>147</ele>
        <time>2017-04-18T14:41:54Z</time>
      </trkpt>
      <trkpt lat="49.31163" lon="1.27006">
        <ele>147</ele>
        <time>2017-04-18T14:41:54Z</time>
      </trkpt>
      <trkpt lat="49.31161" lon="1.27">
        <ele>147</ele>
        <time>2017-04-18T14:42:09Z</time>
      </trkpt>
      <trkpt lat="49.31157" lon="1.26995">
        <ele>147</ele>
        <time>2017-04-18T14:42:09Z</time>
      </trkpt>
      <trkpt lat="49.31154" lon="1.26992">
        <ele>147</ele>
        <time>2017-04-18T14:42:09Z</time>
      </trkpt>
      <trkpt lat="49.3115" lon="1.26985">
        <ele>147</ele>
        <time>2017-04-18T14:42:09Z</time>
      </trkpt>
      <trkpt lat="49.31148" lon="1.26978">
        <ele>147</ele>
        <time>2017-04-18T14:42:25Z</time>
      </trkpt>
      <trkpt lat="49.31145" lon="1.26973">
        <ele>147</ele>
        <time>2017-04-18T14:42:25Z</time>
      </trkpt>
      <trkpt lat="49.31142" lon="1.26968">
        <ele>147</ele>
        <time>2017-04-18T14:42:25Z</time>
      </trkpt>
      <trkpt lat="49.31138" lon="1.26963">
        <ele>147</ele>
        <time>2017-04-18T14:42:25Z</time>
      </trkpt>
      <trkpt lat="49.31135" lon="1.26958">
        <ele>147</ele>
        <time>2017-04-18T14:42:41Z</time>
      </trkpt>
      <trkpt lat="49.31131" lon="1.26954">
        <ele>150</ele>
        <time>2017-04-18T14:42:41Z</time>
      </trkpt>
      <trkpt lat="49.31126" lon="1.2695">
        <ele>150</ele>
        <time>2017-04-18T14:42:41Z</time>
      </trkpt>
      <trkpt lat="49.31123" lon="1.26945">
        <ele>147</ele>
        <time>2017-04-18T14:42:41Z</time>
      </trkpt>
      <trkpt lat="49.31121" lon="1.26937">
        <ele>147</ele>
        <time>2017-04-18T14:42:57Z</time>
      </trkpt>
      <trkpt lat="49.3112" lon="1.26932">
        <ele>147</ele>
        <time>2017-04-18T14:42:57Z</time>
      </trkpt>
      <trkpt lat="49.31117" lon="1.26925">
        <ele>147</ele>
        <time>2017-04-18T14:42:57Z</time>
      </trkpt>
      <trkpt lat="49.31113" lon="1.26919">
        <ele>147</ele>
        <time>2017-04-18T14:42:57Z</time>
      </trkpt>
      <trkpt lat="49.3111" lon="1.26912">
        <ele>147</ele>
        <time>2017-04-18T14:43:13Z</time>
      </trkpt>
      <trkpt lat="49.31108" lon="1.26905">
        <ele>147</ele>
        <time>2017-04-18T14:43:13Z</time>
      </trkpt>
      <trkpt lat="49.31104" lon="1.26902">
        <ele>147</ele>
        <time>2017-04-18T14:43:13Z</time>
      </trkpt>
      <trkpt lat="49.311" lon="1.26897">
        <ele>147</ele>
        <time>2017-04-18T14:43:13Z</time>
      </trkpt>
      <trkpt lat="49.31097" lon="1.26892">
        <ele>147</ele>
        <time>2017-04-18T14:43:30Z</time>
      </trkpt>
      <trkpt lat="49.31094" lon="1.26886">
        <ele>147</ele>
        <time>2017-04-18T14:43:30Z</time>
      </trkpt>
      <trkpt lat="49.31092" lon="1.2688">
        <ele>147</ele>
        <time>2017-04-18T14:43:30Z</time>
      </trkpt>
      <trkpt lat="49.31088" lon="1.26873">
        <ele>147</ele>
        <time>2017-04-18T14:43:30Z</time>
      </trkpt>
      <trkpt lat="49.31086" lon="1.26869">
        <ele>147</ele>
        <time>2017-04-18T14:43:45Z</time>
      </trkpt>
      <trkpt lat="49.31082" lon="1.26862">
        <ele>147</ele>
        <time>2017-04-18T14:43:45Z</time>
      </trkpt>
      <trkpt lat="49.31079" lon="1.26858">
        <ele>147</ele>
        <time>2017-04-18T14:43:45Z</time>
      </trkpt>
      <trkpt lat="49.31076" lon="1.26853">
        <ele>147</ele>
        <time>2017-04-18T14:43:45Z</time>
      </trkpt>
      <trkpt lat="49.31074" lon="1.26849">
        <ele>147</ele>
        <time>2017-04-18T14:44:02Z</time>
      </trkpt>
      <trkpt lat="49.3107" lon="1.26842">
        <ele>147</ele>
        <time>2017-04-18T14:44:02Z</time>
      </trkpt>
      <trkpt lat="49.31067" lon="1.26837">
        <ele>147</ele>
        <time>2017-04-18T14:44:02Z</time>
      </trkpt>
      <trkpt lat="49.31063" lon="1.26831">
        <ele>147</ele>
        <time>2017-04-18T14:44:02Z</time>
      </trkpt>
      <trkpt lat="49.3106" lon="1.26825">
        <ele>147</ele>
        <time>2017-04-18T14:44:17Z</time>
      </trkpt>
      <trkpt lat="49.31058" lon="1.26818">
        <ele>147</ele>
        <time>2017-04-18T14:44:17Z</time>
      </trkpt>
      <trkpt lat="49.31055" lon="1.26812">
        <ele>147</ele>
        <time>2017-04-18T14:44:17Z</time>
      </trkpt>
      <trkpt lat="49.31053" lon="1.26806">
        <ele>147</ele>
        <time>2017-04-18T14:44:17Z</time>
      </trkpt>
      <trkpt lat="49.31049" lon="1.268">
        <ele>147</ele>
        <time>2017-04-18T14:44:33Z</time>
      </trkpt>
      <trkpt lat="49.31046" lon="1.26794">
        <ele>147</ele>
        <time>2017-04-18T14:44:33Z</time>
      </trkpt>
      <trkpt lat="49.31043" lon="1.26789">
        <ele>147</ele>
        <time>2017-04-18T14:44:33Z</time>
      </trkpt>
      <trkpt lat="49.3104" lon="1.26783">
        <ele>146</ele>
        <time>2017-04-18T14:44:33Z</time>
      </trkpt>
      <trkpt lat="49.31037" lon="1.26779">
        <ele>146</ele>
        <time>2017-04-18T14:44:49Z</time>
      </trkpt>
      <trkpt lat="49.31032" lon="1.26774">
        <ele>146</ele>
        <time>2017-04-18T14:44:49Z</time>
      </trkpt>
      <trkpt lat="49.3103" lon="1.2677">
        <ele>146</ele>
        <time>2017-04-18T14:44:49Z</time>
      </trkpt>
      <trkpt lat="49.31028" lon="1.26764">
        <ele>146</ele>
        <time>2017-04-18T14:44:49Z</time>
      </trkpt>
      <trkpt lat="49.31025" lon="1.26759">
        <ele>146</ele>
        <time>2017-04-18T14:45:05Z</time>
      </trkpt>
      <trkpt lat="49.31021" lon="1.26754">
        <ele>146</ele>
        <time>2017-04-18T14:45:05Z</time>
      </trkpt>
      <trkpt lat="49.31019" lon="1.26749">
        <ele>146</ele>
        <time>2017-04-18T14:45:05Z</time>
      </trkpt>
      <trkpt lat="49.31018" lon="1.26745">
        <ele>146</ele>
        <time>2017-04-18T14:45:05Z</time>
      </trkpt>
      <trkpt lat="49.31014" lon="1.26739">
        <ele>146</ele>
        <time>2017-04-18T14:45:21Z</time>
      </trkpt>
      <trkpt lat="49.31012" lon="1.26733">
        <ele>146</ele>
        <time>2017-04-18T14:45:21Z</time>
      </trkpt>
      <trkpt lat="49.31009" lon="1.26729">
        <ele>146</ele>
        <time>2017-04-18T14:45:21Z</time>
      </trkpt>
      <trkpt lat="49.31007" lon="1.26721">
        <ele>146</ele>
        <time>2017-04-18T14:45:22Z</time>
      </trkpt>
      <trkpt lat="49.31008" lon="1.26716">
        <ele>146</ele>
        <time>2017-04-18T14:45:38Z</time>
      </trkpt>
      <trkpt lat="49.31011" lon="1.26712">
        <ele>146</ele>
        <time>2017-04-18T14:45:38Z</time>
      </trkpt>
      <trkpt lat="49.31014" lon="1.2671">
        <ele>146</ele>
        <time>2017-04-18T14:45:38Z</time>
      </trkpt>
      <trkpt lat="49.31017" lon="1.26706">
        <ele>145</ele>
        <time>2017-04-18T14:45:38Z</time>
      </trkpt>
      <trkpt lat="49.31022" lon="1.26701">
        <ele>145</ele>
        <time>2017-04-18T14:46:02Z</time>
      </trkpt>
      <trkpt lat="49.31026" lon="1.26701">
        <ele>145</ele>
        <time>2017-04-18T14:46:02Z</time>
      </trkpt>
      <trkpt lat="49.31028" lon="1.26699">
        <ele>145</ele>
        <time>2017-04-18T14:46:02Z</time>
      </trkpt>
      <trkpt lat="49.31028" lon="1.26697">
        <ele>145</ele>
        <time>2017-04-18T14:46:02Z</time>
      </trkpt>
      <trkpt lat="49.31031" lon="1.26694">
        <ele>145</ele>
        <time>2017-04-18T14:46:02Z</time>
      </trkpt>
      <trkpt lat="49.31034" lon="1.26692">
        <ele>145</ele>
        <time>2017-04-18T14:46:18Z</time>
      </trkpt>
      <trkpt lat="49.31037" lon="1.26691">
        <ele>145</ele>
        <time>2017-04-18T14:46:18Z</time>
      </trkpt>
      <trkpt lat="49.3104" lon="1.2669">
        <ele>145</ele>
        <time>2017-04-18T14:46:18Z</time>
      </trkpt>
      <trkpt lat="49.31046" lon="1.26687">
        <ele>146</ele>
        <time>2017-04-18T14:46:18Z</time>
      </trkpt>
      <trkpt lat="49.3105" lon="1.26687">
        <ele>146</ele>
        <time>2017-04-18T14:46:34Z</time>
      </trkpt>
      <trkpt lat="49.31052" lon="1.26685">
        <ele>146</ele>
        <time>2017-04-18T14:46:34Z</time>
      </trkpt>
      <trkpt lat="49.31056" lon="1.26684">
        <ele>146</ele>
        <time>2017-04-18T14:46:34Z</time>
      </trkpt>
      <trkpt lat="49.31061" lon="1.26683">
        <ele>146</ele>
        <time>2017-04-18T14:46:34Z</time>
      </trkpt>
      <trkpt lat="49.31064" lon="1.26682">
        <ele>146</ele>
        <time>2017-04-18T14:46:49Z</time>
      </trkpt>
      <trkpt lat="49.31069" lon="1.26681">
        <ele>146</ele>
        <time>2017-04-18T14:46:49Z</time>
      </trkpt>
      <trkpt lat="49.31072" lon="1.26677">
        <ele>146</ele>
        <time>2017-04-18T14:46:49Z</time>
      </trkpt>
      <trkpt lat="49.31075" lon="1.26672">
        <ele>146</ele>
        <time>2017-04-18T14:46:49Z</time>
      </trkpt>
      <trkpt lat="49.31077" lon="1.26667">
        <ele>146</ele>
        <time>2017-04-18T14:47:05Z</time>
      </trkpt>
      <trkpt lat="49.31078" lon="1.26661">
        <ele>146</ele>
        <time>2017-04-18T14:47:05Z</time>
      </trkpt>
      <trkpt lat="49.31077" lon="1.26654">
        <ele>146</ele>
        <time>2017-04-18T14:47:05Z</time>
      </trkpt>
      <trkpt lat="49.31072" lon="1.2665">
        <ele>146</ele>
        <time>2017-04-18T14:47:05Z</time>
      </trkpt>
      <trkpt lat="49.31068" lon="1.26644">
        <ele>146</ele>
        <time>2017-04-18T14:47:21Z</time>
      </trkpt>
      <trkpt lat="49.31066" lon="1.2664">
        <ele>146</ele>
        <time>2017-04-18T14:47:21Z</time>
      </trkpt>
      <trkpt lat="49.31062" lon="1.26635">
        <ele>146</ele>
        <time>2017-04-18T14:47:21Z</time>
      </trkpt>
      <trkpt lat="49.31061" lon="1.2663">
        <ele>146</ele>
        <time>2017-04-18T14:47:21Z</time>
      </trkpt>
      <trkpt lat="49.31056" lon="1.26624">
        <ele>146</ele>
        <time>2017-04-18T14:47:37Z</time>
      </trkpt>
      <trkpt lat="49.31054" lon="1.26618">
        <ele>146</ele>
        <time>2017-04-18T14:47:37Z</time>
      </trkpt>
      <trkpt lat="49.31052" lon="1.26614">
        <ele>146</ele>
        <time>2017-04-18T14:47:37Z</time>
      </trkpt>
      <trkpt lat="49.31049" lon="1.26608">
        <ele>146</ele>
        <time>2017-04-18T14:47:37Z</time>
      </trkpt>
      <trkpt lat="49.31048" lon="1.26601">
        <ele>146</ele>
        <time>2017-04-18T14:47:54Z</time>
      </trkpt>
      <trkpt lat="49.31046" lon="1.26596">
        <ele>146</ele>
        <time>2017-04-18T14:47:54Z</time>
      </trkpt>
      <trkpt lat="49.31043" lon="1.26591">
        <ele>146</ele>
        <time>2017-04-18T14:47:54Z</time>
      </trkpt>
      <trkpt lat="49.3104" lon="1.26586">
        <ele>145</ele>
        <time>2017-04-18T14:47:54Z</time>
      </trkpt>
      <trkpt lat="49.31037" lon="1.26581">
        <ele>145</ele>
        <time>2017-04-18T14:48:10Z</time>
      </trkpt>
      <trkpt lat="49.31033" lon="1.26575">
        <ele>145</ele>
        <time>2017-04-18T14:48:10Z</time>
      </trkpt>
      <trkpt lat="49.31031" lon="1.26569">
        <ele>145</ele>
        <time>2017-04-18T14:48:10Z</time>
      </trkpt>
      <trkpt lat="49.3103" lon="1.26561">
        <ele>145</ele>
        <time>2017-04-18T14:48:10Z</time>
      </trkpt>
      <trkpt lat="49.31028" lon="1.26556">
        <ele>145</ele>
        <time>2017-04-18T14:48:26Z</time>
      </trkpt>
      <trkpt lat="49.31025" lon="1.26552">
        <ele>145</ele>
        <time>2017-04-18T14:48:26Z</time>
      </trkpt>
      <trkpt lat="49.31023" lon="1.26547">
        <ele>145</ele>
        <time>2017-04-18T14:48:26Z</time>
      </trkpt>
      <trkpt lat="49.31022" lon="1.26542">
        <ele>145</ele>
        <time>2017-04-18T14:48:26Z</time>
      </trkpt>
      <trkpt lat="49.3102" lon="1.26537">
        <ele>145</ele>
        <time>2017-04-18T14:48:42Z</time>
      </trkpt>
      <trkpt lat="49.31017" lon="1.26532">
        <ele>145</ele>
        <time>2017-04-18T14:48:42Z</time>
      </trkpt>
      <trkpt lat="49.31013" lon="1.26526">
        <ele>145</ele>
        <time>2017-04-18T14:48:42Z</time>
      </trkpt>
      <trkpt lat="49.31009" lon="1.26521">
        <ele>145</ele>
        <time>2017-04-18T14:48:42Z</time>
      </trkpt>
      <trkpt lat="49.31007" lon="1.26515">
        <ele>145</ele>
        <time>2017-04-18T14:48:57Z</time>
      </trkpt>
      <trkpt lat="49.31005" lon="1.26507">
        <ele>145</ele>
        <time>2017-04-18T14:48:57Z</time>
      </trkpt>
      <trkpt lat="49.31003" lon="1.265">
        <ele>145</ele>
        <time>2017-04-18T14:48:57Z</time>
      </trkpt>
      <trkpt lat="49.31001" lon="1.26494">
        <ele>145</ele>
        <time>2017-04-18T14:48:57Z</time>
      </trkpt>
      <trkpt lat="49.31" lon="1.26488">
        <ele>145</ele>
        <time>2017-04-18T14:49:12Z</time>
      </trkpt>
      <trkpt lat="49.30997" lon="1.2648">
        <ele>145</ele>
        <time>2017-04-18T14:49:12Z</time>
      </trkpt>
      <trkpt lat="49.30995" lon="1.26476">
        <ele>145</ele>
        <time>2017-04-18T14:49:13Z</time>
      </trkpt>
      <trkpt lat="49.30993" lon="1.26471">
        <ele>145</ele>
        <time>2017-04-18T14:49:13Z</time>
      </trkpt>
      <trkpt lat="49.30989" lon="1.26467">
        <ele>145</ele>
        <time>2017-04-18T14:49:30Z</time>
      </trkpt>
      <trkpt lat="49.30987" lon="1.26463">
        <ele>145</ele>
        <time>2017-04-18T14:49:30Z</time>
      </trkpt>
      <trkpt lat="49.30985" lon="1.26454">
        <ele>146</ele>
        <time>2017-04-18T14:49:30Z</time>
      </trkpt>
      <trkpt lat="49.30983" lon="1.26448">
        <ele>146</ele>
        <time>2017-04-18T14:49:30Z</time>
      </trkpt>
      <trkpt lat="49.30981" lon="1.26445">
        <ele>146</ele>
        <time>2017-04-18T14:49:45Z</time>
      </trkpt>
      <trkpt lat="49.30977" lon="1.2644">
        <ele>146</ele>
        <time>2017-04-18T14:49:45Z</time>
      </trkpt>
      <trkpt lat="49.30975" lon="1.26434">
        <ele>146</ele>
        <time>2017-04-18T14:49:45Z</time>
      </trkpt>
      <trkpt lat="49.30977" lon="1.26431">
        <ele>146</ele>
        <time>2017-04-18T14:49:45Z</time>
      </trkpt>
      <trkpt lat="49.3098" lon="1.26424">
        <ele>146</ele>
        <time>2017-04-18T14:50:01Z</time>
      </trkpt>
      <trkpt lat="49.30982" lon="1.26417">
        <ele>146</ele>
        <time>2017-04-18T14:50:01Z</time>
      </trkpt>
      <trkpt lat="49.30983" lon="1.26412">
        <ele>146</ele>
        <time>2017-04-18T14:50:02Z</time>
      </trkpt>
      <trkpt lat="49.30986" lon="1.26402">
        <ele>146</ele>
        <time>2017-04-18T14:50:02Z</time>
      </trkpt>
      <trkpt lat="49.30988" lon="1.26397">
        <ele>146</ele>
        <time>2017-04-18T14:50:16Z</time>
      </trkpt>
      <trkpt lat="49.30991" lon="1.26395">
        <ele>146</ele>
        <time>2017-04-18T14:50:16Z</time>
      </trkpt>
      <trkpt lat="49.30994" lon="1.2639">
        <ele>146</ele>
        <time>2017-04-18T14:50:16Z</time>
      </trkpt>
      <trkpt lat="49.30996" lon="1.26383">
        <ele>146</ele>
        <time>2017-04-18T14:50:16Z</time>
      </trkpt>
      <trkpt lat="49.30999" lon="1.26377">
        <ele>146</ele>
        <time>2017-04-18T14:50:33Z</time>
      </trkpt>
      <trkpt lat="49.31001" lon="1.26372">
        <ele>144</ele>
        <time>2017-04-18T14:50:33Z</time>
      </trkpt>
      <trkpt lat="49.31004" lon="1.26366">
        <ele>144</ele>
        <time>2017-04-18T14:50:33Z</time>
      </trkpt>
      <trkpt lat="49.31007" lon="1.26361">
        <ele>144</ele>
        <time>2017-04-18T14:50:33Z</time>
      </trkpt>
      <trkpt lat="49.31006" lon="1.26351">
        <ele>144</ele>
        <time>2017-04-18T14:51:14Z</time>
      </trkpt>
      <trkpt lat="49.31008" lon="1.26349">
        <ele>144</ele>
        <time>2017-04-18T14:51:14Z</time>
      </trkpt>
      <trkpt lat="49.3101" lon="1.26346">
        <ele>144</ele>
        <time>2017-04-18T14:51:14Z</time>
      </trkpt>
      <trkpt lat="49.31012" lon="1.26341">
        <ele>144</ele>
        <time>2017-04-18T14:51:14Z</time>
      </trkpt>
      <trkpt lat="49.31015" lon="1.26336">
        <ele>144</ele>
        <time>2017-04-18T14:51:14Z</time>
      </trkpt>
      <trkpt lat="49.31017" lon="1.26331">
        <ele>144</ele>
        <time>2017-04-18T14:51:29Z</time>
      </trkpt>
      <trkpt lat="49.3102" lon="1.26327">
        <ele>144</ele>
        <time>2017-04-18T14:51:29Z</time>
      </trkpt>
      <trkpt lat="49.31023" lon="1.2632">
        <ele>144</ele>
        <time>2017-04-18T14:51:29Z</time>
      </trkpt>
      <trkpt lat="49.31023" lon="1.26318">
        <ele>144</ele>
        <time>2017-04-18T14:51:29Z</time>
      </trkpt>
      <trkpt lat="49.31027" lon="1.26312">
        <ele>144</ele>
        <time>2017-04-18T14:51:45Z</time>
      </trkpt>
      <trkpt lat="49.3103" lon="1.26307">
        <ele>144</ele>
        <time>2017-04-18T14:51:45Z</time>
      </trkpt>
      <trkpt lat="49.31031" lon="1.26303">
        <ele>144</ele>
        <time>2017-04-18T14:51:45Z</time>
      </trkpt>
      <trkpt lat="49.31034" lon="1.26297">
        <ele>144</ele>
        <time>2017-04-18T14:51:45Z</time>
      </trkpt>
      <trkpt lat="49.31038" lon="1.26292">
        <ele>144</ele>
        <time>2017-04-18T14:52:01Z</time>
      </trkpt>
      <trkpt lat="49.31041" lon="1.26289">
        <ele>143</ele>
        <time>2017-04-18T14:52:01Z</time>
      </trkpt>
      <trkpt lat="49.31043" lon="1.26283">
        <ele>144</ele>
        <time>2017-04-18T14:52:01Z</time>
      </trkpt>
      <trkpt lat="49.31044" lon="1.26277">
        <ele>144</ele>
        <time>2017-04-18T14:52:01Z</time>
      </trkpt>
      <trkpt lat="49.31045" lon="1.2627">
        <ele>144</ele>
        <time>2017-04-18T14:52:16Z</time>
      </trkpt>
      <trkpt lat="49.31048" lon="1.26265">
        <ele>144</ele>
        <time>2017-04-18T14:52:16Z</time>
      </trkpt>
      <trkpt lat="49.31051" lon="1.2626">
        <ele>144</ele>
        <time>2017-04-18T14:52:16Z</time>
      </trkpt>
      <trkpt lat="49.31052" lon="1.26255">
        <ele>144</ele>
        <time>2017-04-18T14:52:16Z</time>
      </trkpt>
      <trkpt lat="49.31054" lon="1.26249">
        <ele>144</ele>
        <time>2017-04-18T14:52:34Z</time>
      </trkpt>
      <trkpt lat="49.31055" lon="1.26247">
        <ele>144</ele>
        <time>2017-04-18T14:52:34Z</time>
      </trkpt>
      <trkpt lat="49.31058" lon="1.26241">
        <ele>144</ele>
        <time>2017-04-18T14:52:34Z</time>
      </trkpt>
      <trkpt lat="49.3106" lon="1.26235">
        <ele>144</ele>
        <time>2017-04-18T14:52:34Z</time>
      </trkpt>
      <trkpt lat="49.31063" lon="1.2623">
        <ele>144</ele>
        <time>2017-04-18T14:52:49Z</time>
      </trkpt>
      <trkpt lat="49.31066" lon="1.26224">
        <ele>144</ele>
        <time>2017-04-18T14:52:49Z</time>
      </trkpt>
      <trkpt lat="49.31067" lon="1.26219">
        <ele>144</ele>
        <time>2017-04-18T14:52:49Z</time>
      </trkpt>
      <trkpt lat="49.3107" lon="1.26213">
        <ele>144</ele>
        <time>2017-04-18T14:52:49Z</time>
      </trkpt>
      <trkpt lat="49.31074" lon="1.26205">
        <ele>143</ele>
        <time>2017-04-18T14:53:06Z</time>
      </trkpt>
      <trkpt lat="49.31075" lon="1.26199">
        <ele>143</ele>
        <time>2017-04-18T14:53:06Z</time>
      </trkpt>
      <trkpt lat="49.31078" lon="1.26194">
        <ele>143</ele>
        <time>2017-04-18T14:53:06Z</time>
      </trkpt>
      <trkpt lat="49.31079" lon="1.26187">
        <ele>143</ele>
        <time>2017-04-18T14:53:06Z</time>
      </trkpt>
      <trkpt lat="49.31081" lon="1.26182">
        <ele>143</ele>
        <time>2017-04-18T14:53:20Z</time>
      </trkpt>
      <trkpt lat="49.31084" lon="1.26178">
        <ele>143</ele>
        <time>2017-04-18T14:53:20Z</time>
      </trkpt>
      <trkpt lat="49.31086" lon="1.26172">
        <ele>143</ele>
        <time>2017-04-18T14:53:20Z</time>
      </trkpt>
      <trkpt lat="49.31087" lon="1.26165">
        <ele>143</ele>
        <time>2017-04-18T14:53:20Z</time>
      </trkpt>
      <trkpt lat="49.31089" lon="1.26159">
        <ele>143</ele>
        <time>2017-04-18T14:53:37Z</time>
      </trkpt>
      <trkpt lat="49.31091" lon="1.26153">
        <ele>143</ele>
        <time>2017-04-18T14:53:37Z</time>
      </trkpt>
      <trkpt lat="49.31093" lon="1.26146">
        <ele>143</ele>
        <time>2017-04-18T14:53:37Z</time>
      </trkpt>
      <trkpt lat="49.31094" lon="1.26139">
        <ele>143</ele>
        <time>2017-04-18T14:53:37Z</time>
      </trkpt>
      <trkpt lat="49.31097" lon="1.26133">
        <ele>143</ele>
        <time>2017-04-18T14:53:53Z</time>
      </trkpt>
      <trkpt lat="49.31099" lon="1.26126">
        <ele>143</ele>
        <time>2017-04-18T14:53:53Z</time>
      </trkpt>
      <trkpt lat="49.31101" lon="1.26119">
        <ele>143</ele>
        <time>2017-04-18T14:53:53Z</time>
      </trkpt>
      <trkpt lat="49.31102" lon="1.26111">
        <ele>143</ele>
        <time>2017-04-18T14:53:53Z</time>
      </trkpt>
      <trkpt lat="49.31105" lon="1.26105">
        <ele>143</ele>
        <time>2017-04-18T14:54:09Z</time>
      </trkpt>
      <trkpt lat="49.31108" lon="1.261">
        <ele>143</ele>
        <time>2017-04-18T14:54:09Z</time>
      </trkpt>
      <trkpt lat="49.3111" lon="1.26094">
        <ele>143</ele>
        <time>2017-04-18T14:54:09Z</time>
      </trkpt>
      <trkpt lat="49.31111" lon="1.26086">
        <ele>143</ele>
        <time>2017-04-18T14:54:09Z</time>
      </trkpt>
      <trkpt lat="49.31113" lon="1.26082">
        <ele>143</ele>
        <time>2017-04-18T14:54:24Z</time>
      </trkpt>
      <trkpt lat="49.31115" lon="1.26073">
        <ele>143</ele>
        <time>2017-04-18T14:54:24Z</time>
      </trkpt>
      <trkpt lat="49.31115" lon="1.26065">
        <ele>143</ele>
        <time>2017-04-18T14:54:24Z</time>
      </trkpt>
      <trkpt lat="49.31116" lon="1.26057">
        <ele>143</ele>
        <time>2017-04-18T14:54:24Z</time>
      </trkpt>
      <trkpt lat="49.31119" lon="1.26051">
        <ele>143</ele>
        <time>2017-04-18T14:54:42Z</time>
      </trkpt>
      <trkpt lat="49.31119" lon="1.26045">
        <ele>143</ele>
        <time>2017-04-18T14:54:42Z</time>
      </trkpt>
      <trkpt lat="49.31121" lon="1.26039">
        <ele>142</ele>
        <time>2017-04-18T14:54:42Z</time>
      </trkpt>
      <trkpt lat="49.31124" lon="1.26032">
        <ele>142</ele>
        <time>2017-04-18T14:54:42Z</time>
      </trkpt>
      <trkpt lat="49.31126" lon="1.26026">
        <ele>143</ele>
        <time>2017-04-18T14:54:58Z</time>
      </trkpt>
      <trkpt lat="49.31128" lon="1.26022">
        <ele>143</ele>
        <time>2017-04-18T14:54:58Z</time>
      </trkpt>
      <trkpt lat="49.3113" lon="1.26014">
        <ele>143</ele>
        <time>2017-04-18T14:54:58Z</time>
      </trkpt>
      <trkpt lat="49.3113" lon="1.26007">
        <ele>143</ele>
        <time>2017-04-18T14:54:58Z</time>
      </trkpt>
      <trkpt lat="49.3113" lon="1.26001">
        <ele>143</ele>
        <time>2017-04-18T14:55:14Z</time>
      </trkpt>
      <trkpt lat="49.31129" lon="1.25994">
        <ele>143</ele>
        <time>2017-04-18T14:55:14Z</time>
      </trkpt>
      <trkpt lat="49.3113" lon="1.25988">
        <ele>143</ele>
        <time>2017-04-18T14:55:14Z</time>
      </trkpt>
      <trkpt lat="49.31135" lon="1.25986">
        <ele>143</ele>
        <time>2017-04-18T14:55:14Z</time>
      </trkpt>
      <trkpt lat="49.31136" lon="1.25991">
        <ele>143</ele>
        <time>2017-04-18T14:57:38Z</time>
      </trkpt>
      <trkpt lat="49.31137" lon="1.25991">
        <ele>143</ele>
        <time>2017-04-18T14:57:38Z</time>
      </trkpt>
      <trkpt lat="49.31141" lon="1.2599">
        <ele>143</ele>
        <time>2017-04-18T14:57:38Z</time>
      </trkpt>
      <trkpt lat="49.31145" lon="1.25986">
        <ele>143</ele>
        <time>2017-04-18T14:57:38Z</time>
      </trkpt>
      <trkpt lat="49.31148" lon="1.25981">
        <ele>143</ele>
        <time>2017-04-18T14:57:38Z</time>
      </trkpt>
      <trkpt lat="49.31153" lon="1.2598">
        <ele>143</ele>
        <time>2017-04-18T14:57:54Z</time>
      </trkpt>
      <trkpt lat="49.31157" lon="1.25978">
        <ele>143</ele>
        <time>2017-04-18T14:57:54Z</time>
      </trkpt>
      <trkpt lat="49.31161" lon="1.25976">
        <ele>143</ele>
        <time>2017-04-18T14:57:54Z</time>
      </trkpt>
      <trkpt lat="49.31165" lon="1.25974">
        <ele>143</ele>
        <time>2017-04-18T14:57:54Z</time>
      </trkpt>
      <trkpt lat="49.31168" lon="1.25969">
        <ele>143</ele>
        <time>2017-04-18T14:58:10Z</time>
      </trkpt>
      <trkpt lat="49.31172" lon="1.25964">
        <ele>143</ele>
        <time>2017-04-18T14:58:10Z</time>
      </trkpt>
      <trkpt lat="49.31176" lon="1.25963">
        <ele>143</ele>
        <time>2017-04-18T14:58:10Z</time>
      </trkpt>
      <trkpt lat="49.3118" lon="1.25959">
        <ele>143</ele>
        <time>2017-04-18T14:58:10Z</time>
      </trkpt>
      <trkpt lat="49.31183" lon="1.25956">
        <ele>146</ele>
        <time>2017-04-18T14:58:26Z</time>
      </trkpt>
      <trkpt lat="49.31187" lon="1.2595">
        <ele>146</ele>
        <time>2017-04-18T14:58:26Z</time>
      </trkpt>
      <trkpt lat="49.31189" lon="1.25945">
        <ele>146</ele>
        <time>2017-04-18T14:58:26Z</time>
      </trkpt>
      <trkpt lat="49.31192" lon="1.25939">
        <ele>146</ele>
        <time>2017-04-18T14:58:26Z</time>
      </trkpt>
      <trkpt lat="49.31193" lon="1.25933">
        <ele>146</ele>
        <time>2017-04-18T14:58:44Z</time>
      </trkpt>
      <trkpt lat="49.31194" lon="1.25928">
        <ele>146</ele>
        <time>2017-04-18T14:58:44Z</time>
      </trkpt>
      <trkpt lat="49.31192" lon="1.25922">
        <ele>146</ele>
        <time>2017-04-18T14:58:44Z</time>
      </trkpt>
      <trkpt lat="49.31186" lon="1.25924">
        <ele>146</ele>
        <time>2017-04-18T14:58:44Z</time>
      </trkpt>
      <trkpt lat="49.31185" lon="1.25922">
        <ele>146</ele>
        <time>2017-04-18T14:58:44Z</time>
      </trkpt>
      <trkpt lat="49.31191" lon="1.25894">
        <ele>146</ele>
        <time>2017-04-18T14:59:18Z</time>
      </trkpt>
      <trkpt lat="49.31198" lon="1.25897">
        <ele>146</ele>
        <time>2017-04-18T14:59:18Z</time>
      </trkpt>
      <trkpt lat="49.31205" lon="1.25896">
        <ele>146</ele>
        <time>2017-04-18T14:59:18Z</time>
      </trkpt>
      <trkpt lat="49.31214" lon="1.25898">
        <ele>147</ele>
        <time>2017-04-18T14:59:18Z</time>
      </trkpt>
      <trkpt lat="49.3122" lon="1.259">
        <ele>147</ele>
        <time>2017-04-18T14:59:18Z</time>
      </trkpt>
      <trkpt lat="49.31225" lon="1.25901">
        <ele>147</ele>
        <time>2017-04-18T14:59:34Z</time>
      </trkpt>
      <trkpt lat="49.31229" lon="1.25896">
        <ele>147</ele>
        <time>2017-04-18T14:59:34Z</time>
      </trkpt>
      <trkpt lat="49.31232" lon="1.25894">
        <ele>147</ele>
        <time>2017-04-18T14:59:34Z</time>
      </trkpt>
      <trkpt lat="49.31232" lon="1.25889">
        <ele>147</ele>
        <time>2017-04-18T14:59:34Z</time>
      </trkpt>
      <trkpt lat="49.31233" lon="1.2588">
        <ele>147</ele>
        <time>2017-04-18T14:59:49Z</time>
      </trkpt>
      <trkpt lat="49.31235" lon="1.25872">
        <ele>150</ele>
        <time>2017-04-18T14:59:50Z</time>
      </trkpt>
      <trkpt lat="49.31232" lon="1.25863">
        <ele>150</ele>
        <time>2017-04-18T14:59:50Z</time>
      </trkpt>
      <trkpt lat="49.31232" lon="1.25855">
        <ele>150</ele>
        <time>2017-04-18T14:59:50Z</time>
      </trkpt>
      <trkpt lat="49.31236" lon="1.25851">
        <ele>150</ele>
        <time>2017-04-18T15:00:04Z</time>
      </trkpt>
      <trkpt lat="49.31238" lon="1.25845">
        <ele>150</ele>
        <time>2017-04-18T15:00:04Z</time>
      </trkpt>
      <trkpt lat="49.31241" lon="1.2584">
        <ele>150</ele>
        <time>2017-04-18T15:00:04Z</time>
      </trkpt>
      <trkpt lat="49.31246" lon="1.25837">
        <ele>150</ele>
        <time>2017-04-18T15:00:04Z</time>
      </trkpt>
      <trkpt lat="49.3125" lon="1.25832">
        <ele>150</ele>
        <time>2017-04-18T15:00:21Z</time>
      </trkpt>
      <trkpt lat="49.31253" lon="1.25827">
        <ele>150</ele>
        <time>2017-04-18T15:00:21Z</time>
      </trkpt>
      <trkpt lat="49.31254" lon="1.25821">
        <ele>150</ele>
        <time>2017-04-18T15:00:21Z</time>
      </trkpt>
      <trkpt lat="49.31254" lon="1.25814">
        <ele>150</ele>
        <time>2017-04-18T15:00:21Z</time>
      </trkpt>
      <trkpt lat="49.31258" lon="1.25811">
        <ele>150</ele>
        <time>2017-04-18T15:00:36Z</time>
      </trkpt>
      <trkpt lat="49.31263" lon="1.25813">
        <ele>150</ele>
        <time>2017-04-18T15:00:36Z</time>
      </trkpt>
      <trkpt lat="49.31265" lon="1.2581">
        <ele>150</ele>
        <time>2017-04-18T15:00:36Z</time>
      </trkpt>
      <trkpt lat="49.31267" lon="1.25803">
        <ele>150</ele>
        <time>2017-04-18T15:00:37Z</time>
      </trkpt>
      <trkpt lat="49.3127" lon="1.258">
        <ele>150</ele>
        <time>2017-04-18T15:00:53Z</time>
      </trkpt>
      <trkpt lat="49.31274" lon="1.25799">
        <ele>150</ele>
        <time>2017-04-18T15:00:53Z</time>
      </trkpt>
      <trkpt lat="49.31279" lon="1.25798">
        <ele>150</ele>
        <time>2017-04-18T15:00:53Z</time>
      </trkpt>
      <trkpt lat="49.31284" lon="1.25796">
        <ele>150</ele>
        <time>2017-04-18T15:00:53Z</time>
      </trkpt>
      <trkpt lat="49.31289" lon="1.25792">
        <ele>150</ele>
        <time>2017-04-18T15:01:09Z</time>
      </trkpt>
      <trkpt lat="49.31294" lon="1.25791">
        <ele>153</ele>
        <time>2017-04-18T15:01:09Z</time>
      </trkpt>
      <trkpt lat="49.31297" lon="1.25786">
        <ele>153</ele>
        <time>2017-04-18T15:01:09Z</time>
      </trkpt>
      <trkpt lat="49.31303" lon="1.25784">
        <ele>153</ele>
        <time>2017-04-18T15:01:09Z</time>
      </trkpt>
      <trkpt lat="49.31308" lon="1.25783">
        <ele>153</ele>
        <time>2017-04-18T15:01:26Z</time>
      </trkpt>
      <trkpt lat="49.31312" lon="1.25779">
        <ele>153</ele>
        <time>2017-04-18T15:01:26Z</time>
      </trkpt>
      <trkpt lat="49.31316" lon="1.25778">
        <ele>153</ele>
        <time>2017-04-18T15:01:26Z</time>
      </trkpt>
      <trkpt lat="49.31321" lon="1.25775">
        <ele>153</ele>
        <time>2017-04-18T15:01:26Z</time>
      </trkpt>
      <trkpt lat="49.31326" lon="1.25771">
        <ele>153</ele>
        <time>2017-04-18T15:01:42Z</time>
      </trkpt>
      <trkpt lat="49.31328" lon="1.25763">
        <ele>153</ele>
        <time>2017-04-18T15:01:42Z</time>
      </trkpt>
      <trkpt lat="49.31332" lon="1.25762">
        <ele>153</ele>
        <time>2017-04-18T15:01:42Z</time>
      </trkpt>
      <trkpt lat="49.31337" lon="1.2576">
        <ele>153</ele>
        <time>2017-04-18T15:01:42Z</time>
      </trkpt>
      <trkpt lat="49.3134" lon="1.25754">
        <ele>153</ele>
        <time>2017-04-18T15:01:57Z</time>
      </trkpt>
      <trkpt lat="49.31344" lon="1.2575">
        <ele>153</ele>
        <time>2017-04-18T15:01:57Z</time>
      </trkpt>
      <trkpt lat="49.3135" lon="1.25754">
        <ele>153</ele>
        <time>2017-04-18T15:01:57Z</time>
      </trkpt>
      <trkpt lat="49.31355" lon="1.2575">
        <ele>153</ele>
        <time>2017-04-18T15:01:58Z</time>
      </trkpt>
      <trkpt lat="49.31359" lon="1.25746">
        <ele>153</ele>
        <time>2017-04-18T15:02:14Z</time>
      </trkpt>
      <trkpt lat="49.31363" lon="1.25739">
        <ele>153</ele>
        <time>2017-04-18T15:02:14Z</time>
      </trkpt>
      <trkpt lat="49.31369" lon="1.25735">
        <ele>153</ele>
        <time>2017-04-18T15:02:14Z</time>
      </trkpt>
      <trkpt lat="49.31372" lon="1.2573">
        <ele>153</ele>
        <time>2017-04-18T15:02:14Z</time>
      </trkpt>
      <trkpt lat="49.31376" lon="1.25726">
        <ele>152</ele>
        <time>2017-04-18T15:02:28Z</time>
      </trkpt>
      <trkpt lat="49.3138" lon="1.25724">
        <ele>152</ele>
        <time>2017-04-18T15:02:28Z</time>
      </trkpt>
      <trkpt lat="49.31384" lon="1.25722">
        <ele>152</ele>
        <time>2017-04-18T15:02:28Z</time>
      </trkpt>
      <trkpt lat="49.31387" lon="1.25718">
        <ele>152</ele>
        <time>2017-04-18T15:02:28Z</time>
      </trkpt>
      <trkpt lat="49.3139" lon="1.25715">
        <ele>152</ele>
        <time>2017-04-18T15:02:44Z</time>
      </trkpt>
      <trkpt lat="49.31393" lon="1.25715">
        <ele>152</ele>
        <time>2017-04-18T15:02:44Z</time>
      </trkpt>
      <trkpt lat="49.31398" lon="1.25716">
        <ele>152</ele>
        <time>2017-04-18T15:02:44Z</time>
      </trkpt>
      <trkpt lat="49.31401" lon="1.25711">
        <ele>152</ele>
        <time>2017-04-18T15:02:44Z</time>
      </trkpt>
      <trkpt lat="49.31404" lon="1.25705">
        <ele>153</ele>
        <time>2017-04-18T15:03:02Z</time>
      </trkpt>
      <trkpt lat="49.31408" lon="1.25699">
        <ele>153</ele>
        <time>2017-04-18T15:03:02Z</time>
      </trkpt>
      <trkpt lat="49.3141" lon="1.25694">
        <ele>153</ele>
        <time>2017-04-18T15:03:02Z</time>
      </trkpt>
      <trkpt lat="49.31414" lon="1.2569">
        <ele>153</ele>
        <time>2017-04-18T15:03:02Z</time>
      </trkpt>
      <trkpt lat="49.31416" lon="1.25683">
        <ele>153</ele>
        <time>2017-04-18T15:03:17Z</time>
      </trkpt>
      <trkpt lat="49.3142" lon="1.25679">
        <ele>153</ele>
        <time>2017-04-18T15:03:17Z</time>
      </trkpt>
      <trkpt lat="49.31425" lon="1.25675">
        <ele>153</ele>
        <time>2017-04-18T15:03:17Z</time>
      </trkpt>
      <trkpt lat="49.3143" lon="1.25676">
        <ele>153</ele>
        <time>2017-04-18T15:03:17Z</time>
      </trkpt>
      <trkpt lat="49.31433" lon="1.25671">
        <ele>153</ele>
        <time>2017-04-18T15:03:34Z</time>
      </trkpt>
      <trkpt lat="49.31434" lon="1.25659">
        <ele>153</ele>
        <time>2017-04-18T15:03:34Z</time>
      </trkpt>
      <trkpt lat="49.31437" lon="1.25655">
        <ele>153</ele>
        <time>2017-04-18T15:03:34Z</time>
      </trkpt>
      <trkpt lat="49.31445" lon="1.25653">
        <ele>153</ele>
        <time>2017-04-18T15:03:34Z</time>
      </trkpt>
      <trkpt lat="49.31448" lon="1.25652">
        <ele>153</ele>
        <time>2017-04-18T15:03:50Z</time>
      </trkpt>
      <trkpt lat="49.31454" lon="1.25652">
        <ele>153</ele>
        <time>2017-04-18T15:03:50Z</time>
      </trkpt>
      <trkpt lat="49.31457" lon="1.25649">
        <ele>153</ele>
        <time>2017-04-18T15:03:50Z</time>
      </trkpt>
      <trkpt lat="49.31462" lon="1.2564">
        <ele>152</ele>
        <time>2017-04-18T15:03:50Z</time>
      </trkpt>
      <trkpt lat="49.31464" lon="1.2563">
        <ele>152</ele>
        <time>2017-04-18T15:04:06Z</time>
      </trkpt>
      <trkpt lat="49.31464" lon="1.25619">
        <ele>153</ele>
        <time>2017-04-18T15:04:06Z</time>
      </trkpt>
      <trkpt lat="49.31467" lon="1.25613">
        <ele>153</ele>
        <time>2017-04-18T15:04:06Z</time>
      </trkpt>
      <trkpt lat="49.31473" lon="1.25608">
        <ele>153</ele>
        <time>2017-04-18T15:04:06Z</time>
      </trkpt>
      <trkpt lat="49.31484" lon="1.25594">
        <ele>153</ele>
        <time>2017-04-18T15:04:37Z</time>
      </trkpt>
      <trkpt lat="49.31484" lon="1.25587">
        <ele>153</ele>
        <time>2017-04-18T15:04:37Z</time>
      </trkpt>
      <trkpt lat="49.31489" lon="1.2558">
        <ele>153</ele>
        <time>2017-04-18T15:04:37Z</time>
      </trkpt>
      <trkpt lat="49.31498" lon="1.25576">
        <ele>153</ele>
        <time>2017-04-18T15:04:37Z</time>
      </trkpt>
      <trkpt lat="49.31501" lon="1.25575">
        <ele>153</ele>
        <time>2017-04-18T15:04:37Z</time>
      </trkpt>
      <trkpt lat="49.31509" lon="1.25573">
        <ele>153</ele>
        <time>2017-04-18T15:04:53Z</time>
      </trkpt>
      <trkpt lat="49.3151" lon="1.25567">
        <ele>153</ele>
        <time>2017-04-18T15:04:53Z</time>
      </trkpt>
      <trkpt lat="49.31514" lon="1.25559">
        <ele>153</ele>
        <time>2017-04-18T15:04:53Z</time>
      </trkpt>
      <trkpt lat="49.31517" lon="1.25554">
        <ele>153</ele>
        <time>2017-04-18T15:04:54Z</time>
      </trkpt>
      <trkpt lat="49.3152" lon="1.2555">
        <ele>153</ele>
        <time>2017-04-18T15:05:10Z</time>
      </trkpt>
      <trkpt lat="49.31525" lon="1.25548">
        <ele>153</ele>
        <time>2017-04-18T15:05:10Z</time>
      </trkpt>
      <trkpt lat="49.31526" lon="1.25542">
        <ele>152</ele>
        <time>2017-04-18T15:05:10Z</time>
      </trkpt>
      <trkpt lat="49.31529" lon="1.25538">
        <ele>152</ele>
        <time>2017-04-18T15:05:10Z</time>
      </trkpt>
      <trkpt lat="49.31532" lon="1.25534">
        <ele>152</ele>
        <time>2017-04-18T15:05:26Z</time>
      </trkpt>
      <trkpt lat="49.31537" lon="1.25535">
        <ele>152</ele>
        <time>2017-04-18T15:05:26Z</time>
      </trkpt>
      <trkpt lat="49.31541" lon="1.25538">
        <ele>152</ele>
        <time>2017-04-18T15:05:26Z</time>
      </trkpt>
      <trkpt lat="49.31544" lon="1.2554">
        <ele>154</ele>
        <time>2017-04-18T15:05:26Z</time>
      </trkpt>
      <trkpt lat="49.31548" lon="1.25539">
        <ele>154</ele>
        <time>2017-04-18T15:07:44Z</time>
      </trkpt>
      <trkpt lat="49.31549" lon="1.25537">
        <ele>154</ele>
        <time>2017-04-18T15:07:44Z</time>
      </trkpt>
      <trkpt lat="49.31549" lon="1.25536">
        <ele>154</ele>
        <time>2017-04-18T15:07:44Z</time>
      </trkpt>
      <trkpt lat="49.31549" lon="1.25535">
        <ele>154</ele>
        <time>2017-04-18T15:07:44Z</time>
      </trkpt>
      <trkpt lat="49.31578" lon="1.25534">
        <ele>154</ele>
        <time>2017-04-18T15:07:44Z</time>
      </trkpt>
      <trkpt lat="49.31566" lon="1.25528">
        <ele>154</ele>
        <time>2017-04-18T15:10:08Z</time>
      </trkpt>
      <trkpt lat="49.31597" lon="1.25504">
        <ele>154</ele>
        <time>2017-04-18T15:10:08Z</time>
      </trkpt>
      <trkpt lat="49.31601" lon="1.25502">
        <ele>154</ele>
        <time>2017-04-18T15:10:08Z</time>
      </trkpt>
      <trkpt lat="49.31609" lon="1.25499">
        <ele>154</ele>
        <time>2017-04-18T15:10:08Z</time>
      </trkpt>
      <trkpt lat="49.31617" lon="1.25502">
        <ele>154</ele>
        <time>2017-04-18T15:10:08Z</time>
      </trkpt>
      <trkpt lat="49.31623" lon="1.25505">
        <ele>154</ele>
        <time>2017-04-18T15:10:24Z</time>
      </trkpt>
      <trkpt lat="49.31628" lon="1.25505">
        <ele>152</ele>
        <time>2017-04-18T15:10:24Z</time>
      </trkpt>
      <trkpt lat="49.31633" lon="1.25501">
        <ele>152</ele>
        <time>2017-04-18T15:10:24Z</time>
      </trkpt>
      <trkpt lat="49.31638" lon="1.25497">
        <ele>152</ele>
        <time>2017-04-18T15:10:24Z</time>
      </trkpt>
      <trkpt lat="49.31643" lon="1.25496">
        <ele>152</ele>
        <time>2017-04-18T15:10:40Z</time>
      </trkpt>
      <trkpt lat="49.31645" lon="1.25491">
        <ele>152</ele>
        <time>2017-04-18T15:10:41Z</time>
      </trkpt>
      <trkpt lat="49.3165" lon="1.25487">
        <ele>152</ele>
        <time>2017-04-18T15:10:41Z</time>
      </trkpt>
      <trkpt lat="49.31654" lon="1.25483">
        <ele>152</ele>
        <time>2017-04-18T15:10:41Z</time>
      </trkpt>
      <trkpt lat="49.31656" lon="1.25477">
        <ele>152</ele>
        <time>2017-04-18T15:10:56Z</time>
      </trkpt>
      <trkpt lat="49.31659" lon="1.25472">
        <ele>152</ele>
        <time>2017-04-18T15:10:56Z</time>
      </trkpt>
      <trkpt lat="49.31661" lon="1.25466">
        <ele>152</ele>
        <time>2017-04-18T15:10:56Z</time>
      </trkpt>
      <trkpt lat="49.31664" lon="1.25464">
        <ele>152</ele>
        <time>2017-04-18T15:10:56Z</time>
      </trkpt>
      <trkpt lat="49.3167" lon="1.25465">
        <ele>152</ele>
        <time>2017-04-18T15:11:12Z</time>
      </trkpt>
      <trkpt lat="49.31674" lon="1.25462">
        <ele>152</ele>
        <time>2017-04-18T15:11:12Z</time>
      </trkpt>
      <trkpt lat="49.31677" lon="1.25459">
        <ele>152</ele>
        <time>2017-04-18T15:11:12Z</time>
      </trkpt>
      <trkpt lat="49.31682" lon="1.25459">
        <ele>152</ele>
        <time>2017-04-18T15:11:12Z</time>
      </trkpt>
      <trkpt lat="49.31684" lon="1.25452">
        <ele>152</ele>
        <time>2017-04-18T15:11:28Z</time>
      </trkpt>
      <trkpt lat="49.31687" lon="1.25443">
        <ele>152</ele>
        <time>2017-04-18T15:11:29Z</time>
      </trkpt>
      <trkpt lat="49.3169" lon="1.25433">
        <ele>152</ele>
        <time>2017-04-18T15:11:29Z</time>
      </trkpt>
      <trkpt lat="49.31693" lon="1.25426">
        <ele>152</ele>
        <time>2017-04-18T15:11:29Z</time>
      </trkpt>
      <trkpt lat="49.31698" lon="1.2542">
        <ele>152</ele>
        <time>2017-04-18T15:11:44Z</time>
      </trkpt>
      <trkpt lat="49.31703" lon="1.25414">
        <ele>152</ele>
        <time>2017-04-18T15:11:44Z</time>
      </trkpt>
      <trkpt lat="49.31707" lon="1.25412">
        <ele>152</ele>
        <time>2017-04-18T15:11:44Z</time>
      </trkpt>
      <trkpt lat="49.31712" lon="1.25406">
        <ele>153</ele>
        <time>2017-04-18T15:11:44Z</time>
      </trkpt>
      <trkpt lat="49.31715" lon="1.25399">
        <ele>153</ele>
        <time>2017-04-18T15:12:00Z</time>
      </trkpt>
      <trkpt lat="49.31723" lon="1.25398">
        <ele>153</ele>
        <time>2017-04-18T15:12:00Z</time>
      </trkpt>
      <trkpt lat="49.31728" lon="1.25399">
        <ele>153</ele>
        <time>2017-04-18T15:12:00Z</time>
      </trkpt>
      <trkpt lat="49.31733" lon="1.25396">
        <ele>153</ele>
        <time>2017-04-18T15:12:00Z</time>
      </trkpt>
      <trkpt lat="49.31734" lon="1.25387">
        <ele>153</ele>
        <time>2017-04-18T15:12:16Z</time>
      </trkpt>
      <trkpt lat="49.31739" lon="1.25381">
        <ele>153</ele>
        <time>2017-04-18T15:12:16Z</time>
      </trkpt>
      <trkpt lat="49.31741" lon="1.25373">
        <ele>153</ele>
        <time>2017-04-18T15:12:16Z</time>
      </trkpt>
      <trkpt lat="49.31744" lon="1.25369">
        <ele>153</ele>
        <time>2017-04-18T15:12:17Z</time>
      </trkpt>
      <trkpt lat="49.31749" lon="1.25365">
        <ele>153</ele>
        <time>2017-04-18T15:12:32Z</time>
      </trkpt>
      <trkpt lat="49.31753" lon="1.25361">
        <ele>153</ele>
        <time>2017-04-18T15:12:32Z</time>
      </trkpt>
      <trkpt lat="49.31755" lon="1.25355">
        <ele>153</ele>
        <time>2017-04-18T15:12:32Z</time>
      </trkpt>
      <trkpt lat="49.31756" lon="1.25346">
        <ele>153</ele>
        <time>2017-04-18T15:12:32Z</time>
      </trkpt>
      <trkpt lat="49.31756" lon="1.25337">
        <ele>153</ele>
        <time>2017-04-18T15:12:48Z</time>
      </trkpt>
      <trkpt lat="49.31758" lon="1.2533">
        <ele>153</ele>
        <time>2017-04-18T15:12:48Z</time>
      </trkpt>
      <trkpt lat="49.31757" lon="1.2532">
        <ele>153</ele>
        <time>2017-04-18T15:12:48Z</time>
      </trkpt>
      <trkpt lat="49.31757" lon="1.25313">
        <ele>153</ele>
        <time>2017-04-18T15:12:48Z</time>
      </trkpt>
      <trkpt lat="49.31756" lon="1.25302">
        <ele>153</ele>
        <time>2017-04-18T15:13:04Z</time>
      </trkpt>
      <trkpt lat="49.31758" lon="1.25295">
        <ele>153</ele>
        <time>2017-04-18T15:13:04Z</time>
      </trkpt>
      <trkpt lat="49.31755" lon="1.25286">
        <ele>153</ele>
        <time>2017-04-18T15:13:04Z</time>
      </trkpt>
      <trkpt lat="49.31753" lon="1.25278">
        <ele>153</ele>
        <time>2017-04-18T15:13:04Z</time>
      </trkpt>
      <trkpt lat="49.31751" lon="1.25269">
        <ele>153</ele>
        <time>2017-04-18T15:13:20Z</time>
      </trkpt>
      <trkpt lat="49.31751" lon="1.25261">
        <ele>153</ele>
        <time>2017-04-18T15:13:20Z</time>
      </trkpt>
      <trkpt lat="49.31751" lon="1.25254">
        <ele>153</ele>
        <time>2017-04-18T15:13:20Z</time>
      </trkpt>
      <trkpt lat="49.3175" lon="1.25246">
        <ele>153</ele>
        <time>2017-04-18T15:13:20Z</time>
      </trkpt>
      <trkpt lat="49.3175" lon="1.2524">
        <ele>153</ele>
        <time>2017-04-18T15:13:36Z</time>
      </trkpt>
      <trkpt lat="49.31752" lon="1.25238">
        <ele>153</ele>
        <time>2017-04-18T15:13:36Z</time>
      </trkpt>
      <trkpt lat="49.31754" lon="1.25234">
        <ele>153</ele>
        <time>2017-04-18T15:13:36Z</time>
      </trkpt>
      <trkpt lat="49.31748" lon="1.25226">
        <ele>153</ele>
        <time>2017-04-18T15:13:36Z</time>
      </trkpt>
      <trkpt lat="49.31744" lon="1.25218">
        <ele>153</ele>
        <time>2017-04-18T15:13:52Z</time>
      </trkpt>
      <trkpt lat="49.31742" lon="1.25211">
        <ele>153</ele>
        <time>2017-04-18T15:13:52Z</time>
      </trkpt>
      <trkpt lat="49.31737" lon="1.25204">
        <ele>153</ele>
        <time>2017-04-18T15:13:52Z</time>
      </trkpt>
      <trkpt lat="49.31735" lon="1.25194">
        <ele>153</ele>
        <time>2017-04-18T15:13:52Z</time>
      </trkpt>
      <trkpt lat="49.31736" lon="1.25185">
        <ele>153</ele>
        <time>2017-04-18T15:14:08Z</time>
      </trkpt>
      <trkpt lat="49.31739" lon="1.2518">
        <ele>153</ele>
        <time>2017-04-18T15:14:08Z</time>
      </trkpt>
      <trkpt lat="49.31739" lon="1.25174">
        <ele>153</ele>
        <time>2017-04-18T15:14:08Z</time>
      </trkpt>
      <trkpt lat="49.31738" lon="1.25163">
        <ele>153</ele>
        <time>2017-04-18T15:14:08Z</time>
      </trkpt>
      <trkpt lat="49.3174" lon="1.25158">
        <ele>153</ele>
        <time>2017-04-18T15:14:24Z</time>
      </trkpt>
      <trkpt lat="49.31744" lon="1.25151">
        <ele>153</ele>
        <time>2017-04-18T15:14:24Z</time>
      </trkpt>
      <trkpt lat="49.31742" lon="1.25144">
        <ele>153</ele>
        <time>2017-04-18T15:14:24Z</time>
      </trkpt>
      <trkpt lat="49.31741" lon="1.25138">
        <ele>153</ele>
        <time>2017-04-18T15:14:24Z</time>
      </trkpt>
      <trkpt lat="49.3174" lon="1.25134">
        <ele>153</ele>
        <time>2017-04-18T15:14:40Z</time>
      </trkpt>
      <trkpt lat="49.31739" lon="1.25125">
        <ele>153</ele>
        <time>2017-04-18T15:14:40Z</time>
      </trkpt>
      <trkpt lat="49.31738" lon="1.25116">
        <ele>153</ele>
        <time>2017-04-18T15:14:40Z</time>
      </trkpt>
      <trkpt lat="49.31736" lon="1.25109">
        <ele>153</ele>
        <time>2017-04-18T15:14:40Z</time>
      </trkpt>
      <trkpt lat="49.3174" lon="1.251">
        <ele>153</ele>
        <time>2017-04-18T15:14:56Z</time>
      </trkpt>
      <trkpt lat="49.31744" lon="1.25096">
        <ele>153</ele>
        <time>2017-04-18T15:14:56Z</time>
      </trkpt>
      <trkpt lat="49.31742" lon="1.25085">
        <ele>153</ele>
        <time>2017-04-18T15:14:56Z</time>
      </trkpt>
      <trkpt lat="49.3174" lon="1.25077">
        <ele>153</ele>
        <time>2017-04-18T15:14:56Z</time>
      </trkpt>
      <trkpt lat="49.31744" lon="1.25069">
        <ele>153</ele>
        <time>2017-04-18T15:15:12Z</time>
      </trkpt>
      <trkpt lat="49.31749" lon="1.25062">
        <ele>153</ele>
        <time>2017-04-18T15:15:12Z</time>
      </trkpt>
      <trkpt lat="49.31752" lon="1.25056">
        <ele>153</ele>
        <time>2017-04-18T15:15:12Z</time>
      </trkpt>
      <trkpt lat="49.31752" lon="1.25048">
        <ele>153</ele>
        <time>2017-04-18T15:15:12Z</time>
      </trkpt>
      <trkpt lat="49.31753" lon="1.25041">
        <ele>153</ele>
        <time>2017-04-18T15:15:28Z</time>
      </trkpt>
      <trkpt lat="49.31756" lon="1.25033">
        <ele>153</ele>
        <time>2017-04-18T15:15:28Z</time>
      </trkpt>
      <trkpt lat="49.31759" lon="1.25027">
        <ele>153</ele>
        <time>2017-04-18T15:15:28Z</time>
      </trkpt>
      <trkpt lat="49.31758" lon="1.25019">
        <ele>153</ele>
        <time>2017-04-18T15:15:28Z</time>
      </trkpt>
      <trkpt lat="49.31758" lon="1.2501">
        <ele>153</ele>
        <time>2017-04-18T15:15:44Z</time>
      </trkpt>
      <trkpt lat="49.31758" lon="1.25002">
        <ele>153</ele>
        <time>2017-04-18T15:15:44Z</time>
      </trkpt>
      <trkpt lat="49.31755" lon="1.24993">
        <ele>153</ele>
        <time>2017-04-18T15:15:44Z</time>
      </trkpt>
      <trkpt lat="49.31755" lon="1.24984">
        <ele>153</ele>
        <time>2017-04-18T15:15:44Z</time>
      </trkpt>
      <trkpt lat="49.31755" lon="1.24975">
        <ele>153</ele>
        <time>2017-04-18T15:16:00Z</time>
      </trkpt>
      <trkpt lat="49.31753" lon="1.24967">
        <ele>153</ele>
        <time>2017-04-18T15:16:00Z</time>
      </trkpt>
      <trkpt lat="49.31754" lon="1.24958">
        <ele>151</ele>
        <time>2017-04-18T15:16:00Z</time>
      </trkpt>
      <trkpt lat="49.31754" lon="1.24951">
        <ele>151</ele>
        <time>2017-04-18T15:16:00Z</time>
      </trkpt>
      <trkpt lat="49.31756" lon="1.24945">
        <ele>151</ele>
        <time>2017-04-18T15:16:16Z</time>
      </trkpt>
      <trkpt lat="49.31755" lon="1.24938">
        <ele>151</ele>
        <time>2017-04-18T15:16:16Z</time>
      </trkpt>
      <trkpt lat="49.31755" lon="1.24932">
        <ele>151</ele>
        <time>2017-04-18T15:16:16Z</time>
      </trkpt>
      <trkpt lat="49.31756" lon="1.24926">
        <ele>151</ele>
        <time>2017-04-18T15:16:16Z</time>
      </trkpt>
      <trkpt lat="49.31756" lon="1.2492">
        <ele>151</ele>
        <time>2017-04-18T15:16:32Z</time>
      </trkpt>
      <trkpt lat="49.31756" lon="1.24913">
        <ele>151</ele>
        <time>2017-04-18T15:16:32Z</time>
      </trkpt>
      <trkpt lat="49.31754" lon="1.24903">
        <ele>151</ele>
        <time>2017-04-18T15:16:32Z</time>
      </trkpt>
      <trkpt lat="49.31755" lon="1.24895">
        <ele>151</ele>
        <time>2017-04-18T15:16:32Z</time>
      </trkpt>
      <trkpt lat="49.31756" lon="1.24886">
        <ele>151</ele>
        <time>2017-04-18T15:16:48Z</time>
      </trkpt>
      <trkpt lat="49.31755" lon="1.2488">
        <ele>151</ele>
        <time>2017-04-18T15:16:48Z</time>
      </trkpt>
      <trkpt lat="49.3175" lon="1.24877">
        <ele>151</ele>
        <time>2017-04-18T15:16:48Z</time>
      </trkpt>
      <trkpt lat="49.31743" lon="1.24874">
        <ele>150</ele>
        <time>2017-04-18T15:16:48Z</time>
      </trkpt>
      <trkpt lat="49.3174" lon="1.24865">
        <ele>150</ele>
        <time>2017-04-18T15:17:04Z</time>
      </trkpt>
      <trkpt lat="49.31736" lon="1.2486">
        <ele>150</ele>
        <time>2017-04-18T15:17:04Z</time>
      </trkpt>
      <trkpt lat="49.31733" lon="1.24851">
        <ele>150</ele>
        <time>2017-04-18T15:17:04Z</time>
      </trkpt>
      <trkpt lat="49.31735" lon="1.24839">
        <ele>150</ele>
        <time>2017-04-18T15:17:04Z</time>
      </trkpt>
      <trkpt lat="49.31731" lon="1.24834">
        <ele>150</ele>
        <time>2017-04-18T15:17:20Z</time>
      </trkpt>
      <trkpt lat="49.31728" lon="1.24831">
        <ele>150</ele>
        <time>2017-04-18T15:17:20Z</time>
      </trkpt>
      <trkpt lat="49.31728" lon="1.24823">
        <ele>150</ele>
        <time>2017-04-18T15:17:20Z</time>
      </trkpt>
      <trkpt lat="49.31727" lon="1.24813">
        <ele>150</ele>
        <time>2017-04-18T15:17:20Z</time>
      </trkpt>
      <trkpt lat="49.31728" lon="1.24806">
        <ele>150</ele>
        <time>2017-04-18T15:17:36Z</time>
      </trkpt>
      <trkpt lat="49.31729" lon="1.24799">
        <ele>150</ele>
        <time>2017-04-18T15:17:36Z</time>
      </trkpt>
      <trkpt lat="49.31725" lon="1.24792">
        <ele>146</ele>
        <time>2017-04-18T15:17:36Z</time>
      </trkpt>
      <trkpt lat="49.31718" lon="1.24789">
        <ele>146</ele>
        <time>2017-04-18T15:17:36Z</time>
      </trkpt>
      <trkpt lat="49.31714" lon="1.24787">
        <ele>146</ele>
        <time>2017-04-18T15:17:52Z</time>
      </trkpt>
      <trkpt lat="49.3171" lon="1.24784">
        <ele>146</ele>
        <time>2017-04-18T15:17:52Z</time>
      </trkpt>
      <trkpt lat="49.31705" lon="1.24777">
        <ele>140</ele>
        <time>2017-04-18T15:17:52Z</time>
      </trkpt>
      <trkpt lat="49.31701" lon="1.24772">
        <ele>140</ele>
        <time>2017-04-18T15:17:52Z</time>
      </trkpt>
      <trkpt lat="49.31698" lon="1.24763">
        <ele>140</ele>
        <time>2017-04-18T15:18:08Z</time>
      </trkpt>
      <trkpt lat="49.31693" lon="1.24758">
        <ele>140</ele>
        <time>2017-04-18T15:18:08Z</time>
      </trkpt>
      <trkpt lat="49.31693" lon="1.2475">
        <ele>140</ele>
        <time>2017-04-18T15:18:08Z</time>
      </trkpt>
      <trkpt lat="49.31689" lon="1.24744">
        <ele>140</ele>
        <time>2017-04-18T15:18:08Z</time>
      </trkpt>
      <trkpt lat="49.31687" lon="1.24737">
        <ele>140</ele>
        <time>2017-04-18T15:18:24Z</time>
      </trkpt>
      <trkpt lat="49.31688" lon="1.24729">
        <ele>140</ele>
        <time>2017-04-18T15:18:24Z</time>
      </trkpt>
      <trkpt lat="49.31691" lon="1.24719">
        <ele>140</ele>
        <time>2017-04-18T15:18:24Z</time>
      </trkpt>
      <trkpt lat="49.31687" lon="1.24711">
        <ele>140</ele>
        <time>2017-04-18T15:18:24Z</time>
      </trkpt>
      <trkpt lat="49.31687" lon="1.24702">
        <ele>133</ele>
        <time>2017-04-18T15:18:40Z</time>
      </trkpt>
      <trkpt lat="49.31689" lon="1.24694">
        <ele>133</ele>
        <time>2017-04-18T15:18:41Z</time>
      </trkpt>
      <trkpt lat="49.31685" lon="1.24688">
        <ele>133</ele>
        <time>2017-04-18T15:18:41Z</time>
      </trkpt>
      <trkpt lat="49.31684" lon="1.24685">
        <ele>133</ele>
        <time>2017-04-18T15:18:41Z</time>
      </trkpt>
      <trkpt lat="49.31683" lon="1.24678">
        <ele>133</ele>
        <time>2017-04-18T15:18:56Z</time>
      </trkpt>
      <trkpt lat="49.31679" lon="1.24675">
        <ele>133</ele>
        <time>2017-04-18T15:18:56Z</time>
      </trkpt>
      <trkpt lat="49.31675" lon="1.24671">
        <ele>133</ele>
        <time>2017-04-18T15:18:56Z</time>
      </trkpt>
      <trkpt lat="49.31679" lon="1.24659">
        <ele>133</ele>
        <time>2017-04-18T15:18:56Z</time>
      </trkpt>
      <trkpt lat="49.31678" lon="1.24648">
        <ele>133</ele>
        <time>2017-04-18T15:19:12Z</time>
      </trkpt>
      <trkpt lat="49.31676" lon="1.24641">
        <ele>133</ele>
        <time>2017-04-18T15:19:12Z</time>
      </trkpt>
      <trkpt lat="49.31675" lon="1.24636">
        <ele>133</ele>
        <time>2017-04-18T15:19:12Z</time>
      </trkpt>
      <trkpt lat="49.31674" lon="1.24631">
        <ele>133</ele>
        <time>2017-04-18T15:19:12Z</time>
      </trkpt>
      <trkpt lat="49.3167" lon="1.24626">
        <ele>133</ele>
        <time>2017-04-18T15:19:28Z</time>
      </trkpt>
      <trkpt lat="49.31668" lon="1.24619">
        <ele>129</ele>
        <time>2017-04-18T15:19:28Z</time>
      </trkpt>
      <trkpt lat="49.31665" lon="1.24614">
        <ele>129</ele>
        <time>2017-04-18T15:19:28Z</time>
      </trkpt>
      <trkpt lat="49.3166" lon="1.24606">
        <ele>129</ele>
        <time>2017-04-18T15:19:28Z</time>
      </trkpt>
      <trkpt lat="49.3166" lon="1.24597">
        <ele>129</ele>
        <time>2017-04-18T15:19:44Z</time>
      </trkpt>
      <trkpt lat="49.3166" lon="1.24587">
        <ele>129</ele>
        <time>2017-04-18T15:19:44Z</time>
      </trkpt>
      <trkpt lat="49.31658" lon="1.24583">
        <ele>129</ele>
        <time>2017-04-18T15:19:44Z</time>
      </trkpt>
      <trkpt lat="49.31657" lon="1.24575">
        <ele>129</ele>
        <time>2017-04-18T15:19:44Z</time>
      </trkpt>
      <trkpt lat="49.31657" lon="1.24568">
        <ele>129</ele>
        <time>2017-04-18T15:20:00Z</time>
      </trkpt>
      <trkpt lat="49.31658" lon="1.24562">
        <ele>129</ele>
        <time>2017-04-18T15:20:00Z</time>
      </trkpt>
      <trkpt lat="49.31657" lon="1.24556">
        <ele>129</ele>
        <time>2017-04-18T15:20:00Z</time>
      </trkpt>
      <trkpt lat="49.31652" lon="1.2455">
        <ele>129</ele>
        <time>2017-04-18T15:20:00Z</time>
      </trkpt>
      <trkpt lat="49.31649" lon="1.24545">
        <ele>129</ele>
        <time>2017-04-18T15:20:16Z</time>
      </trkpt>
      <trkpt lat="49.31648" lon="1.24538">
        <ele>131</ele>
        <time>2017-04-18T15:20:16Z</time>
      </trkpt>
      <trkpt lat="49.3165" lon="1.24531">
        <ele>131</ele>
        <time>2017-04-18T15:20:16Z</time>
      </trkpt>
      <trkpt lat="49.31649" lon="1.24523">
        <ele>131</ele>
        <time>2017-04-18T15:20:16Z</time>
      </trkpt>
      <trkpt lat="49.31647" lon="1.2452">
        <ele>131</ele>
        <time>2017-04-18T15:20:32Z</time>
      </trkpt>
      <trkpt lat="49.31646" lon="1.24514">
        <ele>131</ele>
        <time>2017-04-18T15:20:32Z</time>
      </trkpt>
      <trkpt lat="49.31645" lon="1.24507">
        <ele>131</ele>
        <time>2017-04-18T15:20:32Z</time>
      </trkpt>
      <trkpt lat="49.31643" lon="1.24501">
        <ele>131</ele>
        <time>2017-04-18T15:20:32Z</time>
      </trkpt>
      <trkpt lat="49.31643" lon="1.24494">
        <ele>131</ele>
        <time>2017-04-18T15:20:48Z</time>
      </trkpt>
      <trkpt lat="49.31641" lon="1.24491">
        <ele>131</ele>
        <time>2017-04-18T15:20:48Z</time>
      </trkpt>
      <trkpt lat="49.31639" lon="1.24486">
        <ele>131</ele>
        <time>2017-04-18T15:20:48Z</time>
      </trkpt>
      <trkpt lat="49.31637" lon="1.24481">
        <ele>131</ele>
        <time>2017-04-18T15:20:49Z</time>
      </trkpt>
      <trkpt lat="49.31636" lon="1.24476">
        <ele>131</ele>
        <time>2017-04-18T15:21:04Z</time>
      </trkpt>
      <trkpt lat="49.31633" lon="1.24469">
        <ele>131</ele>
        <time>2017-04-18T15:21:04Z</time>
      </trkpt>
      <trkpt lat="49.31632" lon="1.24464">
        <ele>131</ele>
        <time>2017-04-18T15:21:04Z</time>
      </trkpt>
      <trkpt lat="49.31632" lon="1.24459">
        <ele>131</ele>
        <time>2017-04-18T15:21:04Z</time>
      </trkpt>
      <trkpt lat="49.31631" lon="1.24455">
        <ele>121</ele>
        <time>2017-04-18T15:21:20Z</time>
      </trkpt>
      <trkpt lat="49.31629" lon="1.2445">
        <ele>121</ele>
        <time>2017-04-18T15:21:20Z</time>
      </trkpt>
      <trkpt lat="49.31628" lon="1.24441">
        <ele>121</ele>
        <time>2017-04-18T15:21:21Z</time>
      </trkpt>
      <trkpt lat="49.3163" lon="1.24434">
        <ele>121</ele>
        <time>2017-04-18T15:21:21Z</time>
      </trkpt>
      <trkpt lat="49.31627" lon="1.24429">
        <ele>121</ele>
        <time>2017-04-18T15:21:36Z</time>
      </trkpt>
      <trkpt lat="49.31624" lon="1.24425">
        <ele>102</ele>
        <time>2017-04-18T15:21:36Z</time>
      </trkpt>
      <trkpt lat="49.31619" lon="1.2442">
        <ele>102</ele>
        <time>2017-04-18T15:21:36Z</time>
      </trkpt>
      <trkpt lat="49.31615" lon="1.24417">
        <ele>102</ele>
        <time>2017-04-18T15:21:36Z</time>
      </trkpt>
      <trkpt lat="49.31612" lon="1.24407">
        <ele>102</ele>
        <time>2017-04-18T15:22:24Z</time>
      </trkpt>
      <trkpt lat="49.31612" lon="1.24407">
        <ele>102</ele>
        <time>2017-04-18T15:22:25Z</time>
      </trkpt>
      <trkpt lat="49.31612" lon="1.24406">
        <ele>102</ele>
        <time>2017-04-18T15:22:25Z</time>
      </trkpt>
      <trkpt lat="49.31606" lon="1.24401">
        <ele>102</ele>
        <time>2017-04-18T15:22:25Z</time>
      </trkpt>
      <trkpt lat="49.31603" lon="1.244">
        <ele>102</ele>
        <time>2017-04-18T15:22:25Z</time>
      </trkpt>
      <trkpt lat="49.316" lon="1.24394">
        <ele>102</ele>
        <time>2017-04-18T15:24:28Z</time>
      </trkpt>
      <trkpt lat="49.31595" lon="1.2439">
        <ele>102</ele>
        <time>2017-04-18T15:24:28Z</time>
      </trkpt>
      <trkpt lat="49.3159" lon="1.24391">
        <ele>102</ele>
        <time>2017-04-18T15:24:28Z</time>
      </trkpt>
      <trkpt lat="49.31585" lon="1.2439">
        <ele>102</ele>
        <time>2017-04-18T15:24:28Z</time>
      </trkpt>
      <trkpt lat="49.31581" lon="1.2439">
        <ele>102</ele>
        <time>2017-04-18T15:24:28Z</time>
      </trkpt>
      <trkpt lat="49.31577" lon="1.24389">
        <ele>102</ele>
        <time>2017-04-18T15:24:44Z</time>
      </trkpt>
      <trkpt lat="49.31573" lon="1.2439">
        <ele>102</ele>
        <time>2017-04-18T15:24:44Z</time>
      </trkpt>
      <trkpt lat="49.31568" lon="1.24392">
        <ele>102</ele>
        <time>2017-04-18T15:24:45Z</time>
      </trkpt>
      <trkpt lat="49.31564" lon="1.24392">
        <ele>102</ele>
        <time>2017-04-18T15:24:45Z</time>
      </trkpt>
      <trkpt lat="49.3156" lon="1.24396">
        <ele>102</ele>
        <time>2017-04-18T15:25:00Z</time>
      </trkpt>
      <trkpt lat="49.31555" lon="1.24399">
        <ele>102</ele>
        <time>2017-04-18T15:25:00Z</time>
      </trkpt>
      <trkpt lat="49.31551" lon="1.24398">
        <ele>102</ele>
        <time>2017-04-18T15:25:00Z</time>
      </trkpt>
      <trkpt lat="49.31548" lon="1.24398">
        <ele>102</ele>
        <time>2017-04-18T15:25:00Z</time>
      </trkpt>
      <trkpt lat="49.31545" lon="1.24399">
        <ele>102</ele>
        <time>2017-04-18T15:25:16Z</time>
      </trkpt>
      <trkpt lat="49.31541" lon="1.24403">
        <ele>66</ele>
        <time>2017-04-18T15:25:16Z</time>
      </trkpt>
      <trkpt lat="49.31537" lon="1.24406">
        <ele>66</ele>
        <time>2017-04-18T15:25:16Z</time>
      </trkpt>
      <trkpt lat="49.31534" lon="1.2441">
        <ele>66</ele>
        <time>2017-04-18T15:25:16Z</time>
      </trkpt>
      <trkpt lat="49.31529" lon="1.24408">
        <ele>66</ele>
        <time>2017-04-18T15:25:32Z</time>
      </trkpt>
      <trkpt lat="49.31525" lon="1.2441">
        <ele>66</ele>
        <time>2017-04-18T15:25:32Z</time>
      </trkpt>
      <trkpt lat="49.31522" lon="1.2441">
        <ele>66</ele>
        <time>2017-04-18T15:25:32Z</time>
      </trkpt>
      <trkpt lat="49.31519" lon="1.24413">
        <ele>66</ele>
        <time>2017-04-18T15:25:32Z</time>
      </trkpt>
      <trkpt lat="49.31517" lon="1.2442">
        <ele>66</ele>
        <time>2017-04-18T15:25:48Z</time>
      </trkpt>
      <trkpt lat="49.31515" lon="1.24427">
        <ele>66</ele>
        <time>2017-04-18T15:25:48Z</time>
      </trkpt>
      <trkpt lat="49.31519" lon="1.24434">
        <ele>66</ele>
        <time>2017-04-18T15:25:48Z</time>
      </trkpt>
      <trkpt lat="49.31518" lon="1.24442">
        <ele>66</ele>
        <time>2017-04-18T15:25:48Z</time>
      </trkpt>
      <trkpt lat="49.31518" lon="1.2445">
        <ele>66</ele>
        <time>2017-04-18T15:26:04Z</time>
      </trkpt>
      <trkpt lat="49.31522" lon="1.24455">
        <ele>66</ele>
        <time>2017-04-18T15:26:04Z</time>
      </trkpt>
      <trkpt lat="49.31527" lon="1.24459">
        <ele>67</ele>
        <time>2017-04-18T15:26:04Z</time>
      </trkpt>
      <trkpt lat="49.31526" lon="1.24468">
        <ele>67</ele>
        <time>2017-04-18T15:26:04Z</time>
      </trkpt>
      <trkpt lat="49.31527" lon="1.24475">
        <ele>67</ele>
        <time>2017-04-18T15:26:24Z</time>
      </trkpt>
      <trkpt lat="49.31528" lon="1.2448">
        <ele>67</ele>
        <time>2017-04-18T15:26:24Z</time>
      </trkpt>
      <trkpt lat="49.31532" lon="1.2448">
        <ele>67</ele>
        <time>2017-04-18T15:26:24Z</time>
      </trkpt>
      <trkpt lat="49.31536" lon="1.24477">
        <ele>67</ele>
        <time>2017-04-18T15:26:24Z</time>
      </trkpt>
      <trkpt lat="49.31538" lon="1.24483">
        <ele>67</ele>
        <time>2017-04-18T15:26:24Z</time>
      </trkpt>
      <trkpt lat="49.31538" lon="1.24489">
        <ele>67</ele>
        <time>2017-04-18T15:26:40Z</time>
      </trkpt>
      <trkpt lat="49.31542" lon="1.24495">
        <ele>67</ele>
        <time>2017-04-18T15:26:40Z</time>
      </trkpt>
      <trkpt lat="49.31543" lon="1.24501">
        <ele>101</ele>
        <time>2017-04-18T15:26:40Z</time>
      </trkpt>
      <trkpt lat="49.31546" lon="1.24505">
        <ele>101</ele>
        <time>2017-04-18T15:26:40Z</time>
      </trkpt>
      <trkpt lat="49.31545" lon="1.24515">
        <ele>101</ele>
        <time>2017-04-18T15:26:56Z</time>
      </trkpt>
      <trkpt lat="49.3154" lon="1.24523">
        <ele>67</ele>
        <time>2017-04-18T15:26:56Z</time>
      </trkpt>
      <trkpt lat="49.3154" lon="1.24528">
        <ele>67</ele>
        <time>2017-04-18T15:26:56Z</time>
      </trkpt>
      <trkpt lat="49.31541" lon="1.24534">
        <ele>67</ele>
        <time>2017-04-18T15:26:56Z</time>
      </trkpt>
      <trkpt lat="49.31538" lon="1.2454">
        <ele>67</ele>
        <time>2017-04-18T15:27:12Z</time>
      </trkpt>
      <trkpt lat="49.31534" lon="1.24546">
        <ele>70</ele>
        <time>2017-04-18T15:27:12Z</time>
      </trkpt>
      <trkpt lat="49.3153" lon="1.2455">
        <ele>70</ele>
        <time>2017-04-18T15:27:12Z</time>
      </trkpt>
      <trkpt lat="49.31529" lon="1.24556">
        <ele>70</ele>
        <time>2017-04-18T15:27:12Z</time>
      </trkpt>
      <trkpt lat="49.31527" lon="1.24561">
        <ele>70</ele>
        <time>2017-04-18T15:27:28Z</time>
      </trkpt>
      <trkpt lat="49.31527" lon="1.24567">
        <ele>70</ele>
        <time>2017-04-18T15:27:28Z</time>
      </trkpt>
      <trkpt lat="49.31531" lon="1.24571">
        <ele>70</ele>
        <time>2017-04-18T15:27:28Z</time>
      </trkpt>
      <trkpt lat="49.31533" lon="1.24578">
        <ele>70</ele>
        <time>2017-04-18T15:27:28Z</time>
      </trkpt>
      <trkpt lat="49.31532" lon="1.24582">
        <ele>70</ele>
        <time>2017-04-18T15:27:44Z</time>
      </trkpt>
      <trkpt lat="49.31525" lon="1.24583">
        <ele>70</ele>
        <time>2017-04-18T15:27:44Z</time>
      </trkpt>
      <trkpt lat="49.31521" lon="1.2458">
        <ele>70</ele>
        <time>2017-04-18T15:27:44Z</time>
      </trkpt>
      <trkpt lat="49.31519" lon="1.24582">
        <ele>70</ele>
        <time>2017-04-18T15:27:44Z</time>
      </trkpt>
      <trkpt lat="49.31513" lon="1.24582">
        <ele>70</ele>
        <time>2017-04-18T15:28:00Z</time>
      </trkpt>
      <trkpt lat="49.31509" lon="1.24577">
        <ele>70</ele>
        <time>2017-04-18T15:28:00Z</time>
      </trkpt>
      <trkpt lat="49.31507" lon="1.24567">
        <ele>70</ele>
        <time>2017-04-18T15:28:00Z</time>
      </trkpt>
      <trkpt lat="49.31505" lon="1.24559">
        <ele>70</ele>
        <time>2017-04-18T15:28:01Z</time>
      </trkpt>
      <trkpt lat="49.31506" lon="1.2455">
        <ele>70</ele>
        <time>2017-04-18T15:28:16Z</time>
      </trkpt>
      <trkpt lat="49.31503" lon="1.24545">
        <ele>70</ele>
        <time>2017-04-18T15:28:16Z</time>
      </trkpt>
      <trkpt lat="49.31499" lon="1.24541">
        <ele>67</ele>
        <time>2017-04-18T15:28:16Z</time>
      </trkpt>
      <trkpt lat="49.31496" lon="1.24538">
        <ele>67</ele>
        <time>2017-04-18T15:28:17Z</time>
      </trkpt>
      <trkpt lat="49.31493" lon="1.24534">
        <ele>67</ele>
        <time>2017-04-18T15:28:32Z</time>
      </trkpt>
      <trkpt lat="49.31487" lon="1.24535">
        <ele>67</ele>
        <time>2017-04-18T15:28:32Z</time>
      </trkpt>
      <trkpt lat="49.31482" lon="1.24537">
        <ele>67</ele>
        <time>2017-04-18T15:28:32Z</time>
      </trkpt>
      <trkpt lat="49.31477" lon="1.24539">
        <ele>67</ele>
        <time>2017-04-18T15:28:32Z</time>
      </trkpt>
      <trkpt lat="49.31472" lon="1.24541">
        <ele>67</ele>
        <time>2017-04-18T15:28:48Z</time>
      </trkpt>
      <trkpt lat="49.31468" lon="1.2454">
        <ele>67</ele>
        <time>2017-04-18T15:28:48Z</time>
      </trkpt>
      <trkpt lat="49.31463" lon="1.24538">
        <ele>67</ele>
        <time>2017-04-18T15:28:49Z</time>
      </trkpt>
      <trkpt lat="49.3146" lon="1.24537">
        <ele>67</ele>
        <time>2017-04-18T15:28:49Z</time>
      </trkpt>
      <trkpt lat="49.31456" lon="1.24535">
        <ele>41</ele>
        <time>2017-04-18T15:29:04Z</time>
      </trkpt>
      <trkpt lat="49.31454" lon="1.2453">
        <ele>41</ele>
        <time>2017-04-18T15:29:04Z</time>
      </trkpt>
      <trkpt lat="49.31451" lon="1.24528">
        <ele>41</ele>
        <time>2017-04-18T15:29:04Z</time>
      </trkpt>
      <trkpt lat="49.31447" lon="1.24527">
        <ele>41</ele>
        <time>2017-04-18T15:29:04Z</time>
      </trkpt>
      <trkpt lat="49.31444" lon="1.24527">
        <ele>41</ele>
        <time>2017-04-18T15:29:20Z</time>
      </trkpt>
      <trkpt lat="49.31442" lon="1.24523">
        <ele>41</ele>
        <time>2017-04-18T15:29:20Z</time>
      </trkpt>
      <trkpt lat="49.31439" lon="1.24519">
        <ele>41</ele>
        <time>2017-04-18T15:29:20Z</time>
      </trkpt>
      <trkpt lat="49.31438" lon="1.24516">
        <ele>41</ele>
        <time>2017-04-18T15:29:20Z</time>
      </trkpt>
      <trkpt lat="49.31435" lon="1.24509">
        <ele>41</ele>
        <time>2017-04-18T15:29:40Z</time>
      </trkpt>
      <trkpt lat="49.31433" lon="1.24508">
        <ele>41</ele>
        <time>2017-04-18T15:29:40Z</time>
      </trkpt>
      <trkpt lat="49.31432" lon="1.24506">
        <ele>41</ele>
        <time>2017-04-18T15:29:40Z</time>
      </trkpt>
      <trkpt lat="49.31433" lon="1.24496">
        <ele>41</ele>
        <time>2017-04-18T15:29:40Z</time>
      </trkpt>
      <trkpt lat="49.31428" lon="1.24491">
        <ele>41</ele>
        <time>2017-04-18T15:29:40Z</time>
      </trkpt>
      <trkpt lat="49.31424" lon="1.24488">
        <ele>41</ele>
        <time>2017-04-18T15:29:56Z</time>
      </trkpt>
      <trkpt lat="49.31421" lon="1.24485">
        <ele>41</ele>
        <time>2017-04-18T15:29:56Z</time>
      </trkpt>
      <trkpt lat="49.31416" lon="1.24478">
        <ele>41</ele>
        <time>2017-04-18T15:29:56Z</time>
      </trkpt>
      <trkpt lat="49.31411" lon="1.24477">
        <ele>41</ele>
        <time>2017-04-18T15:29:56Z</time>
      </trkpt>
      <trkpt lat="49.31407" lon="1.24475">
        <ele>41</ele>
        <time>2017-04-18T15:30:12Z</time>
      </trkpt>
      <trkpt lat="49.31404" lon="1.2447">
        <ele>41</ele>
        <time>2017-04-18T15:30:12Z</time>
      </trkpt>
      <trkpt lat="49.31401" lon="1.24467">
        <ele>41</ele>
        <time>2017-04-18T15:30:12Z</time>
      </trkpt>
      <trkpt lat="49.31395" lon="1.24466">
        <ele>41</ele>
        <time>2017-04-18T15:30:12Z</time>
      </trkpt>
      <trkpt lat="49.31393" lon="1.24461">
        <ele>41</ele>
        <time>2017-04-18T15:30:28Z</time>
      </trkpt>
      <trkpt lat="49.3139" lon="1.24456">
        <ele>30</ele>
        <time>2017-04-18T15:30:28Z</time>
      </trkpt>
      <trkpt lat="49.31386" lon="1.24454">
        <ele>30</ele>
        <time>2017-04-18T15:30:28Z</time>
      </trkpt>
      <trkpt lat="49.31382" lon="1.24452">
        <ele>30</ele>
        <time>2017-04-18T15:30:28Z</time>
      </trkpt>
      <trkpt lat="49.3138" lon="1.24448">
        <ele>30</ele>
        <time>2017-04-18T15:30:44Z</time>
      </trkpt>
      <trkpt lat="49.31379" lon="1.24444">
        <ele>30</ele>
        <time>2017-04-18T15:30:44Z</time>
      </trkpt>
      <trkpt lat="49.31381" lon="1.24437">
        <ele>30</ele>
        <time>2017-04-18T15:30:44Z</time>
      </trkpt>
      <trkpt lat="49.31385" lon="1.24428">
        <ele>30</ele>
        <time>2017-04-18T15:30:44Z</time>
      </trkpt>
      <trkpt lat="49.31391" lon="1.24421">
        <ele>30</ele>
        <time>2017-04-18T15:31:04Z</time>
      </trkpt>
      <trkpt lat="49.31393" lon="1.24416">
        <ele>30</ele>
        <time>2017-04-18T15:31:04Z</time>
      </trkpt>
      <trkpt lat="49.31393" lon="1.24412">
        <ele>30</ele>
        <time>2017-04-18T15:31:04Z</time>
      </trkpt>
      <trkpt lat="49.31391" lon="1.24409">
        <ele>30</ele>
        <time>2017-04-18T15:31:04Z</time>
      </trkpt>
      <trkpt lat="49.3139" lon="1.24403">
        <ele>30</ele>
        <time>2017-04-18T15:31:04Z</time>
      </trkpt>
      <trkpt lat="49.31391" lon="1.24397">
        <ele>30</ele>
        <time>2017-04-18T15:31:20Z</time>
      </trkpt>
      <trkpt lat="49.3139" lon="1.24393">
        <ele>30</ele>
        <time>2017-04-18T15:31:20Z</time>
      </trkpt>
      <trkpt lat="49.31389" lon="1.24389">
        <ele>30</ele>
        <time>2017-04-18T15:31:20Z</time>
      </trkpt>
      <trkpt lat="49.31392" lon="1.24383">
        <ele>30</ele>
        <time>2017-04-18T15:31:20Z</time>
      </trkpt>
      <trkpt lat="49.31394" lon="1.24378">
        <ele>30</ele>
        <time>2017-04-18T15:31:36Z</time>
      </trkpt>
      <trkpt lat="49.31399" lon="1.24374">
        <ele>22</ele>
        <time>2017-04-18T15:31:36Z</time>
      </trkpt>
      <trkpt lat="49.314" lon="1.2437">
        <ele>22</ele>
        <time>2017-04-18T15:31:36Z</time>
      </trkpt>
      <trkpt lat="49.31403" lon="1.24363">
        <ele>22</ele>
        <time>2017-04-18T15:31:36Z</time>
      </trkpt>
      <trkpt lat="49.31407" lon="1.24359">
        <ele>22</ele>
        <time>2017-04-18T15:31:52Z</time>
      </trkpt>
      <trkpt lat="49.31411" lon="1.24356">
        <ele>22</ele>
        <time>2017-04-18T15:31:52Z</time>
      </trkpt>
      <trkpt lat="49.31415" lon="1.24353">
        <ele>22</ele>
        <time>2017-04-18T15:31:52Z</time>
      </trkpt>
      <trkpt lat="49.31416" lon="1.2435">
        <ele>22</ele>
        <time>2017-04-18T15:31:52Z</time>
      </trkpt>
      <trkpt lat="49.31418" lon="1.24355">
        <ele>22</ele>
        <time>2017-04-18T15:34:36Z</time>
      </trkpt>
      <trkpt lat="49.31421" lon="1.24349">
        <ele>22</ele>
        <time>2017-04-18T15:34:37Z</time>
      </trkpt>
      <trkpt lat="49.31422" lon="1.24342">
        <ele>22</ele>
        <time>2017-04-18T15:34:37Z</time>
      </trkpt>
      <trkpt lat="49.31425" lon="1.24336">
        <ele>22</ele>
        <time>2017-04-18T15:34:37Z</time>
      </trkpt>
      <trkpt lat="49.31426" lon="1.24331">
        <ele>22</ele>
        <time>2017-04-18T15:34:37Z</time>
      </trkpt>
      <trkpt lat="49.31429" lon="1.24328">
        <ele>22</ele>
        <time>2017-04-18T15:34:52Z</time>
      </trkpt>
      <trkpt lat="49.31431" lon="1.2432">
        <ele>22</ele>
        <time>2017-04-18T15:34:53Z</time>
      </trkpt>
      <trkpt lat="49.3143" lon="1.24314">
        <ele>22</ele>
        <time>2017-04-18T15:34:53Z</time>
      </trkpt>
      <trkpt lat="49.3143" lon="1.24307">
        <ele>22</ele>
        <time>2017-04-18T15:34:53Z</time>
      </trkpt>
      <trkpt lat="49.3143" lon="1.243">
        <ele>22</ele>
        <time>2017-04-18T15:35:08Z</time>
      </trkpt>
      <trkpt lat="49.3143" lon="1.24295">
        <ele>22</ele>
        <time>2017-04-18T15:35:08Z</time>
      </trkpt>
      <trkpt lat="49.3143" lon="1.24288">
        <ele>13</ele>
        <time>2017-04-18T15:35:08Z</time>
      </trkpt>
      <trkpt lat="49.3143" lon="1.24279">
        <ele>13</ele>
        <time>2017-04-18T15:35:08Z</time>
      </trkpt>
      <trkpt lat="49.31427" lon="1.24273">
        <ele>13</ele>
        <time>2017-04-18T15:35:24Z</time>
      </trkpt>
      <trkpt lat="49.31423" lon="1.24267">
        <ele>13</ele>
        <time>2017-04-18T15:35:24Z</time>
      </trkpt>
      <trkpt lat="49.31418" lon="1.24264">
        <ele>13</ele>
        <time>2017-04-18T15:35:24Z</time>
      </trkpt>
      <trkpt lat="49.31412" lon="1.24259">
        <ele>13</ele>
        <time>2017-04-18T15:35:24Z</time>
      </trkpt>
      <trkpt lat="49.31408" lon="1.24254">
        <ele>13</ele>
        <time>2017-04-18T15:35:40Z</time>
      </trkpt>
      <trkpt lat="49.31404" lon="1.24249">
        <ele>13</ele>
        <time>2017-04-18T15:35:40Z</time>
      </trkpt>
      <trkpt lat="49.31399" lon="1.24247">
        <ele>13</ele>
        <time>2017-04-18T15:35:40Z</time>
      </trkpt>
      <trkpt lat="49.31394" lon="1.24244">
        <ele>13</ele>
        <time>2017-04-18T15:35:40Z</time>
      </trkpt>
      <trkpt lat="49.31391" lon="1.24238">
        <ele>13</ele>
        <time>2017-04-18T15:35:56Z</time>
      </trkpt>
      <trkpt lat="49.31388" lon="1.24231">
        <ele>13</ele>
        <time>2017-04-18T15:35:56Z</time>
      </trkpt>
      <trkpt lat="49.31385" lon="1.24223">
        <ele>13</ele>
        <time>2017-04-18T15:35:56Z</time>
      </trkpt>
      <trkpt lat="49.31385" lon="1.24216">
        <ele>13</ele>
        <time>2017-04-18T15:35:56Z</time>
      </trkpt>
      <trkpt lat="49.31379" lon="1.24212">
        <ele>13</ele>
        <time>2017-04-18T15:36:12Z</time>
      </trkpt>
      <trkpt lat="49.31373" lon="1.24209">
        <ele>15</ele>
        <time>2017-04-18T15:36:12Z</time>
      </trkpt>
      <trkpt lat="49.31371" lon="1.24202">
        <ele>13</ele>
        <time>2017-04-18T15:36:13Z</time>
      </trkpt>
      <trkpt lat="49.31368" lon="1.24195">
        <ele>13</ele>
        <time>2017-04-18T15:36:13Z</time>
      </trkpt>
      <trkpt lat="49.31364" lon="1.24191">
        <ele>13</ele>
        <time>2017-04-18T15:36:28Z</time>
      </trkpt>
      <trkpt lat="49.31361" lon="1.2419">
        <ele>13</ele>
        <time>2017-04-18T15:36:28Z</time>
      </trkpt>
      <trkpt lat="49.31357" lon="1.24185">
        <ele>13</ele>
        <time>2017-04-18T15:36:28Z</time>
      </trkpt>
      <trkpt lat="49.31353" lon="1.24181">
        <ele>13</ele>
        <time>2017-04-18T15:36:28Z</time>
      </trkpt>
      <trkpt lat="49.31352" lon="1.24179">
        <ele>13</ele>
        <time>2017-04-18T15:36:48Z</time>
      </trkpt>
      <trkpt lat="49.31352" lon="1.24177">
        <ele>13</ele>
        <time>2017-04-18T15:36:48Z</time>
      </trkpt>
      <trkpt lat="49.31353" lon="1.24177">
        <ele>13</ele>
        <time>2017-04-18T15:36:48Z</time>
      </trkpt>
      <trkpt lat="49.31354" lon="1.24177">
        <ele>13</ele>
        <time>2017-04-18T15:36:48Z</time>
      </trkpt>
      <trkpt lat="49.31342" lon="1.24173">
        <ele>13</ele>
        <time>2017-04-18T15:36:48Z</time>
      </trkpt>
      <trkpt lat="49.31337" lon="1.24159">
        <ele>13</ele>
        <time>2017-04-18T15:37:04Z</time>
      </trkpt>
      <trkpt lat="49.31337" lon="1.24148">
        <ele>13</ele>
        <time>2017-04-18T15:37:04Z</time>
      </trkpt>
      <trkpt lat="49.31334" lon="1.24145">
        <ele>13</ele>
        <time>2017-04-18T15:37:04Z</time>
      </trkpt>
      <trkpt lat="49.31327" lon="1.24144">
        <ele>13</ele>
        <time>2017-04-18T15:37:04Z</time>
      </trkpt>
      <trkpt lat="49.31325" lon="1.24139">
        <ele>13</ele>
        <time>2017-04-18T15:37:21Z</time>
      </trkpt>
      <trkpt lat="49.31322" lon="1.24132">
        <ele>13</ele>
        <time>2017-04-18T15:37:21Z</time>
      </trkpt>
      <trkpt lat="49.31319" lon="1.24125">
        <ele>13</ele>
        <time>2017-04-18T15:37:21Z</time>
      </trkpt>
      <trkpt lat="49.31319" lon="1.24116">
        <ele>14</ele>
        <time>2017-04-18T15:37:21Z</time>
      </trkpt>
      <trkpt lat="49.31316" lon="1.24111">
        <ele>14</ele>
        <time>2017-04-18T15:37:36Z</time>
      </trkpt>
      <trkpt lat="49.31312" lon="1.24106">
        <ele>14</ele>
        <time>2017-04-18T15:37:36Z</time>
      </trkpt>
      <trkpt lat="49.31304" lon="1.24102">
        <ele>14</ele>
        <time>2017-04-18T15:37:36Z</time>
      </trkpt>
      <trkpt lat="49.31295" lon="1.24102">
        <ele>14</ele>
        <time>2017-04-18T15:37:36Z</time>
      </trkpt>
      <trkpt lat="49.31289" lon="1.241">
        <ele>10</ele>
        <time>2017-04-18T15:37:52Z</time>
      </trkpt>
      <trkpt lat="49.31285" lon="1.24099">
        <ele>10</ele>
        <time>2017-04-18T15:37:52Z</time>
      </trkpt>
      <trkpt lat="49.31283" lon="1.24093">
        <ele>10</ele>
        <time>2017-04-18T15:37:52Z</time>
      </trkpt>
      <trkpt lat="49.31281" lon="1.24084">
        <ele>10</ele>
        <time>2017-04-18T15:37:52Z</time>
      </trkpt>
      <trkpt lat="49.31281" lon="1.24072">
        <ele>10</ele>
        <time>2017-04-18T15:38:08Z</time>
      </trkpt>
      <trkpt lat="49.31276" lon="1.24067">
        <ele>10</ele>
        <time>2017-04-18T15:38:08Z</time>
      </trkpt>
      <trkpt lat="49.31274" lon="1.2406">
        <ele>10</ele>
        <time>2017-04-18T15:38:08Z</time>
      </trkpt>
      <trkpt lat="49.31272" lon="1.24054">
        <ele>10</ele>
        <time>2017-04-18T15:38:08Z</time>
      </trkpt>
      <trkpt lat="49.31268" lon="1.2405">
        <ele>10</ele>
        <time>2017-04-18T15:38:24Z</time>
      </trkpt>
      <trkpt lat="49.31268" lon="1.24042">
        <ele>10</ele>
        <time>2017-04-18T15:38:24Z</time>
      </trkpt>
      <trkpt lat="49.31266" lon="1.24036">
        <ele>7</ele>
        <time>2017-04-18T15:38:25Z</time>
      </trkpt>
      <trkpt lat="49.31261" lon="1.24033">
        <ele>7</ele>
        <time>2017-04-18T15:38:25Z</time>
      </trkpt>
      <trkpt lat="49.31253" lon="1.24029">
        <ele>7</ele>
        <time>2017-04-18T15:38:40Z</time>
      </trkpt>
      <trkpt lat="49.31247" lon="1.24031">
        <ele>7</ele>
        <time>2017-04-18T15:38:40Z</time>
      </trkpt>
      <trkpt lat="49.31243" lon="1.24037">
        <ele>7</ele>
        <time>2017-04-18T15:38:40Z</time>
      </trkpt>
      <trkpt lat="49.31241" lon="1.24042">
        <ele>7</ele>
        <time>2017-04-18T15:38:40Z</time>
      </trkpt>
      <trkpt lat="49.3124" lon="1.24052">
        <ele>10</ele>
        <time>2017-04-18T15:38:56Z</time>
      </trkpt>
      <trkpt lat="49.31239" lon="1.2406">
        <ele>10</ele>
        <time>2017-04-18T15:38:56Z</time>
      </trkpt>
      <trkpt lat="49.31238" lon="1.24068">
        <ele>10</ele>
        <time>2017-04-18T15:38:56Z</time>
      </trkpt>
      <trkpt lat="49.31239" lon="1.24076">
        <ele>10</ele>
        <time>2017-04-18T15:38:56Z</time>
      </trkpt>
      <trkpt lat="49.3124" lon="1.24084">
        <ele>10</ele>
        <time>2017-04-18T15:39:12Z</time>
      </trkpt>
      <trkpt lat="49.31239" lon="1.24092">
        <ele>10</ele>
        <time>2017-04-18T15:39:12Z</time>
      </trkpt>
      <trkpt lat="49.31238" lon="1.241">
        <ele>10</ele>
        <time>2017-04-18T15:39:12Z</time>
      </trkpt>
      <trkpt lat="49.31237" lon="1.24109">
        <ele>10</ele>
        <time>2017-04-18T15:39:12Z</time>
      </trkpt>
      <trkpt lat="49.31236" lon="1.24116">
        <ele>10</ele>
        <time>2017-04-18T15:39:28Z</time>
      </trkpt>
      <trkpt lat="49.31232" lon="1.24123">
        <ele>10</ele>
        <time>2017-04-18T15:39:28Z</time>
      </trkpt>
      <trkpt lat="49.3123" lon="1.24129">
        <ele>11</ele>
        <time>2017-04-18T15:39:28Z</time>
      </trkpt>
      <trkpt lat="49.3123" lon="1.24136">
        <ele>11</ele>
        <time>2017-04-18T15:39:28Z</time>
      </trkpt>
      <trkpt lat="49.31228" lon="1.24144">
        <ele>11</ele>
        <time>2017-04-18T15:39:44Z</time>
      </trkpt>
      <trkpt lat="49.31226" lon="1.24152">
        <ele>11</ele>
        <time>2017-04-18T15:39:44Z</time>
      </trkpt>
      <trkpt lat="49.31224" lon="1.24158">
        <ele>11</ele>
        <time>2017-04-18T15:39:44Z</time>
      </trkpt>
      <trkpt lat="49.31221" lon="1.24164">
        <ele>11</ele>
        <time>2017-04-18T15:39:44Z</time>
      </trkpt>
      <trkpt lat="49.3122" lon="1.24171">
        <ele>11</ele>
        <time>2017-04-18T15:40:00Z</time>
      </trkpt>
      <trkpt lat="49.31219" lon="1.24179">
        <ele>11</ele>
        <time>2017-04-18T15:40:00Z</time>
      </trkpt>
      <trkpt lat="49.31218" lon="1.24187">
        <ele>11</ele>
        <time>2017-04-18T15:40:00Z</time>
      </trkpt>
      <trkpt lat="49.31215" lon="1.24195">
        <ele>11</ele>
        <time>2017-04-18T15:40:00Z</time>
      </trkpt>
      <trkpt lat="49.31212" lon="1.24201">
        <ele>11</ele>
        <time>2017-04-18T15:40:16Z</time>
      </trkpt>
      <trkpt lat="49.3121" lon="1.24208">
        <ele>11</ele>
        <time>2017-04-18T15:40:16Z</time>
      </trkpt>
      <trkpt lat="49.31208" lon="1.24213">
        <ele>12</ele>
        <time>2017-04-18T15:40:16Z</time>
      </trkpt>
      <trkpt lat="49.31207" lon="1.24221">
        <ele>12</ele>
        <time>2017-04-18T15:40:16Z</time>
      </trkpt>
      <trkpt lat="49.31207" lon="1.24228">
        <ele>12</ele>
        <time>2017-04-18T15:40:32Z</time>
      </trkpt>
      <trkpt lat="49.31205" lon="1.24233">
        <ele>12</ele>
        <time>2017-04-18T15:40:32Z</time>
      </trkpt>
      <trkpt lat="49.31205" lon="1.24242">
        <ele>12</ele>
        <time>2017-04-18T15:40:32Z</time>
      </trkpt>
      <trkpt lat="49.31203" lon="1.24251">
        <ele>12</ele>
        <time>2017-04-18T15:40:32Z</time>
      </trkpt>
      <trkpt lat="49.31204" lon="1.24258">
        <ele>12</ele>
        <time>2017-04-18T15:40:48Z</time>
      </trkpt>
      <trkpt lat="49.31205" lon="1.24266">
        <ele>12</ele>
        <time>2017-04-18T15:40:48Z</time>
      </trkpt>
      <trkpt lat="49.31203" lon="1.24271">
        <ele>12</ele>
        <time>2017-04-18T15:40:48Z</time>
      </trkpt>
      <trkpt lat="49.31202" lon="1.24279">
        <ele>12</ele>
        <time>2017-04-18T15:40:49Z</time>
      </trkpt>
      <trkpt lat="49.31199" lon="1.24284">
        <ele>12</ele>
        <time>2017-04-18T15:41:04Z</time>
      </trkpt>
      <trkpt lat="49.31199" lon="1.24291">
        <ele>12</ele>
        <time>2017-04-18T15:41:04Z</time>
      </trkpt>
      <trkpt lat="49.312" lon="1.24297">
        <ele>10</ele>
        <time>2017-04-18T15:41:05Z</time>
      </trkpt>
      <trkpt lat="49.31199" lon="1.24299">
        <ele>10</ele>
        <time>2017-04-18T15:41:05Z</time>
      </trkpt>
      <trkpt lat="49.31199" lon="1.24299">
        <ele>10</ele>
        <time>2017-04-18T15:41:20Z</time>
      </trkpt>
      <trkpt lat="49.31198" lon="1.24307">
        <ele>10</ele>
        <time>2017-04-18T15:41:20Z</time>
      </trkpt>
      <trkpt lat="49.31197" lon="1.24312">
        <ele>10</ele>
        <time>2017-04-18T15:41:20Z</time>
      </trkpt>
      <trkpt lat="49.31192" lon="1.24318">
        <ele>10</ele>
        <time>2017-04-18T15:41:20Z</time>
      </trkpt>
      <trkpt lat="49.31188" lon="1.24324">
        <ele>10</ele>
        <time>2017-04-18T15:41:36Z</time>
      </trkpt>
      <trkpt lat="49.31188" lon="1.2433">
        <ele>10</ele>
        <time>2017-04-18T15:41:36Z</time>
      </trkpt>
      <trkpt lat="49.31185" lon="1.24334">
        <ele>10</ele>
        <time>2017-04-18T15:41:36Z</time>
      </trkpt>
      <trkpt lat="49.31183" lon="1.24337">
        <ele>10</ele>
        <time>2017-04-18T15:41:36Z</time>
      </trkpt>
      <trkpt lat="49.31181" lon="1.24344">
        <ele>10</ele>
        <time>2017-04-18T15:41:52Z</time>
      </trkpt>
      <trkpt lat="49.31179" lon="1.2435">
        <ele>10</ele>
        <time>2017-04-18T15:41:52Z</time>
      </trkpt>
      <trkpt lat="49.31178" lon="1.24357">
        <ele>10</ele>
        <time>2017-04-18T15:41:52Z</time>
      </trkpt>
      <trkpt lat="49.31176" lon="1.24362">
        <ele>10</ele>
        <time>2017-04-18T15:41:52Z</time>
      </trkpt>
      <trkpt lat="49.31172" lon="1.24367">
        <ele>10</ele>
        <time>2017-04-18T15:42:08Z</time>
      </trkpt>
      <trkpt lat="49.31171" lon="1.24372">
        <ele>10</ele>
        <time>2017-04-18T15:42:08Z</time>
      </trkpt>
      <trkpt lat="49.3117" lon="1.24377">
        <ele>12</ele>
        <time>2017-04-18T15:42:08Z</time>
      </trkpt>
      <trkpt lat="49.31169" lon="1.24384">
        <ele>12</ele>
        <time>2017-04-18T15:42:08Z</time>
      </trkpt>
      <trkpt lat="49.31168" lon="1.24391">
        <ele>12</ele>
        <time>2017-04-18T15:42:24Z</time>
      </trkpt>
      <trkpt lat="49.31167" lon="1.24397">
        <ele>12</ele>
        <time>2017-04-18T15:42:24Z</time>
      </trkpt>
      <trkpt lat="49.31166" lon="1.24403">
        <ele>12</ele>
        <time>2017-04-18T15:42:25Z</time>
      </trkpt>
      <trkpt lat="49.31163" lon="1.24409">
        <ele>12</ele>
        <time>2017-04-18T15:42:25Z</time>
      </trkpt>
      <trkpt lat="49.3116" lon="1.24415">
        <ele>12</ele>
        <time>2017-04-18T15:42:40Z</time>
      </trkpt>
      <trkpt lat="49.31158" lon="1.24422">
        <ele>12</ele>
        <time>2017-04-18T15:42:40Z</time>
      </trkpt>
      <trkpt lat="49.31157" lon="1.24428">
        <ele>12</ele>
        <time>2017-04-18T15:42:40Z</time>
      </trkpt>
      <trkpt lat="49.31156" lon="1.24435">
        <ele>12</ele>
        <time>2017-04-18T15:42:40Z</time>
      </trkpt>
      <trkpt lat="49.31154" lon="1.24441">
        <ele>12</ele>
        <time>2017-04-18T15:42:56Z</time>
      </trkpt>
      <trkpt lat="49.31153" lon="1.24447">
        <ele>12</ele>
        <time>2017-04-18T15:42:56Z</time>
      </trkpt>
      <trkpt lat="49.31151" lon="1.24454">
        <ele>12</ele>
        <time>2017-04-18T15:42:56Z</time>
      </trkpt>
      <trkpt lat="49.31148" lon="1.24461">
        <ele>10</ele>
        <time>2017-04-18T15:42:56Z</time>
      </trkpt>
      <trkpt lat="49.31145" lon="1.24468">
        <ele>10</ele>
        <time>2017-04-18T15:43:12Z</time>
      </trkpt>
      <trkpt lat="49.31143" lon="1.24474">
        <ele>10</ele>
        <time>2017-04-18T15:43:12Z</time>
      </trkpt>
      <trkpt lat="49.31143" lon="1.24481">
        <ele>10</ele>
        <time>2017-04-18T15:43:12Z</time>
      </trkpt>
      <trkpt lat="49.31141" lon="1.24487">
        <ele>10</ele>
        <time>2017-04-18T15:43:12Z</time>
      </trkpt>
      <trkpt lat="49.31138" lon="1.24493">
        <ele>10</ele>
        <time>2017-04-18T15:43:28Z</time>
      </trkpt>
      <trkpt lat="49.31134" lon="1.24498">
        <ele>10</ele>
        <time>2017-04-18T15:43:28Z</time>
      </trkpt>
      <trkpt lat="49.31131" lon="1.24501">
        <ele>10</ele>
        <time>2017-04-18T15:43:28Z</time>
      </trkpt>
      <trkpt lat="49.31129" lon="1.2451">
        <ele>10</ele>
        <time>2017-04-18T15:43:29Z</time>
      </trkpt>
      <trkpt lat="49.31128" lon="1.24517">
        <ele>10</ele>
        <time>2017-04-18T15:43:44Z</time>
      </trkpt>
      <trkpt lat="49.31126" lon="1.24522">
        <ele>10</ele>
        <time>2017-04-18T15:43:44Z</time>
      </trkpt>
      <trkpt lat="49.31123" lon="1.2453">
        <ele>12</ele>
        <time>2017-04-18T15:43:44Z</time>
      </trkpt>
      <trkpt lat="49.31121" lon="1.24535">
        <ele>12</ele>
        <time>2017-04-18T15:43:44Z</time>
      </trkpt>
      <trkpt lat="49.31118" lon="1.2454">
        <ele>12</ele>
        <time>2017-04-18T15:44:00Z</time>
      </trkpt>
      <trkpt lat="49.31115" lon="1.24545">
        <ele>12</ele>
        <time>2017-04-18T15:44:00Z</time>
      </trkpt>
      <trkpt lat="49.31113" lon="1.24553">
        <ele>12</ele>
        <time>2017-04-18T15:44:00Z</time>
      </trkpt>
      <trkpt lat="49.31112" lon="1.2456">
        <ele>12</ele>
        <time>2017-04-18T15:44:00Z</time>
      </trkpt>
      <trkpt lat="49.31109" lon="1.24565">
        <ele>12</ele>
        <time>2017-04-18T15:44:16Z</time>
      </trkpt>
      <trkpt lat="49.31105" lon="1.2457">
        <ele>12</ele>
        <time>2017-04-18T15:44:16Z</time>
      </trkpt>
      <trkpt lat="49.31103" lon="1.24575">
        <ele>12</ele>
        <time>2017-04-18T15:44:17Z</time>
      </trkpt>
      <trkpt lat="49.31099" lon="1.24579">
        <ele>12</ele>
        <time>2017-04-18T15:44:17Z</time>
      </trkpt>
      <trkpt lat="49.31095" lon="1.24581">
        <ele>12</ele>
        <time>2017-04-18T15:44:36Z</time>
      </trkpt>
      <trkpt lat="49.31092" lon="1.24585">
        <ele>12</ele>
        <time>2017-04-18T15:44:36Z</time>
      </trkpt>
      <trkpt lat="49.31091" lon="1.24585">
        <ele>12</ele>
        <time>2017-04-18T15:44:36Z</time>
      </trkpt>
      <trkpt lat="49.3109" lon="1.24591">
        <ele>12</ele>
        <time>2017-04-18T15:44:36Z</time>
      </trkpt>
      <trkpt lat="49.31087" lon="1.24596">
        <ele>12</ele>
        <time>2017-04-18T15:44:36Z</time>
      </trkpt>
      <trkpt lat="49.31085" lon="1.24599">
        <ele>12</ele>
        <time>2017-04-18T15:44:52Z</time>
      </trkpt>
      <trkpt lat="49.31081" lon="1.24604">
        <ele>12</ele>
        <time>2017-04-18T15:44:52Z</time>
      </trkpt>
      <trkpt lat="49.31078" lon="1.2461">
        <ele>12</ele>
        <time>2017-04-18T15:44:52Z</time>
      </trkpt>
      <trkpt lat="49.31076" lon="1.24616">
        <ele>12</ele>
        <time>2017-04-18T15:44:52Z</time>
      </trkpt>
      <trkpt lat="49.31073" lon="1.24623">
        <ele>12</ele>
        <time>2017-04-18T15:45:08Z</time>
      </trkpt>
      <trkpt lat="49.3107" lon="1.24628">
        <ele>12</ele>
        <time>2017-04-18T15:45:08Z</time>
      </trkpt>
      <trkpt lat="49.31067" lon="1.24634">
        <ele>12</ele>
        <time>2017-04-18T15:45:08Z</time>
      </trkpt>
      <trkpt lat="49.31065" lon="1.2464">
        <ele>12</ele>
        <time>2017-04-18T15:45:08Z</time>
      </trkpt>
      <trkpt lat="49.3106" lon="1.24645">
        <ele>12</ele>
        <time>2017-04-18T15:45:24Z</time>
      </trkpt>
      <trkpt lat="49.31058" lon="1.24649">
        <ele>12</ele>
        <time>2017-04-18T15:45:24Z</time>
      </trkpt>
      <trkpt lat="49.31057" lon="1.2466">
        <ele>12</ele>
        <time>2017-04-18T15:45:24Z</time>
      </trkpt>
      <trkpt lat="49.31054" lon="1.24665">
        <ele>12</ele>
        <time>2017-04-18T15:45:24Z</time>
      </trkpt>
      <trkpt lat="49.31052" lon="1.2467">
        <ele>12</ele>
        <time>2017-04-18T15:45:40Z</time>
      </trkpt>
      <trkpt lat="49.31048" lon="1.24674">
        <ele>12</ele>
        <time>2017-04-18T15:45:40Z</time>
      </trkpt>
      <trkpt lat="49.31044" lon="1.24679">
        <ele>12</ele>
        <time>2017-04-18T15:45:40Z</time>
      </trkpt>
      <trkpt lat="49.31042" lon="1.24684">
        <ele>12</ele>
        <time>2017-04-18T15:45:40Z</time>
      </trkpt>
      <trkpt lat="49.31039" lon="1.24689">
        <ele>14</ele>
        <time>2017-04-18T15:45:56Z</time>
      </trkpt>
      <trkpt lat="49.31035" lon="1.24692">
        <ele>14</ele>
        <time>2017-04-18T15:45:56Z</time>
      </trkpt>
      <trkpt lat="49.31031" lon="1.24698">
        <ele>14</ele>
        <time>2017-04-18T15:45:56Z</time>
      </trkpt>
      <trkpt lat="49.31029" lon="1.24705">
        <ele>14</ele>
        <time>2017-04-18T15:45:56Z</time>
      </trkpt>
      <trkpt lat="49.31028" lon="1.24713">
        <ele>14</ele>
        <time>2017-04-18T15:46:12Z</time>
      </trkpt>
      <trkpt lat="49.31026" lon="1.24719">
        <ele>14</ele>
        <time>2017-04-18T15:46:12Z</time>
      </trkpt>
      <trkpt lat="49.31023" lon="1.24725">
        <ele>14</ele>
        <time>2017-04-18T15:46:12Z</time>
      </trkpt>
      <trkpt lat="49.31019" lon="1.2473">
        <ele>14</ele>
        <time>2017-04-18T15:46:12Z</time>
      </trkpt>
      <trkpt lat="49.31017" lon="1.24737">
        <ele>14</ele>
        <time>2017-04-18T15:46:28Z</time>
      </trkpt>
      <trkpt lat="49.31015" lon="1.24743">
        <ele>14</ele>
        <time>2017-04-18T15:46:28Z</time>
      </trkpt>
      <trkpt lat="49.31011" lon="1.24748">
        <ele>14</ele>
        <time>2017-04-18T15:46:28Z</time>
      </trkpt>
      <trkpt lat="49.31008" lon="1.24753">
        <ele>14</ele>
        <time>2017-04-18T15:46:28Z</time>
      </trkpt>
      <trkpt lat="49.31005" lon="1.2476">
        <ele>14</ele>
        <time>2017-04-18T15:46:44Z</time>
      </trkpt>
      <trkpt lat="49.31001" lon="1.24766">
        <ele>14</ele>
        <time>2017-04-18T15:46:44Z</time>
      </trkpt>
      <trkpt lat="49.30998" lon="1.24773">
        <ele>14</ele>
        <time>2017-04-18T15:46:44Z</time>
      </trkpt>
      <trkpt lat="49.30995" lon="1.24778">
        <ele>14</ele>
        <time>2017-04-18T15:46:44Z</time>
      </trkpt>
      <trkpt lat="49.3099" lon="1.24781">
        <ele>14</ele>
        <time>2017-04-18T15:47:00Z</time>
      </trkpt>
      <trkpt lat="49.30986" lon="1.24784">
        <ele>14</ele>
        <time>2017-04-18T15:47:00Z</time>
      </trkpt>
      <trkpt lat="49.30983" lon="1.24791">
        <ele>14</ele>
        <time>2017-04-18T15:47:00Z</time>
      </trkpt>
      <trkpt lat="49.3098" lon="1.24798">
        <ele>12</ele>
        <time>2017-04-18T15:47:00Z</time>
      </trkpt>
      <trkpt lat="49.30976" lon="1.24803">
        <ele>12</ele>
        <time>2017-04-18T15:47:16Z</time>
      </trkpt>
      <trkpt lat="49.30973" lon="1.2481">
        <ele>12</ele>
        <time>2017-04-18T15:47:16Z</time>
      </trkpt>
      <trkpt lat="49.30972" lon="1.24817">
        <ele>12</ele>
        <time>2017-04-18T15:47:16Z</time>
      </trkpt>
      <trkpt lat="49.3097" lon="1.24824">
        <ele>12</ele>
        <time>2017-04-18T15:47:16Z</time>
      </trkpt>
      <trkpt lat="49.30967" lon="1.2483">
        <ele>12</ele>
        <time>2017-04-18T15:47:32Z</time>
      </trkpt>
      <trkpt lat="49.30963" lon="1.24836">
        <ele>12</ele>
        <time>2017-04-18T15:47:32Z</time>
      </trkpt>
      <trkpt lat="49.30962" lon="1.24843">
        <ele>12</ele>
        <time>2017-04-18T15:47:32Z</time>
      </trkpt>
      <trkpt lat="49.30962" lon="1.24846">
        <ele>12</ele>
        <time>2017-04-18T15:47:32Z</time>
      </trkpt>
      <trkpt lat="49.30959" lon="1.24852">
        <ele>12</ele>
        <time>2017-04-18T15:49:40Z</time>
      </trkpt>
      <trkpt lat="49.30959" lon="1.24852">
        <ele>12</ele>
        <time>2017-04-18T15:49:40Z</time>
      </trkpt>
      <trkpt lat="49.30959" lon="1.24852">
        <ele>12</ele>
        <time>2017-04-18T15:49:40Z</time>
      </trkpt>
      <trkpt lat="49.30958" lon="1.24854">
        <ele>10</ele>
        <time>2017-04-18T15:49:40Z</time>
      </trkpt>
      <trkpt lat="49.30956" lon="1.24861">
        <ele>10</ele>
        <time>2017-04-18T15:49:40Z</time>
      </trkpt>
      <trkpt lat="49.30955" lon="1.24868">
        <ele>10</ele>
        <time>2017-04-18T15:49:56Z</time>
      </trkpt>
      <trkpt lat="49.30954" lon="1.24874">
        <ele>10</ele>
        <time>2017-04-18T15:49:56Z</time>
      </trkpt>
      <trkpt lat="49.30951" lon="1.2488">
        <ele>10</ele>
        <time>2017-04-18T15:49:56Z</time>
      </trkpt>
      <trkpt lat="49.30947" lon="1.24882">
        <ele>10</ele>
        <time>2017-04-18T15:49:56Z</time>
      </trkpt>
      <trkpt lat="49.30951" lon="1.24883">
        <ele>10</ele>
        <time>2017-04-18T15:50:12Z</time>
      </trkpt>
      <trkpt lat="49.3095" lon="1.24893">
        <ele>10</ele>
        <time>2017-04-18T15:50:12Z</time>
      </trkpt>
      <trkpt lat="49.30941" lon="1.24897">
        <ele>10</ele>
        <time>2017-04-18T15:50:12Z</time>
      </trkpt>
      <trkpt lat="49.30933" lon="1.24901">
        <ele>10</ele>
        <time>2017-04-18T15:50:12Z</time>
      </trkpt>
      <trkpt lat="49.30929" lon="1.24905">
        <ele>10</ele>
        <time>2017-04-18T15:50:28Z</time>
      </trkpt>
      <trkpt lat="49.30927" lon="1.24912">
        <ele>10</ele>
        <time>2017-04-18T15:50:28Z</time>
      </trkpt>
      <trkpt lat="49.30926" lon="1.24916">
        <ele>10</ele>
        <time>2017-04-18T15:50:28Z</time>
      </trkpt>
      <trkpt lat="49.30924" lon="1.24919">
        <ele>10</ele>
        <time>2017-04-18T15:50:28Z</time>
      </trkpt>
      <trkpt lat="49.30921" lon="1.24922">
        <ele>10</ele>
        <time>2017-04-18T15:50:44Z</time>
      </trkpt>
      <trkpt lat="49.30918" lon="1.24928">
        <ele>10</ele>
        <time>2017-04-18T15:50:44Z</time>
      </trkpt>
      <trkpt lat="49.30914" lon="1.24933">
        <ele>10</ele>
        <time>2017-04-18T15:50:44Z</time>
      </trkpt>
      <trkpt lat="49.3091" lon="1.24938">
        <ele>10</ele>
        <time>2017-04-18T15:50:44Z</time>
      </trkpt>
      <trkpt lat="49.30907" lon="1.24944">
        <ele>10</ele>
        <time>2017-04-18T15:51:00Z</time>
      </trkpt>
      <trkpt lat="49.30904" lon="1.24949">
        <ele>10</ele>
        <time>2017-04-18T15:51:00Z</time>
      </trkpt>
      <trkpt lat="49.30898" lon="1.24954">
        <ele>10</ele>
        <time>2017-04-18T15:51:00Z</time>
      </trkpt>
      <trkpt lat="49.30895" lon="1.24959">
        <ele>9</ele>
        <time>2017-04-18T15:51:00Z</time>
      </trkpt>
      <trkpt lat="49.30889" lon="1.24961">
        <ele>9</ele>
        <time>2017-04-18T15:51:16Z</time>
      </trkpt>
      <trkpt lat="49.30884" lon="1.24961">
        <ele>9</ele>
        <time>2017-04-18T15:51:16Z</time>
      </trkpt>
      <trkpt lat="49.30882" lon="1.24967">
        <ele>9</ele>
        <time>2017-04-18T15:51:16Z</time>
      </trkpt>
      <trkpt lat="49.30878" lon="1.24971">
        <ele>9</ele>
        <time>2017-04-18T15:51:16Z</time>
      </trkpt>
      <trkpt lat="49.30876" lon="1.24975">
        <ele>9</ele>
        <time>2017-04-18T15:51:32Z</time>
      </trkpt>
      <trkpt lat="49.30873" lon="1.24982">
        <ele>14</ele>
        <time>2017-04-18T15:51:32Z</time>
      </trkpt>
      <trkpt lat="49.30872" lon="1.2499">
        <ele>14</ele>
        <time>2017-04-18T15:51:32Z</time>
      </trkpt>
      <trkpt lat="49.30873" lon="1.24999">
        <ele>14</ele>
        <time>2017-04-18T15:51:32Z</time>
      </trkpt>
      <trkpt lat="49.30867" lon="1.25004">
        <ele>14</ele>
        <time>2017-04-18T15:51:48Z</time>
      </trkpt>
      <trkpt lat="49.30861" lon="1.25007">
        <ele>14</ele>
        <time>2017-04-18T15:51:48Z</time>
      </trkpt>
      <trkpt lat="49.30856" lon="1.25008">
        <ele>14</ele>
        <time>2017-04-18T15:51:48Z</time>
      </trkpt>
      <trkpt lat="49.30852" lon="1.25012">
        <ele>14</ele>
        <time>2017-04-18T15:51:48Z</time>
      </trkpt>
      <trkpt lat="49.30848" lon="1.25018">
        <ele>14</ele>
        <time>2017-04-18T15:52:04Z</time>
      </trkpt>
      <trkpt lat="49.30844" lon="1.25021">
        <ele>14</ele>
        <time>2017-04-18T15:52:04Z</time>
      </trkpt>
      <trkpt lat="49.3084" lon="1.25024">
        <ele>14</ele>
        <time>2017-04-18T15:52:04Z</time>
      </trkpt>
      <trkpt lat="49.30837" lon="1.25032">
        <ele>14</ele>
        <time>2017-04-18T15:52:04Z</time>
      </trkpt>
      <trkpt lat="49.30833" lon="1.25038">
        <ele>14</ele>
        <time>2017-04-18T15:52:20Z</time>
      </trkpt>
      <trkpt lat="49.30828" lon="1.25041">
        <ele>14</ele>
        <time>2017-04-18T15:52:20Z</time>
      </trkpt>
      <trkpt lat="49.30823" lon="1.25044">
        <ele>10</ele>
        <time>2017-04-18T15:52:20Z</time>
      </trkpt>
      <trkpt lat="49.3082" lon="1.25051">
        <ele>10</ele>
        <time>2017-04-18T15:52:20Z</time>
      </trkpt>
      <trkpt lat="49.30817" lon="1.25059">
        <ele>10</ele>
        <time>2017-04-18T15:52:36Z</time>
      </trkpt>
      <trkpt lat="49.30814" lon="1.25065">
        <ele>10</ele>
        <time>2017-04-18T15:52:36Z</time>
      </trkpt>
      <trkpt lat="49.30811" lon="1.25071">
        <ele>10</ele>
        <time>2017-04-18T15:52:36Z</time>
      </trkpt>
      <trkpt lat="49.30808" lon="1.25077">
        <ele>10</ele>
        <time>2017-04-18T15:52:36Z</time>
      </trkpt>
      <trkpt lat="49.30806" lon="1.25083">
        <ele>10</ele>
        <time>2017-04-18T15:52:52Z</time>
      </trkpt>
      <trkpt lat="49.30802" lon="1.25089">
        <ele>10</ele>
        <time>2017-04-18T15:52:52Z</time>
      </trkpt>
      <trkpt lat="49.30798" lon="1.25095">
        <ele>10</ele>
        <time>2017-04-18T15:52:52Z</time>
      </trkpt>
      <trkpt lat="49.30793" lon="1.25098">
        <ele>10</ele>
        <time>2017-04-18T15:52:53Z</time>
      </trkpt>
      <trkpt lat="49.30789" lon="1.25101">
        <ele>12</ele>
        <time>2017-04-18T15:53:08Z</time>
      </trkpt>
      <trkpt lat="49.30786" lon="1.25105">
        <ele>12</ele>
        <time>2017-04-18T15:53:08Z</time>
      </trkpt>
      <trkpt lat="49.30783" lon="1.25109">
        <ele>12</ele>
        <time>2017-04-18T15:53:08Z</time>
      </trkpt>
      <trkpt lat="49.3078" lon="1.25114">
        <ele>12</ele>
        <time>2017-04-18T15:53:08Z</time>
      </trkpt>
      <trkpt lat="49.30777" lon="1.2512">
        <ele>12</ele>
        <time>2017-04-18T15:53:24Z</time>
      </trkpt>
      <trkpt lat="49.30773" lon="1.25123">
        <ele>12</ele>
        <time>2017-04-18T15:53:24Z</time>
      </trkpt>
      <trkpt lat="49.30768" lon="1.25129">
        <ele>11</ele>
        <time>2017-04-18T15:53:24Z</time>
      </trkpt>
      <trkpt lat="49.30765" lon="1.25133">
        <ele>11</ele>
        <time>2017-04-18T15:53:24Z</time>
      </trkpt>
      <trkpt lat="49.30762" lon="1.25139">
        <ele>11</ele>
        <time>2017-04-18T15:53:40Z</time>
      </trkpt>
      <trkpt lat="49.30759" lon="1.25146">
        <ele>11</ele>
        <time>2017-04-18T15:53:40Z</time>
      </trkpt>
      <trkpt lat="49.30755" lon="1.25151">
        <ele>11</ele>
        <time>2017-04-18T15:53:40Z</time>
      </trkpt>
      <trkpt lat="49.30752" lon="1.25156">
        <ele>11</ele>
        <time>2017-04-18T15:53:40Z</time>
      </trkpt>
      <trkpt lat="49.30749" lon="1.25162">
        <ele>11</ele>
        <time>2017-04-18T15:53:56Z</time>
      </trkpt>
      <trkpt lat="49.30747" lon="1.25169">
        <ele>11</ele>
        <time>2017-04-18T15:53:56Z</time>
      </trkpt>
      <trkpt lat="49.30746" lon="1.25177">
        <ele>11</ele>
        <time>2017-04-18T15:53:56Z</time>
      </trkpt>
      <trkpt lat="49.30742" lon="1.25184">
        <ele>11</ele>
        <time>2017-04-18T15:53:56Z</time>
      </trkpt>
      <trkpt lat="49.30739" lon="1.25189">
        <ele>11</ele>
        <time>2017-04-18T15:54:12Z</time>
      </trkpt>
      <trkpt lat="49.30739" lon="1.25197">
        <ele>11</ele>
        <time>2017-04-18T15:54:12Z</time>
      </trkpt>
      <trkpt lat="49.30737" lon="1.25204">
        <ele>11</ele>
        <time>2017-04-18T15:54:12Z</time>
      </trkpt>
      <trkpt lat="49.30733" lon="1.2521">
        <ele>11</ele>
        <time>2017-04-18T15:54:12Z</time>
      </trkpt>
      <trkpt lat="49.30731" lon="1.25217">
        <ele>11</ele>
        <time>2017-04-18T15:54:28Z</time>
      </trkpt>
      <trkpt lat="49.30725" lon="1.25219">
        <ele>11</ele>
        <time>2017-04-18T15:54:28Z</time>
      </trkpt>
      <trkpt lat="49.30718" lon="1.25218">
        <ele>11</ele>
        <time>2017-04-18T15:54:28Z</time>
      </trkpt>
      <trkpt lat="49.30714" lon="1.25222">
        <ele>11</ele>
        <time>2017-04-18T15:54:28Z</time>
      </trkpt>
      <trkpt lat="49.30708" lon="1.25224">
        <ele>12</ele>
        <time>2017-04-18T15:55:36Z</time>
      </trkpt>
      <trkpt lat="49.30706" lon="1.25228">
        <ele>12</ele>
        <time>2017-04-18T15:55:36Z</time>
      </trkpt>
      <trkpt lat="49.30704" lon="1.25234">
        <ele>12</ele>
        <time>2017-04-18T15:55:36Z</time>
      </trkpt>
      <trkpt lat="49.30701" lon="1.2524">
        <ele>12</ele>
        <time>2017-04-18T15:55:36Z</time>
      </trkpt>
      <trkpt lat="49.30696" lon="1.25244">
        <ele>12</ele>
        <time>2017-04-18T15:55:36Z</time>
      </trkpt>
      <trkpt lat="49.30694" lon="1.2525">
        <ele>12</ele>
        <time>2017-04-18T15:55:52Z</time>
      </trkpt>
      <trkpt lat="49.30693" lon="1.2526">
        <ele>12</ele>
        <time>2017-04-18T15:55:52Z</time>
      </trkpt>
      <trkpt lat="49.3069" lon="1.25267">
        <ele>12</ele>
        <time>2017-04-18T15:55:52Z</time>
      </trkpt>
      <trkpt lat="49.30686" lon="1.25271">
        <ele>12</ele>
        <time>2017-04-18T15:55:52Z</time>
      </trkpt>
      <trkpt lat="49.30682" lon="1.25276">
        <ele>12</ele>
        <time>2017-04-18T15:56:08Z</time>
      </trkpt>
      <trkpt lat="49.30678" lon="1.2528">
        <ele>12</ele>
        <time>2017-04-18T15:56:08Z</time>
      </trkpt>
      <trkpt lat="49.30674" lon="1.25284">
        <ele>12</ele>
        <time>2017-04-18T15:56:09Z</time>
      </trkpt>
      <trkpt lat="49.30671" lon="1.25289">
        <ele>12</ele>
        <time>2017-04-18T15:56:09Z</time>
      </trkpt>
      <trkpt lat="49.30667" lon="1.25295">
        <ele>11</ele>
        <time>2017-04-18T15:56:24Z</time>
      </trkpt>
      <trkpt lat="49.30663" lon="1.25301">
        <ele>11</ele>
        <time>2017-04-18T15:56:24Z</time>
      </trkpt>
      <trkpt lat="49.3066" lon="1.25307">
        <ele>11</ele>
        <time>2017-04-18T15:56:24Z</time>
      </trkpt>
      <trkpt lat="49.30656" lon="1.25311">
        <ele>11</ele>
        <time>2017-04-18T15:56:24Z</time>
      </trkpt>
      <trkpt lat="49.30651" lon="1.25316">
        <ele>11</ele>
        <time>2017-04-18T15:56:40Z</time>
      </trkpt>
      <trkpt lat="49.30647" lon="1.25321">
        <ele>11</ele>
        <time>2017-04-18T15:56:40Z</time>
      </trkpt>
      <trkpt lat="49.30642" lon="1.25327">
        <ele>11</ele>
        <time>2017-04-18T15:56:40Z</time>
      </trkpt>
      <trkpt lat="49.30638" lon="1.25336">
        <ele>11</ele>
        <time>2017-04-18T15:56:40Z</time>
      </trkpt>
      <trkpt lat="49.30637" lon="1.25346">
        <ele>11</ele>
        <time>2017-04-18T15:56:56Z</time>
      </trkpt>
      <trkpt lat="49.30636" lon="1.25356">
        <ele>11</ele>
        <time>2017-04-18T15:56:56Z</time>
      </trkpt>
      <trkpt lat="49.30632" lon="1.25364">
        <ele>11</ele>
        <time>2017-04-18T15:56:56Z</time>
      </trkpt>
      <trkpt lat="49.30628" lon="1.25371">
        <ele>11</ele>
        <time>2017-04-18T15:56:56Z</time>
      </trkpt>
      <trkpt lat="49.30622" lon="1.25376">
        <ele>10</ele>
        <time>2017-04-18T15:57:12Z</time>
      </trkpt>
      <trkpt lat="49.30618" lon="1.25384">
        <ele>10</ele>
        <time>2017-04-18T15:57:12Z</time>
      </trkpt>
      <trkpt lat="49.30613" lon="1.2539">
        <ele>10</ele>
        <time>2017-04-18T15:57:12Z</time>
      </trkpt>
      <trkpt lat="49.30608" lon="1.25394">
        <ele>10</ele>
        <time>2017-04-18T15:57:12Z</time>
      </trkpt>
      <trkpt lat="49.30604" lon="1.254">
        <ele>10</ele>
        <time>2017-04-18T15:57:28Z</time>
      </trkpt>
      <trkpt lat="49.306" lon="1.25406">
        <ele>10</ele>
        <time>2017-04-18T15:57:28Z</time>
      </trkpt>
      <trkpt lat="49.30595" lon="1.25411">
        <ele>10</ele>
        <time>2017-04-18T15:57:28Z</time>
      </trkpt>
      <trkpt lat="49.30592" lon="1.25418">
        <ele>10</ele>
        <time>2017-04-18T15:57:28Z</time>
      </trkpt>
      <trkpt lat="49.30589" lon="1.25424">
        <ele>10</ele>
        <time>2017-04-18T15:57:45Z</time>
      </trkpt>
      <trkpt lat="49.30588" lon="1.25432">
        <ele>10</ele>
        <time>2017-04-18T15:57:45Z</time>
      </trkpt>
      <trkpt lat="49.30583" lon="1.25439">
        <ele>10</ele>
        <time>2017-04-18T15:57:45Z</time>
      </trkpt>
      <trkpt lat="49.30578" lon="1.25446">
        <ele>10</ele>
        <time>2017-04-18T15:57:45Z</time>
      </trkpt>
      <trkpt lat="49.30574" lon="1.25453">
        <ele>10</ele>
        <time>2017-04-18T15:58:00Z</time>
      </trkpt>
      <trkpt lat="49.3057" lon="1.25463">
        <ele>9</ele>
        <time>2017-04-18T15:58:00Z</time>
      </trkpt>
      <trkpt lat="49.30566" lon="1.25471">
        <ele>9</ele>
        <time>2017-04-18T15:58:00Z</time>
      </trkpt>
      <trkpt lat="49.30562" lon="1.25476">
        <ele>9</ele>
        <time>2017-04-18T15:58:00Z</time>
      </trkpt>
      <trkpt lat="49.30556" lon="1.2548">
        <ele>9</ele>
        <time>2017-04-18T15:58:16Z</time>
      </trkpt>
      <trkpt lat="49.30553" lon="1.25489">
        <ele>9</ele>
        <time>2017-04-18T15:58:16Z</time>
      </trkpt>
      <trkpt lat="49.30551" lon="1.25498">
        <ele>9</ele>
        <time>2017-04-18T15:58:16Z</time>
      </trkpt>
      <trkpt lat="49.30546" lon="1.25504">
        <ele>9</ele>
        <time>2017-04-18T15:58:16Z</time>
      </trkpt>
      <trkpt lat="49.30542" lon="1.25511">
        <ele>9</ele>
        <time>2017-04-18T15:58:32Z</time>
      </trkpt>
      <trkpt lat="49.30538" lon="1.25516">
        <ele>11</ele>
        <time>2017-04-18T15:58:32Z</time>
      </trkpt>
      <trkpt lat="49.30533" lon="1.25521">
        <ele>11</ele>
        <time>2017-04-18T15:58:32Z</time>
      </trkpt>
      <trkpt lat="49.3053" lon="1.25527">
        <ele>11</ele>
        <time>2017-04-18T15:58:32Z</time>
      </trkpt>
      <trkpt lat="49.30527" lon="1.25533">
        <ele>11</ele>
        <time>2017-04-18T15:58:48Z</time>
      </trkpt>
      <trkpt lat="49.30524" lon="1.25541">
        <ele>11</ele>
        <time>2017-04-18T15:58:48Z</time>
      </trkpt>
      <trkpt lat="49.30521" lon="1.25548">
        <ele>9</ele>
        <time>2017-04-18T15:58:48Z</time>
      </trkpt>
      <trkpt lat="49.30517" lon="1.25556">
        <ele>9</ele>
        <time>2017-04-18T15:58:48Z</time>
      </trkpt>
      <trkpt lat="49.30513" lon="1.25563">
        <ele>9</ele>
        <time>2017-04-18T15:59:04Z</time>
      </trkpt>
      <trkpt lat="49.30509" lon="1.25567">
        <ele>9</ele>
        <time>2017-04-18T15:59:04Z</time>
      </trkpt>
      <trkpt lat="49.30506" lon="1.25571">
        <ele>9</ele>
        <time>2017-04-18T15:59:04Z</time>
      </trkpt>
      <trkpt lat="49.30502" lon="1.25576">
        <ele>9</ele>
        <time>2017-04-18T15:59:04Z</time>
      </trkpt>
      <trkpt lat="49.30498" lon="1.25581">
        <ele>9</ele>
        <time>2017-04-18T15:59:20Z</time>
      </trkpt>
      <trkpt lat="49.30494" lon="1.25585">
        <ele>9</ele>
        <time>2017-04-18T15:59:20Z</time>
      </trkpt>
      <trkpt lat="49.30491" lon="1.25592">
        <ele>9</ele>
        <time>2017-04-18T15:59:20Z</time>
      </trkpt>
      <trkpt lat="49.30488" lon="1.25599">
        <ele>9</ele>
        <time>2017-04-18T15:59:20Z</time>
      </trkpt>
      <trkpt lat="49.30484" lon="1.25604">
        <ele>9</ele>
        <time>2017-04-18T15:59:36Z</time>
      </trkpt>
      <trkpt lat="49.30479" lon="1.25608">
        <ele>9</ele>
        <time>2017-04-18T15:59:36Z</time>
      </trkpt>
      <trkpt lat="49.30473" lon="1.25612">
        <ele>9</ele>
        <time>2017-04-18T15:59:36Z</time>
      </trkpt>
      <trkpt lat="49.30469" lon="1.25617">
        <ele>9</ele>
        <time>2017-04-18T15:59:36Z</time>
      </trkpt>
      <trkpt lat="49.30466" lon="1.25623">
        <ele>9</ele>
        <time>2017-04-18T15:59:52Z</time>
      </trkpt>
      <trkpt lat="49.30461" lon="1.25629">
        <ele>9</ele>
        <time>2017-04-18T15:59:52Z</time>
      </trkpt>
      <trkpt lat="49.30458" lon="1.25635">
        <ele>9</ele>
        <time>2017-04-18T15:59:52Z</time>
      </trkpt>
      <trkpt lat="49.30455" lon="1.2564">
        <ele>13</ele>
        <time>2017-04-18T15:59:52Z</time>
      </trkpt>
      <trkpt lat="49.30451" lon="1.25645">
        <ele>13</ele>
        <time>2017-04-18T16:00:08Z</time>
      </trkpt>
      <trkpt lat="49.30446" lon="1.2565">
        <ele>13</ele>
        <time>2017-04-18T16:00:08Z</time>
      </trkpt>
      <trkpt lat="49.30441" lon="1.25653">
        <ele>13</ele>
        <time>2017-04-18T16:00:08Z</time>
      </trkpt>
      <trkpt lat="49.30436" lon="1.25658">
        <ele>13</ele>
        <time>2017-04-18T16:00:08Z</time>
      </trkpt>
      <trkpt lat="49.30433" lon="1.25665">
        <ele>13</ele>
        <time>2017-04-18T16:00:24Z</time>
      </trkpt>
      <trkpt lat="49.30427" lon="1.25668">
        <ele>13</ele>
        <time>2017-04-18T16:00:24Z</time>
      </trkpt>
      <trkpt lat="49.30424" lon="1.25674">
        <ele>13</ele>
        <time>2017-04-18T16:00:24Z</time>
      </trkpt>
      <trkpt lat="49.3042" lon="1.2568">
        <ele>13</ele>
        <time>2017-04-18T16:00:24Z</time>
      </trkpt>
      <trkpt lat="49.30416" lon="1.25683">
        <ele>13</ele>
        <time>2017-04-18T16:00:40Z</time>
      </trkpt>
      <trkpt lat="49.30411" lon="1.25686">
        <ele>13</ele>
        <time>2017-04-18T16:00:40Z</time>
      </trkpt>
      <trkpt lat="49.30408" lon="1.25691">
        <ele>13</ele>
        <time>2017-04-18T16:00:40Z</time>
      </trkpt>
      <trkpt lat="49.30408" lon="1.25693">
        <ele>13</ele>
        <time>2017-04-18T16:00:40Z</time>
      </trkpt>
      <trkpt lat="49.30414" lon="1.25686">
        <ele>13</ele>
        <time>2017-04-18T16:12:16Z</time>
      </trkpt>
      <trkpt lat="49.30414" lon="1.25686">
        <ele>13</ele>
        <time>2017-04-18T16:12:16Z</time>
      </trkpt>
      <trkpt lat="49.30414" lon="1.25687">
        <ele>13</ele>
        <time>2017-04-18T16:12:16Z</time>
      </trkpt>
      <trkpt lat="49.30414" lon="1.25687">
        <ele>13</ele>
        <time>2017-04-18T16:12:16Z</time>
      </trkpt>
      <trkpt lat="49.30416" lon="1.25686">
        <ele>13</ele>
        <time>2017-04-18T16:12:16Z</time>
      </trkpt>
      <trkpt lat="49.30413" lon="1.25693">
        <ele>13</ele>
        <time>2017-04-18T16:15:44Z</time>
      </trkpt>
      <trkpt lat="49.30413" lon="1.25693">
        <ele>13</ele>
        <time>2017-04-18T16:15:44Z</time>
      </trkpt>
      <trkpt lat="49.30413" lon="1.25693">
        <ele>13</ele>
        <time>2017-04-18T16:15:44Z</time>
      </trkpt>
      <trkpt lat="49.30412" lon="1.25695">
        <ele>13</ele>
        <time>2017-04-18T16:15:44Z</time>
      </trkpt>
      <trkpt lat="49.30413" lon="1.25702">
        <ele>13</ele>
        <time>2017-04-18T16:15:44Z</time>
      </trkpt>
      <trkpt lat="49.30414" lon="1.25709">
        <ele>11</ele>
        <time>2017-04-18T16:16:00Z</time>
      </trkpt>
      <trkpt lat="49.30417" lon="1.25715">
        <ele>11</ele>
        <time>2017-04-18T16:16:00Z</time>
      </trkpt>
      <trkpt lat="49.3042" lon="1.25721">
        <ele>11</ele>
        <time>2017-04-18T16:16:00Z</time>
      </trkpt>
      <trkpt lat="49.30423" lon="1.25726">
        <ele>11</ele>
        <time>2017-04-18T16:16:00Z</time>
      </trkpt>
      <trkpt lat="49.30424" lon="1.2573">
        <ele>11</ele>
        <time>2017-04-18T16:16:16Z</time>
      </trkpt>
      <trkpt lat="49.30427" lon="1.25735">
        <ele>11</ele>
        <time>2017-04-18T16:16:16Z</time>
      </trkpt>
      <trkpt lat="49.3043" lon="1.25739">
        <ele>11</ele>
        <time>2017-04-18T16:16:16Z</time>
      </trkpt>
      <trkpt lat="49.30429" lon="1.25746">
        <ele>11</ele>
        <time>2017-04-18T16:16:16Z</time>
      </trkpt>
      <trkpt lat="49.30432" lon="1.25755">
        <ele>11</ele>
        <time>2017-04-18T16:16:32Z</time>
      </trkpt>
      <trkpt lat="49.30436" lon="1.25759">
        <ele>11</ele>
        <time>2017-04-18T16:16:32Z</time>
      </trkpt>
      <trkpt lat="49.30441" lon="1.25762">
        <ele>11</ele>
        <time>2017-04-18T16:16:32Z</time>
      </trkpt>
      <trkpt lat="49.30445" lon="1.25767">
        <ele>11</ele>
        <time>2017-04-18T16:16:32Z</time>
      </trkpt>
      <trkpt lat="49.30448" lon="1.25774">
        <ele>11</ele>
        <time>2017-04-18T16:16:48Z</time>
      </trkpt>
      <trkpt lat="49.30448" lon="1.25783">
        <ele>11</ele>
        <time>2017-04-18T16:16:48Z</time>
      </trkpt>
      <trkpt lat="49.30452" lon="1.25789">
        <ele>11</ele>
        <time>2017-04-18T16:16:48Z</time>
      </trkpt>
      <trkpt lat="49.30458" lon="1.25788">
        <ele>11</ele>
        <time>2017-04-18T16:16:48Z</time>
      </trkpt>
      <trkpt lat="49.30462" lon="1.25788">
        <ele>11</ele>
        <time>2017-04-18T16:17:04Z</time>
      </trkpt>
      <trkpt lat="49.30466" lon="1.25795">
        <ele>13</ele>
        <time>2017-04-18T16:17:04Z</time>
      </trkpt>
      <trkpt lat="49.30468" lon="1.25803">
        <ele>13</ele>
        <time>2017-04-18T16:17:04Z</time>
      </trkpt>
      <trkpt lat="49.3047" lon="1.25811">
        <ele>13</ele>
        <time>2017-04-18T16:17:04Z</time>
      </trkpt>
      <trkpt lat="49.30466" lon="1.25823">
        <ele>13</ele>
        <time>2017-04-18T16:17:20Z</time>
      </trkpt>
      <trkpt lat="49.30464" lon="1.25834">
        <ele>13</ele>
        <time>2017-04-18T16:17:20Z</time>
      </trkpt>
      <trkpt lat="49.30469" lon="1.25842">
        <ele>13</ele>
        <time>2017-04-18T16:17:20Z</time>
      </trkpt>
      <trkpt lat="49.30474" lon="1.25848">
        <ele>13</ele>
        <time>2017-04-18T16:17:20Z</time>
      </trkpt>
      <trkpt lat="49.30479" lon="1.2585">
        <ele>13</ele>
        <time>2017-04-18T16:17:37Z</time>
      </trkpt>
      <trkpt lat="49.30484" lon="1.25853">
        <ele>13</ele>
        <time>2017-04-18T16:17:37Z</time>
      </trkpt>
      <trkpt lat="49.30486" lon="1.25858">
        <ele>13</ele>
        <time>2017-04-18T16:17:37Z</time>
      </trkpt>
      <trkpt lat="49.30489" lon="1.25863">
        <ele>13</ele>
        <time>2017-04-18T16:17:37Z</time>
      </trkpt>
      <trkpt lat="49.30494" lon="1.25867">
        <ele>13</ele>
        <time>2017-04-18T16:17:52Z</time>
      </trkpt>
      <trkpt lat="49.30499" lon="1.25869">
        <ele>13</ele>
        <time>2017-04-18T16:17:52Z</time>
      </trkpt>
      <trkpt lat="49.30503" lon="1.25871">
        <ele>13</ele>
        <time>2017-04-18T16:17:52Z</time>
      </trkpt>
      <trkpt lat="49.30506" lon="1.25878">
        <ele>16</ele>
        <time>2017-04-18T16:17:52Z</time>
      </trkpt>
      <trkpt lat="49.30509" lon="1.25885">
        <ele>16</ele>
        <time>2017-04-18T16:18:08Z</time>
      </trkpt>
      <trkpt lat="49.30511" lon="1.25891">
        <ele>16</ele>
        <time>2017-04-18T16:18:08Z</time>
      </trkpt>
      <trkpt lat="49.30516" lon="1.25893">
        <ele>16</ele>
        <time>2017-04-18T16:18:08Z</time>
      </trkpt>
      <trkpt lat="49.3052" lon="1.25895">
        <ele>16</ele>
        <time>2017-04-18T16:18:08Z</time>
      </trkpt>
      <trkpt lat="49.30523" lon="1.25902">
        <ele>16</ele>
        <time>2017-04-18T16:18:24Z</time>
      </trkpt>
      <trkpt lat="49.30523" lon="1.25908">
        <ele>16</ele>
        <time>2017-04-18T16:18:24Z</time>
      </trkpt>
      <trkpt lat="49.30526" lon="1.25916">
        <ele>16</ele>
        <time>2017-04-18T16:18:24Z</time>
      </trkpt>
      <trkpt lat="49.30532" lon="1.25921">
        <ele>16</ele>
        <time>2017-04-18T16:18:24Z</time>
      </trkpt>
      <trkpt lat="49.3053" lon="1.25927">
        <ele>16</ele>
        <time>2017-04-18T16:18:40Z</time>
      </trkpt>
      <trkpt lat="49.30527" lon="1.25934">
        <ele>16</ele>
        <time>2017-04-18T16:18:40Z</time>
      </trkpt>
      <trkpt lat="49.30523" lon="1.25939">
        <ele>16</ele>
        <time>2017-04-18T16:18:40Z</time>
      </trkpt>
      <trkpt lat="49.30519" lon="1.25943">
        <ele>16</ele>
        <time>2017-04-18T16:18:40Z</time>
      </trkpt>
      <trkpt lat="49.30511" lon="1.25942">
        <ele>16</ele>
        <time>2017-04-18T16:18:56Z</time>
      </trkpt>
      <trkpt lat="49.30506" lon="1.25943">
        <ele>16</ele>
        <time>2017-04-18T16:18:56Z</time>
      </trkpt>
      <trkpt lat="49.30505" lon="1.25951">
        <ele>16</ele>
        <time>2017-04-18T16:18:56Z</time>
      </trkpt>
      <trkpt lat="49.30503" lon="1.2596">
        <ele>27</ele>
        <time>2017-04-18T16:18:56Z</time>
      </trkpt>
      <trkpt lat="49.30499" lon="1.25965">
        <ele>27</ele>
        <time>2017-04-18T16:19:12Z</time>
      </trkpt>
      <trkpt lat="49.30496" lon="1.25969">
        <ele>27</ele>
        <time>2017-04-18T16:19:12Z</time>
      </trkpt>
      <trkpt lat="49.30493" lon="1.25975">
        <ele>27</ele>
        <time>2017-04-18T16:19:12Z</time>
      </trkpt>
      <trkpt lat="49.3049" lon="1.25979">
        <ele>27</ele>
        <time>2017-04-18T16:19:12Z</time>
      </trkpt>
      <trkpt lat="49.30486" lon="1.25982">
        <ele>27</ele>
        <time>2017-04-18T16:19:28Z</time>
      </trkpt>
      <trkpt lat="49.30484" lon="1.25986">
        <ele>27</ele>
        <time>2017-04-18T16:19:28Z</time>
      </trkpt>
      <trkpt lat="49.30481" lon="1.25989">
        <ele>27</ele>
        <time>2017-04-18T16:19:28Z</time>
      </trkpt>
      <trkpt lat="49.30473" lon="1.25983">
        <ele>27</ele>
        <time>2017-04-18T16:19:28Z</time>
      </trkpt>
      <trkpt lat="49.30471" lon="1.25986">
        <ele>27</ele>
        <time>2017-04-18T16:19:44Z</time>
      </trkpt>
      <trkpt lat="49.30468" lon="1.2599">
        <ele>27</ele>
        <time>2017-04-18T16:19:44Z</time>
      </trkpt>
      <trkpt lat="49.30466" lon="1.25996">
        <ele>27</ele>
        <time>2017-04-18T16:19:44Z</time>
      </trkpt>
      <trkpt lat="49.30469" lon="1.26001">
        <ele>27</ele>
        <time>2017-04-18T16:19:44Z</time>
      </trkpt>
      <trkpt lat="49.30476" lon="1.25997">
        <ele>27</ele>
        <time>2017-04-18T16:20:00Z</time>
      </trkpt>
      <trkpt lat="49.30481" lon="1.25994">
        <ele>27</ele>
        <time>2017-04-18T16:20:00Z</time>
      </trkpt>
      <trkpt lat="49.30487" lon="1.25991">
        <ele>27</ele>
        <time>2017-04-18T16:20:00Z</time>
      </trkpt>
      <trkpt lat="49.30492" lon="1.25988">
        <ele>27</ele>
        <time>2017-04-18T16:20:00Z</time>
      </trkpt>
      <trkpt lat="49.30494" lon="1.25995">
        <ele>27</ele>
        <time>2017-04-18T16:20:16Z</time>
      </trkpt>
      <trkpt lat="49.30491" lon="1.26001">
        <ele>27</ele>
        <time>2017-04-18T16:20:16Z</time>
      </trkpt>
      <trkpt lat="49.30485" lon="1.26007">
        <ele>27</ele>
        <time>2017-04-18T16:20:16Z</time>
      </trkpt>
      <trkpt lat="49.3048" lon="1.26011">
        <ele>27</ele>
        <time>2017-04-18T16:20:16Z</time>
      </trkpt>
      <trkpt lat="49.30476" lon="1.26016">
        <ele>27</ele>
        <time>2017-04-18T16:20:32Z</time>
      </trkpt>
      <trkpt lat="49.30475" lon="1.26023">
        <ele>27</ele>
        <time>2017-04-18T16:20:32Z</time>
      </trkpt>
      <trkpt lat="49.30482" lon="1.26024">
        <ele>27</ele>
        <time>2017-04-18T16:20:32Z</time>
      </trkpt>
      <trkpt lat="49.30486" lon="1.2602">
        <ele>27</ele>
        <time>2017-04-18T16:20:32Z</time>
      </trkpt>
      <trkpt lat="49.30491" lon="1.26016">
        <ele>27</ele>
        <time>2017-04-18T16:20:48Z</time>
      </trkpt>
      <trkpt lat="49.30494" lon="1.26013">
        <ele>27</ele>
        <time>2017-04-18T16:20:48Z</time>
      </trkpt>
      <trkpt lat="49.30499" lon="1.26012">
        <ele>27</ele>
        <time>2017-04-18T16:20:48Z</time>
      </trkpt>
      <trkpt lat="49.30501" lon="1.26016">
        <ele>27</ele>
        <time>2017-04-18T16:20:49Z</time>
      </trkpt>
      <trkpt lat="49.30501" lon="1.26018">
        <ele>27</ele>
        <time>2017-04-18T16:23:20Z</time>
      </trkpt>
      <trkpt lat="49.30512" lon="1.26024">
        <ele>27</ele>
        <time>2017-04-18T16:23:20Z</time>
      </trkpt>
      <trkpt lat="49.3052" lon="1.26024">
        <ele>27</ele>
        <time>2017-04-18T16:23:20Z</time>
      </trkpt>
      <trkpt lat="49.30529" lon="1.26028">
        <ele>27</ele>
        <time>2017-04-18T16:23:20Z</time>
      </trkpt>
      <trkpt lat="49.30532" lon="1.26031">
        <ele>27</ele>
        <time>2017-04-18T16:23:20Z</time>
      </trkpt>
      <trkpt lat="49.3053" lon="1.26039">
        <ele>27</ele>
        <time>2017-04-18T16:23:36Z</time>
      </trkpt>
      <trkpt lat="49.30527" lon="1.26049">
        <ele>47</ele>
        <time>2017-04-18T16:23:37Z</time>
      </trkpt>
      <trkpt lat="49.30531" lon="1.26052">
        <ele>47</ele>
        <time>2017-04-18T16:23:37Z</time>
      </trkpt>
      <trkpt lat="49.30531" lon="1.26055">
        <ele>47</ele>
        <time>2017-04-18T16:23:37Z</time>
      </trkpt>
      <trkpt lat="49.30527" lon="1.26062">
        <ele>47</ele>
        <time>2017-04-18T16:23:52Z</time>
      </trkpt>
      <trkpt lat="49.30528" lon="1.26069">
        <ele>47</ele>
        <time>2017-04-18T16:23:52Z</time>
      </trkpt>
      <trkpt lat="49.30526" lon="1.26073">
        <ele>47</ele>
        <time>2017-04-18T16:23:52Z</time>
      </trkpt>
      <trkpt lat="49.30527" lon="1.26078">
        <ele>47</ele>
        <time>2017-04-18T16:23:52Z</time>
      </trkpt>
      <trkpt lat="49.30532" lon="1.26082">
        <ele>47</ele>
        <time>2017-04-18T16:24:08Z</time>
      </trkpt>
      <trkpt lat="49.3054" lon="1.26076">
        <ele>47</ele>
        <time>2017-04-18T16:24:08Z</time>
      </trkpt>
      <trkpt lat="49.30543" lon="1.26071">
        <ele>37</ele>
        <time>2017-04-18T16:24:08Z</time>
      </trkpt>
      <trkpt lat="49.30549" lon="1.26074">
        <ele>37</ele>
        <time>2017-04-18T16:24:08Z</time>
      </trkpt>
      <trkpt lat="49.30551" lon="1.26082">
        <ele>37</ele>
        <time>2017-04-18T16:24:48Z</time>
      </trkpt>
      <trkpt lat="49.30544" lon="1.26081">
        <ele>37</ele>
        <time>2017-04-18T16:24:49Z</time>
      </trkpt>
      <trkpt lat="49.30539" lon="1.26079">
        <ele>47</ele>
        <time>2017-04-18T16:24:49Z</time>
      </trkpt>
      <trkpt lat="49.30536" lon="1.26077">
        <ele>47</ele>
        <time>2017-04-18T16:24:49Z</time>
      </trkpt>
      <trkpt lat="49.3053" lon="1.26076">
        <ele>47</ele>
        <time>2017-04-18T16:24:49Z</time>
      </trkpt>
      <trkpt lat="49.30526" lon="1.26074">
        <ele>47</ele>
        <time>2017-04-18T16:25:04Z</time>
      </trkpt>
      <trkpt lat="49.30522" lon="1.26071">
        <ele>47</ele>
        <time>2017-04-18T16:25:04Z</time>
      </trkpt>
      <trkpt lat="49.30519" lon="1.26065">
        <ele>47</ele>
        <time>2017-04-18T16:25:04Z</time>
      </trkpt>
      <trkpt lat="49.30518" lon="1.26058">
        <ele>47</ele>
        <time>2017-04-18T16:25:04Z</time>
      </trkpt>
      <trkpt lat="49.30516" lon="1.26057">
        <ele>47</ele>
        <time>2017-04-18T16:25:20Z</time>
      </trkpt>
      <trkpt lat="49.30509" lon="1.26068">
        <ele>47</ele>
        <time>2017-04-18T16:25:20Z</time>
      </trkpt>
      <trkpt lat="49.30505" lon="1.26074">
        <ele>47</ele>
        <time>2017-04-18T16:25:20Z</time>
      </trkpt>
      <trkpt lat="49.305" lon="1.26084">
        <ele>47</ele>
        <time>2017-04-18T16:25:20Z</time>
      </trkpt>
      <trkpt lat="49.30496" lon="1.26089">
        <ele>47</ele>
        <time>2017-04-18T16:25:36Z</time>
      </trkpt>
      <trkpt lat="49.30493" lon="1.26092">
        <ele>47</ele>
        <time>2017-04-18T16:25:36Z</time>
      </trkpt>
      <trkpt lat="49.30489" lon="1.26094">
        <ele>47</ele>
        <time>2017-04-18T16:25:36Z</time>
      </trkpt>
      <trkpt lat="49.30484" lon="1.26099">
        <ele>47</ele>
        <time>2017-04-18T16:25:36Z</time>
      </trkpt>
      <trkpt lat="49.30482" lon="1.26102">
        <ele>47</ele>
        <time>2017-04-18T16:25:52Z</time>
      </trkpt>
      <trkpt lat="49.30477" lon="1.26104">
        <ele>47</ele>
        <time>2017-04-18T16:25:52Z</time>
      </trkpt>
      <trkpt lat="49.30474" lon="1.26103">
        <ele>47</ele>
        <time>2017-04-18T16:25:52Z</time>
      </trkpt>
      <trkpt lat="49.3047" lon="1.26107">
        <ele>47</ele>
        <time>2017-04-18T16:25:52Z</time>
      </trkpt>
      <trkpt lat="49.30469" lon="1.26111">
        <ele>47</ele>
        <time>2017-04-18T16:26:08Z</time>
      </trkpt>
      <trkpt lat="49.30467" lon="1.26115">
        <ele>47</ele>
        <time>2017-04-18T16:26:08Z</time>
      </trkpt>
      <trkpt lat="49.30466" lon="1.26119">
        <ele>47</ele>
        <time>2017-04-18T16:26:08Z</time>
      </trkpt>
      <trkpt lat="49.3047" lon="1.26127">
        <ele>73</ele>
        <time>2017-04-18T16:26:08Z</time>
      </trkpt>
      <trkpt lat="49.30472" lon="1.26132">
        <ele>73</ele>
        <time>2017-04-18T16:26:28Z</time>
      </trkpt>
      <trkpt lat="49.30472" lon="1.26136">
        <ele>73</ele>
        <time>2017-04-18T16:26:29Z</time>
      </trkpt>
      <trkpt lat="49.30473" lon="1.2614">
        <ele>73</ele>
        <time>2017-04-18T16:26:29Z</time>
      </trkpt>
      <trkpt lat="49.30473" lon="1.26143">
        <ele>73</ele>
        <time>2017-04-18T16:26:29Z</time>
      </trkpt>
      <trkpt lat="49.30476" lon="1.26147">
        <ele>73</ele>
        <time>2017-04-18T16:26:29Z</time>
      </trkpt>
      <trkpt lat="49.3048" lon="1.26151">
        <ele>73</ele>
        <time>2017-04-18T16:26:44Z</time>
      </trkpt>
      <trkpt lat="49.30486" lon="1.26155">
        <ele>73</ele>
        <time>2017-04-18T16:26:44Z</time>
      </trkpt>
      <trkpt lat="49.30492" lon="1.26162">
        <ele>73</ele>
        <time>2017-04-18T16:26:44Z</time>
      </trkpt>
      <trkpt lat="49.30496" lon="1.26162">
        <ele>73</ele>
        <time>2017-04-18T16:26:44Z</time>
      </trkpt>
      <trkpt lat="49.305" lon="1.26162">
        <ele>73</ele>
        <time>2017-04-18T16:27:00Z</time>
      </trkpt>
      <trkpt lat="49.30504" lon="1.26157">
        <ele>73</ele>
        <time>2017-04-18T16:27:00Z</time>
      </trkpt>
      <trkpt lat="49.30509" lon="1.26152">
        <ele>73</ele>
        <time>2017-04-18T16:27:00Z</time>
      </trkpt>
      <trkpt lat="49.30511" lon="1.2615">
        <ele>73</ele>
        <time>2017-04-18T16:27:00Z</time>
      </trkpt>
      <trkpt lat="49.30517" lon="1.26147">
        <ele>73</ele>
        <time>2017-04-18T16:27:24Z</time>
      </trkpt>
      <trkpt lat="49.30521" lon="1.26153">
        <ele>73</ele>
        <time>2017-04-18T16:27:24Z</time>
      </trkpt>
      <trkpt lat="49.30521" lon="1.26155">
        <ele>73</ele>
        <time>2017-04-18T16:27:24Z</time>
      </trkpt>
      <trkpt lat="49.30521" lon="1.26156">
        <ele>73</ele>
        <time>2017-04-18T16:27:24Z</time>
      </trkpt>
      <trkpt lat="49.3052" lon="1.26159">
        <ele>73</ele>
        <time>2017-04-18T16:27:24Z</time>
      </trkpt>
      <trkpt lat="49.30515" lon="1.26159">
        <ele>73</ele>
        <time>2017-04-18T16:28:20Z</time>
      </trkpt>
      <trkpt lat="49.30516" lon="1.26158">
        <ele>73</ele>
        <time>2017-04-18T16:28:20Z</time>
      </trkpt>
      <trkpt lat="49.30519" lon="1.26161">
        <ele>73</ele>
        <time>2017-04-18T16:28:20Z</time>
      </trkpt>
      <trkpt lat="49.30519" lon="1.26171">
        <ele>73</ele>
        <time>2017-04-18T16:28:20Z</time>
      </trkpt>
      <trkpt lat="49.30517" lon="1.26179">
        <ele>73</ele>
        <time>2017-04-18T16:28:20Z</time>
      </trkpt>
      <trkpt lat="49.30515" lon="1.26187">
        <ele>73</ele>
        <time>2017-04-18T16:28:36Z</time>
      </trkpt>
      <trkpt lat="49.3051" lon="1.26193">
        <ele>73</ele>
        <time>2017-04-18T16:28:36Z</time>
      </trkpt>
      <trkpt lat="49.30502" lon="1.26196">
        <ele>73</ele>
        <time>2017-04-18T16:28:36Z</time>
      </trkpt>
      <trkpt lat="49.30498" lon="1.26201">
        <ele>73</ele>
        <time>2017-04-18T16:28:36Z</time>
      </trkpt>
      <trkpt lat="49.30492" lon="1.26201">
        <ele>73</ele>
        <time>2017-04-18T16:28:52Z</time>
      </trkpt>
      <trkpt lat="49.30487" lon="1.26201">
        <ele>73</ele>
        <time>2017-04-18T16:28:52Z</time>
      </trkpt>
      <trkpt lat="49.30483" lon="1.26204">
        <ele>73</ele>
        <time>2017-04-18T16:28:52Z</time>
      </trkpt>
      <trkpt lat="49.30483" lon="1.2621">
        <ele>100</ele>
        <time>2017-04-18T16:28:52Z</time>
      </trkpt>
      <trkpt lat="49.30484" lon="1.26214">
        <ele>100</ele>
        <time>2017-04-18T16:29:08Z</time>
      </trkpt>
      <trkpt lat="49.30489" lon="1.26217">
        <ele>100</ele>
        <time>2017-04-18T16:29:08Z</time>
      </trkpt>
      <trkpt lat="49.30491" lon="1.2622">
        <ele>100</ele>
        <time>2017-04-18T16:29:08Z</time>
      </trkpt>
      <trkpt lat="49.30493" lon="1.26227">
        <ele>100</ele>
        <time>2017-04-18T16:29:09Z</time>
      </trkpt>
      <trkpt lat="49.30495" lon="1.26233">
        <ele>100</ele>
        <time>2017-04-18T16:29:40Z</time>
      </trkpt>
      <trkpt lat="49.30487" lon="1.26229">
        <ele>100</ele>
        <time>2017-04-18T16:29:41Z</time>
      </trkpt>
      <trkpt lat="49.30486" lon="1.26233">
        <ele>100</ele>
        <time>2017-04-18T16:29:41Z</time>
      </trkpt>
      <trkpt lat="49.30486" lon="1.26239">
        <ele>100</ele>
        <time>2017-04-18T16:29:41Z</time>
      </trkpt>
      <trkpt lat="49.30487" lon="1.26242">
        <ele>100</ele>
        <time>2017-04-18T16:29:41Z</time>
      </trkpt>
      <trkpt lat="49.30474" lon="1.26239">
        <ele>100</ele>
        <time>2017-04-18T16:31:08Z</time>
      </trkpt>
      <trkpt lat="49.30474" lon="1.26239">
        <ele>100</ele>
        <time>2017-04-18T16:31:08Z</time>
      </trkpt>
      <trkpt lat="49.30474" lon="1.26239">
        <ele>100</ele>
        <time>2017-04-18T16:31:08Z</time>
      </trkpt>
      <trkpt lat="49.30472" lon="1.2624">
        <ele>100</ele>
        <time>2017-04-18T16:31:08Z</time>
      </trkpt>
      <trkpt lat="49.30471" lon="1.2624">
        <ele>100</ele>
        <time>2017-04-18T16:31:08Z</time>
      </trkpt>
      <trkpt lat="49.30468" lon="1.26238">
        <ele>100</ele>
        <time>2017-04-18T16:32:24Z</time>
      </trkpt>
      <trkpt lat="49.30468" lon="1.26238">
        <ele>100</ele>
        <time>2017-04-18T16:32:24Z</time>
      </trkpt>
      <trkpt lat="49.30466" lon="1.26233">
        <ele>100</ele>
        <time>2017-04-18T16:32:24Z</time>
      </trkpt>
      <trkpt lat="49.30462" lon="1.26233">
        <ele>100</ele>
        <time>2017-04-18T16:32:24Z</time>
      </trkpt>
      <trkpt lat="49.30455" lon="1.26232">
        <ele>97</ele>
        <time>2017-04-18T16:32:24Z</time>
      </trkpt>
      <trkpt lat="49.3045" lon="1.26235">
        <ele>97</ele>
        <time>2017-04-18T16:32:40Z</time>
      </trkpt>
      <trkpt lat="49.30447" lon="1.2624">
        <ele>97</ele>
        <time>2017-04-18T16:32:40Z</time>
      </trkpt>
      <trkpt lat="49.30443" lon="1.26247">
        <ele>97</ele>
        <time>2017-04-18T16:32:41Z</time>
      </trkpt>
      <trkpt lat="49.3044" lon="1.26249">
        <ele>97</ele>
        <time>2017-04-18T16:32:41Z</time>
      </trkpt>
      <trkpt lat="49.30437" lon="1.26254">
        <ele>97</ele>
        <time>2017-04-18T16:32:56Z</time>
      </trkpt>
      <trkpt lat="49.30433" lon="1.26256">
        <ele>97</ele>
        <time>2017-04-18T16:32:56Z</time>
      </trkpt>
      <trkpt lat="49.3043" lon="1.26256">
        <ele>97</ele>
        <time>2017-04-18T16:32:56Z</time>
      </trkpt>
      <trkpt lat="49.30425" lon="1.26251">
        <ele>97</ele>
        <time>2017-04-18T16:32:57Z</time>
      </trkpt>
      <trkpt lat="49.30422" lon="1.26249">
        <ele>97</ele>
        <time>2017-04-18T16:33:12Z</time>
      </trkpt>
      <trkpt lat="49.30421" lon="1.26253">
        <ele>97</ele>
        <time>2017-04-18T16:33:12Z</time>
      </trkpt>
      <trkpt lat="49.30417" lon="1.26259">
        <ele>97</ele>
        <time>2017-04-18T16:33:12Z</time>
      </trkpt>
      <trkpt lat="49.30415" lon="1.26262">
        <ele>97</ele>
        <time>2017-04-18T16:33:12Z</time>
      </trkpt>
      <trkpt lat="49.30412" lon="1.26267">
        <ele>97</ele>
        <time>2017-04-18T16:33:28Z</time>
      </trkpt>
      <trkpt lat="49.30411" lon="1.2627">
        <ele>97</ele>
        <time>2017-04-18T16:33:29Z</time>
      </trkpt>
      <trkpt lat="49.30406" lon="1.26268">
        <ele>97</ele>
        <time>2017-04-18T16:33:29Z</time>
      </trkpt>
      <trkpt lat="49.30403" lon="1.26267">
        <ele>97</ele>
        <time>2017-04-18T16:33:29Z</time>
      </trkpt>
      <trkpt lat="49.30399" lon="1.26273">
        <ele>97</ele>
        <time>2017-04-18T16:33:44Z</time>
      </trkpt>
      <trkpt lat="49.30395" lon="1.26276">
        <ele>97</ele>
        <time>2017-04-18T16:33:44Z</time>
      </trkpt>
      <trkpt lat="49.30391" lon="1.26279">
        <ele>97</ele>
        <time>2017-04-18T16:33:44Z</time>
      </trkpt>
      <trkpt lat="49.30388" lon="1.26282">
        <ele>97</ele>
        <time>2017-04-18T16:33:44Z</time>
      </trkpt>
      <trkpt lat="49.30386" lon="1.26285">
        <ele>97</ele>
        <time>2017-04-18T16:34:00Z</time>
      </trkpt>
      <trkpt lat="49.30383" lon="1.2629">
        <ele>97</ele>
        <time>2017-04-18T16:34:00Z</time>
      </trkpt>
      <trkpt lat="49.30379" lon="1.26289">
        <ele>97</ele>
        <time>2017-04-18T16:34:00Z</time>
      </trkpt>
      <trkpt lat="49.30374" lon="1.26289">
        <ele>79</ele>
        <time>2017-04-18T16:34:00Z</time>
      </trkpt>
      <trkpt lat="49.3037" lon="1.2629">
        <ele>79</ele>
        <time>2017-04-18T16:34:16Z</time>
      </trkpt>
      <trkpt lat="49.30368" lon="1.26292">
        <ele>79</ele>
        <time>2017-04-18T16:34:16Z</time>
      </trkpt>
      <trkpt lat="49.30365" lon="1.26295">
        <ele>111</ele>
        <time>2017-04-18T16:34:16Z</time>
      </trkpt>
      <trkpt lat="49.30361" lon="1.26302">
        <ele>111</ele>
        <time>2017-04-18T16:34:16Z</time>
      </trkpt>
      <trkpt lat="49.30359" lon="1.26305">
        <ele>111</ele>
        <time>2017-04-18T16:34:32Z</time>
      </trkpt>
      <trkpt lat="49.30355" lon="1.26309">
        <ele>111</ele>
        <time>2017-04-18T16:34:32Z</time>
      </trkpt>
      <trkpt lat="49.30352" lon="1.26312">
        <ele>111</ele>
        <time>2017-04-18T16:34:32Z</time>
      </trkpt>
      <trkpt lat="49.30346" lon="1.26315">
        <ele>111</ele>
        <time>2017-04-18T16:34:32Z</time>
      </trkpt>
      <trkpt lat="49.30343" lon="1.26316">
        <ele>111</ele>
        <time>2017-04-18T16:34:48Z</time>
      </trkpt>
      <trkpt lat="49.30338" lon="1.26321">
        <ele>111</ele>
        <time>2017-04-18T16:34:48Z</time>
      </trkpt>
      <trkpt lat="49.30334" lon="1.26323">
        <ele>111</ele>
        <time>2017-04-18T16:34:48Z</time>
      </trkpt>
      <trkpt lat="49.3033" lon="1.26328">
        <ele>111</ele>
        <time>2017-04-18T16:34:48Z</time>
      </trkpt>
      <trkpt lat="49.30328" lon="1.26332">
        <ele>111</ele>
        <time>2017-04-18T16:35:04Z</time>
      </trkpt>
      <trkpt lat="49.30324" lon="1.26335">
        <ele>111</ele>
        <time>2017-04-18T16:35:05Z</time>
      </trkpt>
      <trkpt lat="49.3032" lon="1.26339">
        <ele>111</ele>
        <time>2017-04-18T16:35:05Z</time>
      </trkpt>
      <trkpt lat="49.30316" lon="1.26342">
        <ele>111</ele>
        <time>2017-04-18T16:35:05Z</time>
      </trkpt>
      <trkpt lat="49.30313" lon="1.26347">
        <ele>111</ele>
        <time>2017-04-18T16:35:20Z</time>
      </trkpt>
      <trkpt lat="49.30311" lon="1.2635">
        <ele>111</ele>
        <time>2017-04-18T16:35:21Z</time>
      </trkpt>
      <trkpt lat="49.30309" lon="1.26357">
        <ele>111</ele>
        <time>2017-04-18T16:35:21Z</time>
      </trkpt>
      <trkpt lat="49.30307" lon="1.2636">
        <ele>111</ele>
        <time>2017-04-18T16:35:21Z</time>
      </trkpt>
      <trkpt lat="49.30304" lon="1.26368">
        <ele>111</ele>
        <time>2017-04-18T16:35:36Z</time>
      </trkpt>
      <trkpt lat="49.30301" lon="1.26369">
        <ele>111</ele>
        <time>2017-04-18T16:35:37Z</time>
      </trkpt>
      <trkpt lat="49.30297" lon="1.26373">
        <ele>111</ele>
        <time>2017-04-18T16:35:37Z</time>
      </trkpt>
      <trkpt lat="49.30293" lon="1.26376">
        <ele>137</ele>
        <time>2017-04-18T16:35:37Z</time>
      </trkpt>
      <trkpt lat="49.30289" lon="1.26379">
        <ele>117</ele>
        <time>2017-04-18T16:35:52Z</time>
      </trkpt>
      <trkpt lat="49.30285" lon="1.26382">
        <ele>117</ele>
        <time>2017-04-18T16:35:52Z</time>
      </trkpt>
      <trkpt lat="49.30283" lon="1.26386">
        <ele>117</ele>
        <time>2017-04-18T16:35:52Z</time>
      </trkpt>
      <trkpt lat="49.30281" lon="1.26391">
        <ele>117</ele>
        <time>2017-04-18T16:35:52Z</time>
      </trkpt>
      <trkpt lat="49.30278" lon="1.26393">
        <ele>117</ele>
        <time>2017-04-18T16:36:08Z</time>
      </trkpt>
      <trkpt lat="49.30272" lon="1.26395">
        <ele>117</ele>
        <time>2017-04-18T16:36:09Z</time>
      </trkpt>
      <trkpt lat="49.30269" lon="1.26399">
        <ele>117</ele>
        <time>2017-04-18T16:36:09Z</time>
      </trkpt>
      <trkpt lat="49.30267" lon="1.26403">
        <ele>117</ele>
        <time>2017-04-18T16:36:09Z</time>
      </trkpt>
      <trkpt lat="49.30264" lon="1.2641">
        <ele>117</ele>
        <time>2017-04-18T16:36:24Z</time>
      </trkpt>
      <trkpt lat="49.30262" lon="1.26418">
        <ele>117</ele>
        <time>2017-04-18T16:36:25Z</time>
      </trkpt>
      <trkpt lat="49.30261" lon="1.26422">
        <ele>117</ele>
        <time>2017-04-18T16:36:25Z</time>
      </trkpt>
      <trkpt lat="49.30258" lon="1.26429">
        <ele>117</ele>
        <time>2017-04-18T16:36:25Z</time>
      </trkpt>
      <trkpt lat="49.30255" lon="1.26429">
        <ele>117</ele>
        <time>2017-04-18T16:36:40Z</time>
      </trkpt>
      <trkpt lat="49.30249" lon="1.26428">
        <ele>117</ele>
        <time>2017-04-18T16:36:40Z</time>
      </trkpt>
      <trkpt lat="49.30246" lon="1.26435">
        <ele>117</ele>
        <time>2017-04-18T16:36:40Z</time>
      </trkpt>
      <trkpt lat="49.30241" lon="1.26436">
        <ele>117</ele>
        <time>2017-04-18T16:36:40Z</time>
      </trkpt>
      <trkpt lat="49.30236" lon="1.26433">
        <ele>117</ele>
        <time>2017-04-18T16:36:56Z</time>
      </trkpt>
      <trkpt lat="49.30232" lon="1.26431">
        <ele>117</ele>
        <time>2017-04-18T16:36:56Z</time>
      </trkpt>
      <trkpt lat="49.30226" lon="1.26429">
        <ele>117</ele>
        <time>2017-04-18T16:36:56Z</time>
      </trkpt>
      <trkpt lat="49.30223" lon="1.26432">
        <ele>117</ele>
        <time>2017-04-18T16:36:56Z</time>
      </trkpt>
      <trkpt lat="49.30219" lon="1.26433">
        <ele>117</ele>
        <time>2017-04-18T16:37:12Z</time>
      </trkpt>
      <trkpt lat="49.30216" lon="1.26434">
        <ele>117</ele>
        <time>2017-04-18T16:37:12Z</time>
      </trkpt>
      <trkpt lat="49.30213" lon="1.26439">
        <ele>117</ele>
        <time>2017-04-18T16:37:12Z</time>
      </trkpt>
      <trkpt lat="49.3021" lon="1.26442">
        <ele>117</ele>
        <time>2017-04-18T16:37:12Z</time>
      </trkpt>
      <trkpt lat="49.30205" lon="1.26444">
        <ele>95</ele>
        <time>2017-04-18T16:42:44Z</time>
      </trkpt>
      <trkpt lat="49.30205" lon="1.26444">
        <ele>95</ele>
        <time>2017-04-18T16:42:44Z</time>
      </trkpt>
      <trkpt lat="49.30205" lon="1.26449">
        <ele>95</ele>
        <time>2017-04-18T16:42:44Z</time>
      </trkpt>
      <trkpt lat="49.30205" lon="1.26454">
        <ele>95</ele>
        <time>2017-04-18T16:42:44Z</time>
      </trkpt>
      <trkpt lat="49.30209" lon="1.26457">
        <ele>117</ele>
        <time>2017-04-18T16:42:44Z</time>
      </trkpt>
      <trkpt lat="49.30209" lon="1.26457">
        <ele>117</ele>
        <time>2017-04-18T16:43:04Z</time>
      </trkpt>
      <trkpt lat="49.30209" lon="1.26457">
        <ele>117</ele>
        <time>2017-04-18T16:43:04Z</time>
      </trkpt>
      <trkpt lat="49.30207" lon="1.26461">
        <ele>101</ele>
        <time>2017-04-18T16:43:04Z</time>
      </trkpt>
      <trkpt lat="49.30205" lon="1.26466">
        <ele>101</ele>
        <time>2017-04-18T16:43:04Z</time>
      </trkpt>
      <trkpt lat="49.30207" lon="1.26472">
        <ele>101</ele>
        <time>2017-04-18T16:43:04Z</time>
      </trkpt>
      <trkpt lat="49.30208" lon="1.26476">
        <ele>133</ele>
        <time>2017-04-18T16:43:20Z</time>
      </trkpt>
      <trkpt lat="49.30211" lon="1.26479">
        <ele>133</ele>
        <time>2017-04-18T16:43:20Z</time>
      </trkpt>
      <trkpt lat="49.30213" lon="1.26484">
        <ele>133</ele>
        <time>2017-04-18T16:43:20Z</time>
      </trkpt>
      <trkpt lat="49.30216" lon="1.26488">
        <ele>133</ele>
        <time>2017-04-18T16:43:20Z</time>
      </trkpt>
      <trkpt lat="49.30218" lon="1.26493">
        <ele>133</ele>
        <time>2017-04-18T16:43:36Z</time>
      </trkpt>
      <trkpt lat="49.30221" lon="1.26498">
        <ele>133</ele>
        <time>2017-04-18T16:43:36Z</time>
      </trkpt>
      <trkpt lat="49.30224" lon="1.26502">
        <ele>133</ele>
        <time>2017-04-18T16:43:36Z</time>
      </trkpt>
      <trkpt lat="49.30227" lon="1.26506">
        <ele>133</ele>
        <time>2017-04-18T16:43:36Z</time>
      </trkpt>
      <trkpt lat="49.3023" lon="1.2651">
        <ele>133</ele>
        <time>2017-04-18T16:43:52Z</time>
      </trkpt>
      <trkpt lat="49.30234" lon="1.26513">
        <ele>133</ele>
        <time>2017-04-18T16:43:52Z</time>
      </trkpt>
      <trkpt lat="49.30237" lon="1.26514">
        <ele>133</ele>
        <time>2017-04-18T16:43:52Z</time>
      </trkpt>
      <trkpt lat="49.30239" lon="1.26518">
        <ele>133</ele>
        <time>2017-04-18T16:43:52Z</time>
      </trkpt>
      <trkpt lat="49.30238" lon="1.26524">
        <ele>133</ele>
        <time>2017-04-18T16:44:08Z</time>
      </trkpt>
      <trkpt lat="49.30236" lon="1.26529">
        <ele>133</ele>
        <time>2017-04-18T16:44:08Z</time>
      </trkpt>
      <trkpt lat="49.30235" lon="1.26535">
        <ele>133</ele>
        <time>2017-04-18T16:44:08Z</time>
      </trkpt>
      <trkpt lat="49.30235" lon="1.26538">
        <ele>133</ele>
        <time>2017-04-18T16:44:08Z</time>
      </trkpt>
      <trkpt lat="49.30236" lon="1.26542">
        <ele>126</ele>
        <time>2017-04-18T16:44:24Z</time>
      </trkpt>
      <trkpt lat="49.3024" lon="1.26548">
        <ele>126</ele>
        <time>2017-04-18T16:44:24Z</time>
      </trkpt>
      <trkpt lat="49.30244" lon="1.26549">
        <ele>126</ele>
        <time>2017-04-18T16:44:24Z</time>
      </trkpt>
      <trkpt lat="49.30249" lon="1.26552">
        <ele>126</ele>
        <time>2017-04-18T16:44:24Z</time>
      </trkpt>
      <trkpt lat="49.30251" lon="1.26554">
        <ele>126</ele>
        <time>2017-04-18T16:44:40Z</time>
      </trkpt>
      <trkpt lat="49.30255" lon="1.26559">
        <ele>126</ele>
        <time>2017-04-18T16:44:41Z</time>
      </trkpt>
      <trkpt lat="49.30257" lon="1.26563">
        <ele>126</ele>
        <time>2017-04-18T16:44:41Z</time>
      </trkpt>
      <trkpt lat="49.30262" lon="1.2657">
        <ele>126</ele>
        <time>2017-04-18T16:44:41Z</time>
      </trkpt>
      <trkpt lat="49.30265" lon="1.26575">
        <ele>126</ele>
        <time>2017-04-18T16:44:56Z</time>
      </trkpt>
      <trkpt lat="49.30268" lon="1.26578">
        <ele>126</ele>
        <time>2017-04-18T16:44:56Z</time>
      </trkpt>
      <trkpt lat="49.30268" lon="1.26585">
        <ele>126</ele>
        <time>2017-04-18T16:44:56Z</time>
      </trkpt>
      <trkpt lat="49.3027" lon="1.26592">
        <ele>126</ele>
        <time>2017-04-18T16:44:56Z</time>
      </trkpt>
      <trkpt lat="49.30274" lon="1.26595">
        <ele>126</ele>
        <time>2017-04-18T16:45:12Z</time>
      </trkpt>
      <trkpt lat="49.30277" lon="1.26599">
        <ele>126</ele>
        <time>2017-04-18T16:45:12Z</time>
      </trkpt>
      <trkpt lat="49.30279" lon="1.26605">
        <ele>126</ele>
        <time>2017-04-18T16:45:12Z</time>
      </trkpt>
      <trkpt lat="49.3028" lon="1.26612">
        <ele>126</ele>
        <time>2017-04-18T16:45:12Z</time>
      </trkpt>
      <trkpt lat="49.30282" lon="1.26616">
        <ele>126</ele>
        <time>2017-04-18T16:45:28Z</time>
      </trkpt>
      <trkpt lat="49.30279" lon="1.26625">
        <ele>115</ele>
        <time>2017-04-18T16:45:28Z</time>
      </trkpt>
      <trkpt lat="49.30279" lon="1.26631">
        <ele>115</ele>
        <time>2017-04-18T16:45:28Z</time>
      </trkpt>
      <trkpt lat="49.30282" lon="1.26637">
        <ele>115</ele>
        <time>2017-04-18T16:45:28Z</time>
      </trkpt>
      <trkpt lat="49.30288" lon="1.26643">
        <ele>115</ele>
        <time>2017-04-18T16:45:44Z</time>
      </trkpt>
      <trkpt lat="49.3029" lon="1.26648">
        <ele>115</ele>
        <time>2017-04-18T16:45:44Z</time>
      </trkpt>
      <trkpt lat="49.30289" lon="1.26653">
        <ele>115</ele>
        <time>2017-04-18T16:45:44Z</time>
      </trkpt>
      <trkpt lat="49.30288" lon="1.26661">
        <ele>115</ele>
        <time>2017-04-18T16:45:44Z</time>
      </trkpt>
      <trkpt lat="49.30288" lon="1.26666">
        <ele>115</ele>
        <time>2017-04-18T16:46:00Z</time>
      </trkpt>
      <trkpt lat="49.30291" lon="1.26674">
        <ele>115</ele>
        <time>2017-04-18T16:46:01Z</time>
      </trkpt>
      <trkpt lat="49.30292" lon="1.26678">
        <ele>148</ele>
        <time>2017-04-18T16:46:01Z</time>
      </trkpt>
      <trkpt lat="49.30296" lon="1.26684">
        <ele>148</ele>
        <time>2017-04-18T16:46:01Z</time>
      </trkpt>
      <trkpt lat="49.30296" lon="1.2669">
        <ele>148</ele>
        <time>2017-04-18T16:46:16Z</time>
      </trkpt>
      <trkpt lat="49.30298" lon="1.26695">
        <ele>148</ele>
        <time>2017-04-18T16:46:16Z</time>
      </trkpt>
      <trkpt lat="49.30302" lon="1.267">
        <ele>148</ele>
        <time>2017-04-18T16:46:16Z</time>
      </trkpt>
      <trkpt lat="49.30303" lon="1.26705">
        <ele>148</ele>
        <time>2017-04-18T16:46:16Z</time>
      </trkpt>
      <trkpt lat="49.30303" lon="1.26714">
        <ele>144</ele>
        <time>2017-04-18T16:46:32Z</time>
      </trkpt>
      <trkpt lat="49.30305" lon="1.26718">
        <ele>144</ele>
        <time>2017-04-18T16:46:32Z</time>
      </trkpt>
      <trkpt lat="49.30306" lon="1.26725">
        <ele>144</ele>
        <time>2017-04-18T16:46:32Z</time>
      </trkpt>
      <trkpt lat="49.30305" lon="1.26732">
        <ele>144</ele>
        <time>2017-04-18T16:46:32Z</time>
      </trkpt>
      <trkpt lat="49.30305" lon="1.26737">
        <ele>144</ele>
        <time>2017-04-18T16:46:48Z</time>
      </trkpt>
      <trkpt lat="49.30305" lon="1.26744">
        <ele>144</ele>
        <time>2017-04-18T16:46:48Z</time>
      </trkpt>
      <trkpt lat="49.30303" lon="1.26751">
        <ele>144</ele>
        <time>2017-04-18T16:46:48Z</time>
      </trkpt>
      <trkpt lat="49.30305" lon="1.26756">
        <ele>144</ele>
        <time>2017-04-18T16:46:48Z</time>
      </trkpt>
      <trkpt lat="49.30306" lon="1.26761">
        <ele>144</ele>
        <time>2017-04-18T16:47:04Z</time>
      </trkpt>
      <trkpt lat="49.30307" lon="1.26768">
        <ele>144</ele>
        <time>2017-04-18T16:47:04Z</time>
      </trkpt>
      <trkpt lat="49.30309" lon="1.26773">
        <ele>144</ele>
        <time>2017-04-18T16:47:04Z</time>
      </trkpt>
      <trkpt lat="49.30308" lon="1.2678">
        <ele>144</ele>
        <time>2017-04-18T16:47:04Z</time>
      </trkpt>
      <trkpt lat="49.30306" lon="1.26787">
        <ele>144</ele>
        <time>2017-04-18T16:47:20Z</time>
      </trkpt>
      <trkpt lat="49.30305" lon="1.26793">
        <ele>141</ele>
        <time>2017-04-18T16:47:21Z</time>
      </trkpt>
      <trkpt lat="49.30304" lon="1.26801">
        <ele>141</ele>
        <time>2017-04-18T16:47:21Z</time>
      </trkpt>
      <trkpt lat="49.30302" lon="1.26811">
        <ele>141</ele>
        <time>2017-04-18T16:47:21Z</time>
      </trkpt>
      <trkpt lat="49.30301" lon="1.26817">
        <ele>141</ele>
        <time>2017-04-18T16:47:36Z</time>
      </trkpt>
      <trkpt lat="49.30301" lon="1.26824">
        <ele>141</ele>
        <time>2017-04-18T16:47:36Z</time>
      </trkpt>
      <trkpt lat="49.303" lon="1.26833">
        <ele>141</ele>
        <time>2017-04-18T16:47:36Z</time>
      </trkpt>
      <trkpt lat="49.30299" lon="1.2684">
        <ele>141</ele>
        <time>2017-04-18T16:47:37Z</time>
      </trkpt>
      <trkpt lat="49.30299" lon="1.26848">
        <ele>141</ele>
        <time>2017-04-18T16:47:52Z</time>
      </trkpt>
      <trkpt lat="49.30301" lon="1.26853">
        <ele>141</ele>
        <time>2017-04-18T16:47:52Z</time>
      </trkpt>
      <trkpt lat="49.30305" lon="1.26856">
        <ele>141</ele>
        <time>2017-04-18T16:47:52Z</time>
      </trkpt>
      <trkpt lat="49.3031" lon="1.26859">
        <ele>141</ele>
        <time>2017-04-18T16:47:52Z</time>
      </trkpt>
      <trkpt lat="49.30316" lon="1.26861">
        <ele>141</ele>
        <time>2017-04-18T16:48:08Z</time>
      </trkpt>
      <trkpt lat="49.30321" lon="1.26862">
        <ele>141</ele>
        <time>2017-04-18T16:48:08Z</time>
      </trkpt>
      <trkpt lat="49.30326" lon="1.26864">
        <ele>141</ele>
        <time>2017-04-18T16:48:08Z</time>
      </trkpt>
      <trkpt lat="49.3033" lon="1.26865">
        <ele>141</ele>
        <time>2017-04-18T16:48:08Z</time>
      </trkpt>
      <trkpt lat="49.30334" lon="1.26862">
        <ele>141</ele>
        <time>2017-04-18T16:48:24Z</time>
      </trkpt>
      <trkpt lat="49.30337" lon="1.26857">
        <ele>141</ele>
        <time>2017-04-18T16:48:24Z</time>
      </trkpt>
      <trkpt lat="49.30341" lon="1.26849">
        <ele>141</ele>
        <time>2017-04-18T16:48:24Z</time>
      </trkpt>
      <trkpt lat="49.30343" lon="1.26845">
        <ele>141</ele>
        <time>2017-04-18T16:48:24Z</time>
      </trkpt>
      <trkpt lat="49.30349" lon="1.26844">
        <ele>141</ele>
        <time>2017-04-18T16:48:40Z</time>
      </trkpt>
      <trkpt lat="49.30353" lon="1.26845">
        <ele>141</ele>
        <time>2017-04-18T16:48:40Z</time>
      </trkpt>
      <trkpt lat="49.30358" lon="1.26849">
        <ele>141</ele>
        <time>2017-04-18T16:48:40Z</time>
      </trkpt>
      <trkpt lat="49.30361" lon="1.26856">
        <ele>141</ele>
        <time>2017-04-18T16:48:40Z</time>
      </trkpt>
      <trkpt lat="49.30361" lon="1.26863">
        <ele>141</ele>
        <time>2017-04-18T16:48:56Z</time>
      </trkpt>
      <trkpt lat="49.30361" lon="1.26871">
        <ele>141</ele>
        <time>2017-04-18T16:48:56Z</time>
      </trkpt>
      <trkpt lat="49.30364" lon="1.26873">
        <ele>141</ele>
        <time>2017-04-18T16:48:56Z</time>
      </trkpt>
      <trkpt lat="49.30367" lon="1.2688">
        <ele>141</ele>
        <time>2017-04-18T16:48:56Z</time>
      </trkpt>
      <trkpt lat="49.3037" lon="1.26887">
        <ele>141</ele>
        <time>2017-04-18T16:49:12Z</time>
      </trkpt>
      <trkpt lat="49.30374" lon="1.26893">
        <ele>141</ele>
        <time>2017-04-18T16:49:12Z</time>
      </trkpt>
      <trkpt lat="49.30376" lon="1.26897">
        <ele>142</ele>
        <time>2017-04-18T16:49:12Z</time>
      </trkpt>
      <trkpt lat="49.30378" lon="1.26903">
        <ele>142</ele>
        <time>2017-04-18T16:49:12Z</time>
      </trkpt>
      <trkpt lat="49.30381" lon="1.26908">
        <ele>142</ele>
        <time>2017-04-18T16:49:28Z</time>
      </trkpt>
      <trkpt lat="49.30385" lon="1.26915">
        <ele>142</ele>
        <time>2017-04-18T16:49:28Z</time>
      </trkpt>
      <trkpt lat="49.30389" lon="1.26922">
        <ele>142</ele>
        <time>2017-04-18T16:49:28Z</time>
      </trkpt>
      <trkpt lat="49.30391" lon="1.2693">
        <ele>142</ele>
        <time>2017-04-18T16:49:28Z</time>
      </trkpt>
      <trkpt lat="49.30395" lon="1.26935">
        <ele>142</ele>
        <time>2017-04-18T16:49:44Z</time>
      </trkpt>
      <trkpt lat="49.304" lon="1.26939">
        <ele>142</ele>
        <time>2017-04-18T16:49:44Z</time>
      </trkpt>
      <trkpt lat="49.30403" lon="1.26942">
        <ele>142</ele>
        <time>2017-04-18T16:49:44Z</time>
      </trkpt>
      <trkpt lat="49.30406" lon="1.26948">
        <ele>142</ele>
        <time>2017-04-18T16:49:44Z</time>
      </trkpt>
      <trkpt lat="49.3041" lon="1.26953">
        <ele>142</ele>
        <time>2017-04-18T16:50:00Z</time>
      </trkpt>
      <trkpt lat="49.30416" lon="1.2695">
        <ele>142</ele>
        <time>2017-04-18T16:50:00Z</time>
      </trkpt>
      <trkpt lat="49.30423" lon="1.26947">
        <ele>142</ele>
        <time>2017-04-18T16:50:00Z</time>
      </trkpt>
      <trkpt lat="49.30428" lon="1.26948">
        <ele>142</ele>
        <time>2017-04-18T16:50:00Z</time>
      </trkpt>
      <trkpt lat="49.30434" lon="1.2695">
        <ele>142</ele>
        <time>2017-04-18T16:50:16Z</time>
      </trkpt>
      <trkpt lat="49.30439" lon="1.26954">
        <ele>142</ele>
        <time>2017-04-18T16:50:16Z</time>
      </trkpt>
      <trkpt lat="49.30444" lon="1.26953">
        <ele>142</ele>
        <time>2017-04-18T16:50:16Z</time>
      </trkpt>
      <trkpt lat="49.30449" lon="1.26953">
        <ele>142</ele>
        <time>2017-04-18T16:50:16Z</time>
      </trkpt>
      <trkpt lat="49.30455" lon="1.26953">
        <ele>142</ele>
        <time>2017-04-18T16:52:08Z</time>
      </trkpt>
      <trkpt lat="49.30457" lon="1.26952">
        <ele>142</ele>
        <time>2017-04-18T16:52:08Z</time>
      </trkpt>
      <trkpt lat="49.3046" lon="1.26954">
        <ele>139</ele>
        <time>2017-04-18T16:52:08Z</time>
      </trkpt>
      <trkpt lat="49.3046" lon="1.26954">
        <ele>139</ele>
        <time>2017-04-18T16:52:08Z</time>
      </trkpt>
      <trkpt lat="49.30462" lon="1.26956">
        <ele>139</ele>
        <time>2017-04-18T16:52:08Z</time>
      </trkpt>
      <trkpt lat="49.30461" lon="1.26958">
        <ele>139</ele>
        <time>2017-04-18T16:53:24Z</time>
      </trkpt>
      <trkpt lat="49.30464" lon="1.26948">
        <ele>139</ele>
        <time>2017-04-18T16:53:24Z</time>
      </trkpt>
      <trkpt lat="49.30467" lon="1.26942">
        <ele>139</ele>
        <time>2017-04-18T16:53:24Z</time>
      </trkpt>
      <trkpt lat="49.30471" lon="1.2694">
        <ele>139</ele>
        <time>2017-04-18T16:53:24Z</time>
      </trkpt>
      <trkpt lat="49.30473" lon="1.26938">
        <ele>139</ele>
        <time>2017-04-18T16:53:24Z</time>
      </trkpt>
      <trkpt lat="49.30476" lon="1.26936">
        <ele>139</ele>
        <time>2017-04-18T16:53:40Z</time>
      </trkpt>
      <trkpt lat="49.3048" lon="1.26935">
        <ele>139</ele>
        <time>2017-04-18T16:53:41Z</time>
      </trkpt>
      <trkpt lat="49.30485" lon="1.26932">
        <ele>139</ele>
        <time>2017-04-18T16:53:41Z</time>
      </trkpt>
      <trkpt lat="49.30489" lon="1.2693">
        <ele>139</ele>
        <time>2017-04-18T16:53:41Z</time>
      </trkpt>
      <trkpt lat="49.30492" lon="1.26928">
        <ele>139</ele>
        <time>2017-04-18T16:53:56Z</time>
      </trkpt>
      <trkpt lat="49.30497" lon="1.26924">
        <ele>139</ele>
        <time>2017-04-18T16:53:56Z</time>
      </trkpt>
      <trkpt lat="49.305" lon="1.26918">
        <ele>139</ele>
        <time>2017-04-18T16:53:56Z</time>
      </trkpt>
      <trkpt lat="49.30505" lon="1.26913">
        <ele>139</ele>
        <time>2017-04-18T16:53:56Z</time>
      </trkpt>
      <trkpt lat="49.30509" lon="1.26908">
        <ele>139</ele>
        <time>2017-04-18T16:54:12Z</time>
      </trkpt>
      <trkpt lat="49.30512" lon="1.26905">
        <ele>139</ele>
        <time>2017-04-18T16:54:12Z</time>
      </trkpt>
      <trkpt lat="49.30515" lon="1.26902">
        <ele>139</ele>
        <time>2017-04-18T16:54:12Z</time>
      </trkpt>
      <trkpt lat="49.30518" lon="1.26896">
        <ele>139</ele>
        <time>2017-04-18T16:54:12Z</time>
      </trkpt>
      <trkpt lat="49.30522" lon="1.26894">
        <ele>139</ele>
        <time>2017-04-18T16:54:28Z</time>
      </trkpt>
      <trkpt lat="49.30526" lon="1.26892">
        <ele>139</ele>
        <time>2017-04-18T16:54:28Z</time>
      </trkpt>
      <trkpt lat="49.30531" lon="1.26892">
        <ele>139</ele>
        <time>2017-04-18T16:54:28Z</time>
      </trkpt>
      <trkpt lat="49.30535" lon="1.26894">
        <ele>139</ele>
        <time>2017-04-18T16:54:28Z</time>
      </trkpt>
      <trkpt lat="49.3054" lon="1.26896">
        <ele>139</ele>
        <time>2017-04-18T16:54:44Z</time>
      </trkpt>
      <trkpt lat="49.30543" lon="1.26898">
        <ele>138</ele>
        <time>2017-04-18T16:54:44Z</time>
      </trkpt>
      <trkpt lat="49.30548" lon="1.26901">
        <ele>138</ele>
        <time>2017-04-18T16:54:44Z</time>
      </trkpt>
      <trkpt lat="49.30553" lon="1.26905">
        <ele>138</ele>
        <time>2017-04-18T16:54:44Z</time>
      </trkpt>
      <trkpt lat="49.30557" lon="1.26908">
        <ele>138</ele>
        <time>2017-04-18T16:55:00Z</time>
      </trkpt>
      <trkpt lat="49.30562" lon="1.2691">
        <ele>138</ele>
        <time>2017-04-18T16:55:00Z</time>
      </trkpt>
      <trkpt lat="49.30565" lon="1.26912">
        <ele>138</ele>
        <time>2017-04-18T16:55:00Z</time>
      </trkpt>
      <trkpt lat="49.3057" lon="1.26914">
        <ele>138</ele>
        <time>2017-04-18T16:55:01Z</time>
      </trkpt>
      <trkpt lat="49.30576" lon="1.26914">
        <ele>138</ele>
        <time>2017-04-18T16:55:16Z</time>
      </trkpt>
      <trkpt lat="49.3058" lon="1.26913">
        <ele>138</ele>
        <time>2017-04-18T16:55:16Z</time>
      </trkpt>
      <trkpt lat="49.30583" lon="1.2691">
        <ele>138</ele>
        <time>2017-04-18T16:55:16Z</time>
      </trkpt>
      <trkpt lat="49.30587" lon="1.26915">
        <ele>138</ele>
        <time>2017-04-18T16:55:16Z</time>
      </trkpt>
      <trkpt lat="49.30591" lon="1.26917">
        <ele>138</ele>
        <time>2017-04-18T16:55:32Z</time>
      </trkpt>
      <trkpt lat="49.30593" lon="1.26914">
        <ele>138</ele>
        <time>2017-04-18T16:55:32Z</time>
      </trkpt>
      <trkpt lat="49.30597" lon="1.26907">
        <ele>138</ele>
        <time>2017-04-18T16:55:32Z</time>
      </trkpt>
      <trkpt lat="49.30603" lon="1.26902">
        <ele>138</ele>
        <time>2017-04-18T16:55:32Z</time>
      </trkpt>
      <trkpt lat="49.30607" lon="1.26898">
        <ele>138</ele>
        <time>2017-04-18T16:55:48Z</time>
      </trkpt>
      <trkpt lat="49.30611" lon="1.26894">
        <ele>138</ele>
        <time>2017-04-18T16:55:48Z</time>
      </trkpt>
      <trkpt lat="49.30613" lon="1.2689">
        <ele>138</ele>
        <time>2017-04-18T16:55:48Z</time>
      </trkpt>
      <trkpt lat="49.30616" lon="1.26883">
        <ele>138</ele>
        <time>2017-04-18T16:55:48Z</time>
      </trkpt>
      <trkpt lat="49.3062" lon="1.2688">
        <ele>138</ele>
        <time>2017-04-18T16:56:05Z</time>
      </trkpt>
      <trkpt lat="49.30624" lon="1.26877">
        <ele>138</ele>
        <time>2017-04-18T16:56:05Z</time>
      </trkpt>
      <trkpt lat="49.30627" lon="1.26874">
        <ele>140</ele>
        <time>2017-04-18T16:56:05Z</time>
      </trkpt>
      <trkpt lat="49.30631" lon="1.26872">
        <ele>140</ele>
        <time>2017-04-18T16:56:05Z</time>
      </trkpt>
      <trkpt lat="49.30635" lon="1.26868">
        <ele>140</ele>
        <time>2017-04-18T16:56:20Z</time>
      </trkpt>
      <trkpt lat="49.3064" lon="1.26865">
        <ele>140</ele>
        <time>2017-04-18T16:56:20Z</time>
      </trkpt>
      <trkpt lat="49.30643" lon="1.26863">
        <ele>140</ele>
        <time>2017-04-18T16:56:20Z</time>
      </trkpt>
      <trkpt lat="49.30647" lon="1.26859">
        <ele>140</ele>
        <time>2017-04-18T16:56:20Z</time>
      </trkpt>
      <trkpt lat="49.30651" lon="1.26854">
        <ele>140</ele>
        <time>2017-04-18T16:56:36Z</time>
      </trkpt>
      <trkpt lat="49.30655" lon="1.26851">
        <ele>140</ele>
        <time>2017-04-18T16:56:36Z</time>
      </trkpt>
      <trkpt lat="49.30661" lon="1.26849">
        <ele>140</ele>
        <time>2017-04-18T16:56:36Z</time>
      </trkpt>
      <trkpt lat="49.30666" lon="1.26844">
        <ele>140</ele>
        <time>2017-04-18T16:56:36Z</time>
      </trkpt>
      <trkpt lat="49.30671" lon="1.26841">
        <ele>140</ele>
        <time>2017-04-18T16:56:52Z</time>
      </trkpt>
      <trkpt lat="49.30675" lon="1.26838">
        <ele>140</ele>
        <time>2017-04-18T16:56:52Z</time>
      </trkpt>
      <trkpt lat="49.30679" lon="1.26835">
        <ele>140</ele>
        <time>2017-04-18T16:56:52Z</time>
      </trkpt>
      <trkpt lat="49.30683" lon="1.26832">
        <ele>140</ele>
        <time>2017-04-18T16:56:52Z</time>
      </trkpt>
      <trkpt lat="49.30687" lon="1.26828">
        <ele>140</ele>
        <time>2017-04-18T16:57:08Z</time>
      </trkpt>
      <trkpt lat="49.30691" lon="1.26825">
        <ele>140</ele>
        <time>2017-04-18T16:57:08Z</time>
      </trkpt>
      <trkpt lat="49.30695" lon="1.26821">
        <ele>140</ele>
        <time>2017-04-18T16:57:08Z</time>
      </trkpt>
      <trkpt lat="49.307" lon="1.26817">
        <ele>140</ele>
        <time>2017-04-18T16:57:08Z</time>
      </trkpt>
      <trkpt lat="49.30705" lon="1.26814">
        <ele>140</ele>
        <time>2017-04-18T16:57:24Z</time>
      </trkpt>
      <trkpt lat="49.30709" lon="1.26811">
        <ele>143</ele>
        <time>2017-04-18T16:57:24Z</time>
      </trkpt>
      <trkpt lat="49.30714" lon="1.26807">
        <ele>143</ele>
        <time>2017-04-18T16:57:24Z</time>
      </trkpt>
      <trkpt lat="49.30719" lon="1.26803">
        <ele>143</ele>
        <time>2017-04-18T16:57:24Z</time>
      </trkpt>
      <trkpt lat="49.30723" lon="1.268">
        <ele>143</ele>
        <time>2017-04-18T16:57:40Z</time>
      </trkpt>
      <trkpt lat="49.30728" lon="1.26796">
        <ele>143</ele>
        <time>2017-04-18T16:57:40Z</time>
      </trkpt>
      <trkpt lat="49.30732" lon="1.26793">
        <ele>143</ele>
        <time>2017-04-18T16:57:40Z</time>
      </trkpt>
      <trkpt lat="49.30736" lon="1.26788">
        <ele>140</ele>
        <time>2017-04-18T16:57:40Z</time>
      </trkpt>
      <trkpt lat="49.3074" lon="1.26784">
        <ele>140</ele>
        <time>2017-04-18T16:57:56Z</time>
      </trkpt>
      <trkpt lat="49.30743" lon="1.2678">
        <ele>140</ele>
        <time>2017-04-18T16:57:56Z</time>
      </trkpt>
      <trkpt lat="49.30747" lon="1.26778">
        <ele>140</ele>
        <time>2017-04-18T16:57:56Z</time>
      </trkpt>
      <trkpt lat="49.30752" lon="1.26775">
        <ele>140</ele>
        <time>2017-04-18T16:57:56Z</time>
      </trkpt>
      <trkpt lat="49.30756" lon="1.26771">
        <ele>140</ele>
        <time>2017-04-18T16:58:12Z</time>
      </trkpt>
      <trkpt lat="49.3076" lon="1.26768">
        <ele>140</ele>
        <time>2017-04-18T16:58:12Z</time>
      </trkpt>
      <trkpt lat="49.30764" lon="1.26765">
        <ele>140</ele>
        <time>2017-04-18T16:58:12Z</time>
      </trkpt>
      <trkpt lat="49.30768" lon="1.26762">
        <ele>140</ele>
        <time>2017-04-18T16:58:12Z</time>
      </trkpt>
      <trkpt lat="49.30772" lon="1.26759">
        <ele>140</ele>
        <time>2017-04-18T16:58:28Z</time>
      </trkpt>
      <trkpt lat="49.30776" lon="1.26755">
        <ele>140</ele>
        <time>2017-04-18T16:58:29Z</time>
      </trkpt>
      <trkpt lat="49.3078" lon="1.26752">
        <ele>140</ele>
        <time>2017-04-18T16:58:29Z</time>
      </trkpt>
      <trkpt lat="49.30785" lon="1.26748">
        <ele>140</ele>
        <time>2017-04-18T16:58:29Z</time>
      </trkpt>
      <trkpt lat="49.3079" lon="1.26742">
        <ele>140</ele>
        <time>2017-04-18T16:58:44Z</time>
      </trkpt>
      <trkpt lat="49.30794" lon="1.26738">
        <ele>142</ele>
        <time>2017-04-18T16:58:44Z</time>
      </trkpt>
      <trkpt lat="49.30798" lon="1.26734">
        <ele>142</ele>
        <time>2017-04-18T16:58:44Z</time>
      </trkpt>
      <trkpt lat="49.30801" lon="1.26731">
        <ele>142</ele>
        <time>2017-04-18T16:58:44Z</time>
      </trkpt>
      <trkpt lat="49.30806" lon="1.26726">
        <ele>142</ele>
        <time>2017-04-18T16:59:00Z</time>
      </trkpt>
      <trkpt lat="49.30811" lon="1.26724">
        <ele>142</ele>
        <time>2017-04-18T16:59:00Z</time>
      </trkpt>
      <trkpt lat="49.30814" lon="1.26722">
        <ele>142</ele>
        <time>2017-04-18T16:59:00Z</time>
      </trkpt>
      <trkpt lat="49.30821" lon="1.26717">
        <ele>142</ele>
        <time>2017-04-18T16:59:00Z</time>
      </trkpt>
      <trkpt lat="49.30824" lon="1.26714">
        <ele>142</ele>
        <time>2017-04-18T16:59:16Z</time>
      </trkpt>
      <trkpt lat="49.30828" lon="1.26711">
        <ele>142</ele>
        <time>2017-04-18T16:59:16Z</time>
      </trkpt>
      <trkpt lat="49.30834" lon="1.26707">
        <ele>139</ele>
        <time>2017-04-18T16:59:16Z</time>
      </trkpt>
      <trkpt lat="49.30837" lon="1.26702">
        <ele>139</ele>
        <time>2017-04-18T16:59:16Z</time>
      </trkpt>
      <trkpt lat="49.30841" lon="1.26699">
        <ele>139</ele>
        <time>2017-04-18T16:59:32Z</time>
      </trkpt>
      <trkpt lat="49.30844" lon="1.26695">
        <ele>139</ele>
        <time>2017-04-18T16:59:32Z</time>
      </trkpt>
      <trkpt lat="49.30847" lon="1.26693">
        <ele>139</ele>
        <time>2017-04-18T16:59:32Z</time>
      </trkpt>
      <trkpt lat="49.30852" lon="1.26688">
        <ele>139</ele>
        <time>2017-04-18T16:59:32Z</time>
      </trkpt>
      <trkpt lat="49.30855" lon="1.26682">
        <ele>139</ele>
        <time>2017-04-18T16:59:48Z</time>
      </trkpt>
      <trkpt lat="49.3086" lon="1.26677">
        <ele>139</ele>
        <time>2017-04-18T16:59:48Z</time>
      </trkpt>
      <trkpt lat="49.30865" lon="1.26673">
        <ele>139</ele>
        <time>2017-04-18T16:59:48Z</time>
      </trkpt>
      <trkpt lat="49.30867" lon="1.26668">
        <ele>139</ele>
        <time>2017-04-18T16:59:48Z</time>
      </trkpt>
      <trkpt lat="49.30872" lon="1.26662">
        <ele>139</ele>
        <time>2017-04-18T17:00:04Z</time>
      </trkpt>
      <trkpt lat="49.30875" lon="1.26657">
        <ele>143</ele>
        <time>2017-04-18T17:00:04Z</time>
      </trkpt>
      <trkpt lat="49.30879" lon="1.26654">
        <ele>143</ele>
        <time>2017-04-18T17:00:04Z</time>
      </trkpt>
      <trkpt lat="49.30882" lon="1.26648">
        <ele>143</ele>
        <time>2017-04-18T17:00:04Z</time>
      </trkpt>
      <trkpt lat="49.30884" lon="1.26641">
        <ele>143</ele>
        <time>2017-04-18T17:00:20Z</time>
      </trkpt>
      <trkpt lat="49.30887" lon="1.26634">
        <ele>143</ele>
        <time>2017-04-18T17:00:20Z</time>
      </trkpt>
      <trkpt lat="49.3089" lon="1.26628">
        <ele>143</ele>
        <time>2017-04-18T17:00:21Z</time>
      </trkpt>
      <trkpt lat="49.30893" lon="1.26623">
        <ele>145</ele>
        <time>2017-04-18T17:00:21Z</time>
      </trkpt>
      <trkpt lat="49.30895" lon="1.26619">
        <ele>145</ele>
        <time>2017-04-18T17:00:36Z</time>
      </trkpt>
      <trkpt lat="49.30897" lon="1.26613">
        <ele>145</ele>
        <time>2017-04-18T17:00:36Z</time>
      </trkpt>
      <trkpt lat="49.30898" lon="1.26604">
        <ele>145</ele>
        <time>2017-04-18T17:00:36Z</time>
      </trkpt>
      <trkpt lat="49.309" lon="1.26599">
        <ele>145</ele>
        <time>2017-04-18T17:00:36Z</time>
      </trkpt>
      <trkpt lat="49.30907" lon="1.26588">
        <ele>145</ele>
        <time>2017-04-18T17:01:04Z</time>
      </trkpt>
      <trkpt lat="49.30908" lon="1.26584">
        <ele>145</ele>
        <time>2017-04-18T17:01:04Z</time>
      </trkpt>
      <trkpt lat="49.30911" lon="1.26576">
        <ele>145</ele>
        <time>2017-04-18T17:01:04Z</time>
      </trkpt>
      <trkpt lat="49.30914" lon="1.26569">
        <ele>145</ele>
        <time>2017-04-18T17:01:04Z</time>
      </trkpt>
      <trkpt lat="49.30917" lon="1.26564">
        <ele>145</ele>
        <time>2017-04-18T17:01:04Z</time>
      </trkpt>
      <trkpt lat="49.30919" lon="1.2656">
        <ele>145</ele>
        <time>2017-04-18T17:01:21Z</time>
      </trkpt>
      <trkpt lat="49.30919" lon="1.26555">
        <ele>145</ele>
        <time>2017-04-18T17:01:21Z</time>
      </trkpt>
      <trkpt lat="49.30921" lon="1.26548">
        <ele>145</ele>
        <time>2017-04-18T17:01:21Z</time>
      </trkpt>
      <trkpt lat="49.30926" lon="1.26543">
        <ele>145</ele>
        <time>2017-04-18T17:01:21Z</time>
      </trkpt>
      <trkpt lat="49.30929" lon="1.26538">
        <ele>144</ele>
        <time>2017-04-18T17:01:36Z</time>
      </trkpt>
      <trkpt lat="49.30931" lon="1.26533">
        <ele>144</ele>
        <time>2017-04-18T17:01:36Z</time>
      </trkpt>
      <trkpt lat="49.30934" lon="1.26526">
        <ele>144</ele>
        <time>2017-04-18T17:01:36Z</time>
      </trkpt>
      <trkpt lat="49.30938" lon="1.26518">
        <ele>144</ele>
        <time>2017-04-18T17:01:36Z</time>
      </trkpt>
      <trkpt lat="49.3094" lon="1.26513">
        <ele>144</ele>
        <time>2017-04-18T17:01:52Z</time>
      </trkpt>
      <trkpt lat="49.30943" lon="1.26506">
        <ele>144</ele>
        <time>2017-04-18T17:01:52Z</time>
      </trkpt>
      <trkpt lat="49.30945" lon="1.26501">
        <ele>144</ele>
        <time>2017-04-18T17:01:52Z</time>
      </trkpt>
      <trkpt lat="49.30947" lon="1.26497">
        <ele>144</ele>
        <time>2017-04-18T17:01:53Z</time>
      </trkpt>
      <trkpt lat="49.30949" lon="1.26493">
        <ele>144</ele>
        <time>2017-04-18T17:02:08Z</time>
      </trkpt>
      <trkpt lat="49.30953" lon="1.26486">
        <ele>144</ele>
        <time>2017-04-18T17:02:08Z</time>
      </trkpt>
      <trkpt lat="49.30956" lon="1.26479">
        <ele>144</ele>
        <time>2017-04-18T17:02:08Z</time>
      </trkpt>
      <trkpt lat="49.30958" lon="1.26475">
        <ele>144</ele>
        <time>2017-04-18T17:02:08Z</time>
      </trkpt>
      <trkpt lat="49.30961" lon="1.26467">
        <ele>145</ele>
        <time>2017-04-18T17:02:24Z</time>
      </trkpt>
      <trkpt lat="49.30964" lon="1.2646">
        <ele>145</ele>
        <time>2017-04-18T17:02:24Z</time>
      </trkpt>
      <trkpt lat="49.30966" lon="1.26453">
        <ele>146</ele>
        <time>2017-04-18T17:02:24Z</time>
      </trkpt>
      <trkpt lat="49.30968" lon="1.26447">
        <ele>146</ele>
        <time>2017-04-18T17:02:24Z</time>
      </trkpt>
      <trkpt lat="49.30971" lon="1.26443">
        <ele>146</ele>
        <time>2017-04-18T17:02:40Z</time>
      </trkpt>
      <trkpt lat="49.30976" lon="1.2644">
        <ele>146</ele>
        <time>2017-04-18T17:02:40Z</time>
      </trkpt>
      <trkpt lat="49.3098" lon="1.26447">
        <ele>146</ele>
        <time>2017-04-18T17:02:40Z</time>
      </trkpt>
      <trkpt lat="49.30983" lon="1.26455">
        <ele>146</ele>
        <time>2017-04-18T17:02:40Z</time>
      </trkpt>
      <trkpt lat="49.30987" lon="1.26462">
        <ele>145</ele>
        <time>2017-04-18T17:02:56Z</time>
      </trkpt>
      <trkpt lat="49.3099" lon="1.26469">
        <ele>145</ele>
        <time>2017-04-18T17:02:56Z</time>
      </trkpt>
      <trkpt lat="49.30992" lon="1.26475">
        <ele>145</ele>
        <time>2017-04-18T17:02:56Z</time>
      </trkpt>
      <trkpt lat="49.30993" lon="1.2648">
        <ele>145</ele>
        <time>2017-04-18T17:02:56Z</time>
      </trkpt>
      <trkpt lat="49.30996" lon="1.26486">
        <ele>145</ele>
        <time>2017-04-18T17:03:12Z</time>
      </trkpt>
      <trkpt lat="49.30999" lon="1.26492">
        <ele>145</ele>
        <time>2017-04-18T17:03:12Z</time>
      </trkpt>
      <trkpt lat="49.31001" lon="1.26497">
        <ele>145</ele>
        <time>2017-04-18T17:03:12Z</time>
      </trkpt>
      <trkpt lat="49.31003" lon="1.26503">
        <ele>145</ele>
        <time>2017-04-18T17:03:12Z</time>
      </trkpt>
      <trkpt lat="49.31006" lon="1.26511">
        <ele>145</ele>
        <time>2017-04-18T17:03:28Z</time>
      </trkpt>
      <trkpt lat="49.31008" lon="1.26516">
        <ele>145</ele>
        <time>2017-04-18T17:03:28Z</time>
      </trkpt>
      <trkpt lat="49.31011" lon="1.2652">
        <ele>145</ele>
        <time>2017-04-18T17:03:28Z</time>
      </trkpt>
      <trkpt lat="49.31014" lon="1.26527">
        <ele>145</ele>
        <time>2017-04-18T17:03:28Z</time>
      </trkpt>
      <trkpt lat="49.31017" lon="1.26534">
        <ele>145</ele>
        <time>2017-04-18T17:03:44Z</time>
      </trkpt>
      <trkpt lat="49.3102" lon="1.2654">
        <ele>145</ele>
        <time>2017-04-18T17:03:44Z</time>
      </trkpt>
      <trkpt lat="49.31023" lon="1.26547">
        <ele>145</ele>
        <time>2017-04-18T17:03:44Z</time>
      </trkpt>
      <trkpt lat="49.31027" lon="1.26551">
        <ele>145</ele>
        <time>2017-04-18T17:03:44Z</time>
      </trkpt>
      <trkpt lat="49.3103" lon="1.26557">
        <ele>145</ele>
        <time>2017-04-18T17:04:00Z</time>
      </trkpt>
      <trkpt lat="49.31032" lon="1.26562">
        <ele>145</ele>
        <time>2017-04-18T17:04:00Z</time>
      </trkpt>
      <trkpt lat="49.31036" lon="1.2657">
        <ele>145</ele>
        <time>2017-04-18T17:04:00Z</time>
      </trkpt>
      <trkpt lat="49.3104" lon="1.26576">
        <ele>145</ele>
        <time>2017-04-18T17:04:00Z</time>
      </trkpt>
      <trkpt lat="49.31042" lon="1.26581">
        <ele>146</ele>
        <time>2017-04-18T17:04:17Z</time>
      </trkpt>
      <trkpt lat="49.31045" lon="1.2659">
        <ele>146</ele>
        <time>2017-04-18T17:04:17Z</time>
      </trkpt>
      <trkpt lat="49.31045" lon="1.26596">
        <ele>146</ele>
        <time>2017-04-18T17:04:17Z</time>
      </trkpt>
      <trkpt lat="49.31046" lon="1.26601">
        <ele>146</ele>
        <time>2017-04-18T17:04:17Z</time>
      </trkpt>
      <trkpt lat="49.31048" lon="1.26607">
        <ele>146</ele>
        <time>2017-04-18T17:04:32Z</time>
      </trkpt>
      <trkpt lat="49.31051" lon="1.26614">
        <ele>146</ele>
        <time>2017-04-18T17:04:32Z</time>
      </trkpt>
      <trkpt lat="49.31055" lon="1.2662">
        <ele>146</ele>
        <time>2017-04-18T17:04:32Z</time>
      </trkpt>
      <trkpt lat="49.31058" lon="1.26627">
        <ele>146</ele>
        <time>2017-04-18T17:04:32Z</time>
      </trkpt>
      <trkpt lat="49.31061" lon="1.26633">
        <ele>146</ele>
        <time>2017-04-18T17:04:48Z</time>
      </trkpt>
      <trkpt lat="49.31063" lon="1.26637">
        <ele>146</ele>
        <time>2017-04-18T17:04:48Z</time>
      </trkpt>
      <trkpt lat="49.31065" lon="1.26643">
        <ele>146</ele>
        <time>2017-04-18T17:04:48Z</time>
      </trkpt>
      <trkpt lat="49.31068" lon="1.26649">
        <ele>146</ele>
        <time>2017-04-18T17:04:48Z</time>
      </trkpt>
      <trkpt lat="49.31072" lon="1.26656">
        <ele>146</ele>
        <time>2017-04-18T17:05:08Z</time>
      </trkpt>
      <trkpt lat="49.31073" lon="1.26659">
        <ele>146</ele>
        <time>2017-04-18T17:05:08Z</time>
      </trkpt>
      <trkpt lat="49.31074" lon="1.26661">
        <ele>146</ele>
        <time>2017-04-18T17:05:08Z</time>
      </trkpt>
      <trkpt lat="49.31074" lon="1.26664">
        <ele>146</ele>
        <time>2017-04-18T17:05:08Z</time>
      </trkpt>
      <trkpt lat="49.31073" lon="1.2667">
        <ele>146</ele>
        <time>2017-04-18T17:05:08Z</time>
      </trkpt>
      <trkpt lat="49.31069" lon="1.26673">
        <ele>146</ele>
        <time>2017-04-18T17:05:36Z</time>
      </trkpt>
      <trkpt lat="49.31069" lon="1.26674">
        <ele>146</ele>
        <time>2017-04-18T17:05:36Z</time>
      </trkpt>
      <trkpt lat="49.31065" lon="1.26678">
        <ele>146</ele>
        <time>2017-04-18T17:05:36Z</time>
      </trkpt>
      <trkpt lat="49.31062" lon="1.26681">
        <ele>146</ele>
        <time>2017-04-18T17:05:36Z</time>
      </trkpt>
      <trkpt lat="49.31059" lon="1.26685">
        <ele>146</ele>
        <time>2017-04-18T17:05:36Z</time>
      </trkpt>
      <trkpt lat="49.31055" lon="1.26686">
        <ele>146</ele>
        <time>2017-04-18T17:05:52Z</time>
      </trkpt>
      <trkpt lat="49.31051" lon="1.26684">
        <ele>146</ele>
        <time>2017-04-18T17:05:52Z</time>
      </trkpt>
      <trkpt lat="49.31047" lon="1.26685">
        <ele>146</ele>
        <time>2017-04-18T17:05:52Z</time>
      </trkpt>
      <trkpt lat="49.31043" lon="1.26686">
        <ele>146</ele>
        <time>2017-04-18T17:05:52Z</time>
      </trkpt>
      <trkpt lat="49.31038" lon="1.26688">
        <ele>145</ele>
        <time>2017-04-18T17:06:08Z</time>
      </trkpt>
      <trkpt lat="49.31035" lon="1.26691">
        <ele>145</ele>
        <time>2017-04-18T17:06:09Z</time>
      </trkpt>
      <trkpt lat="49.3103" lon="1.26696">
        <ele>145</ele>
        <time>2017-04-18T17:06:09Z</time>
      </trkpt>
      <trkpt lat="49.31026" lon="1.26698">
        <ele>145</ele>
        <time>2017-04-18T17:06:09Z</time>
      </trkpt>
      <trkpt lat="49.3102" lon="1.26706">
        <ele>145</ele>
        <time>2017-04-18T17:06:28Z</time>
      </trkpt>
      <trkpt lat="49.31019" lon="1.26707">
        <ele>145</ele>
        <time>2017-04-18T17:06:28Z</time>
      </trkpt>
      <trkpt lat="49.31011" lon="1.26705">
        <ele>145</ele>
        <time>2017-04-18T17:06:28Z</time>
      </trkpt>
      <trkpt lat="49.31007" lon="1.2671">
        <ele>146</ele>
        <time>2017-04-18T17:06:28Z</time>
      </trkpt>
      <trkpt lat="49.31005" lon="1.26717">
        <ele>146</ele>
        <time>2017-04-18T17:06:44Z</time>
      </trkpt>
      <trkpt lat="49.31006" lon="1.26727">
        <ele>146</ele>
        <time>2017-04-18T17:06:44Z</time>
      </trkpt>
      <trkpt lat="49.31009" lon="1.26735">
        <ele>146</ele>
        <time>2017-04-18T17:06:44Z</time>
      </trkpt>
      <trkpt lat="49.31012" lon="1.26742">
        <ele>146</ele>
        <time>2017-04-18T17:06:44Z</time>
      </trkpt>
      <trkpt lat="49.31015" lon="1.26745">
        <ele>146</ele>
        <time>2017-04-18T17:07:00Z</time>
      </trkpt>
      <trkpt lat="49.31019" lon="1.2675">
        <ele>146</ele>
        <time>2017-04-18T17:07:00Z</time>
      </trkpt>
      <trkpt lat="49.31022" lon="1.26756">
        <ele>146</ele>
        <time>2017-04-18T17:07:01Z</time>
      </trkpt>
      <trkpt lat="49.31026" lon="1.2676">
        <ele>146</ele>
        <time>2017-04-18T17:07:01Z</time>
      </trkpt>
      <trkpt lat="49.31028" lon="1.26765">
        <ele>146</ele>
        <time>2017-04-18T17:07:16Z</time>
      </trkpt>
      <trkpt lat="49.31032" lon="1.2677">
        <ele>146</ele>
        <time>2017-04-18T17:07:16Z</time>
      </trkpt>
      <trkpt lat="49.31035" lon="1.26775">
        <ele>146</ele>
        <time>2017-04-18T17:07:16Z</time>
      </trkpt>
      <trkpt lat="49.31038" lon="1.2678">
        <ele>146</ele>
        <time>2017-04-18T17:07:16Z</time>
      </trkpt>
      <trkpt lat="49.31042" lon="1.26784">
        <ele>147</ele>
        <time>2017-04-18T17:07:32Z</time>
      </trkpt>
      <trkpt lat="49.31045" lon="1.26789">
        <ele>147</ele>
        <time>2017-04-18T17:07:32Z</time>
      </trkpt>
      <trkpt lat="49.31048" lon="1.26795">
        <ele>147</ele>
        <time>2017-04-18T17:07:32Z</time>
      </trkpt>
      <trkpt lat="49.31051" lon="1.268">
        <ele>147</ele>
        <time>2017-04-18T17:07:33Z</time>
      </trkpt>
      <trkpt lat="49.31053" lon="1.26802">
        <ele>147</ele>
        <time>2017-04-18T17:07:48Z</time>
      </trkpt>
      <trkpt lat="49.31057" lon="1.26808">
        <ele>147</ele>
        <time>2017-04-18T17:07:48Z</time>
      </trkpt>
      <trkpt lat="49.31061" lon="1.26815">
        <ele>147</ele>
        <time>2017-04-18T17:07:48Z</time>
      </trkpt>
      <trkpt lat="49.31064" lon="1.2682">
        <ele>147</ele>
        <time>2017-04-18T17:07:48Z</time>
      </trkpt>
      <trkpt lat="49.31067" lon="1.26827">
        <ele>147</ele>
        <time>2017-04-18T17:08:04Z</time>
      </trkpt>
      <trkpt lat="49.3107" lon="1.26832">
        <ele>147</ele>
        <time>2017-04-18T17:08:04Z</time>
      </trkpt>
      <trkpt lat="49.31073" lon="1.2684">
        <ele>147</ele>
        <time>2017-04-18T17:08:04Z</time>
      </trkpt>
      <trkpt lat="49.31075" lon="1.26847">
        <ele>147</ele>
        <time>2017-04-18T17:08:04Z</time>
      </trkpt>
      <trkpt lat="49.31078" lon="1.26853">
        <ele>147</ele>
        <time>2017-04-18T17:08:20Z</time>
      </trkpt>
      <trkpt lat="49.31081" lon="1.2686">
        <ele>147</ele>
        <time>2017-04-18T17:08:20Z</time>
      </trkpt>
      <trkpt lat="49.31084" lon="1.26865">
        <ele>147</ele>
        <time>2017-04-18T17:08:20Z</time>
      </trkpt>
      <trkpt lat="49.31087" lon="1.26871">
        <ele>147</ele>
        <time>2017-04-18T17:08:20Z</time>
      </trkpt>
      <trkpt lat="49.31089" lon="1.26875">
        <ele>147</ele>
        <time>2017-04-18T17:08:36Z</time>
      </trkpt>
      <trkpt lat="49.31091" lon="1.26881">
        <ele>147</ele>
        <time>2017-04-18T17:08:36Z</time>
      </trkpt>
      <trkpt lat="49.31094" lon="1.26885">
        <ele>147</ele>
        <time>2017-04-18T17:08:36Z</time>
      </trkpt>
      <trkpt lat="49.31097" lon="1.26889">
        <ele>147</ele>
        <time>2017-04-18T17:08:36Z</time>
      </trkpt>
      <trkpt lat="49.31102" lon="1.26895">
        <ele>147</ele>
        <time>2017-04-18T17:08:52Z</time>
      </trkpt>
      <trkpt lat="49.31105" lon="1.26902">
        <ele>147</ele>
        <time>2017-04-18T17:08:52Z</time>
      </trkpt>
      <trkpt lat="49.31108" lon="1.26908">
        <ele>147</ele>
        <time>2017-04-18T17:08:52Z</time>
      </trkpt>
      <trkpt lat="49.3111" lon="1.26913">
        <ele>147</ele>
        <time>2017-04-18T17:08:52Z</time>
      </trkpt>
      <trkpt lat="49.31112" lon="1.26919">
        <ele>147</ele>
        <time>2017-04-18T17:09:08Z</time>
      </trkpt>
      <trkpt lat="49.31115" lon="1.26924">
        <ele>147</ele>
        <time>2017-04-18T17:09:08Z</time>
      </trkpt>
      <trkpt lat="49.31117" lon="1.26928">
        <ele>147</ele>
        <time>2017-04-18T17:09:08Z</time>
      </trkpt>
      <trkpt lat="49.31121" lon="1.26935">
        <ele>147</ele>
        <time>2017-04-18T17:09:08Z</time>
      </trkpt>
      <trkpt lat="49.31124" lon="1.26938">
        <ele>147</ele>
        <time>2017-04-18T17:09:24Z</time>
      </trkpt>
      <trkpt lat="49.31128" lon="1.26944">
        <ele>150</ele>
        <time>2017-04-18T17:09:24Z</time>
      </trkpt>
      <trkpt lat="49.31131" lon="1.26952">
        <ele>150</ele>
        <time>2017-04-18T17:09:24Z</time>
      </trkpt>
      <trkpt lat="49.31133" lon="1.26958">
        <ele>150</ele>
        <time>2017-04-18T17:09:24Z</time>
      </trkpt>
      <trkpt lat="49.31136" lon="1.26965">
        <ele>147</ele>
        <time>2017-04-18T17:09:40Z</time>
      </trkpt>
      <trkpt lat="49.31138" lon="1.26971">
        <ele>147</ele>
        <time>2017-04-18T17:09:40Z</time>
      </trkpt>
      <trkpt lat="49.31141" lon="1.26976">
        <ele>147</ele>
        <time>2017-04-18T17:09:40Z</time>
      </trkpt>
      <trkpt lat="49.31145" lon="1.26983">
        <ele>147</ele>
        <time>2017-04-18T17:09:40Z</time>
      </trkpt>
      <trkpt lat="49.31149" lon="1.26991">
        <ele>147</ele>
        <time>2017-04-18T17:09:56Z</time>
      </trkpt>
      <trkpt lat="49.31152" lon="1.26996">
        <ele>147</ele>
        <time>2017-04-18T17:09:56Z</time>
      </trkpt>
      <trkpt lat="49.31155" lon="1.27">
        <ele>147</ele>
        <time>2017-04-18T17:09:56Z</time>
      </trkpt>
      <trkpt lat="49.31157" lon="1.27007">
        <ele>147</ele>
        <time>2017-04-18T17:09:56Z</time>
      </trkpt>
      <trkpt lat="49.3116" lon="1.27014">
        <ele>147</ele>
        <time>2017-04-18T17:10:12Z</time>
      </trkpt>
      <trkpt lat="49.31163" lon="1.27018">
        <ele>147</ele>
        <time>2017-04-18T17:10:12Z</time>
      </trkpt>
      <trkpt lat="49.31166" lon="1.27024">
        <ele>147</ele>
        <time>2017-04-18T17:10:12Z</time>
      </trkpt>
      <trkpt lat="49.31169" lon="1.27029">
        <ele>147</ele>
        <time>2017-04-18T17:10:12Z</time>
      </trkpt>
      <trkpt lat="49.31172" lon="1.27034">
        <ele>147</ele>
        <time>2017-04-18T17:10:28Z</time>
      </trkpt>
      <trkpt lat="49.31176" lon="1.27039">
        <ele>147</ele>
        <time>2017-04-18T17:10:28Z</time>
      </trkpt>
      <trkpt lat="49.31179" lon="1.27045">
        <ele>148</ele>
        <time>2017-04-18T17:10:28Z</time>
      </trkpt>
      <trkpt lat="49.31181" lon="1.27048">
        <ele>148</ele>
        <time>2017-04-18T17:10:28Z</time>
      </trkpt>
      <trkpt lat="49.31184" lon="1.27053">
        <ele>148</ele>
        <time>2017-04-18T17:10:44Z</time>
      </trkpt>
      <trkpt lat="49.31189" lon="1.27061">
        <ele>148</ele>
        <time>2017-04-18T17:10:44Z</time>
      </trkpt>
      <trkpt lat="49.31193" lon="1.27067">
        <ele>148</ele>
        <time>2017-04-18T17:10:44Z</time>
      </trkpt>
      <trkpt lat="49.31196" lon="1.27073">
        <ele>148</ele>
        <time>2017-04-18T17:10:44Z</time>
      </trkpt>
      <trkpt lat="49.312" lon="1.27078">
        <ele>148</ele>
        <time>2017-04-18T17:11:01Z</time>
      </trkpt>
      <trkpt lat="49.31203" lon="1.27083">
        <ele>148</ele>
        <time>2017-04-18T17:11:01Z</time>
      </trkpt>
      <trkpt lat="49.31206" lon="1.27088">
        <ele>148</ele>
        <time>2017-04-18T17:11:01Z</time>
      </trkpt>
      <trkpt lat="49.31209" lon="1.27094">
        <ele>146</ele>
        <time>2017-04-18T17:11:01Z</time>
      </trkpt>
      <trkpt lat="49.3121" lon="1.27098">
        <ele>146</ele>
        <time>2017-04-18T17:11:16Z</time>
      </trkpt>
      <trkpt lat="49.31213" lon="1.27104">
        <ele>146</ele>
        <time>2017-04-18T17:11:16Z</time>
      </trkpt>
      <trkpt lat="49.31216" lon="1.27112">
        <ele>146</ele>
        <time>2017-04-18T17:11:16Z</time>
      </trkpt>
      <trkpt lat="49.31219" lon="1.27118">
        <ele>146</ele>
        <time>2017-04-18T17:11:16Z</time>
      </trkpt>
      <trkpt lat="49.31222" lon="1.27125">
        <ele>146</ele>
        <time>2017-04-18T17:11:32Z</time>
      </trkpt>
      <trkpt lat="49.31226" lon="1.27131">
        <ele>146</ele>
        <time>2017-04-18T17:11:32Z</time>
      </trkpt>
      <trkpt lat="49.31228" lon="1.27136">
        <ele>146</ele>
        <time>2017-04-18T17:11:33Z</time>
      </trkpt>
      <trkpt lat="49.31232" lon="1.27144">
        <ele>146</ele>
        <time>2017-04-18T17:11:33Z</time>
      </trkpt>
      <trkpt lat="49.31235" lon="1.27149">
        <ele>146</ele>
        <time>2017-04-18T17:11:48Z</time>
      </trkpt>
      <trkpt lat="49.31237" lon="1.27157">
        <ele>146</ele>
        <time>2017-04-18T17:11:48Z</time>
      </trkpt>
      <trkpt lat="49.31239" lon="1.27163">
        <ele>146</ele>
        <time>2017-04-18T17:11:48Z</time>
      </trkpt>
      <trkpt lat="49.31242" lon="1.27169">
        <ele>146</ele>
        <time>2017-04-18T17:11:48Z</time>
      </trkpt>
      <trkpt lat="49.31244" lon="1.27176">
        <ele>146</ele>
        <time>2017-04-18T17:12:04Z</time>
      </trkpt>
      <trkpt lat="49.31247" lon="1.27181">
        <ele>146</ele>
        <time>2017-04-18T17:12:04Z</time>
      </trkpt>
      <trkpt lat="49.31249" lon="1.27188">
        <ele>146</ele>
        <time>2017-04-18T17:12:04Z</time>
      </trkpt>
      <trkpt lat="49.31253" lon="1.27193">
        <ele>146</ele>
        <time>2017-04-18T17:12:04Z</time>
      </trkpt>
      <trkpt lat="49.31256" lon="1.27198">
        <ele>146</ele>
        <time>2017-04-18T17:12:20Z</time>
      </trkpt>
      <trkpt lat="49.31258" lon="1.27204">
        <ele>146</ele>
        <time>2017-04-18T17:12:21Z</time>
      </trkpt>
      <trkpt lat="49.31261" lon="1.27212">
        <ele>146</ele>
        <time>2017-04-18T17:12:21Z</time>
      </trkpt>
      <trkpt lat="49.31264" lon="1.27219">
        <ele>146</ele>
        <time>2017-04-18T17:12:21Z</time>
      </trkpt>
      <trkpt lat="49.31267" lon="1.27225">
        <ele>146</ele>
        <time>2017-04-18T17:12:36Z</time>
      </trkpt>
      <trkpt lat="49.3127" lon="1.27231">
        <ele>146</ele>
        <time>2017-04-18T17:12:36Z</time>
      </trkpt>
      <trkpt lat="49.31274" lon="1.27237">
        <ele>146</ele>
        <time>2017-04-18T17:12:36Z</time>
      </trkpt>
      <trkpt lat="49.31277" lon="1.27242">
        <ele>146</ele>
        <time>2017-04-18T17:12:36Z</time>
      </trkpt>
      <trkpt lat="49.31279" lon="1.27248">
        <ele>146</ele>
        <time>2017-04-18T17:12:52Z</time>
      </trkpt>
      <trkpt lat="49.31283" lon="1.27254">
        <ele>146</ele>
        <time>2017-04-18T17:12:52Z</time>
      </trkpt>
      <trkpt lat="49.31286" lon="1.2726">
        <ele>146</ele>
        <time>2017-04-18T17:12:52Z</time>
      </trkpt>
      <trkpt lat="49.31288" lon="1.27265">
        <ele>146</ele>
        <time>2017-04-18T17:12:52Z</time>
      </trkpt>
      <trkpt lat="49.31292" lon="1.27273">
        <ele>142</ele>
        <time>2017-04-18T17:13:08Z</time>
      </trkpt>
      <trkpt lat="49.31294" lon="1.27277">
        <ele>142</ele>
        <time>2017-04-18T17:13:08Z</time>
      </trkpt>
      <trkpt lat="49.31297" lon="1.27284">
        <ele>142</ele>
        <time>2017-04-18T17:13:08Z</time>
      </trkpt>
      <trkpt lat="49.31299" lon="1.27292">
        <ele>143</ele>
        <time>2017-04-18T17:13:08Z</time>
      </trkpt>
      <trkpt lat="49.31301" lon="1.27298">
        <ele>143</ele>
        <time>2017-04-18T17:13:24Z</time>
      </trkpt>
      <trkpt lat="49.31304" lon="1.27303">
        <ele>143</ele>
        <time>2017-04-18T17:13:24Z</time>
      </trkpt>
      <trkpt lat="49.31308" lon="1.2731">
        <ele>143</ele>
        <time>2017-04-18T17:13:24Z</time>
      </trkpt>
      <trkpt lat="49.31311" lon="1.27316">
        <ele>143</ele>
        <time>2017-04-18T17:13:24Z</time>
      </trkpt>
      <trkpt lat="49.31315" lon="1.27323">
        <ele>143</ele>
        <time>2017-04-18T17:13:40Z</time>
      </trkpt>
      <trkpt lat="49.31316" lon="1.2733">
        <ele>143</ele>
        <time>2017-04-18T17:13:40Z</time>
      </trkpt>
      <trkpt lat="49.3132" lon="1.27336">
        <ele>143</ele>
        <time>2017-04-18T17:13:40Z</time>
      </trkpt>
      <trkpt lat="49.31324" lon="1.27339">
        <ele>143</ele>
        <time>2017-04-18T17:13:40Z</time>
      </trkpt>
      <trkpt lat="49.31329" lon="1.27341">
        <ele>143</ele>
        <time>2017-04-18T17:13:56Z</time>
      </trkpt>
      <trkpt lat="49.31331" lon="1.27345">
        <ele>143</ele>
        <time>2017-04-18T17:13:56Z</time>
      </trkpt>
      <trkpt lat="49.31334" lon="1.27353">
        <ele>143</ele>
        <time>2017-04-18T17:13:56Z</time>
      </trkpt>
      <trkpt lat="49.31337" lon="1.27359">
        <ele>143</ele>
        <time>2017-04-18T17:13:56Z</time>
      </trkpt>
      <trkpt lat="49.31341" lon="1.27366">
        <ele>143</ele>
        <time>2017-04-18T17:14:12Z</time>
      </trkpt>
      <trkpt lat="49.31344" lon="1.2737">
        <ele>143</ele>
        <time>2017-04-18T17:14:12Z</time>
      </trkpt>
      <trkpt lat="49.31348" lon="1.27374">
        <ele>143</ele>
        <time>2017-04-18T17:14:12Z</time>
      </trkpt>
      <trkpt lat="49.31351" lon="1.27378">
        <ele>142</ele>
        <time>2017-04-18T17:14:12Z</time>
      </trkpt>
      <trkpt lat="49.31356" lon="1.27386">
        <ele>142</ele>
        <time>2017-04-18T17:14:28Z</time>
      </trkpt>
      <trkpt lat="49.31359" lon="1.27391">
        <ele>142</ele>
        <time>2017-04-18T17:14:28Z</time>
      </trkpt>
      <trkpt lat="49.31363" lon="1.27396">
        <ele>142</ele>
        <time>2017-04-18T17:14:28Z</time>
      </trkpt>
      <trkpt lat="49.31365" lon="1.27404">
        <ele>142</ele>
        <time>2017-04-18T17:14:28Z</time>
      </trkpt>
      <trkpt lat="49.31366" lon="1.2741">
        <ele>142</ele>
        <time>2017-04-18T17:14:44Z</time>
      </trkpt>
      <trkpt lat="49.31368" lon="1.27416">
        <ele>142</ele>
        <time>2017-04-18T17:14:44Z</time>
      </trkpt>
      <trkpt lat="49.3137" lon="1.27423">
        <ele>142</ele>
        <time>2017-04-18T17:14:45Z</time>
      </trkpt>
      <trkpt lat="49.31372" lon="1.27428">
        <ele>142</ele>
        <time>2017-04-18T17:14:45Z</time>
      </trkpt>
      <trkpt lat="49.31373" lon="1.27434">
        <ele>142</ele>
        <time>2017-04-18T17:15:00Z</time>
      </trkpt>
      <trkpt lat="49.31376" lon="1.27443">
        <ele>137</ele>
        <time>2017-04-18T17:15:00Z</time>
      </trkpt>
      <trkpt lat="49.31379" lon="1.27449">
        <ele>137</ele>
        <time>2017-04-18T17:15:00Z</time>
      </trkpt>
      <trkpt lat="49.31381" lon="1.27456">
        <ele>137</ele>
        <time>2017-04-18T17:15:00Z</time>
      </trkpt>
      <trkpt lat="49.31383" lon="1.27464">
        <ele>137</ele>
        <time>2017-04-18T17:15:16Z</time>
      </trkpt>
      <trkpt lat="49.31385" lon="1.27469">
        <ele>137</ele>
        <time>2017-04-18T17:15:16Z</time>
      </trkpt>
      <trkpt lat="49.31388" lon="1.27476">
        <ele>137</ele>
        <time>2017-04-18T17:15:16Z</time>
      </trkpt>
      <trkpt lat="49.3139" lon="1.27483">
        <ele>137</ele>
        <time>2017-04-18T17:15:16Z</time>
      </trkpt>
      <trkpt lat="49.31393" lon="1.27491">
        <ele>137</ele>
        <time>2017-04-18T17:15:32Z</time>
      </trkpt>
      <trkpt lat="49.31396" lon="1.27497">
        <ele>137</ele>
        <time>2017-04-18T17:15:32Z</time>
      </trkpt>
      <trkpt lat="49.31399" lon="1.27502">
        <ele>137</ele>
        <time>2017-04-18T17:15:32Z</time>
      </trkpt>
      <trkpt lat="49.31402" lon="1.27505">
        <ele>137</ele>
        <time>2017-04-18T17:15:32Z</time>
      </trkpt>
      <trkpt lat="49.31406" lon="1.27508">
        <ele>137</ele>
        <time>2017-04-18T17:15:48Z</time>
      </trkpt>
      <trkpt lat="49.31409" lon="1.27514">
        <ele>137</ele>
        <time>2017-04-18T17:15:48Z</time>
      </trkpt>
      <trkpt lat="49.31411" lon="1.27519">
        <ele>137</ele>
        <time>2017-04-18T17:15:48Z</time>
      </trkpt>
      <trkpt lat="49.31416" lon="1.27528">
        <ele>137</ele>
        <time>2017-04-18T17:15:48Z</time>
      </trkpt>
      <trkpt lat="49.31417" lon="1.27536">
        <ele>137</ele>
        <time>2017-04-18T17:16:05Z</time>
      </trkpt>
      <trkpt lat="49.3142" lon="1.2754">
        <ele>137</ele>
        <time>2017-04-18T17:16:05Z</time>
      </trkpt>
      <trkpt lat="49.31424" lon="1.27542">
        <ele>139</ele>
        <time>2017-04-18T17:16:05Z</time>
      </trkpt>
      <trkpt lat="49.31426" lon="1.27545">
        <ele>139</ele>
        <time>2017-04-18T17:16:05Z</time>
      </trkpt>
      <trkpt lat="49.3143" lon="1.2755">
        <ele>139</ele>
        <time>2017-04-18T17:16:20Z</time>
      </trkpt>
      <trkpt lat="49.31434" lon="1.27556">
        <ele>139</ele>
        <time>2017-04-18T17:16:20Z</time>
      </trkpt>
      <trkpt lat="49.31436" lon="1.27563">
        <ele>139</ele>
        <time>2017-04-18T17:16:20Z</time>
      </trkpt>
      <trkpt lat="49.31438" lon="1.27573">
        <ele>139</ele>
        <time>2017-04-18T17:16:20Z</time>
      </trkpt>
      <trkpt lat="49.3144" lon="1.27581">
        <ele>139</ele>
        <time>2017-04-18T17:16:36Z</time>
      </trkpt>
      <trkpt lat="49.31441" lon="1.27588">
        <ele>139</ele>
        <time>2017-04-18T17:16:36Z</time>
      </trkpt>
      <trkpt lat="49.31442" lon="1.27595">
        <ele>139</ele>
        <time>2017-04-18T17:16:36Z</time>
      </trkpt>
      <trkpt lat="49.31444" lon="1.27602">
        <ele>139</ele>
        <time>2017-04-18T17:16:36Z</time>
      </trkpt>
      <trkpt lat="49.31445" lon="1.2761">
        <ele>139</ele>
        <time>2017-04-18T17:16:52Z</time>
      </trkpt>
      <trkpt lat="49.31445" lon="1.27616">
        <ele>139</ele>
        <time>2017-04-18T17:16:52Z</time>
      </trkpt>
      <trkpt lat="49.31444" lon="1.27624">
        <ele>139</ele>
        <time>2017-04-18T17:16:52Z</time>
      </trkpt>
      <trkpt lat="49.31445" lon="1.2763">
        <ele>141</ele>
        <time>2017-04-18T17:16:52Z</time>
      </trkpt>
      <trkpt lat="49.31446" lon="1.27637">
        <ele>141</ele>
        <time>2017-04-18T17:17:08Z</time>
      </trkpt>
      <trkpt lat="49.31446" lon="1.27645">
        <ele>141</ele>
        <time>2017-04-18T17:17:09Z</time>
      </trkpt>
      <trkpt lat="49.31446" lon="1.27653">
        <ele>141</ele>
        <time>2017-04-18T17:17:09Z</time>
      </trkpt>
      <trkpt lat="49.31446" lon="1.27661">
        <ele>141</ele>
        <time>2017-04-18T17:17:09Z</time>
      </trkpt>
      <trkpt lat="49.31446" lon="1.27669">
        <ele>141</ele>
        <time>2017-04-18T17:17:24Z</time>
      </trkpt>
      <trkpt lat="49.31446" lon="1.27676">
        <ele>141</ele>
        <time>2017-04-18T17:17:24Z</time>
      </trkpt>
      <trkpt lat="49.31447" lon="1.27682">
        <ele>141</ele>
        <time>2017-04-18T17:17:24Z</time>
      </trkpt>
      <trkpt lat="49.31448" lon="1.27688">
        <ele>141</ele>
        <time>2017-04-18T17:17:24Z</time>
      </trkpt>
      <trkpt lat="49.31447" lon="1.27696">
        <ele>141</ele>
        <time>2017-04-18T17:17:40Z</time>
      </trkpt>
      <trkpt lat="49.31447" lon="1.27701">
        <ele>141</ele>
        <time>2017-04-18T17:17:40Z</time>
      </trkpt>
      <trkpt lat="49.31446" lon="1.2771">
        <ele>140</ele>
        <time>2017-04-18T17:17:40Z</time>
      </trkpt>
      <trkpt lat="49.31446" lon="1.27717">
        <ele>140</ele>
        <time>2017-04-18T17:17:40Z</time>
      </trkpt>
      <trkpt lat="49.31445" lon="1.27724">
        <ele>140</ele>
        <time>2017-04-18T17:17:56Z</time>
      </trkpt>
      <trkpt lat="49.31445" lon="1.27734">
        <ele>140</ele>
        <time>2017-04-18T17:17:56Z</time>
      </trkpt>
      <trkpt lat="49.31445" lon="1.27741">
        <ele>140</ele>
        <time>2017-04-18T17:17:56Z</time>
      </trkpt>
      <trkpt lat="49.31445" lon="1.27749">
        <ele>140</ele>
        <time>2017-04-18T17:17:56Z</time>
      </trkpt>
      <trkpt lat="49.31446" lon="1.27756">
        <ele>140</ele>
        <time>2017-04-18T17:18:12Z</time>
      </trkpt>
      <trkpt lat="49.31447" lon="1.27763">
        <ele>140</ele>
        <time>2017-04-18T17:18:12Z</time>
      </trkpt>
      <trkpt lat="49.31447" lon="1.27769">
        <ele>140</ele>
        <time>2017-04-18T17:18:12Z</time>
      </trkpt>
      <trkpt lat="49.31448" lon="1.27777">
        <ele>140</ele>
        <time>2017-04-18T17:18:12Z</time>
      </trkpt>
      <trkpt lat="49.31448" lon="1.27783">
        <ele>140</ele>
        <time>2017-04-18T17:18:28Z</time>
      </trkpt>
      <trkpt lat="49.31448" lon="1.27791">
        <ele>140</ele>
        <time>2017-04-18T17:18:28Z</time>
      </trkpt>
      <trkpt lat="49.31447" lon="1.27799">
        <ele>138</ele>
        <time>2017-04-18T17:18:28Z</time>
      </trkpt>
      <trkpt lat="49.31447" lon="1.27808">
        <ele>138</ele>
        <time>2017-04-18T17:18:28Z</time>
      </trkpt>
      <trkpt lat="49.31447" lon="1.27815">
        <ele>138</ele>
        <time>2017-04-18T17:18:44Z</time>
      </trkpt>
      <trkpt lat="49.31448" lon="1.27822">
        <ele>138</ele>
        <time>2017-04-18T17:18:44Z</time>
      </trkpt>
      <trkpt lat="49.31448" lon="1.27828">
        <ele>138</ele>
        <time>2017-04-18T17:18:45Z</time>
      </trkpt>
      <trkpt lat="49.31448" lon="1.27834">
        <ele>138</ele>
        <time>2017-04-18T17:18:45Z</time>
      </trkpt>
      <trkpt lat="49.3145" lon="1.27841">
        <ele>138</ele>
        <time>2017-04-18T17:19:00Z</time>
      </trkpt>
      <trkpt lat="49.3145" lon="1.27848">
        <ele>138</ele>
        <time>2017-04-18T17:19:00Z</time>
      </trkpt>
      <trkpt lat="49.3145" lon="1.27854">
        <ele>138</ele>
        <time>2017-04-18T17:19:00Z</time>
      </trkpt>
      <trkpt lat="49.31452" lon="1.27863">
        <ele>138</ele>
        <time>2017-04-18T17:19:00Z</time>
      </trkpt>
      <trkpt lat="49.31454" lon="1.27871">
        <ele>138</ele>
        <time>2017-04-18T17:19:16Z</time>
      </trkpt>
      <trkpt lat="49.31456" lon="1.27876">
        <ele>137</ele>
        <time>2017-04-18T17:19:16Z</time>
      </trkpt>
      <trkpt lat="49.31459" lon="1.27879">
        <ele>138</ele>
        <time>2017-04-18T17:19:16Z</time>
      </trkpt>
      <trkpt lat="49.31463" lon="1.27882">
        <ele>138</ele>
        <time>2017-04-18T17:19:16Z</time>
      </trkpt>
      <trkpt lat="49.31467" lon="1.27882">
        <ele>138</ele>
        <time>2017-04-18T17:19:33Z</time>
      </trkpt>
      <trkpt lat="49.31471" lon="1.27882">
        <ele>138</ele>
        <time>2017-04-18T17:19:33Z</time>
      </trkpt>
      <trkpt lat="49.31476" lon="1.27883">
        <ele>138</ele>
        <time>2017-04-18T17:19:33Z</time>
      </trkpt>
      <trkpt lat="49.31482" lon="1.27888">
        <ele>138</ele>
        <time>2017-04-18T17:19:33Z</time>
      </trkpt>
      <trkpt lat="49.31486" lon="1.27892">
        <ele>138</ele>
        <time>2017-04-18T17:19:48Z</time>
      </trkpt>
      <trkpt lat="49.3149" lon="1.27894">
        <ele>138</ele>
        <time>2017-04-18T17:19:48Z</time>
      </trkpt>
      <trkpt lat="49.31494" lon="1.27898">
        <ele>138</ele>
        <time>2017-04-18T17:19:48Z</time>
      </trkpt>
      <trkpt lat="49.31499" lon="1.27899">
        <ele>138</ele>
        <time>2017-04-18T17:19:48Z</time>
      </trkpt>
      <trkpt lat="49.31504" lon="1.27901">
        <ele>138</ele>
        <time>2017-04-18T17:20:04Z</time>
      </trkpt>
      <trkpt lat="49.31509" lon="1.27902">
        <ele>138</ele>
        <time>2017-04-18T17:20:04Z</time>
      </trkpt>
      <trkpt lat="49.31514" lon="1.27903">
        <ele>138</ele>
        <time>2017-04-18T17:20:04Z</time>
      </trkpt>
      <trkpt lat="49.3152" lon="1.27904">
        <ele>138</ele>
        <time>2017-04-18T17:20:04Z</time>
      </trkpt>
      <trkpt lat="49.31524" lon="1.27905">
        <ele>138</ele>
        <time>2017-04-18T17:20:20Z</time>
      </trkpt>
      <trkpt lat="49.31529" lon="1.27905">
        <ele>138</ele>
        <time>2017-04-18T17:20:20Z</time>
      </trkpt>
      <trkpt lat="49.31534" lon="1.27904">
        <ele>138</ele>
        <time>2017-04-18T17:20:20Z</time>
      </trkpt>
      <trkpt lat="49.31537" lon="1.27903">
        <ele>138</ele>
        <time>2017-04-18T17:20:20Z</time>
      </trkpt>
      <trkpt lat="49.31538" lon="1.27899">
        <ele>138</ele>
        <time>2017-04-18T17:20:36Z</time>
      </trkpt>
      <trkpt lat="49.3154" lon="1.27894">
        <ele>138</ele>
        <time>2017-04-18T17:20:36Z</time>
      </trkpt>
      <trkpt lat="49.3154" lon="1.27889">
        <ele>138</ele>
        <time>2017-04-18T17:20:36Z</time>
      </trkpt>
      <trkpt lat="49.3154" lon="1.27883">
        <ele>138</ele>
        <time>2017-04-18T17:20:36Z</time>
      </trkpt>
      <trkpt lat="49.31538" lon="1.2788">
        <ele>138</ele>
        <time>2017-04-18T17:20:52Z</time>
      </trkpt>
      <trkpt lat="49.31538" lon="1.27872">
        <ele>138</ele>
        <time>2017-04-18T17:20:52Z</time>
      </trkpt>
      <trkpt lat="49.31536" lon="1.27866">
        <ele>138</ele>
        <time>2017-04-18T17:20:52Z</time>
      </trkpt>
      <trkpt lat="49.31537" lon="1.2786">
        <ele>138</ele>
        <time>2017-04-18T17:20:52Z</time>
      </trkpt>
      <trkpt lat="49.31538" lon="1.27852">
        <ele>138</ele>
        <time>2017-04-18T17:21:08Z</time>
      </trkpt>
      <trkpt lat="49.31539" lon="1.27843">
        <ele>138</ele>
        <time>2017-04-18T17:21:08Z</time>
      </trkpt>
      <trkpt lat="49.3154" lon="1.27836">
        <ele>138</ele>
        <time>2017-04-18T17:21:08Z</time>
      </trkpt>
      <trkpt lat="49.31541" lon="1.27829">
        <ele>138</ele>
        <time>2017-04-18T17:21:08Z</time>
      </trkpt>
      <trkpt lat="49.31548" lon="1.27815">
        <ele>136</ele>
        <time>2017-04-18T17:21:44Z</time>
      </trkpt>
      <trkpt lat="49.3155" lon="1.2781">
        <ele>136</ele>
        <time>2017-04-18T17:21:44Z</time>
      </trkpt>
      <trkpt lat="49.31553" lon="1.27805">
        <ele>136</ele>
        <time>2017-04-18T17:21:44Z</time>
      </trkpt>
      <trkpt lat="49.31556" lon="1.27797">
        <ele>136</ele>
        <time>2017-04-18T17:21:44Z</time>
      </trkpt>
      <trkpt lat="49.3156" lon="1.27791">
        <ele>136</ele>
        <time>2017-04-18T17:21:44Z</time>
      </trkpt>
      <trkpt lat="49.31564" lon="1.27792">
        <ele>136</ele>
        <time>2017-04-18T17:22:00Z</time>
      </trkpt>
      <trkpt lat="49.31566" lon="1.27795">
        <ele>136</ele>
        <time>2017-04-18T17:22:00Z</time>
      </trkpt>
      <trkpt lat="49.3157" lon="1.27799">
        <ele>136</ele>
        <time>2017-04-18T17:22:00Z</time>
      </trkpt>
      <trkpt lat="49.31572" lon="1.27803">
        <ele>136</ele>
        <time>2017-04-18T17:22:00Z</time>
      </trkpt>
      <trkpt lat="49.31578" lon="1.27808">
        <ele>136</ele>
        <time>2017-04-18T17:22:16Z</time>
      </trkpt>
      <trkpt lat="49.31582" lon="1.27812">
        <ele>136</ele>
        <time>2017-04-18T17:22:16Z</time>
      </trkpt>
      <trkpt lat="49.31587" lon="1.27818">
        <ele>136</ele>
        <time>2017-04-18T17:22:16Z</time>
      </trkpt>
      <trkpt lat="49.31591" lon="1.27823">
        <ele>136</ele>
        <time>2017-04-18T17:22:16Z</time>
      </trkpt>
      <trkpt lat="49.31595" lon="1.27827">
        <ele>136</ele>
        <time>2017-04-18T17:22:32Z</time>
      </trkpt>
      <trkpt lat="49.31596" lon="1.27829">
        <ele>136</ele>
        <time>2017-04-18T17:22:32Z</time>
      </trkpt>
      <trkpt lat="49.31601" lon="1.27831">
        <ele>136</ele>
        <time>2017-04-18T17:22:32Z</time>
      </trkpt>
      <trkpt lat="49.31605" lon="1.27832">
        <ele>136</ele>
        <time>2017-04-18T17:22:32Z</time>
      </trkpt>
      <trkpt lat="49.31609" lon="1.27832">
        <ele>136</ele>
        <time>2017-04-18T17:22:48Z</time>
      </trkpt>
      <trkpt lat="49.31614" lon="1.27832">
        <ele>136</ele>
        <time>2017-04-18T17:22:48Z</time>
      </trkpt>
      <trkpt lat="49.31618" lon="1.27832">
        <ele>136</ele>
        <time>2017-04-18T17:22:48Z</time>
      </trkpt>
      <trkpt lat="49.31622" lon="1.27835">
        <ele>136</ele>
        <time>2017-04-18T17:22:48Z</time>
      </trkpt>
      <trkpt lat="49.31628" lon="1.27847">
        <ele>134</ele>
        <time>2017-04-18T17:23:04Z</time>
      </trkpt>
      <trkpt lat="49.31629" lon="1.27854">
        <ele>134</ele>
        <time>2017-04-18T17:23:04Z</time>
      </trkpt>
      <trkpt lat="49.31633" lon="1.27861">
        <ele>134</ele>
        <time>2017-04-18T17:23:04Z</time>
      </trkpt>
      <trkpt lat="49.31636" lon="1.27871">
        <ele>134</ele>
        <time>2017-04-18T17:23:04Z</time>
      </trkpt>
      <trkpt lat="49.31637" lon="1.27878">
        <ele>131</ele>
        <time>2017-04-18T17:23:24Z</time>
      </trkpt>
      <trkpt lat="49.31638" lon="1.27884">
        <ele>131</ele>
        <time>2017-04-18T17:23:24Z</time>
      </trkpt>
      <trkpt lat="49.31641" lon="1.27886">
        <ele>131</ele>
        <time>2017-04-18T17:23:24Z</time>
      </trkpt>
      <trkpt lat="49.31644" lon="1.27881">
        <ele>131</ele>
        <time>2017-04-18T17:23:25Z</time>
      </trkpt>
      <trkpt lat="49.31646" lon="1.27877">
        <ele>131</ele>
        <time>2017-04-18T17:23:25Z</time>
      </trkpt>
      <trkpt lat="49.31648" lon="1.27872">
        <ele>134</ele>
        <time>2017-04-18T17:23:40Z</time>
      </trkpt>
      <trkpt lat="49.3165" lon="1.27868">
        <ele>134</ele>
        <time>2017-04-18T17:23:40Z</time>
      </trkpt>
      <trkpt lat="49.31652" lon="1.27863">
        <ele>134</ele>
        <time>2017-04-18T17:23:40Z</time>
      </trkpt>
      <trkpt lat="49.31655" lon="1.27858">
        <ele>134</ele>
        <time>2017-04-18T17:23:40Z</time>
      </trkpt>
      <trkpt lat="49.31657" lon="1.27853">
        <ele>134</ele>
        <time>2017-04-18T17:23:56Z</time>
      </trkpt>
      <trkpt lat="49.31661" lon="1.27848">
        <ele>134</ele>
        <time>2017-04-18T17:23:56Z</time>
      </trkpt>
      <trkpt lat="49.31665" lon="1.27842">
        <ele>134</ele>
        <time>2017-04-18T17:23:56Z</time>
      </trkpt>
      <trkpt lat="49.31668" lon="1.27838">
        <ele>134</ele>
        <time>2017-04-18T17:23:56Z</time>
      </trkpt>
      <trkpt lat="49.31673" lon="1.27833">
        <ele>134</ele>
        <time>2017-04-18T17:24:12Z</time>
      </trkpt>
      <trkpt lat="49.31676" lon="1.27828">
        <ele>134</ele>
        <time>2017-04-18T17:24:12Z</time>
      </trkpt>
      <trkpt lat="49.31679" lon="1.27823">
        <ele>134</ele>
        <time>2017-04-18T17:24:12Z</time>
      </trkpt>
      <trkpt lat="49.31682" lon="1.27816">
        <ele>134</ele>
        <time>2017-04-18T17:24:12Z</time>
      </trkpt>
      <trkpt lat="49.31685" lon="1.2781">
        <ele>134</ele>
        <time>2017-04-18T17:24:28Z</time>
      </trkpt>
      <trkpt lat="49.31689" lon="1.27809">
        <ele>134</ele>
        <time>2017-04-18T17:24:28Z</time>
      </trkpt>
      <trkpt lat="49.31694" lon="1.27805">
        <ele>134</ele>
        <time>2017-04-18T17:24:28Z</time>
      </trkpt>
      <trkpt lat="49.31697" lon="1.27803">
        <ele>134</ele>
        <time>2017-04-18T17:24:28Z</time>
      </trkpt>
      <trkpt lat="49.31704" lon="1.27805">
        <ele>134</ele>
        <time>2017-04-18T17:24:44Z</time>
      </trkpt>
      <trkpt lat="49.31708" lon="1.27807">
        <ele>134</ele>
        <time>2017-04-18T17:24:44Z</time>
      </trkpt>
      <trkpt lat="49.31714" lon="1.27811">
        <ele>129</ele>
        <time>2017-04-18T17:24:44Z</time>
      </trkpt>
      <trkpt lat="49.31719" lon="1.27813">
        <ele>129</ele>
        <time>2017-04-18T17:24:44Z</time>
      </trkpt>
      <trkpt lat="49.31724" lon="1.27811">
        <ele>129</ele>
        <time>2017-04-18T17:25:00Z</time>
      </trkpt>
      <trkpt lat="49.31729" lon="1.27811">
        <ele>129</ele>
        <time>2017-04-18T17:25:00Z</time>
      </trkpt>
      <trkpt lat="49.31734" lon="1.27811">
        <ele>129</ele>
        <time>2017-04-18T17:25:00Z</time>
      </trkpt>
      <trkpt lat="49.31739" lon="1.27811">
        <ele>129</ele>
        <time>2017-04-18T17:25:00Z</time>
      </trkpt>
      <trkpt lat="49.31743" lon="1.27812">
        <ele>129</ele>
        <time>2017-04-18T17:25:16Z</time>
      </trkpt>
      <trkpt lat="49.31748" lon="1.27811">
        <ele>129</ele>
        <time>2017-04-18T17:25:16Z</time>
      </trkpt>
      <trkpt lat="49.31753" lon="1.27809">
        <ele>129</ele>
        <time>2017-04-18T17:25:16Z</time>
      </trkpt>
      <trkpt lat="49.31758" lon="1.27807">
        <ele>129</ele>
        <time>2017-04-18T17:25:16Z</time>
      </trkpt>
      <trkpt lat="49.31762" lon="1.27806">
        <ele>129</ele>
        <time>2017-04-18T17:25:32Z</time>
      </trkpt>
      <trkpt lat="49.31768" lon="1.27806">
        <ele>129</ele>
        <time>2017-04-18T17:25:32Z</time>
      </trkpt>
      <trkpt lat="49.31773" lon="1.27804">
        <ele>129</ele>
        <time>2017-04-18T17:25:32Z</time>
      </trkpt>
      <trkpt lat="49.31778" lon="1.27803">
        <ele>129</ele>
        <time>2017-04-18T17:25:32Z</time>
      </trkpt>
      <trkpt lat="49.31782" lon="1.27802">
        <ele>129</ele>
        <time>2017-04-18T17:25:48Z</time>
      </trkpt>
      <trkpt lat="49.31788" lon="1.27797">
        <ele>129</ele>
        <time>2017-04-18T17:25:48Z</time>
      </trkpt>
      <trkpt lat="49.31793" lon="1.27795">
        <ele>127</ele>
        <time>2017-04-18T17:25:48Z</time>
      </trkpt>
      <trkpt lat="49.31798" lon="1.27793">
        <ele>127</ele>
        <time>2017-04-18T17:25:48Z</time>
      </trkpt>
      <trkpt lat="49.31802" lon="1.27794">
        <ele>127</ele>
        <time>2017-04-18T17:26:04Z</time>
      </trkpt>
      <trkpt lat="49.31807" lon="1.27795">
        <ele>127</ele>
        <time>2017-04-18T17:26:04Z</time>
      </trkpt>
      <trkpt lat="49.31811" lon="1.27796">
        <ele>127</ele>
        <time>2017-04-18T17:26:04Z</time>
      </trkpt>
      <trkpt lat="49.31817" lon="1.27796">
        <ele>127</ele>
        <time>2017-04-18T17:26:04Z</time>
      </trkpt>
      <trkpt lat="49.31822" lon="1.27798">
        <ele>127</ele>
        <time>2017-04-18T17:26:20Z</time>
      </trkpt>
      <trkpt lat="49.31826" lon="1.278">
        <ele>127</ele>
        <time>2017-04-18T17:26:20Z</time>
      </trkpt>
      <trkpt lat="49.31831" lon="1.278">
        <ele>127</ele>
        <time>2017-04-18T17:26:20Z</time>
      </trkpt>
      <trkpt lat="49.31835" lon="1.27798">
        <ele>127</ele>
        <time>2017-04-18T17:26:20Z</time>
      </trkpt>
      <trkpt lat="49.31839" lon="1.27802">
        <ele>127</ele>
        <time>2017-04-18T17:26:36Z</time>
      </trkpt>
      <trkpt lat="49.31842" lon="1.27806">
        <ele>127</ele>
        <time>2017-04-18T17:26:36Z</time>
      </trkpt>
      <trkpt lat="49.31849" lon="1.27812">
        <ele>127</ele>
        <time>2017-04-18T17:26:36Z</time>
      </trkpt>
      <trkpt lat="49.31854" lon="1.27815">
        <ele>127</ele>
        <time>2017-04-18T17:26:37Z</time>
      </trkpt>
      <trkpt lat="49.31859" lon="1.27814">
        <ele>127</ele>
        <time>2017-04-18T17:26:52Z</time>
      </trkpt>
      <trkpt lat="49.31863" lon="1.27812">
        <ele>127</ele>
        <time>2017-04-18T17:26:52Z</time>
      </trkpt>
      <trkpt lat="49.31868" lon="1.27808">
        <ele>127</ele>
        <time>2017-04-18T17:26:52Z</time>
      </trkpt>
      <trkpt lat="49.31872" lon="1.27806">
        <ele>127</ele>
        <time>2017-04-18T17:26:52Z</time>
      </trkpt>
      <trkpt lat="49.31876" lon="1.27805">
        <ele>112</ele>
        <time>2017-04-18T17:27:08Z</time>
      </trkpt>
      <trkpt lat="49.31872" lon="1.27813">
        <ele>127</ele>
        <time>2017-04-18T17:27:08Z</time>
      </trkpt>
      <trkpt lat="49.31872" lon="1.27828">
        <ele>127</ele>
        <time>2017-04-18T17:27:08Z</time>
      </trkpt>
      <trkpt lat="49.31874" lon="1.27832">
        <ele>127</ele>
        <time>2017-04-18T17:27:08Z</time>
      </trkpt>
      <trkpt lat="49.31878" lon="1.27831">
        <ele>112</ele>
        <time>2017-04-18T17:27:24Z</time>
      </trkpt>
      <trkpt lat="49.31884" lon="1.27825">
        <ele>112</ele>
        <time>2017-04-18T17:27:24Z</time>
      </trkpt>
      <trkpt lat="49.31887" lon="1.27818">
        <ele>112</ele>
        <time>2017-04-18T17:27:24Z</time>
      </trkpt>
      <trkpt lat="49.3189" lon="1.27813">
        <ele>112</ele>
        <time>2017-04-18T17:27:24Z</time>
      </trkpt>
      <trkpt lat="49.31889" lon="1.27808">
        <ele>112</ele>
        <time>2017-04-18T17:27:56Z</time>
      </trkpt>
      <trkpt lat="49.31888" lon="1.27807">
        <ele>112</ele>
        <time>2017-04-18T17:27:56Z</time>
      </trkpt>
      <trkpt lat="49.31888" lon="1.27798">
        <ele>112</ele>
        <time>2017-04-18T17:27:56Z</time>
      </trkpt>
      <trkpt lat="49.31895" lon="1.27791">
        <ele>109</ele>
        <time>2017-04-18T17:27:56Z</time>
      </trkpt>
      <trkpt lat="49.31903" lon="1.27785">
        <ele>109</ele>
        <time>2017-04-18T17:27:56Z</time>
      </trkpt>
      <trkpt lat="49.3191" lon="1.27781">
        <ele>109</ele>
        <time>2017-04-18T17:28:13Z</time>
      </trkpt>
      <trkpt lat="49.31912" lon="1.27787">
        <ele>109</ele>
        <time>2017-04-18T17:28:13Z</time>
      </trkpt>
      <trkpt lat="49.31914" lon="1.27793">
        <ele>112</ele>
        <time>2017-04-18T17:28:13Z</time>
      </trkpt>
      <trkpt lat="49.31914" lon="1.27798">
        <ele>112</ele>
        <time>2017-04-18T17:28:13Z</time>
      </trkpt>
      <trkpt lat="49.31919" lon="1.278">
        <ele>112</ele>
        <time>2017-04-18T17:28:28Z</time>
      </trkpt>
      <trkpt lat="49.31926" lon="1.27796">
        <ele>112</ele>
        <time>2017-04-18T17:28:28Z</time>
      </trkpt>
      <trkpt lat="49.31931" lon="1.27789">
        <ele>109</ele>
        <time>2017-04-18T17:28:28Z</time>
      </trkpt>
      <trkpt lat="49.31934" lon="1.27792">
        <ele>112</ele>
        <time>2017-04-18T17:28:28Z</time>
      </trkpt>
      <trkpt lat="49.31936" lon="1.27792">
        <ele>112</ele>
        <time>2017-04-18T17:28:44Z</time>
      </trkpt>
      <trkpt lat="49.31936" lon="1.27795">
        <ele>112</ele>
        <time>2017-04-18T17:28:44Z</time>
      </trkpt>
      <trkpt lat="49.3194" lon="1.27787">
        <ele>109</ele>
        <time>2017-04-18T17:28:44Z</time>
      </trkpt>
      <trkpt lat="49.31944" lon="1.27782">
        <ele>109</ele>
        <time>2017-04-18T17:28:44Z</time>
      </trkpt>
      <trkpt lat="49.31945" lon="1.27778">
        <ele>109</ele>
        <time>2017-04-18T17:29:00Z</time>
      </trkpt>
      <trkpt lat="49.31953" lon="1.27773">
        <ele>109</ele>
        <time>2017-04-18T17:29:00Z</time>
      </trkpt>
      <trkpt lat="49.31959" lon="1.27764">
        <ele>101</ele>
        <time>2017-04-18T17:29:00Z</time>
      </trkpt>
      <trkpt lat="49.3196" lon="1.27763">
        <ele>101</ele>
        <time>2017-04-18T17:29:00Z</time>
      </trkpt>
      <trkpt lat="49.31967" lon="1.27768">
        <ele>101</ele>
        <time>2017-04-18T17:29:24Z</time>
      </trkpt>
      <trkpt lat="49.3197" lon="1.27767">
        <ele>101</ele>
        <time>2017-04-18T17:29:24Z</time>
      </trkpt>
      <trkpt lat="49.3197" lon="1.27766">
        <ele>101</ele>
        <time>2017-04-18T17:29:24Z</time>
      </trkpt>
      <trkpt lat="49.31971" lon="1.27767">
        <ele>101</ele>
        <time>2017-04-18T17:29:24Z</time>
      </trkpt>
      <trkpt lat="49.31974" lon="1.27756">
        <ele>101</ele>
        <time>2017-04-18T17:29:24Z</time>
      </trkpt>
      <trkpt lat="49.32007" lon="1.27708">
        <ele>101</ele>
        <time>2017-04-18T17:30:04Z</time>
      </trkpt>
      <trkpt lat="49.32007" lon="1.27708">
        <ele>101</ele>
        <time>2017-04-18T17:30:04Z</time>
      </trkpt>
      <trkpt lat="49.32007" lon="1.27708">
        <ele>101</ele>
        <time>2017-04-18T17:30:04Z</time>
      </trkpt>
      <trkpt lat="49.32012" lon="1.27712">
        <ele>101</ele>
        <time>2017-04-18T17:30:04Z</time>
      </trkpt>
      <trkpt lat="49.32025" lon="1.27708">
        <ele>101</ele>
        <time>2017-04-18T17:30:04Z</time>
      </trkpt>
      <trkpt lat="49.32031" lon="1.27707">
        <ele>101</ele>
        <time>2017-04-18T17:30:20Z</time>
      </trkpt>
      <trkpt lat="49.32039" lon="1.27705">
        <ele>101</ele>
        <time>2017-04-18T17:30:20Z</time>
      </trkpt>
      <trkpt lat="49.32044" lon="1.27705">
        <ele>110</ele>
        <time>2017-04-18T17:30:20Z</time>
      </trkpt>
      <trkpt lat="49.32047" lon="1.277">
        <ele>110</ele>
        <time>2017-04-18T17:30:20Z</time>
      </trkpt>
      <trkpt lat="49.32049" lon="1.27698">
        <ele>110</ele>
        <time>2017-04-18T17:30:36Z</time>
      </trkpt>
      <trkpt lat="49.32051" lon="1.27701">
        <ele>110</ele>
        <time>2017-04-18T17:30:36Z</time>
      </trkpt>
      <trkpt lat="49.32056" lon="1.27705">
        <ele>110</ele>
        <time>2017-04-18T17:30:36Z</time>
      </trkpt>
      <trkpt lat="49.32062" lon="1.27709">
        <ele>102</ele>
        <time>2017-04-18T17:30:36Z</time>
      </trkpt>
      <trkpt lat="49.32073" lon="1.27722">
        <ele>102</ele>
        <time>2017-04-18T17:31:16Z</time>
      </trkpt>
      <trkpt lat="49.32074" lon="1.27722">
        <ele>102</ele>
        <time>2017-04-18T17:31:16Z</time>
      </trkpt>
      <trkpt lat="49.32076" lon="1.27726">
        <ele>102</ele>
        <time>2017-04-18T17:31:16Z</time>
      </trkpt>
      <trkpt lat="49.3208" lon="1.27731">
        <ele>102</ele>
        <time>2017-04-18T17:31:16Z</time>
      </trkpt>
      <trkpt lat="49.32083" lon="1.27733">
        <ele>102</ele>
        <time>2017-04-18T17:31:16Z</time>
      </trkpt>
      <trkpt lat="49.32087" lon="1.27734">
        <ele>102</ele>
        <time>2017-04-18T17:31:32Z</time>
      </trkpt>
      <trkpt lat="49.32092" lon="1.27735">
        <ele>102</ele>
        <time>2017-04-18T17:31:32Z</time>
      </trkpt>
      <trkpt lat="49.32096" lon="1.27736">
        <ele>102</ele>
        <time>2017-04-18T17:31:32Z</time>
      </trkpt>
      <trkpt lat="49.321" lon="1.27738">
        <ele>102</ele>
        <time>2017-04-18T17:31:32Z</time>
      </trkpt>
      <trkpt lat="49.32104" lon="1.2774">
        <ele>102</ele>
        <time>2017-04-18T17:31:48Z</time>
      </trkpt>
      <trkpt lat="49.32108" lon="1.27741">
        <ele>102</ele>
        <time>2017-04-18T17:31:48Z</time>
      </trkpt>
      <trkpt lat="49.32112" lon="1.27742">
        <ele>102</ele>
        <time>2017-04-18T17:31:48Z</time>
      </trkpt>
      <trkpt lat="49.32116" lon="1.27744">
        <ele>102</ele>
        <time>2017-04-18T17:31:48Z</time>
      </trkpt>
      <trkpt lat="49.32119" lon="1.27745">
        <ele>102</ele>
        <time>2017-04-18T17:32:04Z</time>
      </trkpt>
      <trkpt lat="49.32124" lon="1.27747">
        <ele>102</ele>
        <time>2017-04-18T17:32:04Z</time>
      </trkpt>
      <trkpt lat="49.32127" lon="1.2775">
        <ele>112</ele>
        <time>2017-04-18T17:32:04Z</time>
      </trkpt>
      <trkpt lat="49.32131" lon="1.27752">
        <ele>112</ele>
        <time>2017-04-18T17:32:04Z</time>
      </trkpt>
      <trkpt lat="49.32134" lon="1.27754">
        <ele>112</ele>
        <time>2017-04-18T17:32:20Z</time>
      </trkpt>
      <trkpt lat="49.32138" lon="1.27756">
        <ele>112</ele>
        <time>2017-04-18T17:32:20Z</time>
      </trkpt>
      <trkpt lat="49.32141" lon="1.27757">
        <ele>112</ele>
        <time>2017-04-18T17:32:20Z</time>
      </trkpt>
      <trkpt lat="49.32146" lon="1.27758">
        <ele>112</ele>
        <time>2017-04-18T17:32:20Z</time>
      </trkpt>
      <trkpt lat="49.32149" lon="1.27759">
        <ele>112</ele>
        <time>2017-04-18T17:32:36Z</time>
      </trkpt>
      <trkpt lat="49.32153" lon="1.2776">
        <ele>112</ele>
        <time>2017-04-18T17:32:36Z</time>
      </trkpt>
      <trkpt lat="49.32157" lon="1.27762">
        <ele>112</ele>
        <time>2017-04-18T17:32:36Z</time>
      </trkpt>
      <trkpt lat="49.3216" lon="1.27763">
        <ele>112</ele>
        <time>2017-04-18T17:32:36Z</time>
      </trkpt>
      <trkpt lat="49.32163" lon="1.27766">
        <ele>112</ele>
        <time>2017-04-18T17:32:56Z</time>
      </trkpt>
      <trkpt lat="49.32165" lon="1.2777">
        <ele>112</ele>
        <time>2017-04-18T17:32:56Z</time>
      </trkpt>
      <trkpt lat="49.32167" lon="1.27774">
        <ele>112</ele>
        <time>2017-04-18T17:32:56Z</time>
      </trkpt>
      <trkpt lat="49.32168" lon="1.27776">
        <ele>112</ele>
        <time>2017-04-18T17:32:56Z</time>
      </trkpt>
      <trkpt lat="49.3217" lon="1.27775">
        <ele>112</ele>
        <time>2017-04-18T17:32:56Z</time>
      </trkpt>
      <trkpt lat="49.32173" lon="1.27774">
        <ele>112</ele>
        <time>2017-04-18T17:33:12Z</time>
      </trkpt>
      <trkpt lat="49.32176" lon="1.27771">
        <ele>112</ele>
        <time>2017-04-18T17:33:12Z</time>
      </trkpt>
      <trkpt lat="49.32179" lon="1.27769">
        <ele>112</ele>
        <time>2017-04-18T17:33:12Z</time>
      </trkpt>
      <trkpt lat="49.32182" lon="1.27768">
        <ele>112</ele>
        <time>2017-04-18T17:33:12Z</time>
      </trkpt>
      <trkpt lat="49.32186" lon="1.27766">
        <ele>112</ele>
        <time>2017-04-18T17:33:29Z</time>
      </trkpt>
      <trkpt lat="49.32188" lon="1.27765">
        <ele>112</ele>
        <time>2017-04-18T17:33:29Z</time>
      </trkpt>
      <trkpt lat="49.32188" lon="1.27771">
        <ele>112</ele>
        <time>2017-04-18T17:33:29Z</time>
      </trkpt>
      <trkpt lat="49.32191" lon="1.27777">
        <ele>112</ele>
        <time>2017-04-18T17:33:29Z</time>
      </trkpt>
      <trkpt lat="49.32194" lon="1.2778">
        <ele>112</ele>
        <time>2017-04-18T17:33:44Z</time>
      </trkpt>
      <trkpt lat="49.32197" lon="1.27787">
        <ele>112</ele>
        <time>2017-04-18T17:33:44Z</time>
      </trkpt>
      <trkpt lat="49.322" lon="1.27789">
        <ele>112</ele>
        <time>2017-04-18T17:33:44Z</time>
      </trkpt>
      <trkpt lat="49.32202" lon="1.27791">
        <ele>112</ele>
        <time>2017-04-18T17:33:44Z</time>
      </trkpt>
      <trkpt lat="49.32204" lon="1.27791">
        <ele>112</ele>
        <time>2017-04-18T17:36:12Z</time>
      </trkpt>
      <trkpt lat="49.32204" lon="1.27791">
        <ele>112</ele>
        <time>2017-04-18T17:36:12Z</time>
      </trkpt>
      <trkpt lat="49.32204" lon="1.2779">
        <ele>112</ele>
        <time>2017-04-18T17:36:12Z</time>
      </trkpt>
      <trkpt lat="49.32206" lon="1.2779">
        <ele>112</ele>
        <time>2017-04-18T17:36:12Z</time>
      </trkpt>
      <trkpt lat="49.32213" lon="1.2779">
        <ele>111</ele>
        <time>2017-04-18T17:36:12Z</time>
      </trkpt>
      <trkpt lat="49.32218" lon="1.27787">
        <ele>111</ele>
        <time>2017-04-18T17:36:28Z</time>
      </trkpt>
      <trkpt lat="49.32223" lon="1.27787">
        <ele>111</ele>
        <time>2017-04-18T17:36:28Z</time>
      </trkpt>
      <trkpt lat="49.32227" lon="1.27785">
        <ele>111</ele>
        <time>2017-04-18T17:36:29Z</time>
      </trkpt>
      <trkpt lat="49.3223" lon="1.27782">
        <ele>111</ele>
        <time>2017-04-18T17:36:29Z</time>
      </trkpt>
      <trkpt lat="49.32234" lon="1.2778">
        <ele>111</ele>
        <time>2017-04-18T17:36:44Z</time>
      </trkpt>
      <trkpt lat="49.32237" lon="1.27779">
        <ele>111</ele>
        <time>2017-04-18T17:36:44Z</time>
      </trkpt>
      <trkpt lat="49.32241" lon="1.27779">
        <ele>111</ele>
        <time>2017-04-18T17:36:44Z</time>
      </trkpt>
      <trkpt lat="49.32245" lon="1.27778">
        <ele>111</ele>
        <time>2017-04-18T17:36:44Z</time>
      </trkpt>
      <trkpt lat="49.32248" lon="1.27778">
        <ele>111</ele>
        <time>2017-04-18T17:37:00Z</time>
      </trkpt>
      <trkpt lat="49.32252" lon="1.27777">
        <ele>111</ele>
        <time>2017-04-18T17:37:00Z</time>
      </trkpt>
      <trkpt lat="49.32256" lon="1.27776">
        <ele>111</ele>
        <time>2017-04-18T17:37:00Z</time>
      </trkpt>
      <trkpt lat="49.32259" lon="1.27779">
        <ele>111</ele>
        <time>2017-04-18T17:37:00Z</time>
      </trkpt>
      <trkpt lat="49.32264" lon="1.27782">
        <ele>111</ele>
        <time>2017-04-18T17:37:16Z</time>
      </trkpt>
      <trkpt lat="49.32268" lon="1.27783">
        <ele>111</ele>
        <time>2017-04-18T17:37:16Z</time>
      </trkpt>
      <trkpt lat="49.32272" lon="1.27787">
        <ele>111</ele>
        <time>2017-04-18T17:37:16Z</time>
      </trkpt>
      <trkpt lat="49.32274" lon="1.27788">
        <ele>111</ele>
        <time>2017-04-18T17:37:16Z</time>
      </trkpt>
      <trkpt lat="49.32278" lon="1.2779">
        <ele>111</ele>
        <time>2017-04-18T17:37:32Z</time>
      </trkpt>
      <trkpt lat="49.32282" lon="1.2779">
        <ele>111</ele>
        <time>2017-04-18T17:37:32Z</time>
      </trkpt>
      <trkpt lat="49.32288" lon="1.27792">
        <ele>108</ele>
        <time>2017-04-18T17:37:32Z</time>
      </trkpt>
      <trkpt lat="49.32294" lon="1.27793">
        <ele>107</ele>
        <time>2017-04-18T17:37:32Z</time>
      </trkpt>
      <trkpt lat="49.32298" lon="1.27792">
        <ele>107</ele>
        <time>2017-04-18T17:37:48Z</time>
      </trkpt>
      <trkpt lat="49.32302" lon="1.27791">
        <ele>109</ele>
        <time>2017-04-18T17:37:48Z</time>
      </trkpt>
      <trkpt lat="49.32307" lon="1.27793">
        <ele>107</ele>
        <time>2017-04-18T17:37:48Z</time>
      </trkpt>
      <trkpt lat="49.32311" lon="1.27794">
        <ele>107</ele>
        <time>2017-04-18T17:37:48Z</time>
      </trkpt>
      <trkpt lat="49.32316" lon="1.27796">
        <ele>107</ele>
        <time>2017-04-18T17:38:05Z</time>
      </trkpt>
      <trkpt lat="49.32322" lon="1.27798">
        <ele>107</ele>
        <time>2017-04-18T17:38:05Z</time>
      </trkpt>
      <trkpt lat="49.32327" lon="1.27802">
        <ele>107</ele>
        <time>2017-04-18T17:38:05Z</time>
      </trkpt>
      <trkpt lat="49.32331" lon="1.27806">
        <ele>107</ele>
        <time>2017-04-18T17:38:05Z</time>
      </trkpt>
      <trkpt lat="49.32336" lon="1.27808">
        <ele>107</ele>
        <time>2017-04-18T17:38:20Z</time>
      </trkpt>
      <trkpt lat="49.32343" lon="1.2781">
        <ele>107</ele>
        <time>2017-04-18T17:38:20Z</time>
      </trkpt>
      <trkpt lat="49.32348" lon="1.27811">
        <ele>107</ele>
        <time>2017-04-18T17:38:20Z</time>
      </trkpt>
      <trkpt lat="49.32352" lon="1.27812">
        <ele>107</ele>
        <time>2017-04-18T17:38:20Z</time>
      </trkpt>
      <trkpt lat="49.32356" lon="1.27812">
        <ele>107</ele>
        <time>2017-04-18T17:38:36Z</time>
      </trkpt>
      <trkpt lat="49.3236" lon="1.27811">
        <ele>107</ele>
        <time>2017-04-18T17:38:36Z</time>
      </trkpt>
      <trkpt lat="49.32363" lon="1.27811">
        <ele>107</ele>
        <time>2017-04-18T17:38:36Z</time>
      </trkpt>
      <trkpt lat="49.32367" lon="1.27811">
        <ele>107</ele>
        <time>2017-04-18T17:38:36Z</time>
      </trkpt>
      <trkpt lat="49.32371" lon="1.27813">
        <ele>107</ele>
        <time>2017-04-18T17:38:52Z</time>
      </trkpt>
      <trkpt lat="49.32375" lon="1.27813">
        <ele>107</ele>
        <time>2017-04-18T17:38:53Z</time>
      </trkpt>
      <trkpt lat="49.3238" lon="1.27813">
        <ele>105</ele>
        <time>2017-04-18T17:38:53Z</time>
      </trkpt>
      <trkpt lat="49.32387" lon="1.27814">
        <ele>105</ele>
        <time>2017-04-18T17:38:53Z</time>
      </trkpt>
      <trkpt lat="49.3239" lon="1.27813">
        <ele>105</ele>
        <time>2017-04-18T17:39:08Z</time>
      </trkpt>
      <trkpt lat="49.32395" lon="1.27811">
        <ele>105</ele>
        <time>2017-04-18T17:39:08Z</time>
      </trkpt>
      <trkpt lat="49.32399" lon="1.27809">
        <ele>105</ele>
        <time>2017-04-18T17:39:08Z</time>
      </trkpt>
      <trkpt lat="49.32405" lon="1.2781">
        <ele>105</ele>
        <time>2017-04-18T17:39:08Z</time>
      </trkpt>
      <trkpt lat="49.3241" lon="1.27812">
        <ele>105</ele>
        <time>2017-04-18T17:39:24Z</time>
      </trkpt>
      <trkpt lat="49.32415" lon="1.27813">
        <ele>105</ele>
        <time>2017-04-18T17:39:24Z</time>
      </trkpt>
      <trkpt lat="49.3242" lon="1.27814">
        <ele>105</ele>
        <time>2017-04-18T17:39:24Z</time>
      </trkpt>
      <trkpt lat="49.32424" lon="1.27814">
        <ele>105</ele>
        <time>2017-04-18T17:39:24Z</time>
      </trkpt>
      <trkpt lat="49.32428" lon="1.27813">
        <ele>105</ele>
        <time>2017-04-18T17:39:40Z</time>
      </trkpt>
      <trkpt lat="49.3243" lon="1.27811">
        <ele>105</ele>
        <time>2017-04-18T17:39:40Z</time>
      </trkpt>
      <trkpt lat="49.32436" lon="1.27813">
        <ele>105</ele>
        <time>2017-04-18T17:39:40Z</time>
      </trkpt>
      <trkpt lat="49.3244" lon="1.27817">
        <ele>105</ele>
        <time>2017-04-18T17:39:40Z</time>
      </trkpt>
      <trkpt lat="49.32444" lon="1.27817">
        <ele>105</ele>
        <time>2017-04-18T17:39:56Z</time>
      </trkpt>
      <trkpt lat="49.32448" lon="1.27817">
        <ele>105</ele>
        <time>2017-04-18T17:39:56Z</time>
      </trkpt>
      <trkpt lat="49.32452" lon="1.27816">
        <ele>105</ele>
        <time>2017-04-18T17:39:56Z</time>
      </trkpt>
      <trkpt lat="49.32456" lon="1.27817">
        <ele>105</ele>
        <time>2017-04-18T17:39:57Z</time>
      </trkpt>
      <trkpt lat="49.32468" lon="1.2782">
        <ele>109</ele>
        <time>2017-04-18T17:40:21Z</time>
      </trkpt>
      <trkpt lat="49.32469" lon="1.27826">
        <ele>109</ele>
        <time>2017-04-18T17:40:21Z</time>
      </trkpt>
      <trkpt lat="49.32469" lon="1.27826">
        <ele>109</ele>
        <time>2017-04-18T17:40:21Z</time>
      </trkpt>
      <trkpt lat="49.32468" lon="1.27828">
        <ele>109</ele>
        <time>2017-04-18T17:40:21Z</time>
      </trkpt>
      <trkpt lat="49.32469" lon="1.2783">
        <ele>109</ele>
        <time>2017-04-18T17:40:21Z</time>
      </trkpt>
      <trkpt lat="49.32478" lon="1.27831">
        <ele>109</ele>
        <time>2017-04-18T17:43:08Z</time>
      </trkpt>
      <trkpt lat="49.32518" lon="1.27828">
        <ele>109</ele>
        <time>2017-04-18T17:43:08Z</time>
      </trkpt>
      <trkpt lat="49.32523" lon="1.2783">
        <ele>109</ele>
        <time>2017-04-18T17:43:08Z</time>
      </trkpt>
      <trkpt lat="49.32565" lon="1.27857">
        <ele>106</ele>
        <time>2017-04-18T17:43:08Z</time>
      </trkpt>
      <trkpt lat="49.32574" lon="1.27856">
        <ele>106</ele>
        <time>2017-04-18T17:43:08Z</time>
      </trkpt>
      <trkpt lat="49.32582" lon="1.27857">
        <ele>106</ele>
        <time>2017-04-18T17:43:24Z</time>
      </trkpt>
      <trkpt lat="49.32589" lon="1.27859">
        <ele>106</ele>
        <time>2017-04-18T17:43:24Z</time>
      </trkpt>
      <trkpt lat="49.32593" lon="1.27862">
        <ele>106</ele>
        <time>2017-04-18T17:43:24Z</time>
      </trkpt>
      <trkpt lat="49.32596" lon="1.27871">
        <ele>106</ele>
        <time>2017-04-18T17:43:24Z</time>
      </trkpt>
      <trkpt lat="49.32599" lon="1.27879">
        <ele>102</ele>
        <time>2017-04-18T17:43:40Z</time>
      </trkpt>
      <trkpt lat="49.32602" lon="1.27885">
        <ele>102</ele>
        <time>2017-04-18T17:43:40Z</time>
      </trkpt>
      <trkpt lat="49.32607" lon="1.27887">
        <ele>102</ele>
        <time>2017-04-18T17:43:40Z</time>
      </trkpt>
      <trkpt lat="49.32611" lon="1.27891">
        <ele>102</ele>
        <time>2017-04-18T17:43:40Z</time>
      </trkpt>
      <trkpt lat="49.32615" lon="1.27892">
        <ele>102</ele>
        <time>2017-04-18T17:43:56Z</time>
      </trkpt>
      <trkpt lat="49.3262" lon="1.27895">
        <ele>102</ele>
        <time>2017-04-18T17:43:56Z</time>
      </trkpt>
      <trkpt lat="49.32624" lon="1.27896">
        <ele>102</ele>
        <time>2017-04-18T17:43:56Z</time>
      </trkpt>
      <trkpt lat="49.32628" lon="1.27897">
        <ele>88</ele>
        <time>2017-04-18T17:43:56Z</time>
      </trkpt>
      <trkpt lat="49.32633" lon="1.27898">
        <ele>88</ele>
        <time>2017-04-18T17:44:12Z</time>
      </trkpt>
      <trkpt lat="49.32638" lon="1.27899">
        <ele>88</ele>
        <time>2017-04-18T17:44:12Z</time>
      </trkpt>
      <trkpt lat="49.32643" lon="1.27897">
        <ele>88</ele>
        <time>2017-04-18T17:44:12Z</time>
      </trkpt>
      <trkpt lat="49.32647" lon="1.27893">
        <ele>88</ele>
        <time>2017-04-18T17:44:12Z</time>
      </trkpt>
      <trkpt lat="49.32652" lon="1.27891">
        <ele>88</ele>
        <time>2017-04-18T17:44:48Z</time>
      </trkpt>
      <trkpt lat="49.32655" lon="1.27891">
        <ele>88</ele>
        <time>2017-04-18T17:44:48Z</time>
      </trkpt>
      <trkpt lat="49.3266" lon="1.27893">
        <ele>88</ele>
        <time>2017-04-18T17:44:48Z</time>
      </trkpt>
      <trkpt lat="49.32668" lon="1.27893">
        <ele>88</ele>
        <time>2017-04-18T17:44:48Z</time>
      </trkpt>
      <trkpt lat="49.32674" lon="1.27896">
        <ele>88</ele>
        <time>2017-04-18T17:44:48Z</time>
      </trkpt>
      <trkpt lat="49.32681" lon="1.27902">
        <ele>88</ele>
        <time>2017-04-18T17:45:04Z</time>
      </trkpt>
      <trkpt lat="49.32684" lon="1.27902">
        <ele>88</ele>
        <time>2017-04-18T17:45:04Z</time>
      </trkpt>
      <trkpt lat="49.32689" lon="1.27903">
        <ele>88</ele>
        <time>2017-04-18T17:45:04Z</time>
      </trkpt>
      <trkpt lat="49.32695" lon="1.27903">
        <ele>88</ele>
        <time>2017-04-18T17:45:04Z</time>
      </trkpt>
      <trkpt lat="49.32696" lon="1.27903">
        <ele>88</ele>
        <time>2017-04-18T17:45:20Z</time>
      </trkpt>
      <trkpt lat="49.32693" lon="1.27905">
        <ele>88</ele>
        <time>2017-04-18T17:45:20Z</time>
      </trkpt>
      <trkpt lat="49.32691" lon="1.27914">
        <ele>88</ele>
        <time>2017-04-18T17:45:20Z</time>
      </trkpt>
      <trkpt lat="49.32689" lon="1.27918">
        <ele>88</ele>
        <time>2017-04-18T17:45:20Z</time>
      </trkpt>
      <trkpt lat="49.32695" lon="1.27916">
        <ele>88</ele>
        <time>2017-04-18T17:45:36Z</time>
      </trkpt>
      <trkpt lat="49.327" lon="1.27914">
        <ele>88</ele>
        <time>2017-04-18T17:45:36Z</time>
      </trkpt>
      <trkpt lat="49.32712" lon="1.27919">
        <ele>72</ele>
        <time>2017-04-18T17:45:36Z</time>
      </trkpt>
      <trkpt lat="49.32721" lon="1.27922">
        <ele>72</ele>
        <time>2017-04-18T17:45:36Z</time>
      </trkpt>
      <trkpt lat="49.32738" lon="1.27934">
        <ele>72</ele>
        <time>2017-04-18T17:46:28Z</time>
      </trkpt>
      <trkpt lat="49.32739" lon="1.27931">
        <ele>72</ele>
        <time>2017-04-18T17:46:28Z</time>
      </trkpt>
      <trkpt lat="49.32741" lon="1.27933">
        <ele>72</ele>
        <time>2017-04-18T17:46:28Z</time>
      </trkpt>
      <trkpt lat="49.32745" lon="1.27931">
        <ele>72</ele>
        <time>2017-04-18T17:46:28Z</time>
      </trkpt>
      <trkpt lat="49.32752" lon="1.27923">
        <ele>72</ele>
        <time>2017-04-18T17:46:28Z</time>
      </trkpt>
      <trkpt lat="49.32759" lon="1.27918">
        <ele>72</ele>
        <time>2017-04-18T17:46:44Z</time>
      </trkpt>
      <trkpt lat="49.32764" lon="1.27913">
        <ele>72</ele>
        <time>2017-04-18T17:46:44Z</time>
      </trkpt>
      <trkpt lat="49.32771" lon="1.27912">
        <ele>72</ele>
        <time>2017-04-18T17:46:44Z</time>
      </trkpt>
      <trkpt lat="49.32779" lon="1.27915">
        <ele>72</ele>
        <time>2017-04-18T17:46:44Z</time>
      </trkpt>
      <trkpt lat="49.32787" lon="1.27916">
        <ele>72</ele>
        <time>2017-04-18T17:47:00Z</time>
      </trkpt>
      <trkpt lat="49.32794" lon="1.27918">
        <ele>60</ele>
        <time>2017-04-18T17:47:00Z</time>
      </trkpt>
      <trkpt lat="49.32796" lon="1.27921">
        <ele>60</ele>
        <time>2017-04-18T17:47:00Z</time>
      </trkpt>
      <trkpt lat="49.32799" lon="1.2793">
        <ele>60</ele>
        <time>2017-04-18T17:47:00Z</time>
      </trkpt>
      <trkpt lat="49.32806" lon="1.27933">
        <ele>60</ele>
        <time>2017-04-18T17:47:16Z</time>
      </trkpt>
      <trkpt lat="49.32812" lon="1.27935">
        <ele>60</ele>
        <time>2017-04-18T17:47:16Z</time>
      </trkpt>
      <trkpt lat="49.32821" lon="1.27938">
        <ele>60</ele>
        <time>2017-04-18T17:47:16Z</time>
      </trkpt>
      <trkpt lat="49.32827" lon="1.27939">
        <ele>60</ele>
        <time>2017-04-18T17:47:16Z</time>
      </trkpt>
      <trkpt lat="49.32832" lon="1.2794">
        <ele>60</ele>
        <time>2017-04-18T17:47:32Z</time>
      </trkpt>
      <trkpt lat="49.32837" lon="1.27943">
        <ele>60</ele>
        <time>2017-04-18T17:47:32Z</time>
      </trkpt>
      <trkpt lat="49.32843" lon="1.27952">
        <ele>60</ele>
        <time>2017-04-18T17:47:32Z</time>
      </trkpt>
      <trkpt lat="49.3285" lon="1.27964">
        <ele>58</ele>
        <time>2017-04-18T17:47:32Z</time>
      </trkpt>
      <trkpt lat="49.32853" lon="1.27974">
        <ele>58</ele>
        <time>2017-04-18T17:47:48Z</time>
      </trkpt>
      <trkpt lat="49.32856" lon="1.27978">
        <ele>58</ele>
        <time>2017-04-18T17:47:48Z</time>
      </trkpt>
      <trkpt lat="49.32857" lon="1.27988">
        <ele>58</ele>
        <time>2017-04-18T17:47:48Z</time>
      </trkpt>
      <trkpt lat="49.32861" lon="1.27997">
        <ele>58</ele>
        <time>2017-04-18T17:47:48Z</time>
      </trkpt>
      <trkpt lat="49.32866" lon="1.28004">
        <ele>58</ele>
        <time>2017-04-18T17:48:04Z</time>
      </trkpt>
      <trkpt lat="49.32868" lon="1.28007">
        <ele>58</ele>
        <time>2017-04-18T17:48:04Z</time>
      </trkpt>
      <trkpt lat="49.32871" lon="1.2801">
        <ele>58</ele>
        <time>2017-04-18T17:48:04Z</time>
      </trkpt>
      <trkpt lat="49.32875" lon="1.28012">
        <ele>43</ele>
        <time>2017-04-18T17:48:04Z</time>
      </trkpt>
      <trkpt lat="49.3288" lon="1.28015">
        <ele>43</ele>
        <time>2017-04-18T17:48:20Z</time>
      </trkpt>
      <trkpt lat="49.32881" lon="1.28017">
        <ele>43</ele>
        <time>2017-04-18T17:48:20Z</time>
      </trkpt>
      <trkpt lat="49.32883" lon="1.28023">
        <ele>43</ele>
        <time>2017-04-18T17:48:20Z</time>
      </trkpt>
      <trkpt lat="49.32886" lon="1.28031">
        <ele>43</ele>
        <time>2017-04-18T17:48:20Z</time>
      </trkpt>
      <trkpt lat="49.32888" lon="1.28039">
        <ele>43</ele>
        <time>2017-04-18T17:48:36Z</time>
      </trkpt>
      <trkpt lat="49.3289" lon="1.28046">
        <ele>46</ele>
        <time>2017-04-18T17:48:36Z</time>
      </trkpt>
      <trkpt lat="49.32888" lon="1.28052">
        <ele>46</ele>
        <time>2017-04-18T17:48:36Z</time>
      </trkpt>
      <trkpt lat="49.32888" lon="1.28053">
        <ele>46</ele>
        <time>2017-04-18T17:48:36Z</time>
      </trkpt>
      <trkpt lat="49.32891" lon="1.28058">
        <ele>46</ele>
        <time>2017-04-18T17:49:08Z</time>
      </trkpt>
      <trkpt lat="49.32898" lon="1.2806">
        <ele>46</ele>
        <time>2017-04-18T17:49:08Z</time>
      </trkpt>
      <trkpt lat="49.32907" lon="1.28065">
        <ele>46</ele>
        <time>2017-04-18T17:49:08Z</time>
      </trkpt>
      <trkpt lat="49.32913" lon="1.28066">
        <ele>46</ele>
        <time>2017-04-18T17:49:08Z</time>
      </trkpt>
      <trkpt lat="49.32918" lon="1.28066">
        <ele>46</ele>
        <time>2017-04-18T17:49:08Z</time>
      </trkpt>
      <trkpt lat="49.32921" lon="1.28073">
        <ele>46</ele>
        <time>2017-04-18T17:49:24Z</time>
      </trkpt>
      <trkpt lat="49.32925" lon="1.28077">
        <ele>46</ele>
        <time>2017-04-18T17:49:24Z</time>
      </trkpt>
      <trkpt lat="49.32929" lon="1.2808">
        <ele>46</ele>
        <time>2017-04-18T17:49:24Z</time>
      </trkpt>
      <trkpt lat="49.32933" lon="1.28083">
        <ele>46</ele>
        <time>2017-04-18T17:49:24Z</time>
      </trkpt>
      <trkpt lat="49.32938" lon="1.28081">
        <ele>46</ele>
        <time>2017-04-18T17:49:40Z</time>
      </trkpt>
      <trkpt lat="49.32941" lon="1.2808">
        <ele>46</ele>
        <time>2017-04-18T17:49:40Z</time>
      </trkpt>
      <trkpt lat="49.32946" lon="1.28083">
        <ele>46</ele>
        <time>2017-04-18T17:49:40Z</time>
      </trkpt>
      <trkpt lat="49.32948" lon="1.28084">
        <ele>46</ele>
        <time>2017-04-18T17:49:40Z</time>
      </trkpt>
      <trkpt lat="49.3295" lon="1.28087">
        <ele>46</ele>
        <time>2017-04-18T17:49:56Z</time>
      </trkpt>
      <trkpt lat="49.32954" lon="1.28086">
        <ele>46</ele>
        <time>2017-04-18T17:49:56Z</time>
      </trkpt>
      <trkpt lat="49.32958" lon="1.28086">
        <ele>46</ele>
        <time>2017-04-18T17:49:56Z</time>
      </trkpt>
      <trkpt lat="49.3296" lon="1.28093">
        <ele>36</ele>
        <time>2017-04-18T17:49:56Z</time>
      </trkpt>
      <trkpt lat="49.32965" lon="1.28108">
        <ele>36</ele>
        <time>2017-04-18T17:50:16Z</time>
      </trkpt>
      <trkpt lat="49.32966" lon="1.28112">
        <ele>36</ele>
        <time>2017-04-18T17:50:16Z</time>
      </trkpt>
      <trkpt lat="49.32968" lon="1.28114">
        <ele>36</ele>
        <time>2017-04-18T17:50:16Z</time>
      </trkpt>
      <trkpt lat="49.32972" lon="1.28117">
        <ele>36</ele>
        <time>2017-04-18T17:50:16Z</time>
      </trkpt>
      <trkpt lat="49.32974" lon="1.28118">
        <ele>36</ele>
        <time>2017-04-18T17:50:16Z</time>
      </trkpt>
      <trkpt lat="49.32979" lon="1.28118">
        <ele>36</ele>
        <time>2017-04-18T17:50:48Z</time>
      </trkpt>
      <trkpt lat="49.32979" lon="1.28113">
        <ele>36</ele>
        <time>2017-04-18T17:50:48Z</time>
      </trkpt>
      <trkpt lat="49.32978" lon="1.28107">
        <ele>36</ele>
        <time>2017-04-18T17:50:48Z</time>
      </trkpt>
      <trkpt lat="49.32979" lon="1.281">
        <ele>36</ele>
        <time>2017-04-18T17:50:48Z</time>
      </trkpt>
      <trkpt lat="49.3298" lon="1.28095">
        <ele>36</ele>
        <time>2017-04-18T17:50:48Z</time>
      </trkpt>
      <trkpt lat="49.32979" lon="1.2809">
        <ele>36</ele>
        <time>2017-04-18T17:51:04Z</time>
      </trkpt>
      <trkpt lat="49.32979" lon="1.28082">
        <ele>36</ele>
        <time>2017-04-18T17:51:04Z</time>
      </trkpt>
      <trkpt lat="49.32981" lon="1.28076">
        <ele>36</ele>
        <time>2017-04-18T17:51:04Z</time>
      </trkpt>
      <trkpt lat="49.3298" lon="1.28071">
        <ele>36</ele>
        <time>2017-04-18T17:51:04Z</time>
      </trkpt>
      <trkpt lat="49.3298" lon="1.28067">
        <ele>36</ele>
        <time>2017-04-18T17:51:20Z</time>
      </trkpt>
      <trkpt lat="49.32981" lon="1.28074">
        <ele>36</ele>
        <time>2017-04-18T17:51:20Z</time>
      </trkpt>
      <trkpt lat="49.32985" lon="1.28073">
        <ele>36</ele>
        <time>2017-04-18T17:51:20Z</time>
      </trkpt>
      <trkpt lat="49.32989" lon="1.28074">
        <ele>36</ele>
        <time>2017-04-18T17:51:20Z</time>
      </trkpt>
      <trkpt lat="49.3299" lon="1.28071">
        <ele>36</ele>
        <time>2017-04-18T17:51:36Z</time>
      </trkpt>
      <trkpt lat="49.32997" lon="1.28067">
        <ele>36</ele>
        <time>2017-04-18T17:51:36Z</time>
      </trkpt>
      <trkpt lat="49.33003" lon="1.28067">
        <ele>36</ele>
        <time>2017-04-18T17:51:36Z</time>
      </trkpt>
      <trkpt lat="49.33007" lon="1.28068">
        <ele>36</ele>
        <time>2017-04-18T17:51:36Z</time>
      </trkpt>
      <trkpt lat="49.3301" lon="1.28063">
        <ele>36</ele>
        <time>2017-04-18T17:52:52Z</time>
      </trkpt>
      <trkpt lat="49.3301" lon="1.28063">
        <ele>36</ele>
        <time>2017-04-18T17:52:52Z</time>
      </trkpt>
      <trkpt lat="49.3301" lon="1.28063">
        <ele>36</ele>
        <time>2017-04-18T17:52:52Z</time>
      </trkpt>
      <trkpt lat="49.33011" lon="1.28057">
        <ele>36</ele>
        <time>2017-04-18T17:52:52Z</time>
      </trkpt>
      <trkpt lat="49.33009" lon="1.2805">
        <ele>36</ele>
        <time>2017-04-18T17:52:52Z</time>
      </trkpt>
      <trkpt lat="49.33015" lon="1.28048">
        <ele>36</ele>
        <time>2017-04-18T17:53:08Z</time>
      </trkpt>
      <trkpt lat="49.33016" lon="1.28044">
        <ele>36</ele>
        <time>2017-04-18T17:53:08Z</time>
      </trkpt>
      <trkpt lat="49.33016" lon="1.28037">
        <ele>27</ele>
        <time>2017-04-18T17:53:08Z</time>
      </trkpt>
      <trkpt lat="49.33016" lon="1.2803">
        <ele>27</ele>
        <time>2017-04-18T17:53:08Z</time>
      </trkpt>
      <trkpt lat="49.33015" lon="1.28022">
        <ele>27</ele>
        <time>2017-04-18T17:53:24Z</time>
      </trkpt>
      <trkpt lat="49.33015" lon="1.28017">
        <ele>27</ele>
        <time>2017-04-18T17:53:24Z</time>
      </trkpt>
      <trkpt lat="49.33016" lon="1.28011">
        <ele>27</ele>
        <time>2017-04-18T17:53:24Z</time>
      </trkpt>
      <trkpt lat="49.33019" lon="1.28003">
        <ele>27</ele>
        <time>2017-04-18T17:53:24Z</time>
      </trkpt>
      <trkpt lat="49.33019" lon="1.28002">
        <ele>27</ele>
        <time>2017-04-18T17:53:40Z</time>
      </trkpt>
      <trkpt lat="49.33022" lon="1.27999">
        <ele>27</ele>
        <time>2017-04-18T17:53:40Z</time>
      </trkpt>
      <trkpt lat="49.33025" lon="1.27998">
        <ele>27</ele>
        <time>2017-04-18T17:53:40Z</time>
      </trkpt>
      <trkpt lat="49.33028" lon="1.27996">
        <ele>27</ele>
        <time>2017-04-18T17:53:40Z</time>
      </trkpt>
      <trkpt lat="49.33032" lon="1.27992">
        <ele>27</ele>
        <time>2017-04-18T17:53:56Z</time>
      </trkpt>
      <trkpt lat="49.33039" lon="1.27998">
        <ele>27</ele>
        <time>2017-04-18T17:53:56Z</time>
      </trkpt>
      <trkpt lat="49.33045" lon="1.28003">
        <ele>18</ele>
        <time>2017-04-18T17:53:56Z</time>
      </trkpt>
      <trkpt lat="49.33052" lon="1.28006">
        <ele>18</ele>
        <time>2017-04-18T17:53:56Z</time>
      </trkpt>
      <trkpt lat="49.33058" lon="1.2801">
        <ele>18</ele>
        <time>2017-04-18T17:54:12Z</time>
      </trkpt>
      <trkpt lat="49.33063" lon="1.28015">
        <ele>18</ele>
        <time>2017-04-18T17:54:12Z</time>
      </trkpt>
      <trkpt lat="49.33067" lon="1.28018">
        <ele>18</ele>
        <time>2017-04-18T17:54:12Z</time>
      </trkpt>
      <trkpt lat="49.33071" lon="1.28021">
        <ele>18</ele>
        <time>2017-04-18T17:54:12Z</time>
      </trkpt>
      <trkpt lat="49.33074" lon="1.28024">
        <ele>18</ele>
        <time>2017-04-18T17:54:28Z</time>
      </trkpt>
      <trkpt lat="49.33078" lon="1.28028">
        <ele>18</ele>
        <time>2017-04-18T17:54:28Z</time>
      </trkpt>
      <trkpt lat="49.33082" lon="1.2803">
        <ele>18</ele>
        <time>2017-04-18T17:54:28Z</time>
      </trkpt>
      <trkpt lat="49.33086" lon="1.28032">
        <ele>18</ele>
        <time>2017-04-18T17:54:28Z</time>
      </trkpt>
      <trkpt lat="49.33094" lon="1.28038">
        <ele>18</ele>
        <time>2017-04-18T17:54:44Z</time>
      </trkpt>
      <trkpt lat="49.33099" lon="1.2804">
        <ele>18</ele>
        <time>2017-04-18T17:54:44Z</time>
      </trkpt>
      <trkpt lat="49.33104" lon="1.2804">
        <ele>18</ele>
        <time>2017-04-18T17:54:44Z</time>
      </trkpt>
      <trkpt lat="49.33107" lon="1.28036">
        <ele>18</ele>
        <time>2017-04-18T17:54:44Z</time>
      </trkpt>
      <trkpt lat="49.3311" lon="1.28033">
        <ele>18</ele>
        <time>2017-04-18T17:55:00Z</time>
      </trkpt>
      <trkpt lat="49.33113" lon="1.28027">
        <ele>18</ele>
        <time>2017-04-18T17:55:00Z</time>
      </trkpt>
      <trkpt lat="49.33116" lon="1.28023">
        <ele>18</ele>
        <time>2017-04-18T17:55:00Z</time>
      </trkpt>
      <trkpt lat="49.33119" lon="1.28019">
        <ele>18</ele>
        <time>2017-04-18T17:55:00Z</time>
      </trkpt>
      <trkpt lat="49.33122" lon="1.28017">
        <ele>18</ele>
        <time>2017-04-18T17:55:16Z</time>
      </trkpt>
      <trkpt lat="49.33124" lon="1.28014">
        <ele>18</ele>
        <time>2017-04-18T17:55:16Z</time>
      </trkpt>
      <trkpt lat="49.33128" lon="1.28018">
        <ele>16</ele>
        <time>2017-04-18T17:55:16Z</time>
      </trkpt>
      <trkpt lat="49.33132" lon="1.28021">
        <ele>16</ele>
        <time>2017-04-18T17:55:16Z</time>
      </trkpt>
      <trkpt lat="49.33136" lon="1.28019">
        <ele>16</ele>
        <time>2017-04-18T17:55:32Z</time>
      </trkpt>
      <trkpt lat="49.3314" lon="1.28014">
        <ele>16</ele>
        <time>2017-04-18T17:55:32Z</time>
      </trkpt>
      <trkpt lat="49.33142" lon="1.2801">
        <ele>16</ele>
        <time>2017-04-18T17:55:32Z</time>
      </trkpt>
      <trkpt lat="49.33145" lon="1.28004">
        <ele>16</ele>
        <time>2017-04-18T17:55:32Z</time>
      </trkpt>
      <trkpt lat="49.33148" lon="1.27999">
        <ele>16</ele>
        <time>2017-04-18T17:55:48Z</time>
      </trkpt>
      <trkpt lat="49.33151" lon="1.27994">
        <ele>16</ele>
        <time>2017-04-18T17:55:48Z</time>
      </trkpt>
      <trkpt lat="49.33154" lon="1.2799">
        <ele>16</ele>
        <time>2017-04-18T17:55:48Z</time>
      </trkpt>
      <trkpt lat="49.33156" lon="1.27986">
        <ele>16</ele>
        <time>2017-04-18T17:55:48Z</time>
      </trkpt>
      <trkpt lat="49.33158" lon="1.27983">
        <ele>16</ele>
        <time>2017-04-18T17:56:04Z</time>
      </trkpt>
      <trkpt lat="49.33159" lon="1.2798">
        <ele>16</ele>
        <time>2017-04-18T17:56:04Z</time>
      </trkpt>
      <trkpt lat="49.33162" lon="1.27978">
        <ele>16</ele>
        <time>2017-04-18T17:56:04Z</time>
      </trkpt>
      <trkpt lat="49.33166" lon="1.27974">
        <ele>16</ele>
        <time>2017-04-18T17:56:04Z</time>
      </trkpt>
      <trkpt lat="49.33169" lon="1.27969">
        <ele>16</ele>
        <time>2017-04-18T17:56:20Z</time>
      </trkpt>
      <trkpt lat="49.33173" lon="1.27965">
        <ele>16</ele>
        <time>2017-04-18T17:56:20Z</time>
      </trkpt>
      <trkpt lat="49.33176" lon="1.27961">
        <ele>16</ele>
        <time>2017-04-18T17:56:20Z</time>
      </trkpt>
      <trkpt lat="49.33179" lon="1.27957">
        <ele>15</ele>
        <time>2017-04-18T17:56:20Z</time>
      </trkpt>
      <trkpt lat="49.33182" lon="1.27953">
        <ele>15</ele>
        <time>2017-04-18T17:56:37Z</time>
      </trkpt>
      <trkpt lat="49.33186" lon="1.27948">
        <ele>15</ele>
        <time>2017-04-18T17:56:37Z</time>
      </trkpt>
      <trkpt lat="49.3319" lon="1.27944">
        <ele>15</ele>
        <time>2017-04-18T17:56:37Z</time>
      </trkpt>
      <trkpt lat="49.33195" lon="1.27944">
        <ele>15</ele>
        <time>2017-04-18T17:56:37Z</time>
      </trkpt>
      <trkpt lat="49.33201" lon="1.27954">
        <ele>15</ele>
        <time>2017-04-18T17:56:52Z</time>
      </trkpt>
      <trkpt lat="49.33203" lon="1.2796">
        <ele>16</ele>
        <time>2017-04-18T17:56:52Z</time>
      </trkpt>
      <trkpt lat="49.33207" lon="1.27971">
        <ele>16</ele>
        <time>2017-04-18T17:56:52Z</time>
      </trkpt>
      <trkpt lat="49.3321" lon="1.27978">
        <ele>16</ele>
        <time>2017-04-18T17:56:52Z</time>
      </trkpt>
      <trkpt lat="49.33213" lon="1.27985">
        <ele>16</ele>
        <time>2017-04-18T17:57:08Z</time>
      </trkpt>
      <trkpt lat="49.33215" lon="1.27991">
        <ele>16</ele>
        <time>2017-04-18T17:57:08Z</time>
      </trkpt>
      <trkpt lat="49.33218" lon="1.27995">
        <ele>16</ele>
        <time>2017-04-18T17:57:08Z</time>
      </trkpt>
      <trkpt lat="49.33221" lon="1.28">
        <ele>16</ele>
        <time>2017-04-18T17:57:08Z</time>
      </trkpt>
      <trkpt lat="49.33223" lon="1.28003">
        <ele>16</ele>
        <time>2017-04-18T17:57:24Z</time>
      </trkpt>
      <trkpt lat="49.33228" lon="1.28008">
        <ele>16</ele>
        <time>2017-04-18T17:57:24Z</time>
      </trkpt>
      <trkpt lat="49.3323" lon="1.28013">
        <ele>16</ele>
        <time>2017-04-18T17:57:24Z</time>
      </trkpt>
      <trkpt lat="49.33232" lon="1.28019">
        <ele>16</ele>
        <time>2017-04-18T17:57:24Z</time>
      </trkpt>
    </trkseg>
  </trk>
</gpx>